<?xml version="1.0" encoding="UTF-8" standalone="no" ?>
<gpx xmlns="http://www.topografix.com/GPX/1/1" xmlns:xsi="http://www.w3.org/2001/XMLSchema-instance" xsi:schemaLocation="http://www.topografix.com/GPX/1/1 http://www.topografix.com/GPX/1/1/gpx.xsd" version="1.1" creator="VisuGPX - https://www.visugpx.com">
  <metadata>
    <name>Pornichet 21/07/2022</name>
    <desc><![CDATA[Sortie jeudi 21 juillet 2022]]></desc>
  </metadata>
  <trk>
    <name><![CDATA[Pornichet Cyclisme]]></name>
    <trkseg>
      <trkpt lat="47.2636" lon="-2.31492">
        <ele>9</ele>
        <time>2022-07-21T06:49:02.000Z</time>
      </trkpt>
      <trkpt lat="47.26368" lon="-2.31502">
        <ele>9.2</ele>
        <time>2022-07-21T06:49:04.000Z</time>
      </trkpt>
      <trkpt lat="47.2638" lon="-2.3153">
        <ele>9.6</ele>
        <time>2022-07-21T06:49:06.000Z</time>
      </trkpt>
      <trkpt lat="47.26384" lon="-2.31542">
        <ele>9.3</ele>
        <time>2022-07-21T06:49:07.000Z</time>
      </trkpt>
      <trkpt lat="47.26396" lon="-2.31598">
        <ele>9.2</ele>
        <time>2022-07-21T06:49:15.000Z</time>
      </trkpt>
      <trkpt lat="47.264" lon="-2.31639">
        <ele>9</ele>
        <time>2022-07-21T06:49:22.000Z</time>
      </trkpt>
      <trkpt lat="47.26397" lon="-2.3165">
        <ele>8.6</ele>
        <time>2022-07-21T06:49:25.000Z</time>
      </trkpt>
      <trkpt lat="47.26383" lon="-2.31655">
        <ele>8.3</ele>
        <time>2022-07-21T06:49:30.000Z</time>
      </trkpt>
      <trkpt lat="47.26366" lon="-2.31665">
        <ele>-0.40000000596046</ele>
        <time>2022-07-21T06:49:34.000Z</time>
      </trkpt>
      <trkpt lat="47.26362" lon="-2.31668">
        <ele>-0.80000001192093</ele>
        <time>2022-07-21T06:49:35.000Z</time>
      </trkpt>
      <trkpt lat="47.26358" lon="-2.3167">
        <ele>-1.2000000476837</ele>
        <time>2022-07-21T06:49:36.000Z</time>
      </trkpt>
      <trkpt lat="47.26354" lon="-2.31673">
        <ele>-1.6000000238419</ele>
        <time>2022-07-21T06:49:37.000Z</time>
      </trkpt>
      <trkpt lat="47.2635" lon="-2.31676">
        <ele>-2</ele>
        <time>2022-07-21T06:49:38.000Z</time>
      </trkpt>
      <trkpt lat="47.26341" lon="-2.31682">
        <ele>-2</ele>
        <time>2022-07-21T06:49:40.000Z</time>
      </trkpt>
      <trkpt lat="47.26312" lon="-2.31699">
        <ele>-2.4000000953674</ele>
        <time>2022-07-21T06:49:47.000Z</time>
      </trkpt>
      <trkpt lat="47.26309" lon="-2.31701">
        <ele>-2.7999999523163</ele>
        <time>2022-07-21T06:49:48.000Z</time>
      </trkpt>
      <trkpt lat="47.26306" lon="-2.31704">
        <ele>-3.2000000476837</ele>
        <time>2022-07-21T06:49:49.000Z</time>
      </trkpt>
      <trkpt lat="47.26302" lon="-2.31705">
        <ele>-3.7999999523163</ele>
        <time>2022-07-21T06:49:50.000Z</time>
      </trkpt>
      <trkpt lat="47.26298" lon="-2.31712">
        <ele>-4.1999998092651</ele>
        <time>2022-07-21T06:49:51.000Z</time>
      </trkpt>
      <trkpt lat="47.26298" lon="-2.31712">
        <ele>-4.1999998092651</ele>
        <time>2022-07-21T06:49:52.000Z</time>
      </trkpt>
      <trkpt lat="47.26297" lon="-2.31717">
        <ele>-4.1999998092651</ele>
        <time>2022-07-21T06:49:54.000Z</time>
      </trkpt>
      <trkpt lat="47.26298" lon="-2.31719">
        <ele>-4.1999998092651</ele>
        <time>2022-07-21T06:49:56.000Z</time>
      </trkpt>
      <trkpt lat="47.26298" lon="-2.31719">
        <ele>-4.1999998092651</ele>
        <time>2022-07-21T06:49:57.000Z</time>
      </trkpt>
      <trkpt lat="47.26301" lon="-2.31759">
        <ele>-4.1999998092651</ele>
        <time>2022-07-21T06:51:52.000Z</time>
      </trkpt>
      <trkpt lat="47.26303" lon="-2.31769">
        <ele>-4.1999998092651</ele>
        <time>2022-07-21T06:51:55.000Z</time>
      </trkpt>
      <trkpt lat="47.26303" lon="-2.318">
        <ele>-4.1999998092651</ele>
        <time>2022-07-21T06:52:01.000Z</time>
      </trkpt>
      <trkpt lat="47.26299" lon="-2.31833">
        <ele>-4.1999998092651</ele>
        <time>2022-07-21T06:52:06.000Z</time>
      </trkpt>
      <trkpt lat="47.26299" lon="-2.3184">
        <ele>-4.1999998092651</ele>
        <time>2022-07-21T06:52:07.000Z</time>
      </trkpt>
      <trkpt lat="47.26295" lon="-2.31882">
        <ele>-4.5999999046326</ele>
        <time>2022-07-21T06:52:13.000Z</time>
      </trkpt>
      <trkpt lat="47.26291" lon="-2.31886">
        <ele>-5</ele>
        <time>2022-07-21T06:52:14.000Z</time>
      </trkpt>
      <trkpt lat="47.26287" lon="-2.3189">
        <ele>-5.4000000953674</ele>
        <time>2022-07-21T06:52:15.000Z</time>
      </trkpt>
      <trkpt lat="47.26283" lon="-2.31894">
        <ele>-5.8000001907349</ele>
        <time>2022-07-21T06:52:16.000Z</time>
      </trkpt>
      <trkpt lat="47.26279" lon="-2.31899">
        <ele>-6.1999998092651</ele>
        <time>2022-07-21T06:52:17.000Z</time>
      </trkpt>
      <trkpt lat="47.26276" lon="-2.31904">
        <ele>-6.1999998092651</ele>
        <time>2022-07-21T06:52:18.000Z</time>
      </trkpt>
      <trkpt lat="47.26274" lon="-2.31909">
        <ele>-6.1999998092651</ele>
        <time>2022-07-21T06:52:19.000Z</time>
      </trkpt>
      <trkpt lat="47.26269" lon="-2.31921">
        <ele>-6.1999998092651</ele>
        <time>2022-07-21T06:52:21.000Z</time>
      </trkpt>
      <trkpt lat="47.26262" lon="-2.31933">
        <ele>-6.1999998092651</ele>
        <time>2022-07-21T06:52:24.000Z</time>
      </trkpt>
      <trkpt lat="47.26245" lon="-2.31957">
        <ele>-6.1999998092651</ele>
        <time>2022-07-21T06:52:30.000Z</time>
      </trkpt>
      <trkpt lat="47.2623" lon="-2.31979">
        <ele>-6.1999998092651</ele>
        <time>2022-07-21T06:52:35.000Z</time>
      </trkpt>
      <trkpt lat="47.2621" lon="-2.31999">
        <ele>-6.1999998092651</ele>
        <time>2022-07-21T06:52:41.000Z</time>
      </trkpt>
      <trkpt lat="47.26209" lon="-2.32003">
        <ele>-6.1999998092651</ele>
        <time>2022-07-21T06:52:42.000Z</time>
      </trkpt>
      <trkpt lat="47.26207" lon="-2.32013">
        <ele>-6.1999998092651</ele>
        <time>2022-07-21T06:52:44.000Z</time>
      </trkpt>
      <trkpt lat="47.26203" lon="-2.32021">
        <ele>-6.1999998092651</ele>
        <time>2022-07-21T06:52:47.000Z</time>
      </trkpt>
      <trkpt lat="47.26201" lon="-2.32022">
        <ele>-6.1999998092651</ele>
        <time>2022-07-21T06:52:48.000Z</time>
      </trkpt>
      <trkpt lat="47.26198" lon="-2.32023">
        <ele>-6.1999998092651</ele>
        <time>2022-07-21T06:52:49.000Z</time>
      </trkpt>
      <trkpt lat="47.26188" lon="-2.32022">
        <ele>-6.1999998092651</ele>
        <time>2022-07-21T06:52:52.000Z</time>
      </trkpt>
      <trkpt lat="47.2617" lon="-2.32032">
        <ele>-6.1999998092651</ele>
        <time>2022-07-21T06:52:57.000Z</time>
      </trkpt>
      <trkpt lat="47.26161" lon="-2.32046">
        <ele>-6.1999998092651</ele>
        <time>2022-07-21T06:53:00.000Z</time>
      </trkpt>
      <trkpt lat="47.26159" lon="-2.32052">
        <ele>-6.1999998092651</ele>
        <time>2022-07-21T06:53:01.000Z</time>
      </trkpt>
      <trkpt lat="47.26154" lon="-2.32069">
        <ele>-6.1999998092651</ele>
        <time>2022-07-21T06:53:04.000Z</time>
      </trkpt>
      <trkpt lat="47.26148" lon="-2.32085">
        <ele>-6.1999998092651</ele>
        <time>2022-07-21T06:53:07.000Z</time>
      </trkpt>
      <trkpt lat="47.26134" lon="-2.32126">
        <ele>-6.1999998092651</ele>
        <time>2022-07-21T06:53:14.000Z</time>
      </trkpt>
      <trkpt lat="47.26121" lon="-2.32167">
        <ele>-6.1999998092651</ele>
        <time>2022-07-21T06:53:21.000Z</time>
      </trkpt>
      <trkpt lat="47.26116" lon="-2.32178">
        <ele>-6.1999998092651</ele>
        <time>2022-07-21T06:53:23.000Z</time>
      </trkpt>
      <trkpt lat="47.26106" lon="-2.32197">
        <ele>-6.1999998092651</ele>
        <time>2022-07-21T06:53:27.000Z</time>
      </trkpt>
      <trkpt lat="47.26091" lon="-2.32227">
        <ele>-6.1999998092651</ele>
        <time>2022-07-21T06:53:33.000Z</time>
      </trkpt>
      <trkpt lat="47.26064" lon="-2.32257">
        <ele>-6.1999998092651</ele>
        <time>2022-07-21T06:53:40.000Z</time>
      </trkpt>
      <trkpt lat="47.26032" lon="-2.32298">
        <ele>-6.1999998092651</ele>
        <time>2022-07-21T06:53:49.000Z</time>
      </trkpt>
      <trkpt lat="47.26028" lon="-2.32301">
        <ele>-6.1999998092651</ele>
        <time>2022-07-21T06:53:50.000Z</time>
      </trkpt>
      <trkpt lat="47.26007" lon="-2.32326">
        <ele>-6.1999998092651</ele>
        <time>2022-07-21T06:53:56.000Z</time>
      </trkpt>
      <trkpt lat="47.26" lon="-2.32335">
        <ele>-6.1999998092651</ele>
        <time>2022-07-21T06:53:58.000Z</time>
      </trkpt>
      <trkpt lat="47.25982" lon="-2.32357">
        <ele>-6.1999998092651</ele>
        <time>2022-07-21T06:54:03.000Z</time>
      </trkpt>
      <trkpt lat="47.25954" lon="-2.3239">
        <ele>-6.1999998092651</ele>
        <time>2022-07-21T06:54:11.000Z</time>
      </trkpt>
      <trkpt lat="47.2595" lon="-2.32394">
        <ele>-6.1999998092651</ele>
        <time>2022-07-21T06:54:12.000Z</time>
      </trkpt>
      <trkpt lat="47.25947" lon="-2.32398">
        <ele>-6.1999998092651</ele>
        <time>2022-07-21T06:54:13.000Z</time>
      </trkpt>
      <trkpt lat="47.25931" lon="-2.3242">
        <ele>-6.1999998092651</ele>
        <time>2022-07-21T06:54:18.000Z</time>
      </trkpt>
      <trkpt lat="47.25905" lon="-2.32452">
        <ele>-6.1999998092651</ele>
        <time>2022-07-21T06:54:26.000Z</time>
      </trkpt>
      <trkpt lat="47.259" lon="-2.32468">
        <ele>-6.1999998092651</ele>
        <time>2022-07-21T06:54:30.000Z</time>
      </trkpt>
      <trkpt lat="47.25906" lon="-2.32472">
        <ele>-6.1999998092651</ele>
        <time>2022-07-21T06:54:32.000Z</time>
      </trkpt>
      <trkpt lat="47.2592" lon="-2.32484">
        <ele>-6.1999998092651</ele>
        <time>2022-07-21T06:54:36.000Z</time>
      </trkpt>
      <trkpt lat="47.25925" lon="-2.32495">
        <ele>-6.1999998092651</ele>
        <time>2022-07-21T06:54:38.000Z</time>
      </trkpt>
      <trkpt lat="47.25929" lon="-2.32508">
        <ele>-6.1999998092651</ele>
        <time>2022-07-21T06:54:40.000Z</time>
      </trkpt>
      <trkpt lat="47.25935" lon="-2.32531">
        <ele>-6.1999998092651</ele>
        <time>2022-07-21T06:54:44.000Z</time>
      </trkpt>
      <trkpt lat="47.25938" lon="-2.32544">
        <ele>-6.1999998092651</ele>
        <time>2022-07-21T06:54:46.000Z</time>
      </trkpt>
      <trkpt lat="47.25944" lon="-2.32562">
        <ele>-6.1999998092651</ele>
        <time>2022-07-21T06:54:49.000Z</time>
      </trkpt>
      <trkpt lat="47.25951" lon="-2.32587">
        <ele>-6.1999998092651</ele>
        <time>2022-07-21T06:54:53.000Z</time>
      </trkpt>
      <trkpt lat="47.25961" lon="-2.3263">
        <ele>-6.1999998092651</ele>
        <time>2022-07-21T06:55:00.000Z</time>
      </trkpt>
      <trkpt lat="47.2596" lon="-2.32648">
        <ele>-6.1999998092651</ele>
        <time>2022-07-21T06:55:03.000Z</time>
      </trkpt>
      <trkpt lat="47.25962" lon="-2.32653">
        <ele>-6.1999998092651</ele>
        <time>2022-07-21T06:55:04.000Z</time>
      </trkpt>
      <trkpt lat="47.25971" lon="-2.32655">
        <ele>-6.1999998092651</ele>
        <time>2022-07-21T06:55:07.000Z</time>
      </trkpt>
      <trkpt lat="47.25975" lon="-2.32655">
        <ele>-6.1999998092651</ele>
        <time>2022-07-21T06:55:08.000Z</time>
      </trkpt>
      <trkpt lat="47.25991" lon="-2.32658">
        <ele>-6.1999998092651</ele>
        <time>2022-07-21T06:55:12.000Z</time>
      </trkpt>
      <trkpt lat="47.26024" lon="-2.32653">
        <ele>-6.1999998092651</ele>
        <time>2022-07-21T06:55:20.000Z</time>
      </trkpt>
      <trkpt lat="47.26062" lon="-2.32645">
        <ele>-6.1999998092651</ele>
        <time>2022-07-21T06:55:29.000Z</time>
      </trkpt>
      <trkpt lat="47.26096" lon="-2.32641">
        <ele>-6.1999998092651</ele>
        <time>2022-07-21T06:55:37.000Z</time>
      </trkpt>
      <trkpt lat="47.26135" lon="-2.32642">
        <ele>-6.1999998092651</ele>
        <time>2022-07-21T06:55:46.000Z</time>
      </trkpt>
      <trkpt lat="47.26166" lon="-2.32654">
        <ele>-6.1999998092651</ele>
        <time>2022-07-21T06:55:53.000Z</time>
      </trkpt>
      <trkpt lat="47.26171" lon="-2.32657">
        <ele>-6.1999998092651</ele>
        <time>2022-07-21T06:55:54.000Z</time>
      </trkpt>
      <trkpt lat="47.26195" lon="-2.32678">
        <ele>-6.1999998092651</ele>
        <time>2022-07-21T06:56:00.000Z</time>
      </trkpt>
      <trkpt lat="47.26223" lon="-2.32708">
        <ele>-6.1999998092651</ele>
        <time>2022-07-21T06:56:07.000Z</time>
      </trkpt>
      <trkpt lat="47.26252" lon="-2.32752">
        <ele>-6.1999998092651</ele>
        <time>2022-07-21T06:56:15.000Z</time>
      </trkpt>
      <trkpt lat="47.26273" lon="-2.32788">
        <ele>-6.1999998092651</ele>
        <time>2022-07-21T06:56:21.000Z</time>
      </trkpt>
      <trkpt lat="47.26275" lon="-2.32795">
        <ele>-6.1999998092651</ele>
        <time>2022-07-21T06:56:22.000Z</time>
      </trkpt>
      <trkpt lat="47.2628" lon="-2.32808">
        <ele>-6.1999998092651</ele>
        <time>2022-07-21T06:56:24.000Z</time>
      </trkpt>
      <trkpt lat="47.26284" lon="-2.32822">
        <ele>-6.1999998092651</ele>
        <time>2022-07-21T06:56:26.000Z</time>
      </trkpt>
      <trkpt lat="47.26289" lon="-2.3285">
        <ele>-6.1999998092651</ele>
        <time>2022-07-21T06:56:30.000Z</time>
      </trkpt>
      <trkpt lat="47.26292" lon="-2.32856">
        <ele>-6.1999998092651</ele>
        <time>2022-07-21T06:56:31.000Z</time>
      </trkpt>
      <trkpt lat="47.26301" lon="-2.32862">
        <ele>-6.5999999046326</ele>
        <time>2022-07-21T06:56:33.000Z</time>
      </trkpt>
      <trkpt lat="47.26306" lon="-2.32863">
        <ele>-7.1999998092651</ele>
        <time>2022-07-21T06:56:34.000Z</time>
      </trkpt>
      <trkpt lat="47.26311" lon="-2.32865">
        <ele>-7.5999999046326</ele>
        <time>2022-07-21T06:56:35.000Z</time>
      </trkpt>
      <trkpt lat="47.26315" lon="-2.32869">
        <ele>-8</ele>
        <time>2022-07-21T06:56:36.000Z</time>
      </trkpt>
      <trkpt lat="47.26318" lon="-2.32874">
        <ele>-8.3999996185303</ele>
        <time>2022-07-21T06:56:37.000Z</time>
      </trkpt>
      <trkpt lat="47.26324" lon="-2.32893">
        <ele>-8.3999996185303</ele>
        <time>2022-07-21T06:56:40.000Z</time>
      </trkpt>
      <trkpt lat="47.2633" lon="-2.32913">
        <ele>-8.3999996185303</ele>
        <time>2022-07-21T06:56:43.000Z</time>
      </trkpt>
      <trkpt lat="47.26334" lon="-2.32926">
        <ele>-8.3999996185303</ele>
        <time>2022-07-21T06:56:45.000Z</time>
      </trkpt>
      <trkpt lat="47.26343" lon="-2.32951">
        <ele>-8.3999996185303</ele>
        <time>2022-07-21T06:56:49.000Z</time>
      </trkpt>
      <trkpt lat="47.2635" lon="-2.32969">
        <ele>-8.3999996185303</ele>
        <time>2022-07-21T06:56:52.000Z</time>
      </trkpt>
      <trkpt lat="47.2636" lon="-2.32984">
        <ele>-8.3999996185303</ele>
        <time>2022-07-21T06:56:55.000Z</time>
      </trkpt>
      <trkpt lat="47.26366" lon="-2.33001">
        <ele>-8.3999996185303</ele>
        <time>2022-07-21T06:56:58.000Z</time>
      </trkpt>
      <trkpt lat="47.26367" lon="-2.3302">
        <ele>-8.3999996185303</ele>
        <time>2022-07-21T06:57:01.000Z</time>
      </trkpt>
      <trkpt lat="47.26367" lon="-2.3304">
        <ele>-8.3999996185303</ele>
        <time>2022-07-21T06:57:04.000Z</time>
      </trkpt>
      <trkpt lat="47.26369" lon="-2.33096">
        <ele>-8.3999996185303</ele>
        <time>2022-07-21T06:57:12.000Z</time>
      </trkpt>
      <trkpt lat="47.26371" lon="-2.33123">
        <ele>-8.3999996185303</ele>
        <time>2022-07-21T06:57:16.000Z</time>
      </trkpt>
      <trkpt lat="47.26374" lon="-2.33183">
        <ele>-8.3999996185303</ele>
        <time>2022-07-21T06:57:25.000Z</time>
      </trkpt>
      <trkpt lat="47.26378" lon="-2.33237">
        <ele>-8.3999996185303</ele>
        <time>2022-07-21T06:57:33.000Z</time>
      </trkpt>
      <trkpt lat="47.26389" lon="-2.33263">
        <ele>-8.3999996185303</ele>
        <time>2022-07-21T06:57:38.000Z</time>
      </trkpt>
      <trkpt lat="47.26403" lon="-2.33267">
        <ele>-8.3999996185303</ele>
        <time>2022-07-21T06:57:41.000Z</time>
      </trkpt>
      <trkpt lat="47.26408" lon="-2.33268">
        <ele>-8.3999996185303</ele>
        <time>2022-07-21T06:57:42.000Z</time>
      </trkpt>
      <trkpt lat="47.26453" lon="-2.33273">
        <ele>-8.3999996185303</ele>
        <time>2022-07-21T06:57:52.000Z</time>
      </trkpt>
      <trkpt lat="47.26483" lon="-2.33278">
        <ele>-8.3999996185303</ele>
        <time>2022-07-21T06:57:59.000Z</time>
      </trkpt>
      <trkpt lat="47.26496" lon="-2.3328">
        <ele>-8.3999996185303</ele>
        <time>2022-07-21T06:58:02.000Z</time>
      </trkpt>
      <trkpt lat="47.26508" lon="-2.33288">
        <ele>-8.3999996185303</ele>
        <time>2022-07-21T06:58:05.000Z</time>
      </trkpt>
      <trkpt lat="47.26512" lon="-2.33291">
        <ele>-8.3999996185303</ele>
        <time>2022-07-21T06:58:06.000Z</time>
      </trkpt>
      <trkpt lat="47.26524" lon="-2.33312">
        <ele>-8.3999996185303</ele>
        <time>2022-07-21T06:58:10.000Z</time>
      </trkpt>
      <trkpt lat="47.26525" lon="-2.33338">
        <ele>-8.3999996185303</ele>
        <time>2022-07-21T06:58:14.000Z</time>
      </trkpt>
      <trkpt lat="47.26525" lon="-2.33345">
        <ele>-8.3999996185303</ele>
        <time>2022-07-21T06:58:15.000Z</time>
      </trkpt>
      <trkpt lat="47.26529" lon="-2.33367">
        <ele>-8.3999996185303</ele>
        <time>2022-07-21T06:58:18.000Z</time>
      </trkpt>
      <trkpt lat="47.26541" lon="-2.33406">
        <ele>-8.3999996185303</ele>
        <time>2022-07-21T06:58:24.000Z</time>
      </trkpt>
      <trkpt lat="47.26548" lon="-2.33454">
        <ele>-8.3999996185303</ele>
        <time>2022-07-21T06:58:31.000Z</time>
      </trkpt>
      <trkpt lat="47.26556" lon="-2.335">
        <ele>-8.3999996185303</ele>
        <time>2022-07-21T06:58:38.000Z</time>
      </trkpt>
      <trkpt lat="47.26558" lon="-2.33505">
        <ele>-8.3999996185303</ele>
        <time>2022-07-21T06:58:39.000Z</time>
      </trkpt>
      <trkpt lat="47.26561" lon="-2.33516">
        <ele>-8.3999996185303</ele>
        <time>2022-07-21T06:58:41.000Z</time>
      </trkpt>
      <trkpt lat="47.26564" lon="-2.33531">
        <ele>-8.3999996185303</ele>
        <time>2022-07-21T06:58:44.000Z</time>
      </trkpt>
      <trkpt lat="47.26566" lon="-2.33534">
        <ele>-8.3999996185303</ele>
        <time>2022-07-21T06:58:47.000Z</time>
      </trkpt>
      <trkpt lat="47.26566" lon="-2.33536">
        <ele>-8.3999996185303</ele>
        <time>2022-07-21T06:59:01.000Z</time>
      </trkpt>
      <trkpt lat="47.26567" lon="-2.33539">
        <ele>-8.3999996185303</ele>
        <time>2022-07-21T06:59:02.000Z</time>
      </trkpt>
      <trkpt lat="47.26567" lon="-2.33543">
        <ele>-8.3999996185303</ele>
        <time>2022-07-21T06:59:03.000Z</time>
      </trkpt>
      <trkpt lat="47.26569" lon="-2.33571">
        <ele>-8.3999996185303</ele>
        <time>2022-07-21T06:59:08.000Z</time>
      </trkpt>
      <trkpt lat="47.26574" lon="-2.33607">
        <ele>-8.3999996185303</ele>
        <time>2022-07-21T06:59:15.000Z</time>
      </trkpt>
      <trkpt lat="47.26577" lon="-2.33635">
        <ele>-8.3999996185303</ele>
        <time>2022-07-21T06:59:21.000Z</time>
      </trkpt>
      <trkpt lat="47.26578" lon="-2.33646">
        <ele>-8</ele>
        <time>2022-07-21T06:59:23.000Z</time>
      </trkpt>
      <trkpt lat="47.26579" lon="-2.33651">
        <ele>-7.5999999046326</ele>
        <time>2022-07-21T06:59:24.000Z</time>
      </trkpt>
      <trkpt lat="47.2658" lon="-2.33657">
        <ele>-7.1999998092651</ele>
        <time>2022-07-21T06:59:25.000Z</time>
      </trkpt>
      <trkpt lat="47.26581" lon="-2.33662">
        <ele>-6.5999999046326</ele>
        <time>2022-07-21T06:59:26.000Z</time>
      </trkpt>
      <trkpt lat="47.26582" lon="-2.33666">
        <ele>-6.1999998092651</ele>
        <time>2022-07-21T06:59:27.000Z</time>
      </trkpt>
      <trkpt lat="47.26584" lon="-2.33671">
        <ele>-6.1999998092651</ele>
        <time>2022-07-21T06:59:28.000Z</time>
      </trkpt>
      <trkpt lat="47.26589" lon="-2.33681">
        <ele>-6.1999998092651</ele>
        <time>2022-07-21T06:59:30.000Z</time>
      </trkpt>
      <trkpt lat="47.26595" lon="-2.3369">
        <ele>-6.1999998092651</ele>
        <time>2022-07-21T06:59:32.000Z</time>
      </trkpt>
      <trkpt lat="47.26601" lon="-2.33698">
        <ele>-6.1999998092651</ele>
        <time>2022-07-21T06:59:34.000Z</time>
      </trkpt>
      <trkpt lat="47.26614" lon="-2.33716">
        <ele>-6.1999998092651</ele>
        <time>2022-07-21T06:59:38.000Z</time>
      </trkpt>
      <trkpt lat="47.26622" lon="-2.3373">
        <ele>-5.8000001907349</ele>
        <time>2022-07-21T06:59:41.000Z</time>
      </trkpt>
      <trkpt lat="47.26625" lon="-2.33736">
        <ele>-5.4000000953674</ele>
        <time>2022-07-21T06:59:42.000Z</time>
      </trkpt>
      <trkpt lat="47.26628" lon="-2.33741">
        <ele>-5</ele>
        <time>2022-07-21T06:59:43.000Z</time>
      </trkpt>
      <trkpt lat="47.26631" lon="-2.33745">
        <ele>-4.5999999046326</ele>
        <time>2022-07-21T06:59:44.000Z</time>
      </trkpt>
      <trkpt lat="47.26634" lon="-2.3375">
        <ele>-4.1999998092651</ele>
        <time>2022-07-21T06:59:45.000Z</time>
      </trkpt>
      <trkpt lat="47.26653" lon="-2.3378">
        <ele>-4.1999998092651</ele>
        <time>2022-07-21T06:59:51.000Z</time>
      </trkpt>
      <trkpt lat="47.26678" lon="-2.33818">
        <ele>-4.1999998092651</ele>
        <time>2022-07-21T06:59:59.000Z</time>
      </trkpt>
      <trkpt lat="47.26696" lon="-2.33848">
        <ele>-4.1999998092651</ele>
        <time>2022-07-21T07:00:05.000Z</time>
      </trkpt>
      <trkpt lat="47.26718" lon="-2.33882">
        <ele>-4.1999998092651</ele>
        <time>2022-07-21T07:00:12.000Z</time>
      </trkpt>
      <trkpt lat="47.26741" lon="-2.33918">
        <ele>-4.1999998092651</ele>
        <time>2022-07-21T07:00:19.000Z</time>
      </trkpt>
      <trkpt lat="47.26754" lon="-2.33938">
        <ele>-4.1999998092651</ele>
        <time>2022-07-21T07:00:23.000Z</time>
      </trkpt>
      <trkpt lat="47.26763" lon="-2.33954">
        <ele>-4.1999998092651</ele>
        <time>2022-07-21T07:00:26.000Z</time>
      </trkpt>
      <trkpt lat="47.26766" lon="-2.33959">
        <ele>-4.1999998092651</ele>
        <time>2022-07-21T07:00:27.000Z</time>
      </trkpt>
      <trkpt lat="47.2678" lon="-2.33978">
        <ele>-4.1999998092651</ele>
        <time>2022-07-21T07:00:31.000Z</time>
      </trkpt>
      <trkpt lat="47.26809" lon="-2.34023">
        <ele>-4.1999998092651</ele>
        <time>2022-07-21T07:00:40.000Z</time>
      </trkpt>
      <trkpt lat="47.26828" lon="-2.34052">
        <ele>-4.1999998092651</ele>
        <time>2022-07-21T07:00:46.000Z</time>
      </trkpt>
      <trkpt lat="47.26846" lon="-2.34083">
        <ele>-3.7999999523163</ele>
        <time>2022-07-21T07:00:52.000Z</time>
      </trkpt>
      <trkpt lat="47.26849" lon="-2.34089">
        <ele>-3.4000000953674</ele>
        <time>2022-07-21T07:00:53.000Z</time>
      </trkpt>
      <trkpt lat="47.26853" lon="-2.34094">
        <ele>-3</ele>
        <time>2022-07-21T07:00:54.000Z</time>
      </trkpt>
      <trkpt lat="47.26856" lon="-2.34099">
        <ele>-2.5999999046326</ele>
        <time>2022-07-21T07:00:55.000Z</time>
      </trkpt>
      <trkpt lat="47.26859" lon="-2.34104">
        <ele>-2.2000000476837</ele>
        <time>2022-07-21T07:00:56.000Z</time>
      </trkpt>
      <trkpt lat="47.26874" lon="-2.34131">
        <ele>-2.2000000476837</ele>
        <time>2022-07-21T07:01:01.000Z</time>
      </trkpt>
      <trkpt lat="47.26898" lon="-2.34166">
        <ele>-2.2000000476837</ele>
        <time>2022-07-21T07:01:08.000Z</time>
      </trkpt>
      <trkpt lat="47.26918" lon="-2.34198">
        <ele>-2.2000000476837</ele>
        <time>2022-07-21T07:01:14.000Z</time>
      </trkpt>
      <trkpt lat="47.26924" lon="-2.34208">
        <ele>-2.2000000476837</ele>
        <time>2022-07-21T07:01:16.000Z</time>
      </trkpt>
      <trkpt lat="47.2693" lon="-2.34219">
        <ele>-2.2000000476837</ele>
        <time>2022-07-21T07:01:18.000Z</time>
      </trkpt>
      <trkpt lat="47.26944" lon="-2.34239">
        <ele>-2.2000000476837</ele>
        <time>2022-07-21T07:01:22.000Z</time>
      </trkpt>
      <trkpt lat="47.26957" lon="-2.34259">
        <ele>-2.2000000476837</ele>
        <time>2022-07-21T07:01:26.000Z</time>
      </trkpt>
      <trkpt lat="47.26963" lon="-2.34269">
        <ele>-2.2000000476837</ele>
        <time>2022-07-21T07:01:28.000Z</time>
      </trkpt>
      <trkpt lat="47.26981" lon="-2.34299">
        <ele>-2.2000000476837</ele>
        <time>2022-07-21T07:01:34.000Z</time>
      </trkpt>
      <trkpt lat="47.26984" lon="-2.34304">
        <ele>-2.2000000476837</ele>
        <time>2022-07-21T07:01:35.000Z</time>
      </trkpt>
      <trkpt lat="47.26996" lon="-2.34315">
        <ele>-2.2000000476837</ele>
        <time>2022-07-21T07:01:39.000Z</time>
      </trkpt>
      <trkpt lat="47.27015" lon="-2.34319">
        <ele>-2.2000000476837</ele>
        <time>2022-07-21T07:01:44.000Z</time>
      </trkpt>
      <trkpt lat="47.27023" lon="-2.34321">
        <ele>-2.2000000476837</ele>
        <time>2022-07-21T07:01:46.000Z</time>
      </trkpt>
      <trkpt lat="47.27031" lon="-2.34324">
        <ele>-2.2000000476837</ele>
        <time>2022-07-21T07:01:48.000Z</time>
      </trkpt>
      <trkpt lat="47.27035" lon="-2.34328">
        <ele>-2.2000000476837</ele>
        <time>2022-07-21T07:01:49.000Z</time>
      </trkpt>
      <trkpt lat="47.27041" lon="-2.34344">
        <ele>-2.2000000476837</ele>
        <time>2022-07-21T07:01:52.000Z</time>
      </trkpt>
      <trkpt lat="47.27043" lon="-2.34351">
        <ele>-2.2000000476837</ele>
        <time>2022-07-21T07:01:53.000Z</time>
      </trkpt>
      <trkpt lat="47.27054" lon="-2.34398">
        <ele>-2.2000000476837</ele>
        <time>2022-07-21T07:02:00.000Z</time>
      </trkpt>
      <trkpt lat="47.27064" lon="-2.34443">
        <ele>-2.2000000476837</ele>
        <time>2022-07-21T07:02:07.000Z</time>
      </trkpt>
      <trkpt lat="47.27079" lon="-2.34509">
        <ele>-2.2000000476837</ele>
        <time>2022-07-21T07:02:17.000Z</time>
      </trkpt>
      <trkpt lat="47.27091" lon="-2.3456">
        <ele>-2.2000000476837</ele>
        <time>2022-07-21T07:02:25.000Z</time>
      </trkpt>
      <trkpt lat="47.27101" lon="-2.34606">
        <ele>-2.2000000476837</ele>
        <time>2022-07-21T07:02:32.000Z</time>
      </trkpt>
      <trkpt lat="47.27111" lon="-2.34648">
        <ele>-2.2000000476837</ele>
        <time>2022-07-21T07:02:38.000Z</time>
      </trkpt>
      <trkpt lat="47.27125" lon="-2.34712">
        <ele>-2.2000000476837</ele>
        <time>2022-07-21T07:02:47.000Z</time>
      </trkpt>
      <trkpt lat="47.27138" lon="-2.34772">
        <ele>-2.2000000476837</ele>
        <time>2022-07-21T07:02:56.000Z</time>
      </trkpt>
      <trkpt lat="47.2715" lon="-2.34832">
        <ele>-2.2000000476837</ele>
        <time>2022-07-21T07:03:05.000Z</time>
      </trkpt>
      <trkpt lat="47.27153" lon="-2.34845">
        <ele>-2.2000000476837</ele>
        <time>2022-07-21T07:03:07.000Z</time>
      </trkpt>
      <trkpt lat="47.27157" lon="-2.34857">
        <ele>-2.2000000476837</ele>
        <time>2022-07-21T07:03:09.000Z</time>
      </trkpt>
      <trkpt lat="47.27161" lon="-2.3487">
        <ele>-2.2000000476837</ele>
        <time>2022-07-21T07:03:11.000Z</time>
      </trkpt>
      <trkpt lat="47.27169" lon="-2.34901">
        <ele>-2.2000000476837</ele>
        <time>2022-07-21T07:03:16.000Z</time>
      </trkpt>
      <trkpt lat="47.27173" lon="-2.34913">
        <ele>-2.2000000476837</ele>
        <time>2022-07-21T07:03:18.000Z</time>
      </trkpt>
      <trkpt lat="47.27183" lon="-2.34947">
        <ele>-2.2000000476837</ele>
        <time>2022-07-21T07:03:24.000Z</time>
      </trkpt>
      <trkpt lat="47.27195" lon="-2.34983">
        <ele>-1.7999999523163</ele>
        <time>2022-07-21T07:03:30.000Z</time>
      </trkpt>
      <trkpt lat="47.27197" lon="-2.34989">
        <ele>-1.3999999761581</ele>
        <time>2022-07-21T07:03:31.000Z</time>
      </trkpt>
      <trkpt lat="47.27199" lon="-2.34994">
        <ele>-1</ele>
        <time>2022-07-21T07:03:32.000Z</time>
      </trkpt>
      <trkpt lat="47.27201" lon="-2.34999">
        <ele>-0.60000002384186</ele>
        <time>2022-07-21T07:03:33.000Z</time>
      </trkpt>
      <trkpt lat="47.27203" lon="-2.35005">
        <ele>-0.20000000298023</ele>
        <time>2022-07-21T07:03:34.000Z</time>
      </trkpt>
      <trkpt lat="47.27209" lon="-2.35021">
        <ele>-0.20000000298023</ele>
        <time>2022-07-21T07:03:37.000Z</time>
      </trkpt>
      <trkpt lat="47.27224" lon="-2.35065">
        <ele>-0.20000000298023</ele>
        <time>2022-07-21T07:03:44.000Z</time>
      </trkpt>
      <trkpt lat="47.27229" lon="-2.35078">
        <ele>-0.20000000298023</ele>
        <time>2022-07-21T07:03:46.000Z</time>
      </trkpt>
      <trkpt lat="47.2724" lon="-2.35101">
        <ele>-0.20000000298023</ele>
        <time>2022-07-21T07:03:50.000Z</time>
      </trkpt>
      <trkpt lat="47.27252" lon="-2.35121">
        <ele>-0.20000000298023</ele>
        <time>2022-07-21T07:03:54.000Z</time>
      </trkpt>
      <trkpt lat="47.27259" lon="-2.35121">
        <ele>-0.20000000298023</ele>
        <time>2022-07-21T07:03:56.000Z</time>
      </trkpt>
      <trkpt lat="47.27271" lon="-2.35115">
        <ele>-0.20000000298023</ele>
        <time>2022-07-21T07:03:59.000Z</time>
      </trkpt>
      <trkpt lat="47.2728" lon="-2.35109">
        <ele>-0.20000000298023</ele>
        <time>2022-07-21T07:04:02.000Z</time>
      </trkpt>
      <trkpt lat="47.27295" lon="-2.35102">
        <ele>-0.20000000298023</ele>
        <time>2022-07-21T07:04:07.000Z</time>
      </trkpt>
      <trkpt lat="47.27312" lon="-2.35094">
        <ele>0.40000000596046</ele>
        <time>2022-07-21T07:04:12.000Z</time>
      </trkpt>
      <trkpt lat="47.27315" lon="-2.35092">
        <ele>0.80000001192093</ele>
        <time>2022-07-21T07:04:13.000Z</time>
      </trkpt>
      <trkpt lat="47.27318" lon="-2.35091">
        <ele>1.2000000476837</ele>
        <time>2022-07-21T07:04:14.000Z</time>
      </trkpt>
      <trkpt lat="47.27321" lon="-2.35089">
        <ele>1.6000000238419</ele>
        <time>2022-07-21T07:04:15.000Z</time>
      </trkpt>
      <trkpt lat="47.27325" lon="-2.35088">
        <ele>2</ele>
        <time>2022-07-21T07:04:16.000Z</time>
      </trkpt>
      <trkpt lat="47.27338" lon="-2.35083">
        <ele>2.4000000953674</ele>
        <time>2022-07-21T07:04:20.000Z</time>
      </trkpt>
      <trkpt lat="47.27341" lon="-2.35081">
        <ele>2.7999999523163</ele>
        <time>2022-07-21T07:04:21.000Z</time>
      </trkpt>
      <trkpt lat="47.27344" lon="-2.3508">
        <ele>3.4000000953674</ele>
        <time>2022-07-21T07:04:22.000Z</time>
      </trkpt>
      <trkpt lat="47.27347" lon="-2.35078">
        <ele>3.7999999523163</ele>
        <time>2022-07-21T07:04:23.000Z</time>
      </trkpt>
      <trkpt lat="47.27351" lon="-2.35077">
        <ele>4.1999998092651</ele>
        <time>2022-07-21T07:04:24.000Z</time>
      </trkpt>
      <trkpt lat="47.27357" lon="-2.35072">
        <ele>4.1999998092651</ele>
        <time>2022-07-21T07:04:26.000Z</time>
      </trkpt>
      <trkpt lat="47.27371" lon="-2.35063">
        <ele>4.5999999046326</ele>
        <time>2022-07-21T07:04:31.000Z</time>
      </trkpt>
      <trkpt lat="47.27374" lon="-2.35061">
        <ele>5</ele>
        <time>2022-07-21T07:04:32.000Z</time>
      </trkpt>
      <trkpt lat="47.27377" lon="-2.35059">
        <ele>5.4000000953674</ele>
        <time>2022-07-21T07:04:33.000Z</time>
      </trkpt>
      <trkpt lat="47.2738" lon="-2.35057">
        <ele>5.8000001907349</ele>
        <time>2022-07-21T07:04:34.000Z</time>
      </trkpt>
      <trkpt lat="47.27383" lon="-2.35056">
        <ele>6.4000000953674</ele>
        <time>2022-07-21T07:04:35.000Z</time>
      </trkpt>
      <trkpt lat="47.27393" lon="-2.35055">
        <ele>6.4000000953674</ele>
        <time>2022-07-21T07:04:38.000Z</time>
      </trkpt>
      <trkpt lat="47.27395" lon="-2.35057">
        <ele>6.4000000953674</ele>
        <time>2022-07-21T07:04:39.000Z</time>
      </trkpt>
      <trkpt lat="47.27405" lon="-2.35078">
        <ele>6.4000000953674</ele>
        <time>2022-07-21T07:04:44.000Z</time>
      </trkpt>
      <trkpt lat="47.27406" lon="-2.35083">
        <ele>6.4000000953674</ele>
        <time>2022-07-21T07:04:45.000Z</time>
      </trkpt>
      <trkpt lat="47.27416" lon="-2.35124">
        <ele>6.4000000953674</ele>
        <time>2022-07-21T07:04:53.000Z</time>
      </trkpt>
      <trkpt lat="47.27423" lon="-2.35157">
        <ele>6.4000000953674</ele>
        <time>2022-07-21T07:04:59.000Z</time>
      </trkpt>
      <trkpt lat="47.27429" lon="-2.35174">
        <ele>6.4000000953674</ele>
        <time>2022-07-21T07:05:03.000Z</time>
      </trkpt>
      <trkpt lat="47.27438" lon="-2.35177">
        <ele>6.4000000953674</ele>
        <time>2022-07-21T07:05:08.000Z</time>
      </trkpt>
      <trkpt lat="47.27447" lon="-2.35169">
        <ele>6.8000001907349</ele>
        <time>2022-07-21T07:05:10.000Z</time>
      </trkpt>
      <trkpt lat="47.27451" lon="-2.35168">
        <ele>7.1999998092651</ele>
        <time>2022-07-21T07:05:11.000Z</time>
      </trkpt>
      <trkpt lat="47.27455" lon="-2.35166">
        <ele>7.5999999046326</ele>
        <time>2022-07-21T07:05:12.000Z</time>
      </trkpt>
      <trkpt lat="47.27459" lon="-2.35164">
        <ele>8</ele>
        <time>2022-07-21T07:05:13.000Z</time>
      </trkpt>
      <trkpt lat="47.27462" lon="-2.35161">
        <ele>8.3999996185303</ele>
        <time>2022-07-21T07:05:14.000Z</time>
      </trkpt>
      <trkpt lat="47.27471" lon="-2.35154">
        <ele>8.3999996185303</ele>
        <time>2022-07-21T07:05:18.000Z</time>
      </trkpt>
      <trkpt lat="47.27481" lon="-2.35145">
        <ele>8.3999996185303</ele>
        <time>2022-07-21T07:05:22.000Z</time>
      </trkpt>
      <trkpt lat="47.27484" lon="-2.35144">
        <ele>8.3999996185303</ele>
        <time>2022-07-21T07:05:23.000Z</time>
      </trkpt>
      <trkpt lat="47.27498" lon="-2.35132">
        <ele>8.3999996185303</ele>
        <time>2022-07-21T07:05:27.000Z</time>
      </trkpt>
      <trkpt lat="47.27501" lon="-2.35129">
        <ele>8.8000001907349</ele>
        <time>2022-07-21T07:05:28.000Z</time>
      </trkpt>
      <trkpt lat="47.27504" lon="-2.35128">
        <ele>9.1999998092651</ele>
        <time>2022-07-21T07:05:29.000Z</time>
      </trkpt>
      <trkpt lat="47.27508" lon="-2.35128">
        <ele>9.6000003814697</ele>
        <time>2022-07-21T07:05:30.000Z</time>
      </trkpt>
      <trkpt lat="47.27512" lon="-2.3513">
        <ele>10</ele>
        <time>2022-07-21T07:05:31.000Z</time>
      </trkpt>
      <trkpt lat="47.27515" lon="-2.35131">
        <ele>10.39999961853</ele>
        <time>2022-07-21T07:05:32.000Z</time>
      </trkpt>
      <trkpt lat="47.2753" lon="-2.35137">
        <ele>10.39999961853</ele>
        <time>2022-07-21T07:05:36.000Z</time>
      </trkpt>
      <trkpt lat="47.27554" lon="-2.35135">
        <ele>10.39999961853</ele>
        <time>2022-07-21T07:05:42.000Z</time>
      </trkpt>
      <trkpt lat="47.27579" lon="-2.35131">
        <ele>10.39999961853</ele>
        <time>2022-07-21T07:05:48.000Z</time>
      </trkpt>
      <trkpt lat="47.27592" lon="-2.3513">
        <ele>10.39999961853</ele>
        <time>2022-07-21T07:05:51.000Z</time>
      </trkpt>
      <trkpt lat="47.27601" lon="-2.35133">
        <ele>10.39999961853</ele>
        <time>2022-07-21T07:05:53.000Z</time>
      </trkpt>
      <trkpt lat="47.2761" lon="-2.35147">
        <ele>10.39999961853</ele>
        <time>2022-07-21T07:05:56.000Z</time>
      </trkpt>
      <trkpt lat="47.27616" lon="-2.35171">
        <ele>10.39999961853</ele>
        <time>2022-07-21T07:06:00.000Z</time>
      </trkpt>
      <trkpt lat="47.27629" lon="-2.35174">
        <ele>10.39999961853</ele>
        <time>2022-07-21T07:06:03.000Z</time>
      </trkpt>
      <trkpt lat="47.27649" lon="-2.35171">
        <ele>10.39999961853</ele>
        <time>2022-07-21T07:06:07.000Z</time>
      </trkpt>
      <trkpt lat="47.27664" lon="-2.35172">
        <ele>10.39999961853</ele>
        <time>2022-07-21T07:06:10.000Z</time>
      </trkpt>
      <trkpt lat="47.27668" lon="-2.35175">
        <ele>10.39999961853</ele>
        <time>2022-07-21T07:06:11.000Z</time>
      </trkpt>
      <trkpt lat="47.27671" lon="-2.35181">
        <ele>10</ele>
        <time>2022-07-21T07:06:12.000Z</time>
      </trkpt>
      <trkpt lat="47.27672" lon="-2.35188">
        <ele>9.6000003814697</ele>
        <time>2022-07-21T07:06:13.000Z</time>
      </trkpt>
      <trkpt lat="47.27673" lon="-2.35195">
        <ele>9.1999998092651</ele>
        <time>2022-07-21T07:06:14.000Z</time>
      </trkpt>
      <trkpt lat="47.27673" lon="-2.35203">
        <ele>8.8000001907349</ele>
        <time>2022-07-21T07:06:15.000Z</time>
      </trkpt>
      <trkpt lat="47.27673" lon="-2.3521">
        <ele>8.3999996185303</ele>
        <time>2022-07-21T07:06:16.000Z</time>
      </trkpt>
      <trkpt lat="47.27676" lon="-2.35219">
        <ele>8.3999996185303</ele>
        <time>2022-07-21T07:06:18.000Z</time>
      </trkpt>
      <trkpt lat="47.27688" lon="-2.35219">
        <ele>8</ele>
        <time>2022-07-21T07:06:21.000Z</time>
      </trkpt>
      <trkpt lat="47.27692" lon="-2.35218">
        <ele>7.1999998092651</ele>
        <time>2022-07-21T07:06:22.000Z</time>
      </trkpt>
      <trkpt lat="47.27697" lon="-2.35217">
        <ele>6.8000001907349</ele>
        <time>2022-07-21T07:06:23.000Z</time>
      </trkpt>
      <trkpt lat="47.27701" lon="-2.35215">
        <ele>6.1999998092651</ele>
        <time>2022-07-21T07:06:24.000Z</time>
      </trkpt>
      <trkpt lat="47.27716" lon="-2.3521">
        <ele>6.1999998092651</ele>
        <time>2022-07-21T07:06:27.000Z</time>
      </trkpt>
      <trkpt lat="47.2774" lon="-2.35203">
        <ele>6.1999998092651</ele>
        <time>2022-07-21T07:06:32.000Z</time>
      </trkpt>
      <trkpt lat="47.27758" lon="-2.35199">
        <ele>5.8000001907349</ele>
        <time>2022-07-21T07:06:36.000Z</time>
      </trkpt>
      <trkpt lat="47.27762" lon="-2.352">
        <ele>5.4000000953674</ele>
        <time>2022-07-21T07:06:37.000Z</time>
      </trkpt>
      <trkpt lat="47.27766" lon="-2.35202">
        <ele>5</ele>
        <time>2022-07-21T07:06:38.000Z</time>
      </trkpt>
      <trkpt lat="47.27768" lon="-2.35206">
        <ele>4.5999999046326</ele>
        <time>2022-07-21T07:06:39.000Z</time>
      </trkpt>
      <trkpt lat="47.2777" lon="-2.35211">
        <ele>4.1999998092651</ele>
        <time>2022-07-21T07:06:40.000Z</time>
      </trkpt>
      <trkpt lat="47.27772" lon="-2.35217">
        <ele>4.1999998092651</ele>
        <time>2022-07-21T07:06:41.000Z</time>
      </trkpt>
      <trkpt lat="47.2778" lon="-2.35249">
        <ele>4.1999998092651</ele>
        <time>2022-07-21T07:06:46.000Z</time>
      </trkpt>
      <trkpt lat="47.27788" lon="-2.35292">
        <ele>4.1999998092651</ele>
        <time>2022-07-21T07:06:52.000Z</time>
      </trkpt>
      <trkpt lat="47.27801" lon="-2.35348">
        <ele>4.1999998092651</ele>
        <time>2022-07-21T07:07:00.000Z</time>
      </trkpt>
      <trkpt lat="47.27803" lon="-2.35354">
        <ele>4.1999998092651</ele>
        <time>2022-07-21T07:07:01.000Z</time>
      </trkpt>
      <trkpt lat="47.27811" lon="-2.35361">
        <ele>4.1999998092651</ele>
        <time>2022-07-21T07:07:03.000Z</time>
      </trkpt>
      <trkpt lat="47.27829" lon="-2.35362">
        <ele>4.1999998092651</ele>
        <time>2022-07-21T07:07:07.000Z</time>
      </trkpt>
      <trkpt lat="47.2786" lon="-2.35359">
        <ele>4.1999998092651</ele>
        <time>2022-07-21T07:07:14.000Z</time>
      </trkpt>
      <trkpt lat="47.27877" lon="-2.35368">
        <ele>4.1999998092651</ele>
        <time>2022-07-21T07:07:19.000Z</time>
      </trkpt>
      <trkpt lat="47.27895" lon="-2.35392">
        <ele>4.1999998092651</ele>
        <time>2022-07-21T07:07:25.000Z</time>
      </trkpt>
      <trkpt lat="47.27916" lon="-2.35422">
        <ele>4.1999998092651</ele>
        <time>2022-07-21T07:07:32.000Z</time>
      </trkpt>
      <trkpt lat="47.27941" lon="-2.3545">
        <ele>4.1999998092651</ele>
        <time>2022-07-21T07:07:39.000Z</time>
      </trkpt>
      <trkpt lat="47.27945" lon="-2.35454">
        <ele>4.1999998092651</ele>
        <time>2022-07-21T07:07:40.000Z</time>
      </trkpt>
      <trkpt lat="47.27949" lon="-2.35457">
        <ele>4.1999998092651</ele>
        <time>2022-07-21T07:07:41.000Z</time>
      </trkpt>
      <trkpt lat="47.27962" lon="-2.35464">
        <ele>4.1999998092651</ele>
        <time>2022-07-21T07:07:44.000Z</time>
      </trkpt>
      <trkpt lat="47.2797" lon="-2.35469">
        <ele>4.1999998092651</ele>
        <time>2022-07-21T07:07:46.000Z</time>
      </trkpt>
      <trkpt lat="47.27981" lon="-2.35485">
        <ele>4.1999998092651</ele>
        <time>2022-07-21T07:07:49.000Z</time>
      </trkpt>
      <trkpt lat="47.27988" lon="-2.35496">
        <ele>4.1999998092651</ele>
        <time>2022-07-21T07:07:51.000Z</time>
      </trkpt>
      <trkpt lat="47.28001" lon="-2.35526">
        <ele>4.1999998092651</ele>
        <time>2022-07-21T07:07:57.000Z</time>
      </trkpt>
      <trkpt lat="47.28004" lon="-2.35543">
        <ele>5</ele>
        <time>2022-07-21T07:08:01.000Z</time>
      </trkpt>
      <trkpt lat="47.28005" lon="-2.35546">
        <ele>5.4000000953674</ele>
        <time>2022-07-21T07:08:02.000Z</time>
      </trkpt>
      <trkpt lat="47.28006" lon="-2.35549">
        <ele>5.8000001907349</ele>
        <time>2022-07-21T07:08:03.000Z</time>
      </trkpt>
      <trkpt lat="47.28008" lon="-2.35552">
        <ele>6.1999998092651</ele>
        <time>2022-07-21T07:08:04.000Z</time>
      </trkpt>
      <trkpt lat="47.2801" lon="-2.3556">
        <ele>6.1999998092651</ele>
        <time>2022-07-21T07:08:06.000Z</time>
      </trkpt>
      <trkpt lat="47.28012" lon="-2.35563">
        <ele>6.1999998092651</ele>
        <time>2022-07-21T07:08:07.000Z</time>
      </trkpt>
      <trkpt lat="47.2802" lon="-2.35564">
        <ele>6.1999998092651</ele>
        <time>2022-07-21T07:08:10.000Z</time>
      </trkpt>
      <trkpt lat="47.28037" lon="-2.35572">
        <ele>6.1999998092651</ele>
        <time>2022-07-21T07:08:15.000Z</time>
      </trkpt>
      <trkpt lat="47.28039" lon="-2.35574">
        <ele>6.5999999046326</ele>
        <time>2022-07-21T07:08:16.000Z</time>
      </trkpt>
      <trkpt lat="47.28042" lon="-2.35575">
        <ele>7</ele>
        <time>2022-07-21T07:08:17.000Z</time>
      </trkpt>
      <trkpt lat="47.28045" lon="-2.35577">
        <ele>7.4000000953674</ele>
        <time>2022-07-21T07:08:18.000Z</time>
      </trkpt>
      <trkpt lat="47.28048" lon="-2.35578">
        <ele>7.8000001907349</ele>
        <time>2022-07-21T07:08:19.000Z</time>
      </trkpt>
      <trkpt lat="47.28051" lon="-2.3558">
        <ele>8.1999998092651</ele>
        <time>2022-07-21T07:08:20.000Z</time>
      </trkpt>
      <trkpt lat="47.28057" lon="-2.35582">
        <ele>8.1999998092651</ele>
        <time>2022-07-21T07:08:22.000Z</time>
      </trkpt>
      <trkpt lat="47.28071" lon="-2.35597">
        <ele>8.1999998092651</ele>
        <time>2022-07-21T07:08:28.000Z</time>
      </trkpt>
      <trkpt lat="47.28082" lon="-2.35612">
        <ele>8.1999998092651</ele>
        <time>2022-07-21T07:08:34.000Z</time>
      </trkpt>
      <trkpt lat="47.28086" lon="-2.35615">
        <ele>8.1999998092651</ele>
        <time>2022-07-21T07:08:38.000Z</time>
      </trkpt>
      <trkpt lat="47.28086" lon="-2.35615">
        <ele>8.1999998092651</ele>
        <time>2022-07-21T07:10:33.000Z</time>
      </trkpt>
      <trkpt lat="47.28077" lon="-2.3561">
        <ele>8.1999998092651</ele>
        <time>2022-07-21T07:10:39.000Z</time>
      </trkpt>
      <trkpt lat="47.28075" lon="-2.35618">
        <ele>8.1999998092651</ele>
        <time>2022-07-21T07:10:42.000Z</time>
      </trkpt>
      <trkpt lat="47.28075" lon="-2.35621">
        <ele>8.1999998092651</ele>
        <time>2022-07-21T07:10:43.000Z</time>
      </trkpt>
      <trkpt lat="47.28075" lon="-2.35625">
        <ele>8.6000003814697</ele>
        <time>2022-07-21T07:10:44.000Z</time>
      </trkpt>
      <trkpt lat="47.28075" lon="-2.35628">
        <ele>9.1999998092651</ele>
        <time>2022-07-21T07:10:45.000Z</time>
      </trkpt>
      <trkpt lat="47.28076" lon="-2.3563">
        <ele>9.6000003814697</ele>
        <time>2022-07-21T07:10:46.000Z</time>
      </trkpt>
      <trkpt lat="47.28076" lon="-2.35633">
        <ele>10</ele>
        <time>2022-07-21T07:10:47.000Z</time>
      </trkpt>
      <trkpt lat="47.28077" lon="-2.35637">
        <ele>10.39999961853</ele>
        <time>2022-07-21T07:10:48.000Z</time>
      </trkpt>
      <trkpt lat="47.2808" lon="-2.35645">
        <ele>10.800000190735</ele>
        <time>2022-07-21T07:10:51.000Z</time>
      </trkpt>
      <trkpt lat="47.28081" lon="-2.35648">
        <ele>11.199999809265</ele>
        <time>2022-07-21T07:10:52.000Z</time>
      </trkpt>
      <trkpt lat="47.28082" lon="-2.3565">
        <ele>11.60000038147</ele>
        <time>2022-07-21T07:10:53.000Z</time>
      </trkpt>
      <trkpt lat="47.28083" lon="-2.35653">
        <ele>12.60000038147</ele>
        <time>2022-07-21T07:10:54.000Z</time>
      </trkpt>
      <trkpt lat="47.28086" lon="-2.35665">
        <ele>12.60000038147</ele>
        <time>2022-07-21T07:10:57.000Z</time>
      </trkpt>
      <trkpt lat="47.28088" lon="-2.35669">
        <ele>13</ele>
        <time>2022-07-21T07:10:58.000Z</time>
      </trkpt>
      <trkpt lat="47.28089" lon="-2.35673">
        <ele>13.39999961853</ele>
        <time>2022-07-21T07:10:59.000Z</time>
      </trkpt>
      <trkpt lat="47.2809" lon="-2.35677">
        <ele>13.800000190735</ele>
        <time>2022-07-21T07:11:00.000Z</time>
      </trkpt>
      <trkpt lat="47.2809" lon="-2.35681">
        <ele>14.199999809265</ele>
        <time>2022-07-21T07:11:01.000Z</time>
      </trkpt>
      <trkpt lat="47.28091" lon="-2.35685">
        <ele>14.60000038147</ele>
        <time>2022-07-21T07:11:02.000Z</time>
      </trkpt>
      <trkpt lat="47.28094" lon="-2.35708">
        <ele>14.60000038147</ele>
        <time>2022-07-21T07:11:08.000Z</time>
      </trkpt>
      <trkpt lat="47.2809" lon="-2.35729">
        <ele>14.60000038147</ele>
        <time>2022-07-21T07:11:13.000Z</time>
      </trkpt>
      <trkpt lat="47.28085" lon="-2.35749">
        <ele>14.60000038147</ele>
        <time>2022-07-21T07:11:16.000Z</time>
      </trkpt>
      <trkpt lat="47.28084" lon="-2.35757">
        <ele>14.60000038147</ele>
        <time>2022-07-21T07:11:17.000Z</time>
      </trkpt>
      <trkpt lat="47.28081" lon="-2.35771">
        <ele>14.60000038147</ele>
        <time>2022-07-21T07:11:19.000Z</time>
      </trkpt>
      <trkpt lat="47.28075" lon="-2.35789">
        <ele>14.60000038147</ele>
        <time>2022-07-21T07:11:22.000Z</time>
      </trkpt>
      <trkpt lat="47.28074" lon="-2.358">
        <ele>14.199999809265</ele>
        <time>2022-07-21T07:11:24.000Z</time>
      </trkpt>
      <trkpt lat="47.28075" lon="-2.35804">
        <ele>13.800000190735</ele>
        <time>2022-07-21T07:11:25.000Z</time>
      </trkpt>
      <trkpt lat="47.28077" lon="-2.35807">
        <ele>13.199999809265</ele>
        <time>2022-07-21T07:11:26.000Z</time>
      </trkpt>
      <trkpt lat="47.28081" lon="-2.35807">
        <ele>12.800000190735</ele>
        <time>2022-07-21T07:11:27.000Z</time>
      </trkpt>
      <trkpt lat="47.28085" lon="-2.35803">
        <ele>12.39999961853</ele>
        <time>2022-07-21T07:11:28.000Z</time>
      </trkpt>
      <trkpt lat="47.28088" lon="-2.35798">
        <ele>12.39999961853</ele>
        <time>2022-07-21T07:11:29.000Z</time>
      </trkpt>
      <trkpt lat="47.28091" lon="-2.35792">
        <ele>11.800000190735</ele>
        <time>2022-07-21T07:11:30.000Z</time>
      </trkpt>
      <trkpt lat="47.28094" lon="-2.35786">
        <ele>11.39999961853</ele>
        <time>2022-07-21T07:11:31.000Z</time>
      </trkpt>
      <trkpt lat="47.28096" lon="-2.3578">
        <ele>11</ele>
        <time>2022-07-21T07:11:32.000Z</time>
      </trkpt>
      <trkpt lat="47.28098" lon="-2.35775">
        <ele>10.60000038147</ele>
        <time>2022-07-21T07:11:33.000Z</time>
      </trkpt>
      <trkpt lat="47.281" lon="-2.35769">
        <ele>10.199999809265</ele>
        <time>2022-07-21T07:11:34.000Z</time>
      </trkpt>
      <trkpt lat="47.28116" lon="-2.3575">
        <ele>10.199999809265</ele>
        <time>2022-07-21T07:11:39.000Z</time>
      </trkpt>
      <trkpt lat="47.28131" lon="-2.35743">
        <ele>10.199999809265</ele>
        <time>2022-07-21T07:11:44.000Z</time>
      </trkpt>
      <trkpt lat="47.28133" lon="-2.35743">
        <ele>10.199999809265</ele>
        <time>2022-07-21T07:11:45.000Z</time>
      </trkpt>
      <trkpt lat="47.28138" lon="-2.35744">
        <ele>10.199999809265</ele>
        <time>2022-07-21T07:11:48.000Z</time>
      </trkpt>
      <trkpt lat="47.28149" lon="-2.35753">
        <ele>10.199999809265</ele>
        <time>2022-07-21T07:11:55.000Z</time>
      </trkpt>
      <trkpt lat="47.28159" lon="-2.35765">
        <ele>10.60000038147</ele>
        <time>2022-07-21T07:12:00.000Z</time>
      </trkpt>
      <trkpt lat="47.28161" lon="-2.35768">
        <ele>11</ele>
        <time>2022-07-21T07:12:01.000Z</time>
      </trkpt>
      <trkpt lat="47.28161" lon="-2.3577">
        <ele>11.39999961853</ele>
        <time>2022-07-21T07:12:02.000Z</time>
      </trkpt>
      <trkpt lat="47.28162" lon="-2.35772">
        <ele>12</ele>
        <time>2022-07-21T07:12:03.000Z</time>
      </trkpt>
      <trkpt lat="47.28164" lon="-2.35775">
        <ele>12.39999961853</ele>
        <time>2022-07-21T07:12:04.000Z</time>
      </trkpt>
      <trkpt lat="47.28166" lon="-2.35777">
        <ele>12.39999961853</ele>
        <time>2022-07-21T07:12:05.000Z</time>
      </trkpt>
      <trkpt lat="47.28177" lon="-2.35792">
        <ele>12.39999961853</ele>
        <time>2022-07-21T07:12:10.000Z</time>
      </trkpt>
      <trkpt lat="47.28185" lon="-2.35813">
        <ele>12.39999961853</ele>
        <time>2022-07-21T07:12:15.000Z</time>
      </trkpt>
      <trkpt lat="47.28192" lon="-2.35842">
        <ele>12.39999961853</ele>
        <time>2022-07-21T07:12:21.000Z</time>
      </trkpt>
      <trkpt lat="47.28203" lon="-2.35875">
        <ele>12.39999961853</ele>
        <time>2022-07-21T07:12:27.000Z</time>
      </trkpt>
      <trkpt lat="47.28218" lon="-2.35888">
        <ele>12.39999961853</ele>
        <time>2022-07-21T07:12:31.000Z</time>
      </trkpt>
      <trkpt lat="47.28239" lon="-2.35893">
        <ele>12.39999961853</ele>
        <time>2022-07-21T07:12:36.000Z</time>
      </trkpt>
      <trkpt lat="47.28247" lon="-2.35898">
        <ele>12.39999961853</ele>
        <time>2022-07-21T07:12:39.000Z</time>
      </trkpt>
      <trkpt lat="47.2825" lon="-2.359">
        <ele>12.800000190735</ele>
        <time>2022-07-21T07:12:40.000Z</time>
      </trkpt>
      <trkpt lat="47.28252" lon="-2.35903">
        <ele>13.199999809265</ele>
        <time>2022-07-21T07:12:41.000Z</time>
      </trkpt>
      <trkpt lat="47.28254" lon="-2.35907">
        <ele>13.60000038147</ele>
        <time>2022-07-21T07:12:42.000Z</time>
      </trkpt>
      <trkpt lat="47.28256" lon="-2.3591">
        <ele>14</ele>
        <time>2022-07-21T07:12:43.000Z</time>
      </trkpt>
      <trkpt lat="47.28259" lon="-2.35915">
        <ele>14.39999961853</ele>
        <time>2022-07-21T07:12:44.000Z</time>
      </trkpt>
      <trkpt lat="47.28261" lon="-2.35921">
        <ele>14.39999961853</ele>
        <time>2022-07-21T07:12:45.000Z</time>
      </trkpt>
      <trkpt lat="47.28276" lon="-2.35951">
        <ele>14.39999961853</ele>
        <time>2022-07-21T07:12:50.000Z</time>
      </trkpt>
      <trkpt lat="47.28281" lon="-2.35964">
        <ele>14</ele>
        <time>2022-07-21T07:12:52.000Z</time>
      </trkpt>
      <trkpt lat="47.28283" lon="-2.3597">
        <ele>13.60000038147</ele>
        <time>2022-07-21T07:12:53.000Z</time>
      </trkpt>
      <trkpt lat="47.28285" lon="-2.35975">
        <ele>13.199999809265</ele>
        <time>2022-07-21T07:12:54.000Z</time>
      </trkpt>
      <trkpt lat="47.28285" lon="-2.3598">
        <ele>12.800000190735</ele>
        <time>2022-07-21T07:12:55.000Z</time>
      </trkpt>
      <trkpt lat="47.28285" lon="-2.35984">
        <ele>12.199999809265</ele>
        <time>2022-07-21T07:12:56.000Z</time>
      </trkpt>
      <trkpt lat="47.28284" lon="-2.35988">
        <ele>12.199999809265</ele>
        <time>2022-07-21T07:12:57.000Z</time>
      </trkpt>
      <trkpt lat="47.28274" lon="-2.35998">
        <ele>12.199999809265</ele>
        <time>2022-07-21T07:12:59.000Z</time>
      </trkpt>
      <trkpt lat="47.28263" lon="-2.3602">
        <ele>12.199999809265</ele>
        <time>2022-07-21T07:13:02.000Z</time>
      </trkpt>
      <trkpt lat="47.2826" lon="-2.36028">
        <ele>12.199999809265</ele>
        <time>2022-07-21T07:13:03.000Z</time>
      </trkpt>
      <trkpt lat="47.28251" lon="-2.36069">
        <ele>12.199999809265</ele>
        <time>2022-07-21T07:13:09.000Z</time>
      </trkpt>
      <trkpt lat="47.28244" lon="-2.36106">
        <ele>12.199999809265</ele>
        <time>2022-07-21T07:13:15.000Z</time>
      </trkpt>
      <trkpt lat="47.28246" lon="-2.36112">
        <ele>12.199999809265</ele>
        <time>2022-07-21T07:13:16.000Z</time>
      </trkpt>
      <trkpt lat="47.28252" lon="-2.36123">
        <ele>12.199999809265</ele>
        <time>2022-07-21T07:13:18.000Z</time>
      </trkpt>
      <trkpt lat="47.28269" lon="-2.36151">
        <ele>12.199999809265</ele>
        <time>2022-07-21T07:13:24.000Z</time>
      </trkpt>
      <trkpt lat="47.28276" lon="-2.36177">
        <ele>12.199999809265</ele>
        <time>2022-07-21T07:13:28.000Z</time>
      </trkpt>
      <trkpt lat="47.2828" lon="-2.36208">
        <ele>12.199999809265</ele>
        <time>2022-07-21T07:13:33.000Z</time>
      </trkpt>
      <trkpt lat="47.28281" lon="-2.36212">
        <ele>11.800000190735</ele>
        <time>2022-07-21T07:13:34.000Z</time>
      </trkpt>
      <trkpt lat="47.28283" lon="-2.36216">
        <ele>11.39999961853</ele>
        <time>2022-07-21T07:13:35.000Z</time>
      </trkpt>
      <trkpt lat="47.28284" lon="-2.36219">
        <ele>11</ele>
        <time>2022-07-21T07:13:36.000Z</time>
      </trkpt>
      <trkpt lat="47.28286" lon="-2.36221">
        <ele>10.60000038147</ele>
        <time>2022-07-21T07:13:37.000Z</time>
      </trkpt>
      <trkpt lat="47.28287" lon="-2.36223">
        <ele>10.199999809265</ele>
        <time>2022-07-21T07:13:38.000Z</time>
      </trkpt>
      <trkpt lat="47.2829" lon="-2.36225">
        <ele>10.199999809265</ele>
        <time>2022-07-21T07:13:40.000Z</time>
      </trkpt>
      <trkpt lat="47.28292" lon="-2.36223">
        <ele>10.199999809265</ele>
        <time>2022-07-21T07:13:42.000Z</time>
      </trkpt>
      <trkpt lat="47.28297" lon="-2.36219">
        <ele>10.199999809265</ele>
        <time>2022-07-21T07:13:45.000Z</time>
      </trkpt>
      <trkpt lat="47.283" lon="-2.36216">
        <ele>10.199999809265</ele>
        <time>2022-07-21T07:13:47.000Z</time>
      </trkpt>
      <trkpt lat="47.28307" lon="-2.36214">
        <ele>10.60000038147</ele>
        <time>2022-07-21T07:13:50.000Z</time>
      </trkpt>
      <trkpt lat="47.28309" lon="-2.36213">
        <ele>11</ele>
        <time>2022-07-21T07:13:51.000Z</time>
      </trkpt>
      <trkpt lat="47.28312" lon="-2.3621">
        <ele>11.60000038147</ele>
        <time>2022-07-21T07:13:52.000Z</time>
      </trkpt>
      <trkpt lat="47.28315" lon="-2.36207">
        <ele>12</ele>
        <time>2022-07-21T07:13:53.000Z</time>
      </trkpt>
      <trkpt lat="47.28318" lon="-2.36205">
        <ele>12.39999961853</ele>
        <time>2022-07-21T07:13:54.000Z</time>
      </trkpt>
      <trkpt lat="47.28328" lon="-2.36193">
        <ele>12.39999961853</ele>
        <time>2022-07-21T07:13:58.000Z</time>
      </trkpt>
      <trkpt lat="47.28337" lon="-2.36184">
        <ele>12.800000190735</ele>
        <time>2022-07-21T07:14:02.000Z</time>
      </trkpt>
      <trkpt lat="47.28338" lon="-2.36181">
        <ele>13.199999809265</ele>
        <time>2022-07-21T07:14:03.000Z</time>
      </trkpt>
      <trkpt lat="47.2834" lon="-2.36178">
        <ele>13.60000038147</ele>
        <time>2022-07-21T07:14:04.000Z</time>
      </trkpt>
      <trkpt lat="47.28342" lon="-2.36176">
        <ele>14</ele>
        <time>2022-07-21T07:14:05.000Z</time>
      </trkpt>
      <trkpt lat="47.28343" lon="-2.36174">
        <ele>14.60000038147</ele>
        <time>2022-07-21T07:14:06.000Z</time>
      </trkpt>
      <trkpt lat="47.28349" lon="-2.36169">
        <ele>15</ele>
        <time>2022-07-21T07:14:10.000Z</time>
      </trkpt>
      <trkpt lat="47.2835" lon="-2.36168">
        <ele>15.800000190735</ele>
        <time>2022-07-21T07:14:11.000Z</time>
      </trkpt>
      <trkpt lat="47.28352" lon="-2.36166">
        <ele>16.200000762939</ele>
        <time>2022-07-21T07:14:12.000Z</time>
      </trkpt>
      <trkpt lat="47.28353" lon="-2.36164">
        <ele>16.60000038147</ele>
        <time>2022-07-21T07:14:13.000Z</time>
      </trkpt>
      <trkpt lat="47.28355" lon="-2.36161">
        <ele>17</ele>
        <time>2022-07-21T07:14:16.000Z</time>
      </trkpt>
      <trkpt lat="47.28355" lon="-2.36161">
        <ele>17.60000038147</ele>
        <time>2022-07-21T07:14:17.000Z</time>
      </trkpt>
      <trkpt lat="47.28356" lon="-2.36159">
        <ele>18</ele>
        <time>2022-07-21T07:14:18.000Z</time>
      </trkpt>
      <trkpt lat="47.28356" lon="-2.36158">
        <ele>18.39999961853</ele>
        <time>2022-07-21T07:14:19.000Z</time>
      </trkpt>
      <trkpt lat="47.28357" lon="-2.36156">
        <ele>18.799999237061</ele>
        <time>2022-07-21T07:14:20.000Z</time>
      </trkpt>
      <trkpt lat="47.28359" lon="-2.36154">
        <ele>18.799999237061</ele>
        <time>2022-07-21T07:14:22.000Z</time>
      </trkpt>
      <trkpt lat="47.28359" lon="-2.36154">
        <ele>19.200000762939</ele>
        <time>2022-07-21T07:14:23.000Z</time>
      </trkpt>
      <trkpt lat="47.28359" lon="-2.36153">
        <ele>19.799999237061</ele>
        <time>2022-07-21T07:14:24.000Z</time>
      </trkpt>
      <trkpt lat="47.2836" lon="-2.36152">
        <ele>20.200000762939</ele>
        <time>2022-07-21T07:14:25.000Z</time>
      </trkpt>
      <trkpt lat="47.28361" lon="-2.36152">
        <ele>20.60000038147</ele>
        <time>2022-07-21T07:14:26.000Z</time>
      </trkpt>
      <trkpt lat="47.28362" lon="-2.3615">
        <ele>21</ele>
        <time>2022-07-21T07:14:27.000Z</time>
      </trkpt>
      <trkpt lat="47.28363" lon="-2.36149">
        <ele>21</ele>
        <time>2022-07-21T07:14:28.000Z</time>
      </trkpt>
      <trkpt lat="47.28366" lon="-2.36148">
        <ele>21</ele>
        <time>2022-07-21T07:14:30.000Z</time>
      </trkpt>
      <trkpt lat="47.28367" lon="-2.36147">
        <ele>21.39999961853</ele>
        <time>2022-07-21T07:14:31.000Z</time>
      </trkpt>
      <trkpt lat="47.28369" lon="-2.36146">
        <ele>21.799999237061</ele>
        <time>2022-07-21T07:14:32.000Z</time>
      </trkpt>
      <trkpt lat="47.28371" lon="-2.36144">
        <ele>22.39999961853</ele>
        <time>2022-07-21T07:14:33.000Z</time>
      </trkpt>
      <trkpt lat="47.28372" lon="-2.36142">
        <ele>22.799999237061</ele>
        <time>2022-07-21T07:14:34.000Z</time>
      </trkpt>
      <trkpt lat="47.28374" lon="-2.3614">
        <ele>23.200000762939</ele>
        <time>2022-07-21T07:14:35.000Z</time>
      </trkpt>
      <trkpt lat="47.2838" lon="-2.36129">
        <ele>23.60000038147</ele>
        <time>2022-07-21T07:14:41.000Z</time>
      </trkpt>
      <trkpt lat="47.2838" lon="-2.36127">
        <ele>24</ele>
        <time>2022-07-21T07:14:42.000Z</time>
      </trkpt>
      <trkpt lat="47.28381" lon="-2.36124">
        <ele>24.39999961853</ele>
        <time>2022-07-21T07:14:43.000Z</time>
      </trkpt>
      <trkpt lat="47.28381" lon="-2.36122">
        <ele>24.799999237061</ele>
        <time>2022-07-21T07:14:44.000Z</time>
      </trkpt>
      <trkpt lat="47.28382" lon="-2.3612">
        <ele>25.200000762939</ele>
        <time>2022-07-21T07:14:45.000Z</time>
      </trkpt>
      <trkpt lat="47.28382" lon="-2.36118">
        <ele>25.200000762939</ele>
        <time>2022-07-21T07:14:46.000Z</time>
      </trkpt>
      <trkpt lat="47.28386" lon="-2.36107">
        <ele>25.200000762939</ele>
        <time>2022-07-21T07:14:52.000Z</time>
      </trkpt>
      <trkpt lat="47.28387" lon="-2.36097">
        <ele>25.200000762939</ele>
        <time>2022-07-21T07:14:58.000Z</time>
      </trkpt>
      <trkpt lat="47.28388" lon="-2.36092">
        <ele>25.60000038147</ele>
        <time>2022-07-21T07:15:00.000Z</time>
      </trkpt>
      <trkpt lat="47.28388" lon="-2.3609">
        <ele>26.39999961853</ele>
        <time>2022-07-21T07:15:01.000Z</time>
      </trkpt>
      <trkpt lat="47.28388" lon="-2.36087">
        <ele>26.799999237061</ele>
        <time>2022-07-21T07:15:02.000Z</time>
      </trkpt>
      <trkpt lat="47.28388" lon="-2.36084">
        <ele>27.200000762939</ele>
        <time>2022-07-21T07:15:03.000Z</time>
      </trkpt>
      <trkpt lat="47.28388" lon="-2.3608">
        <ele>27.200000762939</ele>
        <time>2022-07-21T07:15:05.000Z</time>
      </trkpt>
      <trkpt lat="47.28388" lon="-2.36065">
        <ele>27.200000762939</ele>
        <time>2022-07-21T07:15:10.000Z</time>
      </trkpt>
      <trkpt lat="47.28384" lon="-2.36056">
        <ele>27.200000762939</ele>
        <time>2022-07-21T07:15:16.000Z</time>
      </trkpt>
      <trkpt lat="47.28384" lon="-2.36055">
        <ele>27.200000762939</ele>
        <time>2022-07-21T07:15:17.000Z</time>
      </trkpt>
      <trkpt lat="47.28385" lon="-2.36043">
        <ele>27.200000762939</ele>
        <time>2022-07-21T07:15:23.000Z</time>
      </trkpt>
      <trkpt lat="47.28385" lon="-2.36035">
        <ele>27.200000762939</ele>
        <time>2022-07-21T07:15:26.000Z</time>
      </trkpt>
      <trkpt lat="47.28386" lon="-2.36023">
        <ele>27.200000762939</ele>
        <time>2022-07-21T07:15:32.000Z</time>
      </trkpt>
      <trkpt lat="47.28388" lon="-2.36023">
        <ele>27.200000762939</ele>
        <time>2022-07-21T07:15:34.000Z</time>
      </trkpt>
      <trkpt lat="47.28394" lon="-2.36024">
        <ele>27.200000762939</ele>
        <time>2022-07-21T07:15:38.000Z</time>
      </trkpt>
      <trkpt lat="47.28408" lon="-2.36017">
        <ele>27.200000762939</ele>
        <time>2022-07-21T07:15:45.000Z</time>
      </trkpt>
      <trkpt lat="47.28426" lon="-2.35998">
        <ele>27.200000762939</ele>
        <time>2022-07-21T07:15:52.000Z</time>
      </trkpt>
      <trkpt lat="47.28439" lon="-2.35991">
        <ele>27.200000762939</ele>
        <time>2022-07-21T07:15:57.000Z</time>
      </trkpt>
      <trkpt lat="47.28451" lon="-2.35998">
        <ele>27.200000762939</ele>
        <time>2022-07-21T07:16:01.000Z</time>
      </trkpt>
      <trkpt lat="47.28466" lon="-2.36019">
        <ele>27.200000762939</ele>
        <time>2022-07-21T07:16:07.000Z</time>
      </trkpt>
      <trkpt lat="47.28484" lon="-2.36029">
        <ele>27.200000762939</ele>
        <time>2022-07-21T07:16:12.000Z</time>
      </trkpt>
      <trkpt lat="47.28499" lon="-2.3604">
        <ele>27.200000762939</ele>
        <time>2022-07-21T07:16:17.000Z</time>
      </trkpt>
      <trkpt lat="47.28515" lon="-2.36056">
        <ele>27.200000762939</ele>
        <time>2022-07-21T07:16:21.000Z</time>
      </trkpt>
      <trkpt lat="47.28525" lon="-2.36069">
        <ele>27.60000038147</ele>
        <time>2022-07-21T07:16:24.000Z</time>
      </trkpt>
      <trkpt lat="47.28528" lon="-2.36074">
        <ele>28.200000762939</ele>
        <time>2022-07-21T07:16:25.000Z</time>
      </trkpt>
      <trkpt lat="47.2853" lon="-2.36079">
        <ele>28.60000038147</ele>
        <time>2022-07-21T07:16:26.000Z</time>
      </trkpt>
      <trkpt lat="47.28533" lon="-2.36084">
        <ele>29</ele>
        <time>2022-07-21T07:16:27.000Z</time>
      </trkpt>
      <trkpt lat="47.28535" lon="-2.36089">
        <ele>29.39999961853</ele>
        <time>2022-07-21T07:16:28.000Z</time>
      </trkpt>
      <trkpt lat="47.28538" lon="-2.36103">
        <ele>29.39999961853</ele>
        <time>2022-07-21T07:16:30.000Z</time>
      </trkpt>
      <trkpt lat="47.28539" lon="-2.36111">
        <ele>29.39999961853</ele>
        <time>2022-07-21T07:16:31.000Z</time>
      </trkpt>
      <trkpt lat="47.28546" lon="-2.36138">
        <ele>29.39999961853</ele>
        <time>2022-07-21T07:16:35.000Z</time>
      </trkpt>
      <trkpt lat="47.28549" lon="-2.36148">
        <ele>29.39999961853</ele>
        <time>2022-07-21T07:16:38.000Z</time>
      </trkpt>
      <trkpt lat="47.2855" lon="-2.3615">
        <ele>29.39999961853</ele>
        <time>2022-07-21T07:16:40.000Z</time>
      </trkpt>
      <trkpt lat="47.28563" lon="-2.36145">
        <ele>29.39999961853</ele>
        <time>2022-07-21T07:17:42.000Z</time>
      </trkpt>
      <trkpt lat="47.28565" lon="-2.36143">
        <ele>29.39999961853</ele>
        <time>2022-07-21T07:17:43.000Z</time>
      </trkpt>
      <trkpt lat="47.28569" lon="-2.36142">
        <ele>29.799999237061</ele>
        <time>2022-07-21T07:17:45.000Z</time>
      </trkpt>
      <trkpt lat="47.2857" lon="-2.36142">
        <ele>30.200000762939</ele>
        <time>2022-07-21T07:17:46.000Z</time>
      </trkpt>
      <trkpt lat="47.28571" lon="-2.36142">
        <ele>30.60000038147</ele>
        <time>2022-07-21T07:17:47.000Z</time>
      </trkpt>
      <trkpt lat="47.28571" lon="-2.36143">
        <ele>31</ele>
        <time>2022-07-21T07:17:48.000Z</time>
      </trkpt>
      <trkpt lat="47.28578" lon="-2.36147">
        <ele>31.39999961853</ele>
        <time>2022-07-21T07:18:16.000Z</time>
      </trkpt>
      <trkpt lat="47.28589" lon="-2.36149">
        <ele>31.39999961853</ele>
        <time>2022-07-21T07:18:21.000Z</time>
      </trkpt>
      <trkpt lat="47.28603" lon="-2.36147">
        <ele>31.39999961853</ele>
        <time>2022-07-21T07:18:25.000Z</time>
      </trkpt>
      <trkpt lat="47.28606" lon="-2.36145">
        <ele>31.39999961853</ele>
        <time>2022-07-21T07:18:26.000Z</time>
      </trkpt>
      <trkpt lat="47.28616" lon="-2.36139">
        <ele>31.39999961853</ele>
        <time>2022-07-21T07:18:30.000Z</time>
      </trkpt>
      <trkpt lat="47.28619" lon="-2.36137">
        <ele>31.39999961853</ele>
        <time>2022-07-21T07:18:31.000Z</time>
      </trkpt>
      <trkpt lat="47.28626" lon="-2.36138">
        <ele>31.39999961853</ele>
        <time>2022-07-21T07:18:33.000Z</time>
      </trkpt>
      <trkpt lat="47.28629" lon="-2.36141">
        <ele>31.39999961853</ele>
        <time>2022-07-21T07:18:34.000Z</time>
      </trkpt>
      <trkpt lat="47.28647" lon="-2.36159">
        <ele>31.39999961853</ele>
        <time>2022-07-21T07:18:39.000Z</time>
      </trkpt>
      <trkpt lat="47.2866" lon="-2.36175">
        <ele>31</ele>
        <time>2022-07-21T07:18:43.000Z</time>
      </trkpt>
      <trkpt lat="47.28663" lon="-2.3618">
        <ele>30.60000038147</ele>
        <time>2022-07-21T07:18:44.000Z</time>
      </trkpt>
      <trkpt lat="47.28665" lon="-2.36184">
        <ele>30.200000762939</ele>
        <time>2022-07-21T07:18:45.000Z</time>
      </trkpt>
      <trkpt lat="47.28667" lon="-2.36189">
        <ele>29.799999237061</ele>
        <time>2022-07-21T07:18:46.000Z</time>
      </trkpt>
      <trkpt lat="47.28668" lon="-2.36196">
        <ele>29.39999961853</ele>
        <time>2022-07-21T07:18:47.000Z</time>
      </trkpt>
      <trkpt lat="47.28669" lon="-2.36208">
        <ele>29.39999961853</ele>
        <time>2022-07-21T07:18:49.000Z</time>
      </trkpt>
      <trkpt lat="47.28671" lon="-2.36249">
        <ele>29.39999961853</ele>
        <time>2022-07-21T07:18:55.000Z</time>
      </trkpt>
      <trkpt lat="47.2867" lon="-2.36256">
        <ele>29</ele>
        <time>2022-07-21T07:18:56.000Z</time>
      </trkpt>
      <trkpt lat="47.28671" lon="-2.36263">
        <ele>28.60000038147</ele>
        <time>2022-07-21T07:18:57.000Z</time>
      </trkpt>
      <trkpt lat="47.28672" lon="-2.36269">
        <ele>28.200000762939</ele>
        <time>2022-07-21T07:18:58.000Z</time>
      </trkpt>
      <trkpt lat="47.28674" lon="-2.36273">
        <ele>27.799999237061</ele>
        <time>2022-07-21T07:18:59.000Z</time>
      </trkpt>
      <trkpt lat="47.28677" lon="-2.36274">
        <ele>27.39999961853</ele>
        <time>2022-07-21T07:19:00.000Z</time>
      </trkpt>
      <trkpt lat="47.28696" lon="-2.36275">
        <ele>27.39999961853</ele>
        <time>2022-07-21T07:19:05.000Z</time>
      </trkpt>
      <trkpt lat="47.28705" lon="-2.36269">
        <ele>27</ele>
        <time>2022-07-21T07:19:07.000Z</time>
      </trkpt>
      <trkpt lat="47.28709" lon="-2.36264">
        <ele>26</ele>
        <time>2022-07-21T07:19:08.000Z</time>
      </trkpt>
      <trkpt lat="47.28713" lon="-2.36259">
        <ele>25.60000038147</ele>
        <time>2022-07-21T07:19:09.000Z</time>
      </trkpt>
      <trkpt lat="47.28716" lon="-2.36255">
        <ele>25.200000762939</ele>
        <time>2022-07-21T07:19:10.000Z</time>
      </trkpt>
      <trkpt lat="47.28721" lon="-2.36247">
        <ele>24.799999237061</ele>
        <time>2022-07-21T07:19:13.000Z</time>
      </trkpt>
      <trkpt lat="47.28724" lon="-2.36245">
        <ele>24.39999961853</ele>
        <time>2022-07-21T07:19:14.000Z</time>
      </trkpt>
      <trkpt lat="47.28727" lon="-2.36242">
        <ele>24</ele>
        <time>2022-07-21T07:19:15.000Z</time>
      </trkpt>
      <trkpt lat="47.2873" lon="-2.3624">
        <ele>23.60000038147</ele>
        <time>2022-07-21T07:19:16.000Z</time>
      </trkpt>
      <trkpt lat="47.28733" lon="-2.36237">
        <ele>23.200000762939</ele>
        <time>2022-07-21T07:19:17.000Z</time>
      </trkpt>
      <trkpt lat="47.28737" lon="-2.36232">
        <ele>23.200000762939</ele>
        <time>2022-07-21T07:19:19.000Z</time>
      </trkpt>
      <trkpt lat="47.28756" lon="-2.36216">
        <ele>23.200000762939</ele>
        <time>2022-07-21T07:19:26.000Z</time>
      </trkpt>
      <trkpt lat="47.28779" lon="-2.36199">
        <ele>23.200000762939</ele>
        <time>2022-07-21T07:19:31.000Z</time>
      </trkpt>
      <trkpt lat="47.28796" lon="-2.36189">
        <ele>23.200000762939</ele>
        <time>2022-07-21T07:19:34.000Z</time>
      </trkpt>
      <trkpt lat="47.28812" lon="-2.36177">
        <ele>23.200000762939</ele>
        <time>2022-07-21T07:19:37.000Z</time>
      </trkpt>
      <trkpt lat="47.28834" lon="-2.36149">
        <ele>23.200000762939</ele>
        <time>2022-07-21T07:19:42.000Z</time>
      </trkpt>
      <trkpt lat="47.28862" lon="-2.36117">
        <ele>23.200000762939</ele>
        <time>2022-07-21T07:19:48.000Z</time>
      </trkpt>
      <trkpt lat="47.28887" lon="-2.36092">
        <ele>23.200000762939</ele>
        <time>2022-07-21T07:19:54.000Z</time>
      </trkpt>
      <trkpt lat="47.28907" lon="-2.36073">
        <ele>23.200000762939</ele>
        <time>2022-07-21T07:19:59.000Z</time>
      </trkpt>
      <trkpt lat="47.28916" lon="-2.36066">
        <ele>23.200000762939</ele>
        <time>2022-07-21T07:20:01.000Z</time>
      </trkpt>
      <trkpt lat="47.28949" lon="-2.36044">
        <ele>23.200000762939</ele>
        <time>2022-07-21T07:20:08.000Z</time>
      </trkpt>
      <trkpt lat="47.28975" lon="-2.36022">
        <ele>23.200000762939</ele>
        <time>2022-07-21T07:20:14.000Z</time>
      </trkpt>
      <trkpt lat="47.29009" lon="-2.35987">
        <ele>23.200000762939</ele>
        <time>2022-07-21T07:20:22.000Z</time>
      </trkpt>
      <trkpt lat="47.29041" lon="-2.35951">
        <ele>23.200000762939</ele>
        <time>2022-07-21T07:20:29.000Z</time>
      </trkpt>
      <trkpt lat="47.29046" lon="-2.35946">
        <ele>23.200000762939</ele>
        <time>2022-07-21T07:20:30.000Z</time>
      </trkpt>
      <trkpt lat="47.29069" lon="-2.3592">
        <ele>23.200000762939</ele>
        <time>2022-07-21T07:20:35.000Z</time>
      </trkpt>
      <trkpt lat="47.29102" lon="-2.35879">
        <ele>23.200000762939</ele>
        <time>2022-07-21T07:20:42.000Z</time>
      </trkpt>
      <trkpt lat="47.29135" lon="-2.35843">
        <ele>23.200000762939</ele>
        <time>2022-07-21T07:20:49.000Z</time>
      </trkpt>
      <trkpt lat="47.29159" lon="-2.35821">
        <ele>23.200000762939</ele>
        <time>2022-07-21T07:20:54.000Z</time>
      </trkpt>
      <trkpt lat="47.29169" lon="-2.35814">
        <ele>23.200000762939</ele>
        <time>2022-07-21T07:20:56.000Z</time>
      </trkpt>
      <trkpt lat="47.29215" lon="-2.3578">
        <ele>23.200000762939</ele>
        <time>2022-07-21T07:21:05.000Z</time>
      </trkpt>
      <trkpt lat="47.29244" lon="-2.35748">
        <ele>23.200000762939</ele>
        <time>2022-07-21T07:21:12.000Z</time>
      </trkpt>
      <trkpt lat="47.29258" lon="-2.3573">
        <ele>23.200000762939</ele>
        <time>2022-07-21T07:21:17.000Z</time>
      </trkpt>
      <trkpt lat="47.29273" lon="-2.3574">
        <ele>23.200000762939</ele>
        <time>2022-07-21T07:21:21.000Z</time>
      </trkpt>
      <trkpt lat="47.29277" lon="-2.35744">
        <ele>23.200000762939</ele>
        <time>2022-07-21T07:21:22.000Z</time>
      </trkpt>
      <trkpt lat="47.29282" lon="-2.35747">
        <ele>23.200000762939</ele>
        <time>2022-07-21T07:21:23.000Z</time>
      </trkpt>
      <trkpt lat="47.29297" lon="-2.35762">
        <ele>23.200000762939</ele>
        <time>2022-07-21T07:21:26.000Z</time>
      </trkpt>
      <trkpt lat="47.29333" lon="-2.35794">
        <ele>23.200000762939</ele>
        <time>2022-07-21T07:21:33.000Z</time>
      </trkpt>
      <trkpt lat="47.29362" lon="-2.35822">
        <ele>23.200000762939</ele>
        <time>2022-07-21T07:21:39.000Z</time>
      </trkpt>
      <trkpt lat="47.29367" lon="-2.35826">
        <ele>23.200000762939</ele>
        <time>2022-07-21T07:21:40.000Z</time>
      </trkpt>
      <trkpt lat="47.29381" lon="-2.35838">
        <ele>23.200000762939</ele>
        <time>2022-07-21T07:21:43.000Z</time>
      </trkpt>
      <trkpt lat="47.29397" lon="-2.35855">
        <ele>23.200000762939</ele>
        <time>2022-07-21T07:21:47.000Z</time>
      </trkpt>
      <trkpt lat="47.2943" lon="-2.35895">
        <ele>23.200000762939</ele>
        <time>2022-07-21T07:21:55.000Z</time>
      </trkpt>
      <trkpt lat="47.29434" lon="-2.35899">
        <ele>22.799999237061</ele>
        <time>2022-07-21T07:21:56.000Z</time>
      </trkpt>
      <trkpt lat="47.29438" lon="-2.35903">
        <ele>22.39999961853</ele>
        <time>2022-07-21T07:21:57.000Z</time>
      </trkpt>
      <trkpt lat="47.29442" lon="-2.35904">
        <ele>22</ele>
        <time>2022-07-21T07:21:58.000Z</time>
      </trkpt>
      <trkpt lat="47.29446" lon="-2.35904">
        <ele>21.60000038147</ele>
        <time>2022-07-21T07:21:59.000Z</time>
      </trkpt>
      <trkpt lat="47.2945" lon="-2.35903">
        <ele>21.200000762939</ele>
        <time>2022-07-21T07:22:00.000Z</time>
      </trkpt>
      <trkpt lat="47.29455" lon="-2.35903">
        <ele>21.200000762939</ele>
        <time>2022-07-21T07:22:01.000Z</time>
      </trkpt>
      <trkpt lat="47.29473" lon="-2.359">
        <ele>21.200000762939</ele>
        <time>2022-07-21T07:22:05.000Z</time>
      </trkpt>
      <trkpt lat="47.29496" lon="-2.35902">
        <ele>21.200000762939</ele>
        <time>2022-07-21T07:22:10.000Z</time>
      </trkpt>
      <trkpt lat="47.29504" lon="-2.3592">
        <ele>21.200000762939</ele>
        <time>2022-07-21T07:22:13.000Z</time>
      </trkpt>
      <trkpt lat="47.29513" lon="-2.35941">
        <ele>21.200000762939</ele>
        <time>2022-07-21T07:22:17.000Z</time>
      </trkpt>
      <trkpt lat="47.29525" lon="-2.35936">
        <ele>21.200000762939</ele>
        <time>2022-07-21T07:22:20.000Z</time>
      </trkpt>
      <trkpt lat="47.29535" lon="-2.35931">
        <ele>21.200000762939</ele>
        <time>2022-07-21T07:22:22.000Z</time>
      </trkpt>
      <trkpt lat="47.29545" lon="-2.35924">
        <ele>21.200000762939</ele>
        <time>2022-07-21T07:22:24.000Z</time>
      </trkpt>
      <trkpt lat="47.2955" lon="-2.35921">
        <ele>21.200000762939</ele>
        <time>2022-07-21T07:22:25.000Z</time>
      </trkpt>
      <trkpt lat="47.29584" lon="-2.35902">
        <ele>21.200000762939</ele>
        <time>2022-07-21T07:22:31.000Z</time>
      </trkpt>
      <trkpt lat="47.29595" lon="-2.35895">
        <ele>21.200000762939</ele>
        <time>2022-07-21T07:22:33.000Z</time>
      </trkpt>
      <trkpt lat="47.29612" lon="-2.35884">
        <ele>21.200000762939</ele>
        <time>2022-07-21T07:22:36.000Z</time>
      </trkpt>
      <trkpt lat="47.29643" lon="-2.35864">
        <ele>21.200000762939</ele>
        <time>2022-07-21T07:22:41.000Z</time>
      </trkpt>
      <trkpt lat="47.29647" lon="-2.35856">
        <ele>21.200000762939</ele>
        <time>2022-07-21T07:22:42.000Z</time>
      </trkpt>
      <trkpt lat="47.29659" lon="-2.35837">
        <ele>21.200000762939</ele>
        <time>2022-07-21T07:22:45.000Z</time>
      </trkpt>
      <trkpt lat="47.29677" lon="-2.35838">
        <ele>21.200000762939</ele>
        <time>2022-07-21T07:22:48.000Z</time>
      </trkpt>
      <trkpt lat="47.29704" lon="-2.35832">
        <ele>21.200000762939</ele>
        <time>2022-07-21T07:22:52.000Z</time>
      </trkpt>
      <trkpt lat="47.29717" lon="-2.35825">
        <ele>21.200000762939</ele>
        <time>2022-07-21T07:22:54.000Z</time>
      </trkpt>
      <trkpt lat="47.29734" lon="-2.35814">
        <ele>21.799999237061</ele>
        <time>2022-07-21T07:22:57.000Z</time>
      </trkpt>
      <trkpt lat="47.29739" lon="-2.35812">
        <ele>22.200000762939</ele>
        <time>2022-07-21T07:22:58.000Z</time>
      </trkpt>
      <trkpt lat="47.29745" lon="-2.35809">
        <ele>22.60000038147</ele>
        <time>2022-07-21T07:22:59.000Z</time>
      </trkpt>
      <trkpt lat="47.2975" lon="-2.35806">
        <ele>23.200000762939</ele>
        <time>2022-07-21T07:23:00.000Z</time>
      </trkpt>
      <trkpt lat="47.29755" lon="-2.35804">
        <ele>23.60000038147</ele>
        <time>2022-07-21T07:23:01.000Z</time>
      </trkpt>
      <trkpt lat="47.2976" lon="-2.35802">
        <ele>23.60000038147</ele>
        <time>2022-07-21T07:23:02.000Z</time>
      </trkpt>
      <trkpt lat="47.2978" lon="-2.35796">
        <ele>24</ele>
        <time>2022-07-21T07:23:06.000Z</time>
      </trkpt>
      <trkpt lat="47.29785" lon="-2.35794">
        <ele>24.39999961853</ele>
        <time>2022-07-21T07:23:07.000Z</time>
      </trkpt>
      <trkpt lat="47.2979" lon="-2.35793">
        <ele>24.799999237061</ele>
        <time>2022-07-21T07:23:08.000Z</time>
      </trkpt>
      <trkpt lat="47.29795" lon="-2.35791">
        <ele>25.200000762939</ele>
        <time>2022-07-21T07:23:09.000Z</time>
      </trkpt>
      <trkpt lat="47.29799" lon="-2.35789">
        <ele>25.60000038147</ele>
        <time>2022-07-21T07:23:10.000Z</time>
      </trkpt>
      <trkpt lat="47.29842" lon="-2.35774">
        <ele>25.60000038147</ele>
        <time>2022-07-21T07:23:18.000Z</time>
      </trkpt>
      <trkpt lat="47.29856" lon="-2.35769">
        <ele>25.200000762939</ele>
        <time>2022-07-21T07:23:20.000Z</time>
      </trkpt>
      <trkpt lat="47.29862" lon="-2.35767">
        <ele>24.799999237061</ele>
        <time>2022-07-21T07:23:21.000Z</time>
      </trkpt>
      <trkpt lat="47.29868" lon="-2.35764">
        <ele>24.39999961853</ele>
        <time>2022-07-21T07:23:22.000Z</time>
      </trkpt>
      <trkpt lat="47.29874" lon="-2.35762">
        <ele>24</ele>
        <time>2022-07-21T07:23:23.000Z</time>
      </trkpt>
      <trkpt lat="47.29881" lon="-2.35759">
        <ele>23.60000038147</ele>
        <time>2022-07-21T07:23:24.000Z</time>
      </trkpt>
      <trkpt lat="47.29893" lon="-2.35753">
        <ele>23.60000038147</ele>
        <time>2022-07-21T07:23:26.000Z</time>
      </trkpt>
      <trkpt lat="47.29927" lon="-2.35728">
        <ele>23.60000038147</ele>
        <time>2022-07-21T07:23:32.000Z</time>
      </trkpt>
      <trkpt lat="47.29963" lon="-2.35702">
        <ele>23.60000038147</ele>
        <time>2022-07-21T07:23:39.000Z</time>
      </trkpt>
      <trkpt lat="47.29998" lon="-2.3568">
        <ele>23.60000038147</ele>
        <time>2022-07-21T07:23:46.000Z</time>
      </trkpt>
      <trkpt lat="47.30033" lon="-2.35659">
        <ele>23.60000038147</ele>
        <time>2022-07-21T07:23:53.000Z</time>
      </trkpt>
      <trkpt lat="47.30044" lon="-2.35653">
        <ele>24</ele>
        <time>2022-07-21T07:23:55.000Z</time>
      </trkpt>
      <trkpt lat="47.30049" lon="-2.3565">
        <ele>24.39999961853</ele>
        <time>2022-07-21T07:23:56.000Z</time>
      </trkpt>
      <trkpt lat="47.30054" lon="-2.35646">
        <ele>24.799999237061</ele>
        <time>2022-07-21T07:23:57.000Z</time>
      </trkpt>
      <trkpt lat="47.30059" lon="-2.35643">
        <ele>25.200000762939</ele>
        <time>2022-07-21T07:23:58.000Z</time>
      </trkpt>
      <trkpt lat="47.30064" lon="-2.3564">
        <ele>25.60000038147</ele>
        <time>2022-07-21T07:23:59.000Z</time>
      </trkpt>
      <trkpt lat="47.30074" lon="-2.35633">
        <ele>25.60000038147</ele>
        <time>2022-07-21T07:24:01.000Z</time>
      </trkpt>
      <trkpt lat="47.30108" lon="-2.35613">
        <ele>25.60000038147</ele>
        <time>2022-07-21T07:24:08.000Z</time>
      </trkpt>
      <trkpt lat="47.30121" lon="-2.356">
        <ele>25.60000038147</ele>
        <time>2022-07-21T07:24:12.000Z</time>
      </trkpt>
      <trkpt lat="47.30125" lon="-2.35596">
        <ele>25.60000038147</ele>
        <time>2022-07-21T07:24:13.000Z</time>
      </trkpt>
      <trkpt lat="47.30129" lon="-2.35594">
        <ele>25.60000038147</ele>
        <time>2022-07-21T07:24:14.000Z</time>
      </trkpt>
      <trkpt lat="47.30136" lon="-2.35603">
        <ele>25.60000038147</ele>
        <time>2022-07-21T07:24:16.000Z</time>
      </trkpt>
      <trkpt lat="47.30134" lon="-2.35624">
        <ele>25.60000038147</ele>
        <time>2022-07-21T07:24:19.000Z</time>
      </trkpt>
      <trkpt lat="47.30133" lon="-2.35632">
        <ele>25.60000038147</ele>
        <time>2022-07-21T07:24:20.000Z</time>
      </trkpt>
      <trkpt lat="47.30133" lon="-2.3564">
        <ele>25.60000038147</ele>
        <time>2022-07-21T07:24:21.000Z</time>
      </trkpt>
      <trkpt lat="47.30134" lon="-2.35656">
        <ele>25.60000038147</ele>
        <time>2022-07-21T07:24:23.000Z</time>
      </trkpt>
      <trkpt lat="47.30136" lon="-2.35689">
        <ele>26</ele>
        <time>2022-07-21T07:24:27.000Z</time>
      </trkpt>
      <trkpt lat="47.30136" lon="-2.35698">
        <ele>26.39999961853</ele>
        <time>2022-07-21T07:24:28.000Z</time>
      </trkpt>
      <trkpt lat="47.30137" lon="-2.35707">
        <ele>27.200000762939</ele>
        <time>2022-07-21T07:24:29.000Z</time>
      </trkpt>
      <trkpt lat="47.30138" lon="-2.35716">
        <ele>27.60000038147</ele>
        <time>2022-07-21T07:24:30.000Z</time>
      </trkpt>
      <trkpt lat="47.30138" lon="-2.35725">
        <ele>27.60000038147</ele>
        <time>2022-07-21T07:24:31.000Z</time>
      </trkpt>
      <trkpt lat="47.3014" lon="-2.35777">
        <ele>27.200000762939</ele>
        <time>2022-07-21T07:24:36.000Z</time>
      </trkpt>
      <trkpt lat="47.30141" lon="-2.35788">
        <ele>26.799999237061</ele>
        <time>2022-07-21T07:24:37.000Z</time>
      </trkpt>
      <trkpt lat="47.30141" lon="-2.358">
        <ele>26.39999961853</ele>
        <time>2022-07-21T07:24:38.000Z</time>
      </trkpt>
      <trkpt lat="47.30141" lon="-2.35811">
        <ele>26</ele>
        <time>2022-07-21T07:24:39.000Z</time>
      </trkpt>
      <trkpt lat="47.3014" lon="-2.35823">
        <ele>25.60000038147</ele>
        <time>2022-07-21T07:24:40.000Z</time>
      </trkpt>
      <trkpt lat="47.30137" lon="-2.35848">
        <ele>25.200000762939</ele>
        <time>2022-07-21T07:24:42.000Z</time>
      </trkpt>
      <trkpt lat="47.30135" lon="-2.3586">
        <ele>24.799999237061</ele>
        <time>2022-07-21T07:24:43.000Z</time>
      </trkpt>
      <trkpt lat="47.30132" lon="-2.35872">
        <ele>24.39999961853</ele>
        <time>2022-07-21T07:24:44.000Z</time>
      </trkpt>
      <trkpt lat="47.3013" lon="-2.35884">
        <ele>23.799999237061</ele>
        <time>2022-07-21T07:24:45.000Z</time>
      </trkpt>
      <trkpt lat="47.30127" lon="-2.35896">
        <ele>23.39999961853</ele>
        <time>2022-07-21T07:24:46.000Z</time>
      </trkpt>
      <trkpt lat="47.3012" lon="-2.35933">
        <ele>23</ele>
        <time>2022-07-21T07:24:49.000Z</time>
      </trkpt>
      <trkpt lat="47.30117" lon="-2.35945">
        <ele>22.60000038147</ele>
        <time>2022-07-21T07:24:50.000Z</time>
      </trkpt>
      <trkpt lat="47.30115" lon="-2.35956">
        <ele>22.200000762939</ele>
        <time>2022-07-21T07:24:51.000Z</time>
      </trkpt>
      <trkpt lat="47.30113" lon="-2.35968">
        <ele>21.799999237061</ele>
        <time>2022-07-21T07:24:52.000Z</time>
      </trkpt>
      <trkpt lat="47.3011" lon="-2.3598">
        <ele>21.39999961853</ele>
        <time>2022-07-21T07:24:53.000Z</time>
      </trkpt>
      <trkpt lat="47.30106" lon="-2.36014">
        <ele>21.39999961853</ele>
        <time>2022-07-21T07:24:56.000Z</time>
      </trkpt>
      <trkpt lat="47.30098" lon="-2.36089">
        <ele>21.39999961853</ele>
        <time>2022-07-21T07:25:03.000Z</time>
      </trkpt>
      <trkpt lat="47.30092" lon="-2.36152">
        <ele>21.39999961853</ele>
        <time>2022-07-21T07:25:10.000Z</time>
      </trkpt>
      <trkpt lat="47.30088" lon="-2.36214">
        <ele>21.39999961853</ele>
        <time>2022-07-21T07:25:17.000Z</time>
      </trkpt>
      <trkpt lat="47.30092" lon="-2.36273">
        <ele>21.39999961853</ele>
        <time>2022-07-21T07:25:24.000Z</time>
      </trkpt>
      <trkpt lat="47.30098" lon="-2.36342">
        <ele>21.39999961853</ele>
        <time>2022-07-21T07:25:32.000Z</time>
      </trkpt>
      <trkpt lat="47.30103" lon="-2.36396">
        <ele>21.799999237061</ele>
        <time>2022-07-21T07:25:38.000Z</time>
      </trkpt>
      <trkpt lat="47.30104" lon="-2.36405">
        <ele>22.200000762939</ele>
        <time>2022-07-21T07:25:39.000Z</time>
      </trkpt>
      <trkpt lat="47.30105" lon="-2.36413">
        <ele>22.60000038147</ele>
        <time>2022-07-21T07:25:40.000Z</time>
      </trkpt>
      <trkpt lat="47.30105" lon="-2.36423">
        <ele>23</ele>
        <time>2022-07-21T07:25:41.000Z</time>
      </trkpt>
      <trkpt lat="47.30107" lon="-2.36431">
        <ele>23.39999961853</ele>
        <time>2022-07-21T07:25:42.000Z</time>
      </trkpt>
      <trkpt lat="47.30111" lon="-2.36465">
        <ele>23.39999961853</ele>
        <time>2022-07-21T07:25:46.000Z</time>
      </trkpt>
      <trkpt lat="47.30122" lon="-2.3655">
        <ele>23.39999961853</ele>
        <time>2022-07-21T07:25:56.000Z</time>
      </trkpt>
      <trkpt lat="47.30123" lon="-2.36558">
        <ele>24</ele>
        <time>2022-07-21T07:25:57.000Z</time>
      </trkpt>
      <trkpt lat="47.30125" lon="-2.36566">
        <ele>24.39999961853</ele>
        <time>2022-07-21T07:25:58.000Z</time>
      </trkpt>
      <trkpt lat="47.30126" lon="-2.36574">
        <ele>24.799999237061</ele>
        <time>2022-07-21T07:25:59.000Z</time>
      </trkpt>
      <trkpt lat="47.30126" lon="-2.36581">
        <ele>25.200000762939</ele>
        <time>2022-07-21T07:26:00.000Z</time>
      </trkpt>
      <trkpt lat="47.30128" lon="-2.36588">
        <ele>25.60000038147</ele>
        <time>2022-07-21T07:26:01.000Z</time>
      </trkpt>
      <trkpt lat="47.30131" lon="-2.36604">
        <ele>25.60000038147</ele>
        <time>2022-07-21T07:26:03.000Z</time>
      </trkpt>
      <trkpt lat="47.30146" lon="-2.36645">
        <ele>25.60000038147</ele>
        <time>2022-07-21T07:26:09.000Z</time>
      </trkpt>
      <trkpt lat="47.3016" lon="-2.36674">
        <ele>26</ele>
        <time>2022-07-21T07:26:15.000Z</time>
      </trkpt>
      <trkpt lat="47.30162" lon="-2.36678">
        <ele>26.39999961853</ele>
        <time>2022-07-21T07:26:16.000Z</time>
      </trkpt>
      <trkpt lat="47.30164" lon="-2.36681">
        <ele>26.799999237061</ele>
        <time>2022-07-21T07:26:17.000Z</time>
      </trkpt>
      <trkpt lat="47.30167" lon="-2.36683">
        <ele>27.200000762939</ele>
        <time>2022-07-21T07:26:18.000Z</time>
      </trkpt>
      <trkpt lat="47.30169" lon="-2.36684">
        <ele>27.799999237061</ele>
        <time>2022-07-21T07:26:19.000Z</time>
      </trkpt>
      <trkpt lat="47.30171" lon="-2.36683">
        <ele>27.799999237061</ele>
        <time>2022-07-21T07:26:20.000Z</time>
      </trkpt>
      <trkpt lat="47.30175" lon="-2.36683">
        <ele>27.799999237061</ele>
        <time>2022-07-21T07:26:25.000Z</time>
      </trkpt>
      <trkpt lat="47.30186" lon="-2.36676">
        <ele>27.799999237061</ele>
        <time>2022-07-21T07:27:08.000Z</time>
      </trkpt>
      <trkpt lat="47.30194" lon="-2.36674">
        <ele>27.799999237061</ele>
        <time>2022-07-21T07:27:11.000Z</time>
      </trkpt>
      <trkpt lat="47.30215" lon="-2.36671">
        <ele>27.799999237061</ele>
        <time>2022-07-21T07:27:16.000Z</time>
      </trkpt>
      <trkpt lat="47.30248" lon="-2.36666">
        <ele>27.799999237061</ele>
        <time>2022-07-21T07:27:22.000Z</time>
      </trkpt>
      <trkpt lat="47.30259" lon="-2.36663">
        <ele>28.200000762939</ele>
        <time>2022-07-21T07:27:24.000Z</time>
      </trkpt>
      <trkpt lat="47.30265" lon="-2.3666">
        <ele>28.60000038147</ele>
        <time>2022-07-21T07:27:25.000Z</time>
      </trkpt>
      <trkpt lat="47.30271" lon="-2.36658">
        <ele>29</ele>
        <time>2022-07-21T07:27:26.000Z</time>
      </trkpt>
      <trkpt lat="47.30277" lon="-2.36655">
        <ele>29.39999961853</ele>
        <time>2022-07-21T07:27:27.000Z</time>
      </trkpt>
      <trkpt lat="47.30282" lon="-2.36653">
        <ele>29.799999237061</ele>
        <time>2022-07-21T07:27:28.000Z</time>
      </trkpt>
      <trkpt lat="47.30292" lon="-2.36648">
        <ele>29.799999237061</ele>
        <time>2022-07-21T07:27:30.000Z</time>
      </trkpt>
      <trkpt lat="47.30298" lon="-2.36646">
        <ele>29.799999237061</ele>
        <time>2022-07-21T07:27:31.000Z</time>
      </trkpt>
      <trkpt lat="47.30308" lon="-2.36645">
        <ele>29.799999237061</ele>
        <time>2022-07-21T07:27:33.000Z</time>
      </trkpt>
      <trkpt lat="47.30314" lon="-2.36646">
        <ele>29.799999237061</ele>
        <time>2022-07-21T07:27:34.000Z</time>
      </trkpt>
      <trkpt lat="47.30349" lon="-2.36653">
        <ele>29.799999237061</ele>
        <time>2022-07-21T07:27:40.000Z</time>
      </trkpt>
      <trkpt lat="47.30379" lon="-2.36656">
        <ele>29.799999237061</ele>
        <time>2022-07-21T07:27:46.000Z</time>
      </trkpt>
      <trkpt lat="47.30384" lon="-2.36656">
        <ele>29.799999237061</ele>
        <time>2022-07-21T07:27:47.000Z</time>
      </trkpt>
      <trkpt lat="47.30394" lon="-2.36655">
        <ele>30.200000762939</ele>
        <time>2022-07-21T07:27:49.000Z</time>
      </trkpt>
      <trkpt lat="47.30398" lon="-2.36654">
        <ele>30.60000038147</ele>
        <time>2022-07-21T07:27:50.000Z</time>
      </trkpt>
      <trkpt lat="47.30402" lon="-2.36654">
        <ele>31</ele>
        <time>2022-07-21T07:27:51.000Z</time>
      </trkpt>
      <trkpt lat="47.30406" lon="-2.36653">
        <ele>31.39999961853</ele>
        <time>2022-07-21T07:27:52.000Z</time>
      </trkpt>
      <trkpt lat="47.3041" lon="-2.36653">
        <ele>31.799999237061</ele>
        <time>2022-07-21T07:27:53.000Z</time>
      </trkpt>
      <trkpt lat="47.30423" lon="-2.36646">
        <ele>31.799999237061</ele>
        <time>2022-07-21T07:27:57.000Z</time>
      </trkpt>
      <trkpt lat="47.30443" lon="-2.36628">
        <ele>31.799999237061</ele>
        <time>2022-07-21T07:28:03.000Z</time>
      </trkpt>
      <trkpt lat="47.30455" lon="-2.3662">
        <ele>31.799999237061</ele>
        <time>2022-07-21T07:28:06.000Z</time>
      </trkpt>
      <trkpt lat="47.30468" lon="-2.36611">
        <ele>31.799999237061</ele>
        <time>2022-07-21T07:28:09.000Z</time>
      </trkpt>
      <trkpt lat="47.30481" lon="-2.36605">
        <ele>31.799999237061</ele>
        <time>2022-07-21T07:28:12.000Z</time>
      </trkpt>
      <trkpt lat="47.30489" lon="-2.36602">
        <ele>31.799999237061</ele>
        <time>2022-07-21T07:28:14.000Z</time>
      </trkpt>
      <trkpt lat="47.30507" lon="-2.36597">
        <ele>31.799999237061</ele>
        <time>2022-07-21T07:28:18.000Z</time>
      </trkpt>
      <trkpt lat="47.30512" lon="-2.36595">
        <ele>31.799999237061</ele>
        <time>2022-07-21T07:28:19.000Z</time>
      </trkpt>
      <trkpt lat="47.30529" lon="-2.36586">
        <ele>31.799999237061</ele>
        <time>2022-07-21T07:28:23.000Z</time>
      </trkpt>
      <trkpt lat="47.30539" lon="-2.36578">
        <ele>31.799999237061</ele>
        <time>2022-07-21T07:28:25.000Z</time>
      </trkpt>
      <trkpt lat="47.30568" lon="-2.36555">
        <ele>31.799999237061</ele>
        <time>2022-07-21T07:28:31.000Z</time>
      </trkpt>
      <trkpt lat="47.30594" lon="-2.36547">
        <ele>31.799999237061</ele>
        <time>2022-07-21T07:28:36.000Z</time>
      </trkpt>
      <trkpt lat="47.30627" lon="-2.36541">
        <ele>31.799999237061</ele>
        <time>2022-07-21T07:28:42.000Z</time>
      </trkpt>
      <trkpt lat="47.30657" lon="-2.36526">
        <ele>31.799999237061</ele>
        <time>2022-07-21T07:28:47.000Z</time>
      </trkpt>
      <trkpt lat="47.30687" lon="-2.36512">
        <ele>31.799999237061</ele>
        <time>2022-07-21T07:28:52.000Z</time>
      </trkpt>
      <trkpt lat="47.30691" lon="-2.36513">
        <ele>31.799999237061</ele>
        <time>2022-07-21T07:28:53.000Z</time>
      </trkpt>
      <trkpt lat="47.307" lon="-2.36521">
        <ele>31.799999237061</ele>
        <time>2022-07-21T07:28:56.000Z</time>
      </trkpt>
      <trkpt lat="47.30711" lon="-2.36511">
        <ele>31.799999237061</ele>
        <time>2022-07-21T07:28:59.000Z</time>
      </trkpt>
      <trkpt lat="47.30726" lon="-2.365">
        <ele>31.799999237061</ele>
        <time>2022-07-21T07:29:02.000Z</time>
      </trkpt>
      <trkpt lat="47.30732" lon="-2.36497">
        <ele>31.39999961853</ele>
        <time>2022-07-21T07:29:03.000Z</time>
      </trkpt>
      <trkpt lat="47.30739" lon="-2.36494">
        <ele>31</ele>
        <time>2022-07-21T07:29:04.000Z</time>
      </trkpt>
      <trkpt lat="47.30745" lon="-2.36492">
        <ele>30.60000038147</ele>
        <time>2022-07-21T07:29:05.000Z</time>
      </trkpt>
      <trkpt lat="47.30751" lon="-2.36489">
        <ele>30.200000762939</ele>
        <time>2022-07-21T07:29:06.000Z</time>
      </trkpt>
      <trkpt lat="47.30757" lon="-2.36487">
        <ele>29.799999237061</ele>
        <time>2022-07-21T07:29:07.000Z</time>
      </trkpt>
      <trkpt lat="47.30788" lon="-2.36476">
        <ele>29.799999237061</ele>
        <time>2022-07-21T07:29:12.000Z</time>
      </trkpt>
      <trkpt lat="47.30806" lon="-2.36473">
        <ele>29.799999237061</ele>
        <time>2022-07-21T07:29:15.000Z</time>
      </trkpt>
      <trkpt lat="47.30817" lon="-2.36476">
        <ele>29.39999961853</ele>
        <time>2022-07-21T07:29:17.000Z</time>
      </trkpt>
      <trkpt lat="47.30822" lon="-2.3648">
        <ele>29</ele>
        <time>2022-07-21T07:29:18.000Z</time>
      </trkpt>
      <trkpt lat="47.30827" lon="-2.36483">
        <ele>28.60000038147</ele>
        <time>2022-07-21T07:29:19.000Z</time>
      </trkpt>
      <trkpt lat="47.30831" lon="-2.36486">
        <ele>28.200000762939</ele>
        <time>2022-07-21T07:29:20.000Z</time>
      </trkpt>
      <trkpt lat="47.30836" lon="-2.36486">
        <ele>27.60000038147</ele>
        <time>2022-07-21T07:29:21.000Z</time>
      </trkpt>
      <trkpt lat="47.30851" lon="-2.36484">
        <ele>27.60000038147</ele>
        <time>2022-07-21T07:29:24.000Z</time>
      </trkpt>
      <trkpt lat="47.30868" lon="-2.3648">
        <ele>27.60000038147</ele>
        <time>2022-07-21T07:29:27.000Z</time>
      </trkpt>
      <trkpt lat="47.30901" lon="-2.36468">
        <ele>27.60000038147</ele>
        <time>2022-07-21T07:29:33.000Z</time>
      </trkpt>
      <trkpt lat="47.30906" lon="-2.36466">
        <ele>27.60000038147</ele>
        <time>2022-07-21T07:29:34.000Z</time>
      </trkpt>
      <trkpt lat="47.30932" lon="-2.36459">
        <ele>27.60000038147</ele>
        <time>2022-07-21T07:29:39.000Z</time>
      </trkpt>
      <trkpt lat="47.30955" lon="-2.36452">
        <ele>27.60000038147</ele>
        <time>2022-07-21T07:29:43.000Z</time>
      </trkpt>
      <trkpt lat="47.3096" lon="-2.3645">
        <ele>27.60000038147</ele>
        <time>2022-07-21T07:29:44.000Z</time>
      </trkpt>
      <trkpt lat="47.30993" lon="-2.36432">
        <ele>27.60000038147</ele>
        <time>2022-07-21T07:29:50.000Z</time>
      </trkpt>
      <trkpt lat="47.31011" lon="-2.36425">
        <ele>27.60000038147</ele>
        <time>2022-07-21T07:29:53.000Z</time>
      </trkpt>
      <trkpt lat="47.31024" lon="-2.36421">
        <ele>27.200000762939</ele>
        <time>2022-07-21T07:29:55.000Z</time>
      </trkpt>
      <trkpt lat="47.3103" lon="-2.3642">
        <ele>26.799999237061</ele>
        <time>2022-07-21T07:29:56.000Z</time>
      </trkpt>
      <trkpt lat="47.31036" lon="-2.36419">
        <ele>26.39999961853</ele>
        <time>2022-07-21T07:29:57.000Z</time>
      </trkpt>
      <trkpt lat="47.31042" lon="-2.36418">
        <ele>26</ele>
        <time>2022-07-21T07:29:58.000Z</time>
      </trkpt>
      <trkpt lat="47.31048" lon="-2.36417">
        <ele>25.60000038147</ele>
        <time>2022-07-21T07:29:59.000Z</time>
      </trkpt>
      <trkpt lat="47.31065" lon="-2.36416">
        <ele>25.60000038147</ele>
        <time>2022-07-21T07:30:02.000Z</time>
      </trkpt>
      <trkpt lat="47.31096" lon="-2.36414">
        <ele>25.60000038147</ele>
        <time>2022-07-21T07:30:08.000Z</time>
      </trkpt>
      <trkpt lat="47.31122" lon="-2.36399">
        <ele>25.60000038147</ele>
        <time>2022-07-21T07:30:13.000Z</time>
      </trkpt>
      <trkpt lat="47.31163" lon="-2.36369">
        <ele>25.60000038147</ele>
        <time>2022-07-21T07:30:20.000Z</time>
      </trkpt>
      <trkpt lat="47.31193" lon="-2.36352">
        <ele>25.60000038147</ele>
        <time>2022-07-21T07:30:25.000Z</time>
      </trkpt>
      <trkpt lat="47.31223" lon="-2.36336">
        <ele>25.60000038147</ele>
        <time>2022-07-21T07:30:30.000Z</time>
      </trkpt>
      <trkpt lat="47.31228" lon="-2.36332">
        <ele>25.60000038147</ele>
        <time>2022-07-21T07:30:31.000Z</time>
      </trkpt>
      <trkpt lat="47.31261" lon="-2.36313">
        <ele>25.60000038147</ele>
        <time>2022-07-21T07:30:37.000Z</time>
      </trkpt>
      <trkpt lat="47.31289" lon="-2.36301">
        <ele>25.60000038147</ele>
        <time>2022-07-21T07:30:42.000Z</time>
      </trkpt>
      <trkpt lat="47.31315" lon="-2.36284">
        <ele>25.60000038147</ele>
        <time>2022-07-21T07:30:47.000Z</time>
      </trkpt>
      <trkpt lat="47.3132" lon="-2.3628">
        <ele>25.60000038147</ele>
        <time>2022-07-21T07:30:48.000Z</time>
      </trkpt>
      <trkpt lat="47.3133" lon="-2.3627">
        <ele>26</ele>
        <time>2022-07-21T07:30:50.000Z</time>
      </trkpt>
      <trkpt lat="47.31334" lon="-2.36265">
        <ele>26.39999961853</ele>
        <time>2022-07-21T07:30:51.000Z</time>
      </trkpt>
      <trkpt lat="47.31339" lon="-2.36261">
        <ele>27</ele>
        <time>2022-07-21T07:30:52.000Z</time>
      </trkpt>
      <trkpt lat="47.31343" lon="-2.36257">
        <ele>27.39999961853</ele>
        <time>2022-07-21T07:30:53.000Z</time>
      </trkpt>
      <trkpt lat="47.31348" lon="-2.36252">
        <ele>27.799999237061</ele>
        <time>2022-07-21T07:30:54.000Z</time>
      </trkpt>
      <trkpt lat="47.31353" lon="-2.36248">
        <ele>27.799999237061</ele>
        <time>2022-07-21T07:30:55.000Z</time>
      </trkpt>
      <trkpt lat="47.31378" lon="-2.3623">
        <ele>27.799999237061</ele>
        <time>2022-07-21T07:31:00.000Z</time>
      </trkpt>
      <trkpt lat="47.31388" lon="-2.36226">
        <ele>27.799999237061</ele>
        <time>2022-07-21T07:31:02.000Z</time>
      </trkpt>
      <trkpt lat="47.31428" lon="-2.36204">
        <ele>27.799999237061</ele>
        <time>2022-07-21T07:31:09.000Z</time>
      </trkpt>
      <trkpt lat="47.3146" lon="-2.36178">
        <ele>27.799999237061</ele>
        <time>2022-07-21T07:31:15.000Z</time>
      </trkpt>
      <trkpt lat="47.31464" lon="-2.36172">
        <ele>27.799999237061</ele>
        <time>2022-07-21T07:31:16.000Z</time>
      </trkpt>
      <trkpt lat="47.31485" lon="-2.36147">
        <ele>27.799999237061</ele>
        <time>2022-07-21T07:31:21.000Z</time>
      </trkpt>
      <trkpt lat="47.31515" lon="-2.36112">
        <ele>27.799999237061</ele>
        <time>2022-07-21T07:31:28.000Z</time>
      </trkpt>
      <trkpt lat="47.31541" lon="-2.36082">
        <ele>27.799999237061</ele>
        <time>2022-07-21T07:31:34.000Z</time>
      </trkpt>
      <trkpt lat="47.31564" lon="-2.3606">
        <ele>27.799999237061</ele>
        <time>2022-07-21T07:31:38.000Z</time>
      </trkpt>
      <trkpt lat="47.3157" lon="-2.36055">
        <ele>27.799999237061</ele>
        <time>2022-07-21T07:31:39.000Z</time>
      </trkpt>
      <trkpt lat="47.31575" lon="-2.3605">
        <ele>27.799999237061</ele>
        <time>2022-07-21T07:31:40.000Z</time>
      </trkpt>
      <trkpt lat="47.31581" lon="-2.36045">
        <ele>27.200000762939</ele>
        <time>2022-07-21T07:31:41.000Z</time>
      </trkpt>
      <trkpt lat="47.31586" lon="-2.3604">
        <ele>26.799999237061</ele>
        <time>2022-07-21T07:31:42.000Z</time>
      </trkpt>
      <trkpt lat="47.31592" lon="-2.36034">
        <ele>26.39999961853</ele>
        <time>2022-07-21T07:31:43.000Z</time>
      </trkpt>
      <trkpt lat="47.31597" lon="-2.36028">
        <ele>26</ele>
        <time>2022-07-21T07:31:44.000Z</time>
      </trkpt>
      <trkpt lat="47.31602" lon="-2.36022">
        <ele>25.60000038147</ele>
        <time>2022-07-21T07:31:45.000Z</time>
      </trkpt>
      <trkpt lat="47.31627" lon="-2.35992">
        <ele>25.60000038147</ele>
        <time>2022-07-21T07:31:50.000Z</time>
      </trkpt>
      <trkpt lat="47.31646" lon="-2.35972">
        <ele>25.60000038147</ele>
        <time>2022-07-21T07:31:54.000Z</time>
      </trkpt>
      <trkpt lat="47.31651" lon="-2.35969">
        <ele>25.60000038147</ele>
        <time>2022-07-21T07:31:55.000Z</time>
      </trkpt>
      <trkpt lat="47.31663" lon="-2.35961">
        <ele>25</ele>
        <time>2022-07-21T07:31:57.000Z</time>
      </trkpt>
      <trkpt lat="47.31669" lon="-2.35957">
        <ele>24.60000038147</ele>
        <time>2022-07-21T07:31:58.000Z</time>
      </trkpt>
      <trkpt lat="47.31675" lon="-2.35954">
        <ele>24.200000762939</ele>
        <time>2022-07-21T07:31:59.000Z</time>
      </trkpt>
      <trkpt lat="47.31682" lon="-2.3595">
        <ele>23.799999237061</ele>
        <time>2022-07-21T07:32:00.000Z</time>
      </trkpt>
      <trkpt lat="47.31689" lon="-2.35946">
        <ele>23.39999961853</ele>
        <time>2022-07-21T07:32:01.000Z</time>
      </trkpt>
      <trkpt lat="47.31734" lon="-2.35922">
        <ele>23.39999961853</ele>
        <time>2022-07-21T07:32:07.000Z</time>
      </trkpt>
      <trkpt lat="47.31757" lon="-2.35911">
        <ele>22.799999237061</ele>
        <time>2022-07-21T07:32:10.000Z</time>
      </trkpt>
      <trkpt lat="47.31764" lon="-2.35906">
        <ele>22.39999961853</ele>
        <time>2022-07-21T07:32:11.000Z</time>
      </trkpt>
      <trkpt lat="47.31771" lon="-2.35902">
        <ele>22</ele>
        <time>2022-07-21T07:32:12.000Z</time>
      </trkpt>
      <trkpt lat="47.31777" lon="-2.35898">
        <ele>21.39999961853</ele>
        <time>2022-07-21T07:32:13.000Z</time>
      </trkpt>
      <trkpt lat="47.31784" lon="-2.35895">
        <ele>21</ele>
        <time>2022-07-21T07:32:14.000Z</time>
      </trkpt>
      <trkpt lat="47.31813" lon="-2.35881">
        <ele>21</ele>
        <time>2022-07-21T07:32:19.000Z</time>
      </trkpt>
      <trkpt lat="47.31819" lon="-2.35867">
        <ele>21</ele>
        <time>2022-07-21T07:32:21.000Z</time>
      </trkpt>
      <trkpt lat="47.31815" lon="-2.35845">
        <ele>21</ele>
        <time>2022-07-21T07:32:24.000Z</time>
      </trkpt>
      <trkpt lat="47.31812" lon="-2.35839">
        <ele>21</ele>
        <time>2022-07-21T07:32:25.000Z</time>
      </trkpt>
      <trkpt lat="47.31801" lon="-2.35821">
        <ele>21</ele>
        <time>2022-07-21T07:32:28.000Z</time>
      </trkpt>
      <trkpt lat="47.31787" lon="-2.35805">
        <ele>21</ele>
        <time>2022-07-21T07:32:31.000Z</time>
      </trkpt>
      <trkpt lat="47.31784" lon="-2.35799">
        <ele>21</ele>
        <time>2022-07-21T07:32:32.000Z</time>
      </trkpt>
      <trkpt lat="47.3178" lon="-2.35775">
        <ele>21</ele>
        <time>2022-07-21T07:32:35.000Z</time>
      </trkpt>
      <trkpt lat="47.31779" lon="-2.35756">
        <ele>21</ele>
        <time>2022-07-21T07:32:37.000Z</time>
      </trkpt>
      <trkpt lat="47.31779" lon="-2.35734">
        <ele>20.60000038147</ele>
        <time>2022-07-21T07:32:39.000Z</time>
      </trkpt>
      <trkpt lat="47.31779" lon="-2.35723">
        <ele>20.200000762939</ele>
        <time>2022-07-21T07:32:40.000Z</time>
      </trkpt>
      <trkpt lat="47.31778" lon="-2.35711">
        <ele>19.799999237061</ele>
        <time>2022-07-21T07:32:41.000Z</time>
      </trkpt>
      <trkpt lat="47.31778" lon="-2.35699">
        <ele>19.39999961853</ele>
        <time>2022-07-21T07:32:42.000Z</time>
      </trkpt>
      <trkpt lat="47.31778" lon="-2.35687">
        <ele>18.799999237061</ele>
        <time>2022-07-21T07:32:43.000Z</time>
      </trkpt>
      <trkpt lat="47.31777" lon="-2.35666">
        <ele>18.799999237061</ele>
        <time>2022-07-21T07:32:45.000Z</time>
      </trkpt>
      <trkpt lat="47.31777" lon="-2.35657">
        <ele>18.39999961853</ele>
        <time>2022-07-21T07:32:46.000Z</time>
      </trkpt>
      <trkpt lat="47.31779" lon="-2.35647">
        <ele>18</ele>
        <time>2022-07-21T07:32:47.000Z</time>
      </trkpt>
      <trkpt lat="47.31781" lon="-2.35637">
        <ele>17.60000038147</ele>
        <time>2022-07-21T07:32:48.000Z</time>
      </trkpt>
      <trkpt lat="47.31785" lon="-2.35628">
        <ele>17</ele>
        <time>2022-07-21T07:32:49.000Z</time>
      </trkpt>
      <trkpt lat="47.31788" lon="-2.35619">
        <ele>16.60000038147</ele>
        <time>2022-07-21T07:32:50.000Z</time>
      </trkpt>
      <trkpt lat="47.31796" lon="-2.35602">
        <ele>16.60000038147</ele>
        <time>2022-07-21T07:32:52.000Z</time>
      </trkpt>
      <trkpt lat="47.318" lon="-2.35594">
        <ele>16.60000038147</ele>
        <time>2022-07-21T07:32:53.000Z</time>
      </trkpt>
      <trkpt lat="47.31807" lon="-2.3558">
        <ele>16.60000038147</ele>
        <time>2022-07-21T07:32:55.000Z</time>
      </trkpt>
      <trkpt lat="47.31817" lon="-2.35571">
        <ele>16.200000762939</ele>
        <time>2022-07-21T07:32:57.000Z</time>
      </trkpt>
      <trkpt lat="47.31822" lon="-2.35567">
        <ele>15.800000190735</ele>
        <time>2022-07-21T07:32:58.000Z</time>
      </trkpt>
      <trkpt lat="47.31826" lon="-2.35562">
        <ele>15.39999961853</ele>
        <time>2022-07-21T07:32:59.000Z</time>
      </trkpt>
      <trkpt lat="47.31829" lon="-2.35556">
        <ele>15</ele>
        <time>2022-07-21T07:33:00.000Z</time>
      </trkpt>
      <trkpt lat="47.31831" lon="-2.35549">
        <ele>14.60000038147</ele>
        <time>2022-07-21T07:33:01.000Z</time>
      </trkpt>
      <trkpt lat="47.31827" lon="-2.3553">
        <ele>14.60000038147</ele>
        <time>2022-07-21T07:33:04.000Z</time>
      </trkpt>
      <trkpt lat="47.31823" lon="-2.35517">
        <ele>14.60000038147</ele>
        <time>2022-07-21T07:33:06.000Z</time>
      </trkpt>
      <trkpt lat="47.31819" lon="-2.35504">
        <ele>14.60000038147</ele>
        <time>2022-07-21T07:33:08.000Z</time>
      </trkpt>
      <trkpt lat="47.31816" lon="-2.35498">
        <ele>14.60000038147</ele>
        <time>2022-07-21T07:33:09.000Z</time>
      </trkpt>
      <trkpt lat="47.31803" lon="-2.3547">
        <ele>14.60000038147</ele>
        <time>2022-07-21T07:33:13.000Z</time>
      </trkpt>
      <trkpt lat="47.31788" lon="-2.35442">
        <ele>14.60000038147</ele>
        <time>2022-07-21T07:33:18.000Z</time>
      </trkpt>
      <trkpt lat="47.31777" lon="-2.35424">
        <ele>15</ele>
        <time>2022-07-21T07:33:21.000Z</time>
      </trkpt>
      <trkpt lat="47.31773" lon="-2.35418">
        <ele>15.39999961853</ele>
        <time>2022-07-21T07:33:22.000Z</time>
      </trkpt>
      <trkpt lat="47.3177" lon="-2.35411">
        <ele>15.800000190735</ele>
        <time>2022-07-21T07:33:23.000Z</time>
      </trkpt>
      <trkpt lat="47.31767" lon="-2.35404">
        <ele>16.200000762939</ele>
        <time>2022-07-21T07:33:24.000Z</time>
      </trkpt>
      <trkpt lat="47.31763" lon="-2.35398">
        <ele>16.60000038147</ele>
        <time>2022-07-21T07:33:25.000Z</time>
      </trkpt>
      <trkpt lat="47.31759" lon="-2.35392">
        <ele>16.60000038147</ele>
        <time>2022-07-21T07:33:26.000Z</time>
      </trkpt>
      <trkpt lat="47.31753" lon="-2.35367">
        <ele>16.60000038147</ele>
        <time>2022-07-21T07:33:30.000Z</time>
      </trkpt>
      <trkpt lat="47.31756" lon="-2.35357">
        <ele>16.60000038147</ele>
        <time>2022-07-21T07:33:33.000Z</time>
      </trkpt>
      <trkpt lat="47.31766" lon="-2.35349">
        <ele>16.60000038147</ele>
        <time>2022-07-21T07:33:36.000Z</time>
      </trkpt>
      <trkpt lat="47.31769" lon="-2.35347">
        <ele>16.60000038147</ele>
        <time>2022-07-21T07:33:37.000Z</time>
      </trkpt>
      <trkpt lat="47.3179" lon="-2.35332">
        <ele>16.60000038147</ele>
        <time>2022-07-21T07:33:43.000Z</time>
      </trkpt>
      <trkpt lat="47.31819" lon="-2.35312">
        <ele>16.60000038147</ele>
        <time>2022-07-21T07:33:50.000Z</time>
      </trkpt>
      <trkpt lat="47.31848" lon="-2.35293">
        <ele>16.60000038147</ele>
        <time>2022-07-21T07:33:56.000Z</time>
      </trkpt>
      <trkpt lat="47.31861" lon="-2.35282">
        <ele>15.800000190735</ele>
        <time>2022-07-21T07:33:59.000Z</time>
      </trkpt>
      <trkpt lat="47.31866" lon="-2.35279">
        <ele>15.39999961853</ele>
        <time>2022-07-21T07:34:00.000Z</time>
      </trkpt>
      <trkpt lat="47.3187" lon="-2.35275">
        <ele>14.800000190735</ele>
        <time>2022-07-21T07:34:01.000Z</time>
      </trkpt>
      <trkpt lat="47.31875" lon="-2.35271">
        <ele>14.39999961853</ele>
        <time>2022-07-21T07:34:02.000Z</time>
      </trkpt>
      <trkpt lat="47.31896" lon="-2.35246">
        <ele>14.39999961853</ele>
        <time>2022-07-21T07:34:07.000Z</time>
      </trkpt>
      <trkpt lat="47.31921" lon="-2.35225">
        <ele>14.39999961853</ele>
        <time>2022-07-21T07:34:13.000Z</time>
      </trkpt>
      <trkpt lat="47.31925" lon="-2.35222">
        <ele>14.39999961853</ele>
        <time>2022-07-21T07:34:14.000Z</time>
      </trkpt>
      <trkpt lat="47.31947" lon="-2.35202">
        <ele>14</ele>
        <time>2022-07-21T07:34:19.000Z</time>
      </trkpt>
      <trkpt lat="47.31951" lon="-2.35198">
        <ele>13.60000038147</ele>
        <time>2022-07-21T07:34:20.000Z</time>
      </trkpt>
      <trkpt lat="47.31956" lon="-2.35193">
        <ele>13.199999809265</ele>
        <time>2022-07-21T07:34:21.000Z</time>
      </trkpt>
      <trkpt lat="47.31961" lon="-2.35188">
        <ele>12.800000190735</ele>
        <time>2022-07-21T07:34:22.000Z</time>
      </trkpt>
      <trkpt lat="47.31965" lon="-2.35182">
        <ele>12.39999961853</ele>
        <time>2022-07-21T07:34:23.000Z</time>
      </trkpt>
      <trkpt lat="47.31969" lon="-2.35178">
        <ele>12.39999961853</ele>
        <time>2022-07-21T07:34:24.000Z</time>
      </trkpt>
      <trkpt lat="47.32001" lon="-2.35148">
        <ele>12.39999961853</ele>
        <time>2022-07-21T07:34:31.000Z</time>
      </trkpt>
      <trkpt lat="47.32017" lon="-2.35133">
        <ele>12.39999961853</ele>
        <time>2022-07-21T07:34:34.000Z</time>
      </trkpt>
      <trkpt lat="47.32022" lon="-2.35125">
        <ele>12.39999961853</ele>
        <time>2022-07-21T07:34:35.000Z</time>
      </trkpt>
      <trkpt lat="47.32028" lon="-2.35094">
        <ele>12.39999961853</ele>
        <time>2022-07-21T07:34:39.000Z</time>
      </trkpt>
      <trkpt lat="47.32028" lon="-2.35086">
        <ele>12.39999961853</ele>
        <time>2022-07-21T07:34:40.000Z</time>
      </trkpt>
      <trkpt lat="47.32028" lon="-2.35073">
        <ele>12.39999961853</ele>
        <time>2022-07-21T07:34:42.000Z</time>
      </trkpt>
      <trkpt lat="47.32031" lon="-2.35069">
        <ele>12.39999961853</ele>
        <time>2022-07-21T07:34:43.000Z</time>
      </trkpt>
      <trkpt lat="47.32041" lon="-2.35069">
        <ele>12.39999961853</ele>
        <time>2022-07-21T07:34:47.000Z</time>
      </trkpt>
      <trkpt lat="47.32051" lon="-2.35067">
        <ele>12.39999961853</ele>
        <time>2022-07-21T07:34:51.000Z</time>
      </trkpt>
      <trkpt lat="47.32054" lon="-2.35066">
        <ele>12.39999961853</ele>
        <time>2022-07-21T07:34:52.000Z</time>
      </trkpt>
      <trkpt lat="47.32076" lon="-2.35066">
        <ele>12.39999961853</ele>
        <time>2022-07-21T07:34:57.000Z</time>
      </trkpt>
      <trkpt lat="47.32081" lon="-2.35066">
        <ele>12.39999961853</ele>
        <time>2022-07-21T07:34:58.000Z</time>
      </trkpt>
      <trkpt lat="47.32109" lon="-2.35064">
        <ele>12.39999961853</ele>
        <time>2022-07-21T07:35:04.000Z</time>
      </trkpt>
      <trkpt lat="47.3214" lon="-2.35061">
        <ele>12.39999961853</ele>
        <time>2022-07-21T07:35:10.000Z</time>
      </trkpt>
      <trkpt lat="47.3217" lon="-2.35057">
        <ele>12.39999961853</ele>
        <time>2022-07-21T07:35:17.000Z</time>
      </trkpt>
      <trkpt lat="47.32194" lon="-2.35057">
        <ele>12.39999961853</ele>
        <time>2022-07-21T07:35:22.000Z</time>
      </trkpt>
      <trkpt lat="47.32216" lon="-2.35054">
        <ele>12.39999961853</ele>
        <time>2022-07-21T07:35:27.000Z</time>
      </trkpt>
      <trkpt lat="47.3225" lon="-2.35049">
        <ele>12.39999961853</ele>
        <time>2022-07-21T07:35:34.000Z</time>
      </trkpt>
      <trkpt lat="47.32278" lon="-2.3505">
        <ele>12.39999961853</ele>
        <time>2022-07-21T07:35:39.000Z</time>
      </trkpt>
      <trkpt lat="47.32295" lon="-2.35051">
        <ele>12.800000190735</ele>
        <time>2022-07-21T07:35:42.000Z</time>
      </trkpt>
      <trkpt lat="47.32299" lon="-2.35051">
        <ele>13.199999809265</ele>
        <time>2022-07-21T07:35:43.000Z</time>
      </trkpt>
      <trkpt lat="47.32303" lon="-2.35051">
        <ele>13.800000190735</ele>
        <time>2022-07-21T07:35:44.000Z</time>
      </trkpt>
      <trkpt lat="47.32307" lon="-2.35051">
        <ele>14.199999809265</ele>
        <time>2022-07-21T07:35:45.000Z</time>
      </trkpt>
      <trkpt lat="47.32312" lon="-2.3505">
        <ele>14.60000038147</ele>
        <time>2022-07-21T07:35:46.000Z</time>
      </trkpt>
      <trkpt lat="47.32334" lon="-2.35049">
        <ele>14.60000038147</ele>
        <time>2022-07-21T07:35:51.000Z</time>
      </trkpt>
      <trkpt lat="47.32344" lon="-2.3505">
        <ele>14.60000038147</ele>
        <time>2022-07-21T07:35:53.000Z</time>
      </trkpt>
      <trkpt lat="47.32357" lon="-2.35051">
        <ele>14.60000038147</ele>
        <time>2022-07-21T07:35:56.000Z</time>
      </trkpt>
      <trkpt lat="47.32366" lon="-2.35051">
        <ele>14.60000038147</ele>
        <time>2022-07-21T07:35:58.000Z</time>
      </trkpt>
      <trkpt lat="47.32379" lon="-2.35049">
        <ele>15</ele>
        <time>2022-07-21T07:36:01.000Z</time>
      </trkpt>
      <trkpt lat="47.32384" lon="-2.35049">
        <ele>15.800000190735</ele>
        <time>2022-07-21T07:36:02.000Z</time>
      </trkpt>
      <trkpt lat="47.32389" lon="-2.35048">
        <ele>16.200000762939</ele>
        <time>2022-07-21T07:36:03.000Z</time>
      </trkpt>
      <trkpt lat="47.32395" lon="-2.35048">
        <ele>16.60000038147</ele>
        <time>2022-07-21T07:36:04.000Z</time>
      </trkpt>
      <trkpt lat="47.32407" lon="-2.35046">
        <ele>16.60000038147</ele>
        <time>2022-07-21T07:36:06.000Z</time>
      </trkpt>
      <trkpt lat="47.3245" lon="-2.35041">
        <ele>16.60000038147</ele>
        <time>2022-07-21T07:36:14.000Z</time>
      </trkpt>
      <trkpt lat="47.32483" lon="-2.35033">
        <ele>16.60000038147</ele>
        <time>2022-07-21T07:36:20.000Z</time>
      </trkpt>
      <trkpt lat="47.32519" lon="-2.35024">
        <ele>16.60000038147</ele>
        <time>2022-07-21T07:36:26.000Z</time>
      </trkpt>
      <trkpt lat="47.32526" lon="-2.35022">
        <ele>16.60000038147</ele>
        <time>2022-07-21T07:36:27.000Z</time>
      </trkpt>
      <trkpt lat="47.32559" lon="-2.35011">
        <ele>16.60000038147</ele>
        <time>2022-07-21T07:36:32.000Z</time>
      </trkpt>
      <trkpt lat="47.32593" lon="-2.34996">
        <ele>16.200000762939</ele>
        <time>2022-07-21T07:36:38.000Z</time>
      </trkpt>
      <trkpt lat="47.32598" lon="-2.34993">
        <ele>15.800000190735</ele>
        <time>2022-07-21T07:36:39.000Z</time>
      </trkpt>
      <trkpt lat="47.32603" lon="-2.3499">
        <ele>15.39999961853</ele>
        <time>2022-07-21T07:36:40.000Z</time>
      </trkpt>
      <trkpt lat="47.32608" lon="-2.34987">
        <ele>15</ele>
        <time>2022-07-21T07:36:41.000Z</time>
      </trkpt>
      <trkpt lat="47.32612" lon="-2.34985">
        <ele>14.60000038147</ele>
        <time>2022-07-21T07:36:42.000Z</time>
      </trkpt>
      <trkpt lat="47.32617" lon="-2.34982">
        <ele>14.60000038147</ele>
        <time>2022-07-21T07:36:43.000Z</time>
      </trkpt>
      <trkpt lat="47.32638" lon="-2.3497">
        <ele>14.60000038147</ele>
        <time>2022-07-21T07:36:48.000Z</time>
      </trkpt>
      <trkpt lat="47.32649" lon="-2.34962">
        <ele>14.60000038147</ele>
        <time>2022-07-21T07:36:53.000Z</time>
      </trkpt>
      <trkpt lat="47.32663" lon="-2.34953">
        <ele>14.60000038147</ele>
        <time>2022-07-21T07:36:57.000Z</time>
      </trkpt>
      <trkpt lat="47.32682" lon="-2.34938">
        <ele>14.60000038147</ele>
        <time>2022-07-21T07:37:03.000Z</time>
      </trkpt>
      <trkpt lat="47.32695" lon="-2.34927">
        <ele>14.199999809265</ele>
        <time>2022-07-21T07:37:07.000Z</time>
      </trkpt>
      <trkpt lat="47.32698" lon="-2.34925">
        <ele>13.800000190735</ele>
        <time>2022-07-21T07:37:08.000Z</time>
      </trkpt>
      <trkpt lat="47.32702" lon="-2.34923">
        <ele>13.39999961853</ele>
        <time>2022-07-21T07:37:09.000Z</time>
      </trkpt>
      <trkpt lat="47.32705" lon="-2.3492">
        <ele>13</ele>
        <time>2022-07-21T07:37:10.000Z</time>
      </trkpt>
      <trkpt lat="47.32709" lon="-2.34918">
        <ele>12.60000038147</ele>
        <time>2022-07-21T07:37:11.000Z</time>
      </trkpt>
      <trkpt lat="47.32726" lon="-2.34906">
        <ele>12.60000038147</ele>
        <time>2022-07-21T07:37:16.000Z</time>
      </trkpt>
      <trkpt lat="47.32741" lon="-2.34895">
        <ele>12.60000038147</ele>
        <time>2022-07-21T07:37:22.000Z</time>
      </trkpt>
      <trkpt lat="47.32749" lon="-2.34889">
        <ele>12.60000038147</ele>
        <time>2022-07-21T07:37:26.000Z</time>
      </trkpt>
      <trkpt lat="47.32765" lon="-2.34879">
        <ele>12.60000038147</ele>
        <time>2022-07-21T07:37:31.000Z</time>
      </trkpt>
      <trkpt lat="47.32786" lon="-2.34861">
        <ele>12.60000038147</ele>
        <time>2022-07-21T07:37:36.000Z</time>
      </trkpt>
      <trkpt lat="47.32807" lon="-2.34845">
        <ele>12.60000038147</ele>
        <time>2022-07-21T07:37:40.000Z</time>
      </trkpt>
      <trkpt lat="47.32812" lon="-2.3484">
        <ele>12.60000038147</ele>
        <time>2022-07-21T07:37:41.000Z</time>
      </trkpt>
      <trkpt lat="47.32842" lon="-2.34815">
        <ele>12.199999809265</ele>
        <time>2022-07-21T07:37:47.000Z</time>
      </trkpt>
      <trkpt lat="47.32847" lon="-2.34811">
        <ele>11.60000038147</ele>
        <time>2022-07-21T07:37:48.000Z</time>
      </trkpt>
      <trkpt lat="47.32852" lon="-2.34807">
        <ele>11.199999809265</ele>
        <time>2022-07-21T07:37:49.000Z</time>
      </trkpt>
      <trkpt lat="47.32858" lon="-2.34803">
        <ele>10.800000190735</ele>
        <time>2022-07-21T07:37:50.000Z</time>
      </trkpt>
      <trkpt lat="47.32865" lon="-2.34798">
        <ele>10.39999961853</ele>
        <time>2022-07-21T07:37:51.000Z</time>
      </trkpt>
      <trkpt lat="47.32871" lon="-2.34794">
        <ele>10.39999961853</ele>
        <time>2022-07-21T07:37:52.000Z</time>
      </trkpt>
      <trkpt lat="47.32887" lon="-2.34785">
        <ele>10.39999961853</ele>
        <time>2022-07-21T07:37:55.000Z</time>
      </trkpt>
      <trkpt lat="47.32893" lon="-2.34786">
        <ele>10.39999961853</ele>
        <time>2022-07-21T07:37:56.000Z</time>
      </trkpt>
      <trkpt lat="47.32906" lon="-2.34798">
        <ele>10.39999961853</ele>
        <time>2022-07-21T07:37:59.000Z</time>
      </trkpt>
      <trkpt lat="47.32914" lon="-2.34813">
        <ele>10.39999961853</ele>
        <time>2022-07-21T07:38:02.000Z</time>
      </trkpt>
      <trkpt lat="47.32919" lon="-2.34825">
        <ele>10.39999961853</ele>
        <time>2022-07-21T07:38:04.000Z</time>
      </trkpt>
      <trkpt lat="47.32939" lon="-2.34866">
        <ele>10.39999961853</ele>
        <time>2022-07-21T07:38:10.000Z</time>
      </trkpt>
      <trkpt lat="47.32959" lon="-2.34914">
        <ele>10.39999961853</ele>
        <time>2022-07-21T07:38:17.000Z</time>
      </trkpt>
      <trkpt lat="47.32975" lon="-2.34955">
        <ele>10.39999961853</ele>
        <time>2022-07-21T07:38:23.000Z</time>
      </trkpt>
      <trkpt lat="47.32985" lon="-2.34984">
        <ele>10.39999961853</ele>
        <time>2022-07-21T07:38:28.000Z</time>
      </trkpt>
      <trkpt lat="47.32988" lon="-2.3499">
        <ele>10.39999961853</ele>
        <time>2022-07-21T07:38:29.000Z</time>
      </trkpt>
      <trkpt lat="47.32996" lon="-2.35016">
        <ele>10.39999961853</ele>
        <time>2022-07-21T07:38:34.000Z</time>
      </trkpt>
      <trkpt lat="47.33005" lon="-2.3504">
        <ele>10.800000190735</ele>
        <time>2022-07-21T07:38:39.000Z</time>
      </trkpt>
      <trkpt lat="47.33006" lon="-2.35046">
        <ele>11.199999809265</ele>
        <time>2022-07-21T07:38:40.000Z</time>
      </trkpt>
      <trkpt lat="47.33007" lon="-2.35051">
        <ele>11.60000038147</ele>
        <time>2022-07-21T07:38:41.000Z</time>
      </trkpt>
      <trkpt lat="47.33009" lon="-2.35056">
        <ele>12</ele>
        <time>2022-07-21T07:38:42.000Z</time>
      </trkpt>
      <trkpt lat="47.3301" lon="-2.35062">
        <ele>12.39999961853</ele>
        <time>2022-07-21T07:38:43.000Z</time>
      </trkpt>
      <trkpt lat="47.33013" lon="-2.35073">
        <ele>12.39999961853</ele>
        <time>2022-07-21T07:38:45.000Z</time>
      </trkpt>
      <trkpt lat="47.33014" lon="-2.35077">
        <ele>12.39999961853</ele>
        <time>2022-07-21T07:38:46.000Z</time>
      </trkpt>
      <trkpt lat="47.33014" lon="-2.35093">
        <ele>12.39999961853</ele>
        <time>2022-07-21T07:38:49.000Z</time>
      </trkpt>
      <trkpt lat="47.33016" lon="-2.35117">
        <ele>12.39999961853</ele>
        <time>2022-07-21T07:38:53.000Z</time>
      </trkpt>
      <trkpt lat="47.33019" lon="-2.35156">
        <ele>12.39999961853</ele>
        <time>2022-07-21T07:38:59.000Z</time>
      </trkpt>
      <trkpt lat="47.33024" lon="-2.3517">
        <ele>12.39999961853</ele>
        <time>2022-07-21T07:39:02.000Z</time>
      </trkpt>
      <trkpt lat="47.33028" lon="-2.35176">
        <ele>12.39999961853</ele>
        <time>2022-07-21T07:39:04.000Z</time>
      </trkpt>
      <trkpt lat="47.33029" lon="-2.35177">
        <ele>12.800000190735</ele>
        <time>2022-07-21T07:39:05.000Z</time>
      </trkpt>
      <trkpt lat="47.33033" lon="-2.35181">
        <ele>14.39999961853</ele>
        <time>2022-07-21T07:39:50.000Z</time>
      </trkpt>
      <trkpt lat="47.33042" lon="-2.35168">
        <ele>14.39999961853</ele>
        <time>2022-07-21T07:39:54.000Z</time>
      </trkpt>
      <trkpt lat="47.33046" lon="-2.35158">
        <ele>14.39999961853</ele>
        <time>2022-07-21T07:39:56.000Z</time>
      </trkpt>
      <trkpt lat="47.3305" lon="-2.35147">
        <ele>14.39999961853</ele>
        <time>2022-07-21T07:39:58.000Z</time>
      </trkpt>
      <trkpt lat="47.33061" lon="-2.35124">
        <ele>14.39999961853</ele>
        <time>2022-07-21T07:40:03.000Z</time>
      </trkpt>
      <trkpt lat="47.33075" lon="-2.35102">
        <ele>14.39999961853</ele>
        <time>2022-07-21T07:40:07.000Z</time>
      </trkpt>
      <trkpt lat="47.33083" lon="-2.35092">
        <ele>14.39999961853</ele>
        <time>2022-07-21T07:40:09.000Z</time>
      </trkpt>
      <trkpt lat="47.33091" lon="-2.35082">
        <ele>14.39999961853</ele>
        <time>2022-07-21T07:40:11.000Z</time>
      </trkpt>
      <trkpt lat="47.33101" lon="-2.35062">
        <ele>14.39999961853</ele>
        <time>2022-07-21T07:40:14.000Z</time>
      </trkpt>
      <trkpt lat="47.33104" lon="-2.35056">
        <ele>14.39999961853</ele>
        <time>2022-07-21T07:40:15.000Z</time>
      </trkpt>
      <trkpt lat="47.33118" lon="-2.35035">
        <ele>14.39999961853</ele>
        <time>2022-07-21T07:40:19.000Z</time>
      </trkpt>
      <trkpt lat="47.33121" lon="-2.3503">
        <ele>14</ele>
        <time>2022-07-21T07:40:20.000Z</time>
      </trkpt>
      <trkpt lat="47.33125" lon="-2.35024">
        <ele>13.60000038147</ele>
        <time>2022-07-21T07:40:21.000Z</time>
      </trkpt>
      <trkpt lat="47.33129" lon="-2.35017">
        <ele>13.199999809265</ele>
        <time>2022-07-21T07:40:22.000Z</time>
      </trkpt>
      <trkpt lat="47.33133" lon="-2.35011">
        <ele>12.800000190735</ele>
        <time>2022-07-21T07:40:23.000Z</time>
      </trkpt>
      <trkpt lat="47.33137" lon="-2.35004">
        <ele>12.39999961853</ele>
        <time>2022-07-21T07:40:24.000Z</time>
      </trkpt>
      <trkpt lat="47.3315" lon="-2.34985">
        <ele>12.39999961853</ele>
        <time>2022-07-21T07:40:27.000Z</time>
      </trkpt>
      <trkpt lat="47.33154" lon="-2.34978">
        <ele>12.39999961853</ele>
        <time>2022-07-21T07:40:28.000Z</time>
      </trkpt>
      <trkpt lat="47.33172" lon="-2.34948">
        <ele>12.39999961853</ele>
        <time>2022-07-21T07:40:32.000Z</time>
      </trkpt>
      <trkpt lat="47.33187" lon="-2.34922">
        <ele>12.39999961853</ele>
        <time>2022-07-21T07:40:36.000Z</time>
      </trkpt>
      <trkpt lat="47.33191" lon="-2.34915">
        <ele>12.39999961853</ele>
        <time>2022-07-21T07:40:37.000Z</time>
      </trkpt>
      <trkpt lat="47.33195" lon="-2.34907">
        <ele>12</ele>
        <time>2022-07-21T07:40:38.000Z</time>
      </trkpt>
      <trkpt lat="47.33198" lon="-2.349">
        <ele>11.60000038147</ele>
        <time>2022-07-21T07:40:39.000Z</time>
      </trkpt>
      <trkpt lat="47.33201" lon="-2.34892">
        <ele>11</ele>
        <time>2022-07-21T07:40:40.000Z</time>
      </trkpt>
      <trkpt lat="47.33204" lon="-2.34885">
        <ele>10.60000038147</ele>
        <time>2022-07-21T07:40:41.000Z</time>
      </trkpt>
      <trkpt lat="47.33207" lon="-2.34878">
        <ele>10.199999809265</ele>
        <time>2022-07-21T07:40:42.000Z</time>
      </trkpt>
      <trkpt lat="47.33209" lon="-2.3487">
        <ele>10.199999809265</ele>
        <time>2022-07-21T07:40:43.000Z</time>
      </trkpt>
      <trkpt lat="47.33217" lon="-2.34839">
        <ele>10.199999809265</ele>
        <time>2022-07-21T07:40:47.000Z</time>
      </trkpt>
      <trkpt lat="47.33234" lon="-2.34793">
        <ele>10.199999809265</ele>
        <time>2022-07-21T07:40:53.000Z</time>
      </trkpt>
      <trkpt lat="47.3324" lon="-2.34775">
        <ele>9.8000001907349</ele>
        <time>2022-07-21T07:40:55.000Z</time>
      </trkpt>
      <trkpt lat="47.33243" lon="-2.34766">
        <ele>9.3999996185303</ele>
        <time>2022-07-21T07:40:56.000Z</time>
      </trkpt>
      <trkpt lat="47.33247" lon="-2.34756">
        <ele>9</ele>
        <time>2022-07-21T07:40:57.000Z</time>
      </trkpt>
      <trkpt lat="47.3325" lon="-2.34747">
        <ele>8.6000003814697</ele>
        <time>2022-07-21T07:40:58.000Z</time>
      </trkpt>
      <trkpt lat="47.33254" lon="-2.34737">
        <ele>8.1999998092651</ele>
        <time>2022-07-21T07:40:59.000Z</time>
      </trkpt>
      <trkpt lat="47.33256" lon="-2.34728">
        <ele>8.1999998092651</ele>
        <time>2022-07-21T07:41:00.000Z</time>
      </trkpt>
      <trkpt lat="47.33275" lon="-2.34677">
        <ele>8.1999998092651</ele>
        <time>2022-07-21T07:41:07.000Z</time>
      </trkpt>
      <trkpt lat="47.33284" lon="-2.34662">
        <ele>8.1999998092651</ele>
        <time>2022-07-21T07:41:11.000Z</time>
      </trkpt>
      <trkpt lat="47.33286" lon="-2.34656">
        <ele>8.1999998092651</ele>
        <time>2022-07-21T07:41:12.000Z</time>
      </trkpt>
      <trkpt lat="47.33297" lon="-2.3463">
        <ele>8.1999998092651</ele>
        <time>2022-07-21T07:41:16.000Z</time>
      </trkpt>
      <trkpt lat="47.33303" lon="-2.34614">
        <ele>8.1999998092651</ele>
        <time>2022-07-21T07:41:18.000Z</time>
      </trkpt>
      <trkpt lat="47.33307" lon="-2.34598">
        <ele>8.1999998092651</ele>
        <time>2022-07-21T07:41:20.000Z</time>
      </trkpt>
      <trkpt lat="47.33319" lon="-2.34557">
        <ele>8.1999998092651</ele>
        <time>2022-07-21T07:41:26.000Z</time>
      </trkpt>
      <trkpt lat="47.33328" lon="-2.34531">
        <ele>8.1999998092651</ele>
        <time>2022-07-21T07:41:30.000Z</time>
      </trkpt>
      <trkpt lat="47.33332" lon="-2.34524">
        <ele>8.1999998092651</ele>
        <time>2022-07-21T07:41:31.000Z</time>
      </trkpt>
      <trkpt lat="47.3334" lon="-2.34512">
        <ele>8.1999998092651</ele>
        <time>2022-07-21T07:41:33.000Z</time>
      </trkpt>
      <trkpt lat="47.33351" lon="-2.345">
        <ele>8.1999998092651</ele>
        <time>2022-07-21T07:41:36.000Z</time>
      </trkpt>
      <trkpt lat="47.33356" lon="-2.34497">
        <ele>8.1999998092651</ele>
        <time>2022-07-21T07:41:37.000Z</time>
      </trkpt>
      <trkpt lat="47.33365" lon="-2.34499">
        <ele>8.1999998092651</ele>
        <time>2022-07-21T07:41:39.000Z</time>
      </trkpt>
      <trkpt lat="47.33378" lon="-2.34517">
        <ele>8.1999998092651</ele>
        <time>2022-07-21T07:41:43.000Z</time>
      </trkpt>
      <trkpt lat="47.33384" lon="-2.34528">
        <ele>8.1999998092651</ele>
        <time>2022-07-21T07:41:45.000Z</time>
      </trkpt>
      <trkpt lat="47.33396" lon="-2.34551">
        <ele>8.1999998092651</ele>
        <time>2022-07-21T07:41:49.000Z</time>
      </trkpt>
      <trkpt lat="47.33412" lon="-2.3458">
        <ele>8.1999998092651</ele>
        <time>2022-07-21T07:41:54.000Z</time>
      </trkpt>
      <trkpt lat="47.33415" lon="-2.34586">
        <ele>8.1999998092651</ele>
        <time>2022-07-21T07:41:55.000Z</time>
      </trkpt>
      <trkpt lat="47.33423" lon="-2.34599">
        <ele>8.6000003814697</ele>
        <time>2022-07-21T07:41:58.000Z</time>
      </trkpt>
      <trkpt lat="47.33425" lon="-2.34604">
        <ele>9</ele>
        <time>2022-07-21T07:41:59.000Z</time>
      </trkpt>
      <trkpt lat="47.33427" lon="-2.34608">
        <ele>9.3999996185303</ele>
        <time>2022-07-21T07:42:00.000Z</time>
      </trkpt>
      <trkpt lat="47.33429" lon="-2.34611">
        <ele>10</ele>
        <time>2022-07-21T07:42:01.000Z</time>
      </trkpt>
      <trkpt lat="47.3343" lon="-2.34615">
        <ele>10.39999961853</ele>
        <time>2022-07-21T07:42:02.000Z</time>
      </trkpt>
      <trkpt lat="47.33439" lon="-2.34628">
        <ele>10.39999961853</ele>
        <time>2022-07-21T07:42:06.000Z</time>
      </trkpt>
      <trkpt lat="47.33458" lon="-2.34656">
        <ele>10.39999961853</ele>
        <time>2022-07-21T07:42:13.000Z</time>
      </trkpt>
      <trkpt lat="47.33463" lon="-2.34665">
        <ele>10.800000190735</ele>
        <time>2022-07-21T07:42:15.000Z</time>
      </trkpt>
      <trkpt lat="47.33465" lon="-2.34669">
        <ele>11.199999809265</ele>
        <time>2022-07-21T07:42:16.000Z</time>
      </trkpt>
      <trkpt lat="47.33468" lon="-2.34674">
        <ele>11.60000038147</ele>
        <time>2022-07-21T07:42:17.000Z</time>
      </trkpt>
      <trkpt lat="47.3347" lon="-2.34678">
        <ele>12</ele>
        <time>2022-07-21T07:42:18.000Z</time>
      </trkpt>
      <trkpt lat="47.33473" lon="-2.34683">
        <ele>12.39999961853</ele>
        <time>2022-07-21T07:42:19.000Z</time>
      </trkpt>
      <trkpt lat="47.33499" lon="-2.34721">
        <ele>12.39999961853</ele>
        <time>2022-07-21T07:42:27.000Z</time>
      </trkpt>
      <trkpt lat="47.33506" lon="-2.34733">
        <ele>12.800000190735</ele>
        <time>2022-07-21T07:42:29.000Z</time>
      </trkpt>
      <trkpt lat="47.3351" lon="-2.34738">
        <ele>13.199999809265</ele>
        <time>2022-07-21T07:42:30.000Z</time>
      </trkpt>
      <trkpt lat="47.33514" lon="-2.34744">
        <ele>13.60000038147</ele>
        <time>2022-07-21T07:42:31.000Z</time>
      </trkpt>
      <trkpt lat="47.33518" lon="-2.34749">
        <ele>14</ele>
        <time>2022-07-21T07:42:32.000Z</time>
      </trkpt>
      <trkpt lat="47.33522" lon="-2.34755">
        <ele>14.39999961853</ele>
        <time>2022-07-21T07:42:33.000Z</time>
      </trkpt>
      <trkpt lat="47.33534" lon="-2.34777">
        <ele>14.39999961853</ele>
        <time>2022-07-21T07:42:37.000Z</time>
      </trkpt>
      <trkpt lat="47.33541" lon="-2.34787">
        <ele>14.39999961853</ele>
        <time>2022-07-21T07:42:39.000Z</time>
      </trkpt>
      <trkpt lat="47.33555" lon="-2.34803">
        <ele>14.39999961853</ele>
        <time>2022-07-21T07:42:42.000Z</time>
      </trkpt>
      <trkpt lat="47.33586" lon="-2.34839">
        <ele>14.39999961853</ele>
        <time>2022-07-21T07:42:48.000Z</time>
      </trkpt>
      <trkpt lat="47.33615" lon="-2.34877">
        <ele>14.39999961853</ele>
        <time>2022-07-21T07:42:54.000Z</time>
      </trkpt>
      <trkpt lat="47.33644" lon="-2.34917">
        <ele>14.39999961853</ele>
        <time>2022-07-21T07:43:00.000Z</time>
      </trkpt>
      <trkpt lat="47.33653" lon="-2.34927">
        <ele>14</ele>
        <time>2022-07-21T07:43:02.000Z</time>
      </trkpt>
      <trkpt lat="47.33657" lon="-2.34932">
        <ele>13.199999809265</ele>
        <time>2022-07-21T07:43:03.000Z</time>
      </trkpt>
      <trkpt lat="47.33661" lon="-2.34938">
        <ele>12.60000038147</ele>
        <time>2022-07-21T07:43:04.000Z</time>
      </trkpt>
      <trkpt lat="47.33663" lon="-2.34943">
        <ele>12.199999809265</ele>
        <time>2022-07-21T07:43:05.000Z</time>
      </trkpt>
      <trkpt lat="47.33664" lon="-2.34947">
        <ele>12.199999809265</ele>
        <time>2022-07-21T07:43:06.000Z</time>
      </trkpt>
      <trkpt lat="47.33661" lon="-2.34954">
        <ele>12.199999809265</ele>
        <time>2022-07-21T07:43:08.000Z</time>
      </trkpt>
      <trkpt lat="47.33642" lon="-2.34961">
        <ele>12.199999809265</ele>
        <time>2022-07-21T07:43:14.000Z</time>
      </trkpt>
      <trkpt lat="47.33627" lon="-2.34954">
        <ele>12.199999809265</ele>
        <time>2022-07-21T07:43:18.000Z</time>
      </trkpt>
      <trkpt lat="47.33617" lon="-2.3495">
        <ele>12.199999809265</ele>
        <time>2022-07-21T07:43:20.000Z</time>
      </trkpt>
      <trkpt lat="47.33608" lon="-2.34946">
        <ele>12.199999809265</ele>
        <time>2022-07-21T07:43:22.000Z</time>
      </trkpt>
      <trkpt lat="47.33604" lon="-2.34944">
        <ele>12.199999809265</ele>
        <time>2022-07-21T07:43:23.000Z</time>
      </trkpt>
      <trkpt lat="47.33589" lon="-2.34938">
        <ele>12.199999809265</ele>
        <time>2022-07-21T07:43:26.000Z</time>
      </trkpt>
      <trkpt lat="47.3358" lon="-2.34935">
        <ele>12.60000038147</ele>
        <time>2022-07-21T07:43:28.000Z</time>
      </trkpt>
      <trkpt lat="47.33575" lon="-2.34934">
        <ele>13</ele>
        <time>2022-07-21T07:43:29.000Z</time>
      </trkpt>
      <trkpt lat="47.3357" lon="-2.34932">
        <ele>13.39999961853</ele>
        <time>2022-07-21T07:43:30.000Z</time>
      </trkpt>
      <trkpt lat="47.33566" lon="-2.3493">
        <ele>13.800000190735</ele>
        <time>2022-07-21T07:43:31.000Z</time>
      </trkpt>
      <trkpt lat="47.33561" lon="-2.34929">
        <ele>14.199999809265</ele>
        <time>2022-07-21T07:43:32.000Z</time>
      </trkpt>
      <trkpt lat="47.33541" lon="-2.34921">
        <ele>14.199999809265</ele>
        <time>2022-07-21T07:43:36.000Z</time>
      </trkpt>
      <trkpt lat="47.33537" lon="-2.34918">
        <ele>14.199999809265</ele>
        <time>2022-07-21T07:43:37.000Z</time>
      </trkpt>
      <trkpt lat="47.33517" lon="-2.34909">
        <ele>14.199999809265</ele>
        <time>2022-07-21T07:43:41.000Z</time>
      </trkpt>
      <trkpt lat="47.3349" lon="-2.3491">
        <ele>14.199999809265</ele>
        <time>2022-07-21T07:43:46.000Z</time>
      </trkpt>
      <trkpt lat="47.33474" lon="-2.34914">
        <ele>14.199999809265</ele>
        <time>2022-07-21T07:43:49.000Z</time>
      </trkpt>
      <trkpt lat="47.33457" lon="-2.34919">
        <ele>14.199999809265</ele>
        <time>2022-07-21T07:43:52.000Z</time>
      </trkpt>
      <trkpt lat="47.33413" lon="-2.34938">
        <ele>14.199999809265</ele>
        <time>2022-07-21T07:44:00.000Z</time>
      </trkpt>
      <trkpt lat="47.33382" lon="-2.34943">
        <ele>14.199999809265</ele>
        <time>2022-07-21T07:44:05.000Z</time>
      </trkpt>
      <trkpt lat="47.33358" lon="-2.34948">
        <ele>14.199999809265</ele>
        <time>2022-07-21T07:44:09.000Z</time>
      </trkpt>
      <trkpt lat="47.33351" lon="-2.3495">
        <ele>14.199999809265</ele>
        <time>2022-07-21T07:44:10.000Z</time>
      </trkpt>
      <trkpt lat="47.33332" lon="-2.34952">
        <ele>14.199999809265</ele>
        <time>2022-07-21T07:44:14.000Z</time>
      </trkpt>
      <trkpt lat="47.33324" lon="-2.34952">
        <ele>14.199999809265</ele>
        <time>2022-07-21T07:44:17.000Z</time>
      </trkpt>
      <trkpt lat="47.33317" lon="-2.34951">
        <ele>14.199999809265</ele>
        <time>2022-07-21T07:44:19.000Z</time>
      </trkpt>
      <trkpt lat="47.33308" lon="-2.3495">
        <ele>14.199999809265</ele>
        <time>2022-07-21T07:44:21.000Z</time>
      </trkpt>
      <trkpt lat="47.33303" lon="-2.3495">
        <ele>13.800000190735</ele>
        <time>2022-07-21T07:44:22.000Z</time>
      </trkpt>
      <trkpt lat="47.33298" lon="-2.3495">
        <ele>13.39999961853</ele>
        <time>2022-07-21T07:44:23.000Z</time>
      </trkpt>
      <trkpt lat="47.33293" lon="-2.34951">
        <ele>13</ele>
        <time>2022-07-21T07:44:24.000Z</time>
      </trkpt>
      <trkpt lat="47.33288" lon="-2.34952">
        <ele>12.60000038147</ele>
        <time>2022-07-21T07:44:25.000Z</time>
      </trkpt>
      <trkpt lat="47.33283" lon="-2.34952">
        <ele>12</ele>
        <time>2022-07-21T07:44:26.000Z</time>
      </trkpt>
      <trkpt lat="47.33272" lon="-2.34953">
        <ele>12</ele>
        <time>2022-07-21T07:44:28.000Z</time>
      </trkpt>
      <trkpt lat="47.33256" lon="-2.34957">
        <ele>12</ele>
        <time>2022-07-21T07:44:31.000Z</time>
      </trkpt>
      <trkpt lat="47.33247" lon="-2.34959">
        <ele>12</ele>
        <time>2022-07-21T07:44:33.000Z</time>
      </trkpt>
      <trkpt lat="47.33242" lon="-2.34959">
        <ele>12</ele>
        <time>2022-07-21T07:44:34.000Z</time>
      </trkpt>
      <trkpt lat="47.33237" lon="-2.3496">
        <ele>12</ele>
        <time>2022-07-21T07:44:35.000Z</time>
      </trkpt>
      <trkpt lat="47.33225" lon="-2.34968">
        <ele>12</ele>
        <time>2022-07-21T07:44:38.000Z</time>
      </trkpt>
      <trkpt lat="47.33209" lon="-2.34985">
        <ele>12</ele>
        <time>2022-07-21T07:44:42.000Z</time>
      </trkpt>
      <trkpt lat="47.33202" lon="-2.34994">
        <ele>12</ele>
        <time>2022-07-21T07:44:44.000Z</time>
      </trkpt>
      <trkpt lat="47.33195" lon="-2.35002">
        <ele>12</ele>
        <time>2022-07-21T07:44:46.000Z</time>
      </trkpt>
      <trkpt lat="47.33185" lon="-2.35012">
        <ele>12</ele>
        <time>2022-07-21T07:44:49.000Z</time>
      </trkpt>
      <trkpt lat="47.33176" lon="-2.35015">
        <ele>12</ele>
        <time>2022-07-21T07:44:51.000Z</time>
      </trkpt>
      <trkpt lat="47.33173" lon="-2.35013">
        <ele>12</ele>
        <time>2022-07-21T07:44:52.000Z</time>
      </trkpt>
      <trkpt lat="47.33161" lon="-2.35006">
        <ele>12</ele>
        <time>2022-07-21T07:44:56.000Z</time>
      </trkpt>
      <trkpt lat="47.33156" lon="-2.35012">
        <ele>12</ele>
        <time>2022-07-21T07:44:59.000Z</time>
      </trkpt>
      <trkpt lat="47.33145" lon="-2.35028">
        <ele>12</ele>
        <time>2022-07-21T07:45:04.000Z</time>
      </trkpt>
      <trkpt lat="47.33142" lon="-2.35033">
        <ele>12</ele>
        <time>2022-07-21T07:45:05.000Z</time>
      </trkpt>
      <trkpt lat="47.33134" lon="-2.35046">
        <ele>12</ele>
        <time>2022-07-21T07:45:08.000Z</time>
      </trkpt>
      <trkpt lat="47.33122" lon="-2.3507">
        <ele>12</ele>
        <time>2022-07-21T07:45:13.000Z</time>
      </trkpt>
      <trkpt lat="47.33104" lon="-2.35093">
        <ele>12</ele>
        <time>2022-07-21T07:45:18.000Z</time>
      </trkpt>
      <trkpt lat="47.33092" lon="-2.3511">
        <ele>12</ele>
        <time>2022-07-21T07:45:21.000Z</time>
      </trkpt>
      <trkpt lat="47.33084" lon="-2.35121">
        <ele>12</ele>
        <time>2022-07-21T07:45:23.000Z</time>
      </trkpt>
      <trkpt lat="47.33076" lon="-2.35131">
        <ele>12</ele>
        <time>2022-07-21T07:45:25.000Z</time>
      </trkpt>
      <trkpt lat="47.33066" lon="-2.35148">
        <ele>12</ele>
        <time>2022-07-21T07:45:28.000Z</time>
      </trkpt>
      <trkpt lat="47.33056" lon="-2.35167">
        <ele>12</ele>
        <time>2022-07-21T07:45:31.000Z</time>
      </trkpt>
      <trkpt lat="47.33052" lon="-2.35172">
        <ele>12</ele>
        <time>2022-07-21T07:45:32.000Z</time>
      </trkpt>
      <trkpt lat="47.33049" lon="-2.35177">
        <ele>12</ele>
        <time>2022-07-21T07:45:33.000Z</time>
      </trkpt>
      <trkpt lat="47.33046" lon="-2.35183">
        <ele>12.39999961853</ele>
        <time>2022-07-21T07:45:34.000Z</time>
      </trkpt>
      <trkpt lat="47.33043" lon="-2.35191">
        <ele>12.800000190735</ele>
        <time>2022-07-21T07:45:35.000Z</time>
      </trkpt>
      <trkpt lat="47.3304" lon="-2.35197">
        <ele>13.199999809265</ele>
        <time>2022-07-21T07:45:36.000Z</time>
      </trkpt>
      <trkpt lat="47.33037" lon="-2.35202">
        <ele>13.60000038147</ele>
        <time>2022-07-21T07:45:37.000Z</time>
      </trkpt>
      <trkpt lat="47.33035" lon="-2.35208">
        <ele>14.199999809265</ele>
        <time>2022-07-21T07:45:38.000Z</time>
      </trkpt>
      <trkpt lat="47.33035" lon="-2.35214">
        <ele>14.199999809265</ele>
        <time>2022-07-21T07:45:39.000Z</time>
      </trkpt>
      <trkpt lat="47.33036" lon="-2.35226">
        <ele>14.199999809265</ele>
        <time>2022-07-21T07:45:41.000Z</time>
      </trkpt>
      <trkpt lat="47.33035" lon="-2.35255">
        <ele>14.199999809265</ele>
        <time>2022-07-21T07:45:45.000Z</time>
      </trkpt>
      <trkpt lat="47.33034" lon="-2.35271">
        <ele>14.199999809265</ele>
        <time>2022-07-21T07:45:47.000Z</time>
      </trkpt>
      <trkpt lat="47.33033" lon="-2.3531">
        <ele>14.199999809265</ele>
        <time>2022-07-21T07:45:52.000Z</time>
      </trkpt>
      <trkpt lat="47.33035" lon="-2.3535">
        <ele>14.199999809265</ele>
        <time>2022-07-21T07:45:57.000Z</time>
      </trkpt>
      <trkpt lat="47.33036" lon="-2.3536">
        <ele>14.199999809265</ele>
        <time>2022-07-21T07:45:58.000Z</time>
      </trkpt>
      <trkpt lat="47.3304" lon="-2.35413">
        <ele>14.199999809265</ele>
        <time>2022-07-21T07:46:04.000Z</time>
      </trkpt>
      <trkpt lat="47.3304" lon="-2.35441">
        <ele>13.60000038147</ele>
        <time>2022-07-21T07:46:07.000Z</time>
      </trkpt>
      <trkpt lat="47.33039" lon="-2.35451">
        <ele>13.199999809265</ele>
        <time>2022-07-21T07:46:08.000Z</time>
      </trkpt>
      <trkpt lat="47.33038" lon="-2.35459">
        <ele>12.800000190735</ele>
        <time>2022-07-21T07:46:09.000Z</time>
      </trkpt>
      <trkpt lat="47.33037" lon="-2.35469">
        <ele>12.39999961853</ele>
        <time>2022-07-21T07:46:10.000Z</time>
      </trkpt>
      <trkpt lat="47.33036" lon="-2.35478">
        <ele>12</ele>
        <time>2022-07-21T07:46:11.000Z</time>
      </trkpt>
      <trkpt lat="47.33033" lon="-2.35509">
        <ele>12</ele>
        <time>2022-07-21T07:46:14.000Z</time>
      </trkpt>
      <trkpt lat="47.3303" lon="-2.35539">
        <ele>12</ele>
        <time>2022-07-21T07:46:17.000Z</time>
      </trkpt>
      <trkpt lat="47.33029" lon="-2.35569">
        <ele>11.60000038147</ele>
        <time>2022-07-21T07:46:20.000Z</time>
      </trkpt>
      <trkpt lat="47.33028" lon="-2.35579">
        <ele>10.800000190735</ele>
        <time>2022-07-21T07:46:21.000Z</time>
      </trkpt>
      <trkpt lat="47.33027" lon="-2.35589">
        <ele>10.39999961853</ele>
        <time>2022-07-21T07:46:22.000Z</time>
      </trkpt>
      <trkpt lat="47.33025" lon="-2.35598">
        <ele>10</ele>
        <time>2022-07-21T07:46:23.000Z</time>
      </trkpt>
      <trkpt lat="47.3302" lon="-2.35639">
        <ele>10</ele>
        <time>2022-07-21T07:46:27.000Z</time>
      </trkpt>
      <trkpt lat="47.33019" lon="-2.35649">
        <ele>9.6000003814697</ele>
        <time>2022-07-21T07:46:28.000Z</time>
      </trkpt>
      <trkpt lat="47.33018" lon="-2.35659">
        <ele>9.1999998092651</ele>
        <time>2022-07-21T07:46:29.000Z</time>
      </trkpt>
      <trkpt lat="47.33017" lon="-2.3567">
        <ele>8.6000003814697</ele>
        <time>2022-07-21T07:46:30.000Z</time>
      </trkpt>
      <trkpt lat="47.33015" lon="-2.3568">
        <ele>8.1999998092651</ele>
        <time>2022-07-21T07:46:31.000Z</time>
      </trkpt>
      <trkpt lat="47.33014" lon="-2.3569">
        <ele>7.8000001907349</ele>
        <time>2022-07-21T07:46:32.000Z</time>
      </trkpt>
      <trkpt lat="47.33009" lon="-2.35745">
        <ele>7.8000001907349</ele>
        <time>2022-07-21T07:46:37.000Z</time>
      </trkpt>
      <trkpt lat="47.33012" lon="-2.35764">
        <ele>7.8000001907349</ele>
        <time>2022-07-21T07:46:39.000Z</time>
      </trkpt>
      <trkpt lat="47.33018" lon="-2.35782">
        <ele>7.8000001907349</ele>
        <time>2022-07-21T07:46:41.000Z</time>
      </trkpt>
      <trkpt lat="47.33032" lon="-2.35798">
        <ele>7.8000001907349</ele>
        <time>2022-07-21T07:46:44.000Z</time>
      </trkpt>
      <trkpt lat="47.33055" lon="-2.35805">
        <ele>7.8000001907349</ele>
        <time>2022-07-21T07:46:48.000Z</time>
      </trkpt>
      <trkpt lat="47.33073" lon="-2.35807">
        <ele>7.8000001907349</ele>
        <time>2022-07-21T07:46:51.000Z</time>
      </trkpt>
      <trkpt lat="47.33086" lon="-2.35808">
        <ele>7.8000001907349</ele>
        <time>2022-07-21T07:46:53.000Z</time>
      </trkpt>
      <trkpt lat="47.33092" lon="-2.35808">
        <ele>8.1999998092651</ele>
        <time>2022-07-21T07:46:54.000Z</time>
      </trkpt>
      <trkpt lat="47.33098" lon="-2.35808">
        <ele>8.6000003814697</ele>
        <time>2022-07-21T07:46:55.000Z</time>
      </trkpt>
      <trkpt lat="47.33105" lon="-2.35808">
        <ele>9</ele>
        <time>2022-07-21T07:46:56.000Z</time>
      </trkpt>
      <trkpt lat="47.33111" lon="-2.35807">
        <ele>9.3999996185303</ele>
        <time>2022-07-21T07:46:57.000Z</time>
      </trkpt>
      <trkpt lat="47.33118" lon="-2.35806">
        <ele>9.8000001907349</ele>
        <time>2022-07-21T07:46:58.000Z</time>
      </trkpt>
      <trkpt lat="47.33124" lon="-2.35806">
        <ele>9.8000001907349</ele>
        <time>2022-07-21T07:46:59.000Z</time>
      </trkpt>
      <trkpt lat="47.33137" lon="-2.35807">
        <ele>9.8000001907349</ele>
        <time>2022-07-21T07:47:01.000Z</time>
      </trkpt>
      <trkpt lat="47.33156" lon="-2.3581">
        <ele>10.199999809265</ele>
        <time>2022-07-21T07:47:04.000Z</time>
      </trkpt>
      <trkpt lat="47.33162" lon="-2.35811">
        <ele>10.60000038147</ele>
        <time>2022-07-21T07:47:05.000Z</time>
      </trkpt>
      <trkpt lat="47.33168" lon="-2.35812">
        <ele>11.199999809265</ele>
        <time>2022-07-21T07:47:06.000Z</time>
      </trkpt>
      <trkpt lat="47.33175" lon="-2.35813">
        <ele>11.60000038147</ele>
        <time>2022-07-21T07:47:07.000Z</time>
      </trkpt>
      <trkpt lat="47.33181" lon="-2.35814">
        <ele>12</ele>
        <time>2022-07-21T07:47:08.000Z</time>
      </trkpt>
      <trkpt lat="47.33195" lon="-2.35817">
        <ele>12</ele>
        <time>2022-07-21T07:47:10.000Z</time>
      </trkpt>
      <trkpt lat="47.33231" lon="-2.35828">
        <ele>12</ele>
        <time>2022-07-21T07:47:16.000Z</time>
      </trkpt>
      <trkpt lat="47.33241" lon="-2.35835">
        <ele>12</ele>
        <time>2022-07-21T07:47:18.000Z</time>
      </trkpt>
      <trkpt lat="47.33246" lon="-2.3584">
        <ele>12.39999961853</ele>
        <time>2022-07-21T07:47:19.000Z</time>
      </trkpt>
      <trkpt lat="47.3325" lon="-2.35844">
        <ele>12.800000190735</ele>
        <time>2022-07-21T07:47:20.000Z</time>
      </trkpt>
      <trkpt lat="47.33254" lon="-2.35848">
        <ele>13.199999809265</ele>
        <time>2022-07-21T07:47:21.000Z</time>
      </trkpt>
      <trkpt lat="47.33259" lon="-2.35852">
        <ele>13.60000038147</ele>
        <time>2022-07-21T07:47:22.000Z</time>
      </trkpt>
      <trkpt lat="47.33263" lon="-2.35856">
        <ele>14.199999809265</ele>
        <time>2022-07-21T07:47:23.000Z</time>
      </trkpt>
      <trkpt lat="47.33274" lon="-2.35868">
        <ele>14.60000038147</ele>
        <time>2022-07-21T07:47:26.000Z</time>
      </trkpt>
      <trkpt lat="47.33278" lon="-2.35871">
        <ele>15</ele>
        <time>2022-07-21T07:47:27.000Z</time>
      </trkpt>
      <trkpt lat="47.33282" lon="-2.35875">
        <ele>15.39999961853</ele>
        <time>2022-07-21T07:47:28.000Z</time>
      </trkpt>
      <trkpt lat="47.33285" lon="-2.35878">
        <ele>15.800000190735</ele>
        <time>2022-07-21T07:47:29.000Z</time>
      </trkpt>
      <trkpt lat="47.3329" lon="-2.35881">
        <ele>16.200000762939</ele>
        <time>2022-07-21T07:47:30.000Z</time>
      </trkpt>
      <trkpt lat="47.33294" lon="-2.35884">
        <ele>16.200000762939</ele>
        <time>2022-07-21T07:47:31.000Z</time>
      </trkpt>
      <trkpt lat="47.33304" lon="-2.35894">
        <ele>16.200000762939</ele>
        <time>2022-07-21T07:47:34.000Z</time>
      </trkpt>
      <trkpt lat="47.33312" lon="-2.3591">
        <ele>16.799999237061</ele>
        <time>2022-07-21T07:47:37.000Z</time>
      </trkpt>
      <trkpt lat="47.33314" lon="-2.35916">
        <ele>17.200000762939</ele>
        <time>2022-07-21T07:47:38.000Z</time>
      </trkpt>
      <trkpt lat="47.33316" lon="-2.35921">
        <ele>17.60000038147</ele>
        <time>2022-07-21T07:47:39.000Z</time>
      </trkpt>
      <trkpt lat="47.33318" lon="-2.35927">
        <ele>18</ele>
        <time>2022-07-21T07:47:40.000Z</time>
      </trkpt>
      <trkpt lat="47.3332" lon="-2.35934">
        <ele>18.39999961853</ele>
        <time>2022-07-21T07:47:41.000Z</time>
      </trkpt>
      <trkpt lat="47.33323" lon="-2.35947">
        <ele>18.39999961853</ele>
        <time>2022-07-21T07:47:43.000Z</time>
      </trkpt>
      <trkpt lat="47.33323" lon="-2.35961">
        <ele>18.39999961853</ele>
        <time>2022-07-21T07:47:45.000Z</time>
      </trkpt>
      <trkpt lat="47.3332" lon="-2.35984">
        <ele>18.39999961853</ele>
        <time>2022-07-21T07:47:48.000Z</time>
      </trkpt>
      <trkpt lat="47.33318" lon="-2.35991">
        <ele>18.39999961853</ele>
        <time>2022-07-21T07:47:49.000Z</time>
      </trkpt>
      <trkpt lat="47.33314" lon="-2.36023">
        <ele>18.39999961853</ele>
        <time>2022-07-21T07:47:53.000Z</time>
      </trkpt>
      <trkpt lat="47.33311" lon="-2.36039">
        <ele>18.39999961853</ele>
        <time>2022-07-21T07:47:55.000Z</time>
      </trkpt>
      <trkpt lat="47.33311" lon="-2.36047">
        <ele>18.39999961853</ele>
        <time>2022-07-21T07:47:56.000Z</time>
      </trkpt>
      <trkpt lat="47.33309" lon="-2.36085">
        <ele>18.39999961853</ele>
        <time>2022-07-21T07:48:01.000Z</time>
      </trkpt>
      <trkpt lat="47.33309" lon="-2.36143">
        <ele>18.39999961853</ele>
        <time>2022-07-21T07:48:08.000Z</time>
      </trkpt>
      <trkpt lat="47.33307" lon="-2.36196">
        <ele>18.39999961853</ele>
        <time>2022-07-21T07:48:15.000Z</time>
      </trkpt>
      <trkpt lat="47.3331" lon="-2.36215">
        <ele>18.39999961853</ele>
        <time>2022-07-21T07:48:19.000Z</time>
      </trkpt>
      <trkpt lat="47.33318" lon="-2.36215">
        <ele>18.39999961853</ele>
        <time>2022-07-21T07:48:23.000Z</time>
      </trkpt>
      <trkpt lat="47.3333" lon="-2.36206">
        <ele>18.39999961853</ele>
        <time>2022-07-21T07:48:28.000Z</time>
      </trkpt>
      <trkpt lat="47.3334" lon="-2.362">
        <ele>18.39999961853</ele>
        <time>2022-07-21T07:48:34.000Z</time>
      </trkpt>
      <trkpt lat="47.33349" lon="-2.36195">
        <ele>18.39999961853</ele>
        <time>2022-07-21T07:48:40.000Z</time>
      </trkpt>
      <trkpt lat="47.33351" lon="-2.36194">
        <ele>18.39999961853</ele>
        <time>2022-07-21T07:48:41.000Z</time>
      </trkpt>
      <trkpt lat="47.33362" lon="-2.36186">
        <ele>18.39999961853</ele>
        <time>2022-07-21T07:48:46.000Z</time>
      </trkpt>
      <trkpt lat="47.33374" lon="-2.3618">
        <ele>18.39999961853</ele>
        <time>2022-07-21T07:48:52.000Z</time>
      </trkpt>
      <trkpt lat="47.33388" lon="-2.3617">
        <ele>18.39999961853</ele>
        <time>2022-07-21T07:48:59.000Z</time>
      </trkpt>
      <trkpt lat="47.33403" lon="-2.36161">
        <ele>18.39999961853</ele>
        <time>2022-07-21T07:49:05.000Z</time>
      </trkpt>
      <trkpt lat="47.33406" lon="-2.36163">
        <ele>18.39999961853</ele>
        <time>2022-07-21T07:49:06.000Z</time>
      </trkpt>
      <trkpt lat="47.3341" lon="-2.36171">
        <ele>18.39999961853</ele>
        <time>2022-07-21T07:49:08.000Z</time>
      </trkpt>
      <trkpt lat="47.33414" lon="-2.36192">
        <ele>18.39999961853</ele>
        <time>2022-07-21T07:49:12.000Z</time>
      </trkpt>
      <trkpt lat="47.33415" lon="-2.36199">
        <ele>18.39999961853</ele>
        <time>2022-07-21T07:49:13.000Z</time>
      </trkpt>
      <trkpt lat="47.33415" lon="-2.36206">
        <ele>18.39999961853</ele>
        <time>2022-07-21T07:49:14.000Z</time>
      </trkpt>
      <trkpt lat="47.33412" lon="-2.36228">
        <ele>18.39999961853</ele>
        <time>2022-07-21T07:49:17.000Z</time>
      </trkpt>
      <trkpt lat="47.33412" lon="-2.36237">
        <ele>18.39999961853</ele>
        <time>2022-07-21T07:49:18.000Z</time>
      </trkpt>
      <trkpt lat="47.33412" lon="-2.36262">
        <ele>18.39999961853</ele>
        <time>2022-07-21T07:49:21.000Z</time>
      </trkpt>
      <trkpt lat="47.33412" lon="-2.36271">
        <ele>18.39999961853</ele>
        <time>2022-07-21T07:49:22.000Z</time>
      </trkpt>
      <trkpt lat="47.33413" lon="-2.3628">
        <ele>18.39999961853</ele>
        <time>2022-07-21T07:49:23.000Z</time>
      </trkpt>
      <trkpt lat="47.33419" lon="-2.36313">
        <ele>18.39999961853</ele>
        <time>2022-07-21T07:49:27.000Z</time>
      </trkpt>
      <trkpt lat="47.33426" lon="-2.36334">
        <ele>18</ele>
        <time>2022-07-21T07:49:30.000Z</time>
      </trkpt>
      <trkpt lat="47.33428" lon="-2.3634">
        <ele>17.60000038147</ele>
        <time>2022-07-21T07:49:31.000Z</time>
      </trkpt>
      <trkpt lat="47.33431" lon="-2.36347">
        <ele>17.200000762939</ele>
        <time>2022-07-21T07:49:32.000Z</time>
      </trkpt>
      <trkpt lat="47.33433" lon="-2.36354">
        <ele>16.799999237061</ele>
        <time>2022-07-21T07:49:33.000Z</time>
      </trkpt>
      <trkpt lat="47.33436" lon="-2.3636">
        <ele>16.39999961853</ele>
        <time>2022-07-21T07:49:34.000Z</time>
      </trkpt>
      <trkpt lat="47.33448" lon="-2.36386">
        <ele>16.39999961853</ele>
        <time>2022-07-21T07:49:38.000Z</time>
      </trkpt>
      <trkpt lat="47.3345" lon="-2.36391">
        <ele>16.39999961853</ele>
        <time>2022-07-21T07:49:39.000Z</time>
      </trkpt>
      <trkpt lat="47.33452" lon="-2.36396">
        <ele>16</ele>
        <time>2022-07-21T07:49:40.000Z</time>
      </trkpt>
      <trkpt lat="47.33454" lon="-2.36401">
        <ele>15.60000038147</ele>
        <time>2022-07-21T07:49:41.000Z</time>
      </trkpt>
      <trkpt lat="47.33457" lon="-2.36406">
        <ele>15.199999809265</ele>
        <time>2022-07-21T07:49:42.000Z</time>
      </trkpt>
      <trkpt lat="47.3346" lon="-2.36408">
        <ele>14.800000190735</ele>
        <time>2022-07-21T07:49:43.000Z</time>
      </trkpt>
      <trkpt lat="47.33464" lon="-2.36409">
        <ele>14.199999809265</ele>
        <time>2022-07-21T07:49:44.000Z</time>
      </trkpt>
      <trkpt lat="47.33479" lon="-2.36422">
        <ele>14.199999809265</ele>
        <time>2022-07-21T07:49:49.000Z</time>
      </trkpt>
      <trkpt lat="47.33481" lon="-2.36443">
        <ele>14.199999809265</ele>
        <time>2022-07-21T07:49:53.000Z</time>
      </trkpt>
      <trkpt lat="47.33483" lon="-2.36457">
        <ele>14.199999809265</ele>
        <time>2022-07-21T07:49:55.000Z</time>
      </trkpt>
      <trkpt lat="47.33483" lon="-2.36488">
        <ele>14.199999809265</ele>
        <time>2022-07-21T07:49:59.000Z</time>
      </trkpt>
      <trkpt lat="47.33483" lon="-2.36514">
        <ele>13.800000190735</ele>
        <time>2022-07-21T07:50:02.000Z</time>
      </trkpt>
      <trkpt lat="47.33483" lon="-2.36523">
        <ele>13</ele>
        <time>2022-07-21T07:50:03.000Z</time>
      </trkpt>
      <trkpt lat="47.33483" lon="-2.36532">
        <ele>12.60000038147</ele>
        <time>2022-07-21T07:50:04.000Z</time>
      </trkpt>
      <trkpt lat="47.33482" lon="-2.36541">
        <ele>12.199999809265</ele>
        <time>2022-07-21T07:50:05.000Z</time>
      </trkpt>
      <trkpt lat="47.3348" lon="-2.3656">
        <ele>12.199999809265</ele>
        <time>2022-07-21T07:50:07.000Z</time>
      </trkpt>
      <trkpt lat="47.3348" lon="-2.36575">
        <ele>12.199999809265</ele>
        <time>2022-07-21T07:50:09.000Z</time>
      </trkpt>
      <trkpt lat="47.33481" lon="-2.36578">
        <ele>12.199999809265</ele>
        <time>2022-07-21T07:50:10.000Z</time>
      </trkpt>
      <trkpt lat="47.33492" lon="-2.36585">
        <ele>12.199999809265</ele>
        <time>2022-07-21T07:50:13.000Z</time>
      </trkpt>
      <trkpt lat="47.33509" lon="-2.36598">
        <ele>12.199999809265</ele>
        <time>2022-07-21T07:50:17.000Z</time>
      </trkpt>
      <trkpt lat="47.33513" lon="-2.36602">
        <ele>12.199999809265</ele>
        <time>2022-07-21T07:50:18.000Z</time>
      </trkpt>
      <trkpt lat="47.33522" lon="-2.36607">
        <ele>11.800000190735</ele>
        <time>2022-07-21T07:50:20.000Z</time>
      </trkpt>
      <trkpt lat="47.33527" lon="-2.3661">
        <ele>11.39999961853</ele>
        <time>2022-07-21T07:50:21.000Z</time>
      </trkpt>
      <trkpt lat="47.33529" lon="-2.36614">
        <ele>11</ele>
        <time>2022-07-21T07:50:22.000Z</time>
      </trkpt>
      <trkpt lat="47.33531" lon="-2.36618">
        <ele>10.60000038147</ele>
        <time>2022-07-21T07:50:23.000Z</time>
      </trkpt>
      <trkpt lat="47.33532" lon="-2.36621">
        <ele>10.199999809265</ele>
        <time>2022-07-21T07:50:24.000Z</time>
      </trkpt>
      <trkpt lat="47.33537" lon="-2.36627">
        <ele>9.6000003814697</ele>
        <time>2022-07-21T07:50:26.000Z</time>
      </trkpt>
      <trkpt lat="47.33539" lon="-2.36631">
        <ele>9.1999998092651</ele>
        <time>2022-07-21T07:50:27.000Z</time>
      </trkpt>
      <trkpt lat="47.33541" lon="-2.36636">
        <ele>8</ele>
        <time>2022-07-21T07:50:28.000Z</time>
      </trkpt>
      <trkpt lat="47.33541" lon="-2.3664">
        <ele>7.4000000953674</ele>
        <time>2022-07-21T07:50:29.000Z</time>
      </trkpt>
      <trkpt lat="47.33539" lon="-2.36645">
        <ele>6.5999999046326</ele>
        <time>2022-07-21T07:50:30.000Z</time>
      </trkpt>
      <trkpt lat="47.33537" lon="-2.36649">
        <ele>6</ele>
        <time>2022-07-21T07:50:31.000Z</time>
      </trkpt>
      <trkpt lat="47.33534" lon="-2.36653">
        <ele>5.4000000953674</ele>
        <time>2022-07-21T07:50:32.000Z</time>
      </trkpt>
      <trkpt lat="47.33527" lon="-2.36661">
        <ele>5.4000000953674</ele>
        <time>2022-07-21T07:50:34.000Z</time>
      </trkpt>
      <trkpt lat="47.33522" lon="-2.36671">
        <ele>5.4000000953674</ele>
        <time>2022-07-21T07:50:36.000Z</time>
      </trkpt>
      <trkpt lat="47.33515" lon="-2.36684">
        <ele>5.4000000953674</ele>
        <time>2022-07-21T07:50:38.000Z</time>
      </trkpt>
      <trkpt lat="47.33504" lon="-2.36703">
        <ele>5.4000000953674</ele>
        <time>2022-07-21T07:50:41.000Z</time>
      </trkpt>
      <trkpt lat="47.33497" lon="-2.36716">
        <ele>5.4000000953674</ele>
        <time>2022-07-21T07:50:43.000Z</time>
      </trkpt>
      <trkpt lat="47.33481" lon="-2.36754">
        <ele>5.4000000953674</ele>
        <time>2022-07-21T07:50:49.000Z</time>
      </trkpt>
      <trkpt lat="47.33474" lon="-2.36797">
        <ele>5.4000000953674</ele>
        <time>2022-07-21T07:50:54.000Z</time>
      </trkpt>
      <trkpt lat="47.33472" lon="-2.36814">
        <ele>5.4000000953674</ele>
        <time>2022-07-21T07:50:56.000Z</time>
      </trkpt>
      <trkpt lat="47.33469" lon="-2.36828">
        <ele>5.4000000953674</ele>
        <time>2022-07-21T07:50:58.000Z</time>
      </trkpt>
      <trkpt lat="47.33455" lon="-2.36848">
        <ele>5.4000000953674</ele>
        <time>2022-07-21T07:51:02.000Z</time>
      </trkpt>
      <trkpt lat="47.3345" lon="-2.36858">
        <ele>5.4000000953674</ele>
        <time>2022-07-21T07:51:05.000Z</time>
      </trkpt>
      <trkpt lat="47.3345" lon="-2.36867">
        <ele>5.8000001907349</ele>
        <time>2022-07-21T07:51:09.000Z</time>
      </trkpt>
      <trkpt lat="47.3345" lon="-2.36871">
        <ele>6.1999998092651</ele>
        <time>2022-07-21T07:51:10.000Z</time>
      </trkpt>
      <trkpt lat="47.3345" lon="-2.36875">
        <ele>6.5999999046326</ele>
        <time>2022-07-21T07:51:11.000Z</time>
      </trkpt>
      <trkpt lat="47.3345" lon="-2.36879">
        <ele>7</ele>
        <time>2022-07-21T07:51:12.000Z</time>
      </trkpt>
      <trkpt lat="47.33452" lon="-2.36883">
        <ele>7.4000000953674</ele>
        <time>2022-07-21T07:51:13.000Z</time>
      </trkpt>
      <trkpt lat="47.33453" lon="-2.36888">
        <ele>7.4000000953674</ele>
        <time>2022-07-21T07:51:14.000Z</time>
      </trkpt>
      <trkpt lat="47.3346" lon="-2.36914">
        <ele>7.4000000953674</ele>
        <time>2022-07-21T07:51:19.000Z</time>
      </trkpt>
      <trkpt lat="47.33462" lon="-2.36937">
        <ele>7.4000000953674</ele>
        <time>2022-07-21T07:51:24.000Z</time>
      </trkpt>
      <trkpt lat="47.33466" lon="-2.36963">
        <ele>7.4000000953674</ele>
        <time>2022-07-21T07:51:28.000Z</time>
      </trkpt>
      <trkpt lat="47.33475" lon="-2.3698">
        <ele>7.4000000953674</ele>
        <time>2022-07-21T07:51:32.000Z</time>
      </trkpt>
      <trkpt lat="47.33479" lon="-2.36987">
        <ele>7.4000000953674</ele>
        <time>2022-07-21T07:51:35.000Z</time>
      </trkpt>
      <trkpt lat="47.33477" lon="-2.36995">
        <ele>7.4000000953674</ele>
        <time>2022-07-21T07:51:37.000Z</time>
      </trkpt>
      <trkpt lat="47.33477" lon="-2.37007">
        <ele>7.4000000953674</ele>
        <time>2022-07-21T07:51:40.000Z</time>
      </trkpt>
      <trkpt lat="47.33476" lon="-2.37027">
        <ele>7.4000000953674</ele>
        <time>2022-07-21T07:51:45.000Z</time>
      </trkpt>
      <trkpt lat="47.33472" lon="-2.37056">
        <ele>7.4000000953674</ele>
        <time>2022-07-21T07:51:51.000Z</time>
      </trkpt>
      <trkpt lat="47.33475" lon="-2.37083">
        <ele>7.4000000953674</ele>
        <time>2022-07-21T07:51:57.000Z</time>
      </trkpt>
      <trkpt lat="47.33481" lon="-2.37119">
        <ele>7.4000000953674</ele>
        <time>2022-07-21T07:52:04.000Z</time>
      </trkpt>
      <trkpt lat="47.33485" lon="-2.3714">
        <ele>7.8000001907349</ele>
        <time>2022-07-21T07:52:09.000Z</time>
      </trkpt>
      <trkpt lat="47.33487" lon="-2.37145">
        <ele>8.1999998092651</ele>
        <time>2022-07-21T07:52:10.000Z</time>
      </trkpt>
      <trkpt lat="47.33488" lon="-2.37151">
        <ele>8.8000001907349</ele>
        <time>2022-07-21T07:52:11.000Z</time>
      </trkpt>
      <trkpt lat="47.3349" lon="-2.37156">
        <ele>9.1999998092651</ele>
        <time>2022-07-21T07:52:12.000Z</time>
      </trkpt>
      <trkpt lat="47.33491" lon="-2.37163">
        <ele>9.6000003814697</ele>
        <time>2022-07-21T07:52:13.000Z</time>
      </trkpt>
      <trkpt lat="47.33492" lon="-2.37168">
        <ele>9.6000003814697</ele>
        <time>2022-07-21T07:52:14.000Z</time>
      </trkpt>
      <trkpt lat="47.335" lon="-2.37208">
        <ele>9.6000003814697</ele>
        <time>2022-07-21T07:52:20.000Z</time>
      </trkpt>
      <trkpt lat="47.33504" lon="-2.37221">
        <ele>9.6000003814697</ele>
        <time>2022-07-21T07:52:24.000Z</time>
      </trkpt>
      <trkpt lat="47.33505" lon="-2.37224">
        <ele>10</ele>
        <time>2022-07-21T07:52:26.000Z</time>
      </trkpt>
      <trkpt lat="47.33505" lon="-2.37225">
        <ele>10.39999961853</ele>
        <time>2022-07-21T07:52:27.000Z</time>
      </trkpt>
      <trkpt lat="47.33504" lon="-2.37226">
        <ele>10.800000190735</ele>
        <time>2022-07-21T07:52:28.000Z</time>
      </trkpt>
      <trkpt lat="47.33504" lon="-2.37226">
        <ele>11.199999809265</ele>
        <time>2022-07-21T07:52:29.000Z</time>
      </trkpt>
      <trkpt lat="47.33507" lon="-2.37231">
        <ele>11.60000038147</ele>
        <time>2022-07-21T07:54:19.000Z</time>
      </trkpt>
      <trkpt lat="47.33509" lon="-2.3723">
        <ele>11.60000038147</ele>
        <time>2022-07-21T07:54:20.000Z</time>
      </trkpt>
      <trkpt lat="47.33512" lon="-2.3723">
        <ele>11.60000038147</ele>
        <time>2022-07-21T07:54:22.000Z</time>
      </trkpt>
      <trkpt lat="47.3352" lon="-2.37232">
        <ele>11.60000038147</ele>
        <time>2022-07-21T07:54:26.000Z</time>
      </trkpt>
      <trkpt lat="47.33525" lon="-2.37232">
        <ele>11.60000038147</ele>
        <time>2022-07-21T07:54:28.000Z</time>
      </trkpt>
      <trkpt lat="47.33546" lon="-2.37231">
        <ele>12</ele>
        <time>2022-07-21T07:54:34.000Z</time>
      </trkpt>
      <trkpt lat="47.3355" lon="-2.37231">
        <ele>12.800000190735</ele>
        <time>2022-07-21T07:54:35.000Z</time>
      </trkpt>
      <trkpt lat="47.33555" lon="-2.37232">
        <ele>13.199999809265</ele>
        <time>2022-07-21T07:54:36.000Z</time>
      </trkpt>
      <trkpt lat="47.33559" lon="-2.37232">
        <ele>13.60000038147</ele>
        <time>2022-07-21T07:54:37.000Z</time>
      </trkpt>
      <trkpt lat="47.33575" lon="-2.37235">
        <ele>13.60000038147</ele>
        <time>2022-07-21T07:54:41.000Z</time>
      </trkpt>
      <trkpt lat="47.33584" lon="-2.37233">
        <ele>13.60000038147</ele>
        <time>2022-07-21T07:54:43.000Z</time>
      </trkpt>
      <trkpt lat="47.33597" lon="-2.37228">
        <ele>13.60000038147</ele>
        <time>2022-07-21T07:54:46.000Z</time>
      </trkpt>
      <trkpt lat="47.33597" lon="-2.37211">
        <ele>13.60000038147</ele>
        <time>2022-07-21T07:54:49.000Z</time>
      </trkpt>
      <trkpt lat="47.33597" lon="-2.37199">
        <ele>13.60000038147</ele>
        <time>2022-07-21T07:54:51.000Z</time>
      </trkpt>
      <trkpt lat="47.33599" lon="-2.37182">
        <ele>13.60000038147</ele>
        <time>2022-07-21T07:54:54.000Z</time>
      </trkpt>
      <trkpt lat="47.33603" lon="-2.37149">
        <ele>13.60000038147</ele>
        <time>2022-07-21T07:54:58.000Z</time>
      </trkpt>
      <trkpt lat="47.33602" lon="-2.37084">
        <ele>13.60000038147</ele>
        <time>2022-07-21T07:55:05.000Z</time>
      </trkpt>
      <trkpt lat="47.33602" lon="-2.37037">
        <ele>13.60000038147</ele>
        <time>2022-07-21T07:55:10.000Z</time>
      </trkpt>
      <trkpt lat="47.336" lon="-2.37008">
        <ele>13.60000038147</ele>
        <time>2022-07-21T07:55:13.000Z</time>
      </trkpt>
      <trkpt lat="47.336" lon="-2.36982">
        <ele>13.60000038147</ele>
        <time>2022-07-21T07:55:16.000Z</time>
      </trkpt>
      <trkpt lat="47.33608" lon="-2.36944">
        <ele>13.60000038147</ele>
        <time>2022-07-21T07:55:20.000Z</time>
      </trkpt>
      <trkpt lat="47.33618" lon="-2.36927">
        <ele>13.60000038147</ele>
        <time>2022-07-21T07:55:23.000Z</time>
      </trkpt>
      <trkpt lat="47.3362" lon="-2.36924">
        <ele>13.60000038147</ele>
        <time>2022-07-21T07:55:24.000Z</time>
      </trkpt>
      <trkpt lat="47.33624" lon="-2.36923">
        <ele>13.60000038147</ele>
        <time>2022-07-21T07:55:27.000Z</time>
      </trkpt>
      <trkpt lat="47.33625" lon="-2.36924">
        <ele>13.60000038147</ele>
        <time>2022-07-21T07:55:28.000Z</time>
      </trkpt>
      <trkpt lat="47.33625" lon="-2.36923">
        <ele>13.60000038147</ele>
        <time>2022-07-21T07:55:29.000Z</time>
      </trkpt>
      <trkpt lat="47.33626" lon="-2.36918">
        <ele>13.60000038147</ele>
        <time>2022-07-21T07:56:11.000Z</time>
      </trkpt>
      <trkpt lat="47.33629" lon="-2.36914">
        <ele>13.60000038147</ele>
        <time>2022-07-21T07:56:12.000Z</time>
      </trkpt>
      <trkpt lat="47.33643" lon="-2.36896">
        <ele>13.60000038147</ele>
        <time>2022-07-21T07:56:17.000Z</time>
      </trkpt>
      <trkpt lat="47.33659" lon="-2.36873">
        <ele>13.60000038147</ele>
        <time>2022-07-21T07:56:22.000Z</time>
      </trkpt>
      <trkpt lat="47.33663" lon="-2.36868">
        <ele>13.60000038147</ele>
        <time>2022-07-21T07:56:23.000Z</time>
      </trkpt>
      <trkpt lat="47.33693" lon="-2.36832">
        <ele>13.60000038147</ele>
        <time>2022-07-21T07:56:31.000Z</time>
      </trkpt>
      <trkpt lat="47.33697" lon="-2.36829">
        <ele>14</ele>
        <time>2022-07-21T07:56:32.000Z</time>
      </trkpt>
      <trkpt lat="47.33702" lon="-2.36826">
        <ele>14.39999961853</ele>
        <time>2022-07-21T07:56:33.000Z</time>
      </trkpt>
      <trkpt lat="47.33705" lon="-2.36823">
        <ele>14.800000190735</ele>
        <time>2022-07-21T07:56:34.000Z</time>
      </trkpt>
      <trkpt lat="47.3371" lon="-2.3682">
        <ele>15.39999961853</ele>
        <time>2022-07-21T07:56:35.000Z</time>
      </trkpt>
      <trkpt lat="47.33714" lon="-2.36818">
        <ele>15.800000190735</ele>
        <time>2022-07-21T07:56:36.000Z</time>
      </trkpt>
      <trkpt lat="47.33725" lon="-2.36814">
        <ele>15.800000190735</ele>
        <time>2022-07-21T07:56:38.000Z</time>
      </trkpt>
      <trkpt lat="47.33744" lon="-2.36808">
        <ele>15.800000190735</ele>
        <time>2022-07-21T07:56:41.000Z</time>
      </trkpt>
      <trkpt lat="47.33768" lon="-2.368">
        <ele>15.800000190735</ele>
        <time>2022-07-21T07:56:45.000Z</time>
      </trkpt>
      <trkpt lat="47.33774" lon="-2.36798">
        <ele>15.800000190735</ele>
        <time>2022-07-21T07:56:46.000Z</time>
      </trkpt>
      <trkpt lat="47.33823" lon="-2.3678">
        <ele>15.800000190735</ele>
        <time>2022-07-21T07:56:53.000Z</time>
      </trkpt>
      <trkpt lat="47.33871" lon="-2.36767">
        <ele>15.800000190735</ele>
        <time>2022-07-21T07:57:00.000Z</time>
      </trkpt>
      <trkpt lat="47.33906" lon="-2.36756">
        <ele>15.800000190735</ele>
        <time>2022-07-21T07:57:07.000Z</time>
      </trkpt>
      <trkpt lat="47.33917" lon="-2.36751">
        <ele>15.800000190735</ele>
        <time>2022-07-21T07:57:10.000Z</time>
      </trkpt>
      <trkpt lat="47.33922" lon="-2.36753">
        <ele>15.800000190735</ele>
        <time>2022-07-21T07:57:11.000Z</time>
      </trkpt>
      <trkpt lat="47.33936" lon="-2.36757">
        <ele>15.800000190735</ele>
        <time>2022-07-21T07:57:14.000Z</time>
      </trkpt>
      <trkpt lat="47.33941" lon="-2.36756">
        <ele>15.39999961853</ele>
        <time>2022-07-21T07:57:15.000Z</time>
      </trkpt>
      <trkpt lat="47.33946" lon="-2.36754">
        <ele>14.800000190735</ele>
        <time>2022-07-21T07:57:16.000Z</time>
      </trkpt>
      <trkpt lat="47.33951" lon="-2.36754">
        <ele>14.39999961853</ele>
        <time>2022-07-21T07:57:17.000Z</time>
      </trkpt>
      <trkpt lat="47.33957" lon="-2.36752">
        <ele>14</ele>
        <time>2022-07-21T07:57:18.000Z</time>
      </trkpt>
      <trkpt lat="47.33963" lon="-2.36751">
        <ele>13.60000038147</ele>
        <time>2022-07-21T07:57:19.000Z</time>
      </trkpt>
      <trkpt lat="47.33974" lon="-2.36748">
        <ele>13.60000038147</ele>
        <time>2022-07-21T07:57:21.000Z</time>
      </trkpt>
      <trkpt lat="47.3398" lon="-2.36746">
        <ele>13.60000038147</ele>
        <time>2022-07-21T07:57:22.000Z</time>
      </trkpt>
      <trkpt lat="47.34012" lon="-2.36736">
        <ele>12.800000190735</ele>
        <time>2022-07-21T07:57:27.000Z</time>
      </trkpt>
      <trkpt lat="47.34019" lon="-2.36733">
        <ele>12.39999961853</ele>
        <time>2022-07-21T07:57:28.000Z</time>
      </trkpt>
      <trkpt lat="47.34026" lon="-2.36729">
        <ele>12</ele>
        <time>2022-07-21T07:57:29.000Z</time>
      </trkpt>
      <trkpt lat="47.34032" lon="-2.36725">
        <ele>11.60000038147</ele>
        <time>2022-07-21T07:57:30.000Z</time>
      </trkpt>
      <trkpt lat="47.34051" lon="-2.36714">
        <ele>11.60000038147</ele>
        <time>2022-07-21T07:57:33.000Z</time>
      </trkpt>
      <trkpt lat="47.34075" lon="-2.367">
        <ele>11.199999809265</ele>
        <time>2022-07-21T07:57:37.000Z</time>
      </trkpt>
      <trkpt lat="47.3408" lon="-2.367">
        <ele>10.800000190735</ele>
        <time>2022-07-21T07:57:38.000Z</time>
      </trkpt>
      <trkpt lat="47.34084" lon="-2.36704">
        <ele>10.39999961853</ele>
        <time>2022-07-21T07:57:39.000Z</time>
      </trkpt>
      <trkpt lat="47.34087" lon="-2.36709">
        <ele>10</ele>
        <time>2022-07-21T07:57:40.000Z</time>
      </trkpt>
      <trkpt lat="47.34089" lon="-2.36716">
        <ele>9.3999996185303</ele>
        <time>2022-07-21T07:57:41.000Z</time>
      </trkpt>
      <trkpt lat="47.34092" lon="-2.36723">
        <ele>9.3999996185303</ele>
        <time>2022-07-21T07:57:42.000Z</time>
      </trkpt>
      <trkpt lat="47.34094" lon="-2.36741">
        <ele>9.3999996185303</ele>
        <time>2022-07-21T07:57:44.000Z</time>
      </trkpt>
      <trkpt lat="47.34097" lon="-2.3676">
        <ele>9.3999996185303</ele>
        <time>2022-07-21T07:57:46.000Z</time>
      </trkpt>
      <trkpt lat="47.34111" lon="-2.36838">
        <ele>9.3999996185303</ele>
        <time>2022-07-21T07:57:54.000Z</time>
      </trkpt>
      <trkpt lat="47.34112" lon="-2.36847">
        <ele>9</ele>
        <time>2022-07-21T07:57:55.000Z</time>
      </trkpt>
      <trkpt lat="47.34114" lon="-2.36857">
        <ele>8.6000003814697</ele>
        <time>2022-07-21T07:57:56.000Z</time>
      </trkpt>
      <trkpt lat="47.34117" lon="-2.36865">
        <ele>8.1999998092651</ele>
        <time>2022-07-21T07:57:57.000Z</time>
      </trkpt>
      <trkpt lat="47.34121" lon="-2.36874">
        <ele>7.5999999046326</ele>
        <time>2022-07-21T07:57:58.000Z</time>
      </trkpt>
      <trkpt lat="47.34124" lon="-2.36882">
        <ele>7.1999998092651</ele>
        <time>2022-07-21T07:57:59.000Z</time>
      </trkpt>
      <trkpt lat="47.34129" lon="-2.3689">
        <ele>7.1999998092651</ele>
        <time>2022-07-21T07:58:00.000Z</time>
      </trkpt>
      <trkpt lat="47.34154" lon="-2.36935">
        <ele>7.1999998092651</ele>
        <time>2022-07-21T07:58:06.000Z</time>
      </trkpt>
      <trkpt lat="47.34165" lon="-2.36954">
        <ele>7.1999998092651</ele>
        <time>2022-07-21T07:58:09.000Z</time>
      </trkpt>
      <trkpt lat="47.34173" lon="-2.36964">
        <ele>7.1999998092651</ele>
        <time>2022-07-21T07:58:11.000Z</time>
      </trkpt>
      <trkpt lat="47.34187" lon="-2.3698">
        <ele>7.5999999046326</ele>
        <time>2022-07-21T07:58:14.000Z</time>
      </trkpt>
      <trkpt lat="47.34191" lon="-2.36987">
        <ele>8</ele>
        <time>2022-07-21T07:58:15.000Z</time>
      </trkpt>
      <trkpt lat="47.34195" lon="-2.36992">
        <ele>9</ele>
        <time>2022-07-21T07:58:16.000Z</time>
      </trkpt>
      <trkpt lat="47.342" lon="-2.36997">
        <ele>9.3999996185303</ele>
        <time>2022-07-21T07:58:17.000Z</time>
      </trkpt>
      <trkpt lat="47.34215" lon="-2.37022">
        <ele>9.8000001907349</ele>
        <time>2022-07-21T07:58:21.000Z</time>
      </trkpt>
      <trkpt lat="47.34219" lon="-2.37028">
        <ele>10.199999809265</ele>
        <time>2022-07-21T07:58:22.000Z</time>
      </trkpt>
      <trkpt lat="47.34222" lon="-2.37034">
        <ele>10.800000190735</ele>
        <time>2022-07-21T07:58:23.000Z</time>
      </trkpt>
      <trkpt lat="47.34225" lon="-2.37041">
        <ele>11.199999809265</ele>
        <time>2022-07-21T07:58:24.000Z</time>
      </trkpt>
      <trkpt lat="47.34228" lon="-2.37047">
        <ele>11.60000038147</ele>
        <time>2022-07-21T07:58:25.000Z</time>
      </trkpt>
      <trkpt lat="47.34239" lon="-2.37058">
        <ele>11.60000038147</ele>
        <time>2022-07-21T07:58:28.000Z</time>
      </trkpt>
      <trkpt lat="47.34247" lon="-2.37053">
        <ele>11.60000038147</ele>
        <time>2022-07-21T07:58:30.000Z</time>
      </trkpt>
      <trkpt lat="47.34256" lon="-2.37048">
        <ele>11.60000038147</ele>
        <time>2022-07-21T07:58:32.000Z</time>
      </trkpt>
      <trkpt lat="47.3427" lon="-2.37035">
        <ele>11.60000038147</ele>
        <time>2022-07-21T07:58:35.000Z</time>
      </trkpt>
      <trkpt lat="47.34281" lon="-2.37023">
        <ele>11.60000038147</ele>
        <time>2022-07-21T07:58:37.000Z</time>
      </trkpt>
      <trkpt lat="47.34312" lon="-2.36984">
        <ele>11.60000038147</ele>
        <time>2022-07-21T07:58:43.000Z</time>
      </trkpt>
      <trkpt lat="47.34343" lon="-2.3694">
        <ele>11.60000038147</ele>
        <time>2022-07-21T07:58:50.000Z</time>
      </trkpt>
      <trkpt lat="47.34375" lon="-2.36891">
        <ele>11.60000038147</ele>
        <time>2022-07-21T07:58:57.000Z</time>
      </trkpt>
      <trkpt lat="47.34413" lon="-2.3683">
        <ele>11.60000038147</ele>
        <time>2022-07-21T07:59:06.000Z</time>
      </trkpt>
      <trkpt lat="47.34449" lon="-2.36775">
        <ele>11.60000038147</ele>
        <time>2022-07-21T07:59:14.000Z</time>
      </trkpt>
      <trkpt lat="47.34484" lon="-2.36716">
        <ele>11.60000038147</ele>
        <time>2022-07-21T07:59:22.000Z</time>
      </trkpt>
      <trkpt lat="47.34493" lon="-2.36699">
        <ele>11.199999809265</ele>
        <time>2022-07-21T07:59:24.000Z</time>
      </trkpt>
      <trkpt lat="47.34496" lon="-2.36691">
        <ele>10.60000038147</ele>
        <time>2022-07-21T07:59:25.000Z</time>
      </trkpt>
      <trkpt lat="47.345" lon="-2.36683">
        <ele>10.199999809265</ele>
        <time>2022-07-21T07:59:26.000Z</time>
      </trkpt>
      <trkpt lat="47.34504" lon="-2.36676">
        <ele>9.8000001907349</ele>
        <time>2022-07-21T07:59:27.000Z</time>
      </trkpt>
      <trkpt lat="47.34508" lon="-2.36666">
        <ele>9.1999998092651</ele>
        <time>2022-07-21T07:59:28.000Z</time>
      </trkpt>
      <trkpt lat="47.34539" lon="-2.3659">
        <ele>8.8000001907349</ele>
        <time>2022-07-21T07:59:36.000Z</time>
      </trkpt>
      <trkpt lat="47.34542" lon="-2.3658">
        <ele>8.3999996185303</ele>
        <time>2022-07-21T07:59:37.000Z</time>
      </trkpt>
      <trkpt lat="47.34546" lon="-2.36571">
        <ele>8</ele>
        <time>2022-07-21T07:59:38.000Z</time>
      </trkpt>
      <trkpt lat="47.34549" lon="-2.36562">
        <ele>7.4000000953674</ele>
        <time>2022-07-21T07:59:39.000Z</time>
      </trkpt>
      <trkpt lat="47.34553" lon="-2.36553">
        <ele>7</ele>
        <time>2022-07-21T07:59:40.000Z</time>
      </trkpt>
      <trkpt lat="47.34556" lon="-2.36545">
        <ele>7</ele>
        <time>2022-07-21T07:59:41.000Z</time>
      </trkpt>
      <trkpt lat="47.34574" lon="-2.36499">
        <ele>7</ele>
        <time>2022-07-21T07:59:46.000Z</time>
      </trkpt>
      <trkpt lat="47.34592" lon="-2.36449">
        <ele>7</ele>
        <time>2022-07-21T07:59:52.000Z</time>
      </trkpt>
      <trkpt lat="47.34589" lon="-2.36429">
        <ele>7</ele>
        <time>2022-07-21T07:59:55.000Z</time>
      </trkpt>
      <trkpt lat="47.34585" lon="-2.36422">
        <ele>7</ele>
        <time>2022-07-21T07:59:56.000Z</time>
      </trkpt>
      <trkpt lat="47.34581" lon="-2.36416">
        <ele>6.5999999046326</ele>
        <time>2022-07-21T07:59:57.000Z</time>
      </trkpt>
      <trkpt lat="47.34576" lon="-2.36408">
        <ele>6.1999998092651</ele>
        <time>2022-07-21T07:59:58.000Z</time>
      </trkpt>
      <trkpt lat="47.34571" lon="-2.364">
        <ele>5.8000001907349</ele>
        <time>2022-07-21T07:59:59.000Z</time>
      </trkpt>
      <trkpt lat="47.34566" lon="-2.36392">
        <ele>5.4000000953674</ele>
        <time>2022-07-21T08:00:00.000Z</time>
      </trkpt>
      <trkpt lat="47.34561" lon="-2.36384">
        <ele>5</ele>
        <time>2022-07-21T08:00:01.000Z</time>
      </trkpt>
      <trkpt lat="47.34555" lon="-2.36375">
        <ele>5</ele>
        <time>2022-07-21T08:00:02.000Z</time>
      </trkpt>
      <trkpt lat="47.34547" lon="-2.36356">
        <ele>5</ele>
        <time>2022-07-21T08:00:04.000Z</time>
      </trkpt>
      <trkpt lat="47.34533" lon="-2.36314">
        <ele>4.5999999046326</ele>
        <time>2022-07-21T08:00:08.000Z</time>
      </trkpt>
      <trkpt lat="47.3453" lon="-2.36303">
        <ele>4.1999998092651</ele>
        <time>2022-07-21T08:00:09.000Z</time>
      </trkpt>
      <trkpt lat="47.34527" lon="-2.36293">
        <ele>3.7999999523163</ele>
        <time>2022-07-21T08:00:10.000Z</time>
      </trkpt>
      <trkpt lat="47.34524" lon="-2.36284">
        <ele>3.4000000953674</ele>
        <time>2022-07-21T08:00:11.000Z</time>
      </trkpt>
      <trkpt lat="47.34521" lon="-2.36274">
        <ele>2.7999999523163</ele>
        <time>2022-07-21T08:00:12.000Z</time>
      </trkpt>
      <trkpt lat="47.34518" lon="-2.36265">
        <ele>2.7999999523163</ele>
        <time>2022-07-21T08:00:13.000Z</time>
      </trkpt>
      <trkpt lat="47.34505" lon="-2.36227">
        <ele>2.7999999523163</ele>
        <time>2022-07-21T08:00:17.000Z</time>
      </trkpt>
      <trkpt lat="47.345" lon="-2.36219">
        <ele>2.7999999523163</ele>
        <time>2022-07-21T08:00:18.000Z</time>
      </trkpt>
      <trkpt lat="47.34471" lon="-2.36174">
        <ele>2.7999999523163</ele>
        <time>2022-07-21T08:00:24.000Z</time>
      </trkpt>
      <trkpt lat="47.34455" lon="-2.36134">
        <ele>2.7999999523163</ele>
        <time>2022-07-21T08:00:29.000Z</time>
      </trkpt>
      <trkpt lat="47.34446" lon="-2.36111">
        <ele>2.7999999523163</ele>
        <time>2022-07-21T08:00:32.000Z</time>
      </trkpt>
      <trkpt lat="47.3444" lon="-2.36097">
        <ele>2.7999999523163</ele>
        <time>2022-07-21T08:00:34.000Z</time>
      </trkpt>
      <trkpt lat="47.34432" lon="-2.36075">
        <ele>2.7999999523163</ele>
        <time>2022-07-21T08:00:37.000Z</time>
      </trkpt>
      <trkpt lat="47.3443" lon="-2.36067">
        <ele>3.4000000953674</ele>
        <time>2022-07-21T08:00:38.000Z</time>
      </trkpt>
      <trkpt lat="47.34428" lon="-2.3606">
        <ele>3.7999999523163</ele>
        <time>2022-07-21T08:00:39.000Z</time>
      </trkpt>
      <trkpt lat="47.34427" lon="-2.36052">
        <ele>4.1999998092651</ele>
        <time>2022-07-21T08:00:40.000Z</time>
      </trkpt>
      <trkpt lat="47.34425" lon="-2.36045">
        <ele>4.5999999046326</ele>
        <time>2022-07-21T08:00:41.000Z</time>
      </trkpt>
      <trkpt lat="47.34423" lon="-2.36037">
        <ele>5</ele>
        <time>2022-07-21T08:00:42.000Z</time>
      </trkpt>
      <trkpt lat="47.34418" lon="-2.36024">
        <ele>5</ele>
        <time>2022-07-21T08:00:44.000Z</time>
      </trkpt>
      <trkpt lat="47.34416" lon="-2.36018">
        <ele>5</ele>
        <time>2022-07-21T08:00:45.000Z</time>
      </trkpt>
      <trkpt lat="47.34411" lon="-2.36003">
        <ele>5</ele>
        <time>2022-07-21T08:00:48.000Z</time>
      </trkpt>
      <trkpt lat="47.34411" lon="-2.35999">
        <ele>5</ele>
        <time>2022-07-21T08:00:49.000Z</time>
      </trkpt>
      <trkpt lat="47.34419" lon="-2.35986">
        <ele>5</ele>
        <time>2022-07-21T08:00:52.000Z</time>
      </trkpt>
      <trkpt lat="47.34428" lon="-2.3598">
        <ele>5</ele>
        <time>2022-07-21T08:00:54.000Z</time>
      </trkpt>
      <trkpt lat="47.34442" lon="-2.35968">
        <ele>5</ele>
        <time>2022-07-21T08:00:57.000Z</time>
      </trkpt>
      <trkpt lat="47.34475" lon="-2.35942">
        <ele>5</ele>
        <time>2022-07-21T08:01:03.000Z</time>
      </trkpt>
      <trkpt lat="47.34489" lon="-2.35935">
        <ele>5</ele>
        <time>2022-07-21T08:01:05.000Z</time>
      </trkpt>
      <trkpt lat="47.34496" lon="-2.35932">
        <ele>4.5999999046326</ele>
        <time>2022-07-21T08:01:06.000Z</time>
      </trkpt>
      <trkpt lat="47.34503" lon="-2.35929">
        <ele>4.1999998092651</ele>
        <time>2022-07-21T08:01:07.000Z</time>
      </trkpt>
      <trkpt lat="47.3451" lon="-2.35926">
        <ele>3.7999999523163</ele>
        <time>2022-07-21T08:01:08.000Z</time>
      </trkpt>
      <trkpt lat="47.34516" lon="-2.35923">
        <ele>3.4000000953674</ele>
        <time>2022-07-21T08:01:09.000Z</time>
      </trkpt>
      <trkpt lat="47.34523" lon="-2.35921">
        <ele>3</ele>
        <time>2022-07-21T08:01:10.000Z</time>
      </trkpt>
      <trkpt lat="47.34549" lon="-2.35909">
        <ele>2.5999999046326</ele>
        <time>2022-07-21T08:01:14.000Z</time>
      </trkpt>
      <trkpt lat="47.34556" lon="-2.35905">
        <ele>2</ele>
        <time>2022-07-21T08:01:15.000Z</time>
      </trkpt>
      <trkpt lat="47.34562" lon="-2.35901">
        <ele>1.6000000238419</ele>
        <time>2022-07-21T08:01:16.000Z</time>
      </trkpt>
      <trkpt lat="47.34568" lon="-2.35897">
        <ele>1.2000000476837</ele>
        <time>2022-07-21T08:01:17.000Z</time>
      </trkpt>
      <trkpt lat="47.34575" lon="-2.35893">
        <ele>0.80000001192093</ele>
        <time>2022-07-21T08:01:18.000Z</time>
      </trkpt>
      <trkpt lat="47.34581" lon="-2.35888">
        <ele>0.80000001192093</ele>
        <time>2022-07-21T08:01:19.000Z</time>
      </trkpt>
      <trkpt lat="47.34611" lon="-2.35862">
        <ele>0.80000001192093</ele>
        <time>2022-07-21T08:01:24.000Z</time>
      </trkpt>
      <trkpt lat="47.34644" lon="-2.35835">
        <ele>0.80000001192093</ele>
        <time>2022-07-21T08:01:30.000Z</time>
      </trkpt>
      <trkpt lat="47.34649" lon="-2.3583">
        <ele>0.80000001192093</ele>
        <time>2022-07-21T08:01:31.000Z</time>
      </trkpt>
      <trkpt lat="47.34677" lon="-2.35808">
        <ele>0.80000001192093</ele>
        <time>2022-07-21T08:01:36.000Z</time>
      </trkpt>
      <trkpt lat="47.34713" lon="-2.35778">
        <ele>0.80000001192093</ele>
        <time>2022-07-21T08:01:43.000Z</time>
      </trkpt>
      <trkpt lat="47.34734" lon="-2.3576">
        <ele>0.80000001192093</ele>
        <time>2022-07-21T08:01:47.000Z</time>
      </trkpt>
      <trkpt lat="47.34746" lon="-2.35755">
        <ele>0.80000001192093</ele>
        <time>2022-07-21T08:01:49.000Z</time>
      </trkpt>
      <trkpt lat="47.34771" lon="-2.35743">
        <ele>0.80000001192093</ele>
        <time>2022-07-21T08:01:54.000Z</time>
      </trkpt>
      <trkpt lat="47.3478" lon="-2.3574">
        <ele>0.80000001192093</ele>
        <time>2022-07-21T08:01:56.000Z</time>
      </trkpt>
      <trkpt lat="47.34789" lon="-2.35737">
        <ele>0.80000001192093</ele>
        <time>2022-07-21T08:01:58.000Z</time>
      </trkpt>
      <trkpt lat="47.34794" lon="-2.35735">
        <ele>0.80000001192093</ele>
        <time>2022-07-21T08:01:59.000Z</time>
      </trkpt>
      <trkpt lat="47.34812" lon="-2.35725">
        <ele>0.80000001192093</ele>
        <time>2022-07-21T08:02:03.000Z</time>
      </trkpt>
      <trkpt lat="47.34832" lon="-2.35711">
        <ele>0.80000001192093</ele>
        <time>2022-07-21T08:02:07.000Z</time>
      </trkpt>
      <trkpt lat="47.34847" lon="-2.35685">
        <ele>0.80000001192093</ele>
        <time>2022-07-21T08:02:11.000Z</time>
      </trkpt>
      <trkpt lat="47.34854" lon="-2.35671">
        <ele>0.80000001192093</ele>
        <time>2022-07-21T08:02:15.000Z</time>
      </trkpt>
      <trkpt lat="47.34849" lon="-2.35662">
        <ele>0.80000001192093</ele>
        <time>2022-07-21T08:02:18.000Z</time>
      </trkpt>
      <trkpt lat="47.34841" lon="-2.35658">
        <ele>0.80000001192093</ele>
        <time>2022-07-21T08:02:20.000Z</time>
      </trkpt>
      <trkpt lat="47.34831" lon="-2.35653">
        <ele>0.80000001192093</ele>
        <time>2022-07-21T08:02:22.000Z</time>
      </trkpt>
      <trkpt lat="47.34804" lon="-2.35632">
        <ele>0.80000001192093</ele>
        <time>2022-07-21T08:02:27.000Z</time>
      </trkpt>
      <trkpt lat="47.34768" lon="-2.35592">
        <ele>0.80000001192093</ele>
        <time>2022-07-21T08:02:34.000Z</time>
      </trkpt>
      <trkpt lat="47.34744" lon="-2.35557">
        <ele>0.80000001192093</ele>
        <time>2022-07-21T08:02:39.000Z</time>
      </trkpt>
      <trkpt lat="47.34724" lon="-2.35525">
        <ele>0.40000000596046</ele>
        <time>2022-07-21T08:02:43.000Z</time>
      </trkpt>
      <trkpt lat="47.34719" lon="-2.35517">
        <ele>11.2</ele>
        <time>2022-07-21T08:02:44.000Z</time>
      </trkpt>
      <trkpt lat="47.34715" lon="-2.3551">
        <ele>-0.40000000596046</ele>
        <time>2022-07-21T08:02:45.000Z</time>
      </trkpt>
      <trkpt lat="47.3471" lon="-2.35503">
        <ele>-0.80000001192093</ele>
        <time>2022-07-21T08:02:46.000Z</time>
      </trkpt>
      <trkpt lat="47.34706" lon="-2.35496">
        <ele>-1.2000000476837</ele>
        <time>2022-07-21T08:02:47.000Z</time>
      </trkpt>
      <trkpt lat="47.34674" lon="-2.35443">
        <ele>-1.2000000476837</ele>
        <time>2022-07-21T08:02:55.000Z</time>
      </trkpt>
      <trkpt lat="47.34652" lon="-2.35413">
        <ele>-1.2000000476837</ele>
        <time>2022-07-21T08:03:01.000Z</time>
      </trkpt>
      <trkpt lat="47.34649" lon="-2.35407">
        <ele>-1.2000000476837</ele>
        <time>2022-07-21T08:03:03.000Z</time>
      </trkpt>
      <trkpt lat="47.3465" lon="-2.35405">
        <ele>-1.2000000476837</ele>
        <time>2022-07-21T08:03:04.000Z</time>
      </trkpt>
      <trkpt lat="47.3466" lon="-2.35402">
        <ele>-1.2000000476837</ele>
        <time>2022-07-21T08:03:09.000Z</time>
      </trkpt>
      <trkpt lat="47.34674" lon="-2.35399">
        <ele>-1.2000000476837</ele>
        <time>2022-07-21T08:03:14.000Z</time>
      </trkpt>
      <trkpt lat="47.34678" lon="-2.35399">
        <ele>-1.2000000476837</ele>
        <time>2022-07-21T08:03:15.000Z</time>
      </trkpt>
      <trkpt lat="47.34688" lon="-2.35398">
        <ele>-1.2000000476837</ele>
        <time>2022-07-21T08:03:18.000Z</time>
      </trkpt>
      <trkpt lat="47.3469" lon="-2.35396">
        <ele>-1.2000000476837</ele>
        <time>2022-07-21T08:03:19.000Z</time>
      </trkpt>
      <trkpt lat="47.34702" lon="-2.35385">
        <ele>-1.2000000476837</ele>
        <time>2022-07-21T08:03:23.000Z</time>
      </trkpt>
      <trkpt lat="47.34712" lon="-2.3537">
        <ele>-1.2000000476837</ele>
        <time>2022-07-21T08:03:27.000Z</time>
      </trkpt>
      <trkpt lat="47.34721" lon="-2.35353">
        <ele>-1.2000000476837</ele>
        <time>2022-07-21T08:03:32.000Z</time>
      </trkpt>
      <trkpt lat="47.34722" lon="-2.35336">
        <ele>-1.2000000476837</ele>
        <time>2022-07-21T08:03:36.000Z</time>
      </trkpt>
      <trkpt lat="47.34726" lon="-2.35318">
        <ele>-1.2000000476837</ele>
        <time>2022-07-21T08:03:40.000Z</time>
      </trkpt>
      <trkpt lat="47.3474" lon="-2.35286">
        <ele>-1.2000000476837</ele>
        <time>2022-07-21T08:03:45.000Z</time>
      </trkpt>
      <trkpt lat="47.34748" lon="-2.35252">
        <ele>-1.2000000476837</ele>
        <time>2022-07-21T08:03:50.000Z</time>
      </trkpt>
      <trkpt lat="47.34753" lon="-2.35227">
        <ele>-1.2000000476837</ele>
        <time>2022-07-21T08:03:53.000Z</time>
      </trkpt>
      <trkpt lat="47.34754" lon="-2.35213">
        <ele>-1.2000000476837</ele>
        <time>2022-07-21T08:03:55.000Z</time>
      </trkpt>
      <trkpt lat="47.34757" lon="-2.35183">
        <ele>-1.2000000476837</ele>
        <time>2022-07-21T08:03:59.000Z</time>
      </trkpt>
      <trkpt lat="47.34758" lon="-2.35168">
        <ele>-1.2000000476837</ele>
        <time>2022-07-21T08:04:01.000Z</time>
      </trkpt>
      <trkpt lat="47.34754" lon="-2.35156">
        <ele>-1.2000000476837</ele>
        <time>2022-07-21T08:04:03.000Z</time>
      </trkpt>
      <trkpt lat="47.34744" lon="-2.35135">
        <ele>-1.2000000476837</ele>
        <time>2022-07-21T08:04:07.000Z</time>
      </trkpt>
      <trkpt lat="47.34736" lon="-2.35115">
        <ele>-1.2000000476837</ele>
        <time>2022-07-21T08:04:11.000Z</time>
      </trkpt>
      <trkpt lat="47.34731" lon="-2.35101">
        <ele>-1.2000000476837</ele>
        <time>2022-07-21T08:04:13.000Z</time>
      </trkpt>
      <trkpt lat="47.34725" lon="-2.3509">
        <ele>-1.2000000476837</ele>
        <time>2022-07-21T08:04:15.000Z</time>
      </trkpt>
      <trkpt lat="47.34718" lon="-2.35081">
        <ele>-1.2000000476837</ele>
        <time>2022-07-21T08:04:17.000Z</time>
      </trkpt>
      <trkpt lat="47.34708" lon="-2.35071">
        <ele>-1.2000000476837</ele>
        <time>2022-07-21T08:04:20.000Z</time>
      </trkpt>
      <trkpt lat="47.34703" lon="-2.35062">
        <ele>-1.2000000476837</ele>
        <time>2022-07-21T08:04:22.000Z</time>
      </trkpt>
      <trkpt lat="47.34698" lon="-2.35052">
        <ele>-1.2000000476837</ele>
        <time>2022-07-21T08:04:24.000Z</time>
      </trkpt>
      <trkpt lat="47.34685" lon="-2.35038">
        <ele>-1.2000000476837</ele>
        <time>2022-07-21T08:04:28.000Z</time>
      </trkpt>
      <trkpt lat="47.34664" lon="-2.35032">
        <ele>-1.2000000476837</ele>
        <time>2022-07-21T08:04:33.000Z</time>
      </trkpt>
      <trkpt lat="47.34653" lon="-2.35022">
        <ele>-1.2000000476837</ele>
        <time>2022-07-21T08:04:36.000Z</time>
      </trkpt>
      <trkpt lat="47.34645" lon="-2.35011">
        <ele>-1.2000000476837</ele>
        <time>2022-07-21T08:04:38.000Z</time>
      </trkpt>
      <trkpt lat="47.34624" lon="-2.3498">
        <ele>-1.2000000476837</ele>
        <time>2022-07-21T08:04:44.000Z</time>
      </trkpt>
      <trkpt lat="47.34617" lon="-2.34969">
        <ele>-1.2000000476837</ele>
        <time>2022-07-21T08:04:46.000Z</time>
      </trkpt>
      <trkpt lat="47.34607" lon="-2.34954">
        <ele>-1.2000000476837</ele>
        <time>2022-07-21T08:04:49.000Z</time>
      </trkpt>
      <trkpt lat="47.34593" lon="-2.34925">
        <ele>-1.2000000476837</ele>
        <time>2022-07-21T08:04:54.000Z</time>
      </trkpt>
      <trkpt lat="47.34589" lon="-2.34905">
        <ele>-1.2000000476837</ele>
        <time>2022-07-21T08:04:58.000Z</time>
      </trkpt>
      <trkpt lat="47.34591" lon="-2.34889">
        <ele>-1.2000000476837</ele>
        <time>2022-07-21T08:05:00.000Z</time>
      </trkpt>
      <trkpt lat="47.34596" lon="-2.34873">
        <ele>-1.2000000476837</ele>
        <time>2022-07-21T08:05:02.000Z</time>
      </trkpt>
      <trkpt lat="47.34615" lon="-2.34817">
        <ele>-1.2000000476837</ele>
        <time>2022-07-21T08:05:09.000Z</time>
      </trkpt>
      <trkpt lat="47.34631" lon="-2.34771">
        <ele>-1.2000000476837</ele>
        <time>2022-07-21T08:05:15.000Z</time>
      </trkpt>
      <trkpt lat="47.34637" lon="-2.34734">
        <ele>-1.2000000476837</ele>
        <time>2022-07-21T08:05:19.000Z</time>
      </trkpt>
      <trkpt lat="47.34638" lon="-2.34725">
        <ele>-1.2000000476837</ele>
        <time>2022-07-21T08:05:20.000Z</time>
      </trkpt>
      <trkpt lat="47.34635" lon="-2.3468">
        <ele>-1.2000000476837</ele>
        <time>2022-07-21T08:05:25.000Z</time>
      </trkpt>
      <trkpt lat="47.34627" lon="-2.34642">
        <ele>-1.2000000476837</ele>
        <time>2022-07-21T08:05:30.000Z</time>
      </trkpt>
      <trkpt lat="47.34625" lon="-2.34636">
        <ele>-1.2000000476837</ele>
        <time>2022-07-21T08:05:31.000Z</time>
      </trkpt>
      <trkpt lat="47.3462" lon="-2.34608">
        <ele>-0.80000001192093</ele>
        <time>2022-07-21T08:05:35.000Z</time>
      </trkpt>
      <trkpt lat="47.34619" lon="-2.34601">
        <ele>-0.20000000298023</ele>
        <time>2022-07-21T08:05:36.000Z</time>
      </trkpt>
      <trkpt lat="47.34618" lon="-2.34593">
        <ele>0.20000000298023</ele>
        <time>2022-07-21T08:05:37.000Z</time>
      </trkpt>
      <trkpt lat="47.34617" lon="-2.34586">
        <ele>0.80000001192093</ele>
        <time>2022-07-21T08:05:38.000Z</time>
      </trkpt>
      <trkpt lat="47.34615" lon="-2.34578">
        <ele>1.2000000476837</ele>
        <time>2022-07-21T08:05:39.000Z</time>
      </trkpt>
      <trkpt lat="47.3461" lon="-2.34546">
        <ele>1.6000000238419</ele>
        <time>2022-07-21T08:05:43.000Z</time>
      </trkpt>
      <trkpt lat="47.3461" lon="-2.34539">
        <ele>2</ele>
        <time>2022-07-21T08:05:44.000Z</time>
      </trkpt>
      <trkpt lat="47.34611" lon="-2.34532">
        <ele>2.4000000953674</ele>
        <time>2022-07-21T08:05:45.000Z</time>
      </trkpt>
      <trkpt lat="47.34615" lon="-2.34528">
        <ele>2.7999999523163</ele>
        <time>2022-07-21T08:05:46.000Z</time>
      </trkpt>
      <trkpt lat="47.34619" lon="-2.34525">
        <ele>3.2000000476837</ele>
        <time>2022-07-21T08:05:47.000Z</time>
      </trkpt>
      <trkpt lat="47.34629" lon="-2.34523">
        <ele>3.2000000476837</ele>
        <time>2022-07-21T08:05:49.000Z</time>
      </trkpt>
      <trkpt lat="47.34635" lon="-2.34521">
        <ele>3.2000000476837</ele>
        <time>2022-07-21T08:05:50.000Z</time>
      </trkpt>
      <trkpt lat="47.34663" lon="-2.34514">
        <ele>3.2000000476837</ele>
        <time>2022-07-21T08:05:55.000Z</time>
      </trkpt>
      <trkpt lat="47.34689" lon="-2.34506">
        <ele>3.2000000476837</ele>
        <time>2022-07-21T08:06:00.000Z</time>
      </trkpt>
      <trkpt lat="47.34699" lon="-2.34502">
        <ele>3.2000000476837</ele>
        <time>2022-07-21T08:06:02.000Z</time>
      </trkpt>
      <trkpt lat="47.34723" lon="-2.3449">
        <ele>2.7999999523163</ele>
        <time>2022-07-21T08:06:07.000Z</time>
      </trkpt>
      <trkpt lat="47.34727" lon="-2.34488">
        <ele>2.4000000953674</ele>
        <time>2022-07-21T08:06:08.000Z</time>
      </trkpt>
      <trkpt lat="47.34732" lon="-2.34487">
        <ele>2</ele>
        <time>2022-07-21T08:06:09.000Z</time>
      </trkpt>
      <trkpt lat="47.34736" lon="-2.34485">
        <ele>1.6000000238419</ele>
        <time>2022-07-21T08:06:10.000Z</time>
      </trkpt>
      <trkpt lat="47.34741" lon="-2.34483">
        <ele>1.2000000476837</ele>
        <time>2022-07-21T08:06:11.000Z</time>
      </trkpt>
      <trkpt lat="47.34746" lon="-2.3448">
        <ele>1.2000000476837</ele>
        <time>2022-07-21T08:06:12.000Z</time>
      </trkpt>
      <trkpt lat="47.34754" lon="-2.34462">
        <ele>1.2000000476837</ele>
        <time>2022-07-21T08:06:15.000Z</time>
      </trkpt>
      <trkpt lat="47.3476" lon="-2.34444">
        <ele>1.2000000476837</ele>
        <time>2022-07-21T08:06:18.000Z</time>
      </trkpt>
      <trkpt lat="47.34761" lon="-2.34438">
        <ele>1.2000000476837</ele>
        <time>2022-07-21T08:06:19.000Z</time>
      </trkpt>
      <trkpt lat="47.34775" lon="-2.34411">
        <ele>1.2000000476837</ele>
        <time>2022-07-21T08:06:25.000Z</time>
      </trkpt>
      <trkpt lat="47.34784" lon="-2.34391">
        <ele>1.2000000476837</ele>
        <time>2022-07-21T08:06:30.000Z</time>
      </trkpt>
      <trkpt lat="47.34786" lon="-2.34383">
        <ele>1.2000000476837</ele>
        <time>2022-07-21T08:06:32.000Z</time>
      </trkpt>
      <trkpt lat="47.34785" lon="-2.34377">
        <ele>1.2000000476837</ele>
        <time>2022-07-21T08:06:34.000Z</time>
      </trkpt>
      <trkpt lat="47.34777" lon="-2.34365">
        <ele>1.2000000476837</ele>
        <time>2022-07-21T08:06:38.000Z</time>
      </trkpt>
      <trkpt lat="47.34774" lon="-2.34364">
        <ele>1.2000000476837</ele>
        <time>2022-07-21T08:06:39.000Z</time>
      </trkpt>
      <trkpt lat="47.34758" lon="-2.34363">
        <ele>1.2000000476837</ele>
        <time>2022-07-21T08:06:43.000Z</time>
      </trkpt>
      <trkpt lat="47.34737" lon="-2.34371">
        <ele>1.2000000476837</ele>
        <time>2022-07-21T08:06:48.000Z</time>
      </trkpt>
      <trkpt lat="47.3473" lon="-2.34368">
        <ele>1.2000000476837</ele>
        <time>2022-07-21T08:06:50.000Z</time>
      </trkpt>
      <trkpt lat="47.34728" lon="-2.34365">
        <ele>1.2000000476837</ele>
        <time>2022-07-21T08:06:51.000Z</time>
      </trkpt>
      <trkpt lat="47.34722" lon="-2.34348">
        <ele>1.2000000476837</ele>
        <time>2022-07-21T08:06:54.000Z</time>
      </trkpt>
      <trkpt lat="47.3472" lon="-2.34341">
        <ele>1.2000000476837</ele>
        <time>2022-07-21T08:06:55.000Z</time>
      </trkpt>
      <trkpt lat="47.34714" lon="-2.34308">
        <ele>1.2000000476837</ele>
        <time>2022-07-21T08:06:59.000Z</time>
      </trkpt>
      <trkpt lat="47.34707" lon="-2.34272">
        <ele>1.2000000476837</ele>
        <time>2022-07-21T08:07:03.000Z</time>
      </trkpt>
      <trkpt lat="47.34707" lon="-2.34266">
        <ele>1.2000000476837</ele>
        <time>2022-07-21T08:07:04.000Z</time>
      </trkpt>
      <trkpt lat="47.34712" lon="-2.34258">
        <ele>1.2000000476837</ele>
        <time>2022-07-21T08:07:06.000Z</time>
      </trkpt>
      <trkpt lat="47.34726" lon="-2.34255">
        <ele>1.2000000476837</ele>
        <time>2022-07-21T08:07:09.000Z</time>
      </trkpt>
      <trkpt lat="47.34731" lon="-2.34254">
        <ele>1.2000000476837</ele>
        <time>2022-07-21T08:07:10.000Z</time>
      </trkpt>
      <trkpt lat="47.34752" lon="-2.34248">
        <ele>1.2000000476837</ele>
        <time>2022-07-21T08:07:14.000Z</time>
      </trkpt>
      <trkpt lat="47.34757" lon="-2.34247">
        <ele>1.2000000476837</ele>
        <time>2022-07-21T08:07:15.000Z</time>
      </trkpt>
      <trkpt lat="47.34777" lon="-2.34241">
        <ele>1.2000000476837</ele>
        <time>2022-07-21T08:07:19.000Z</time>
      </trkpt>
      <trkpt lat="47.34786" lon="-2.34237">
        <ele>1.2000000476837</ele>
        <time>2022-07-21T08:07:21.000Z</time>
      </trkpt>
      <trkpt lat="47.34801" lon="-2.34234">
        <ele>1.6000000238419</ele>
        <time>2022-07-21T08:07:24.000Z</time>
      </trkpt>
      <trkpt lat="47.34806" lon="-2.34233">
        <ele>2</ele>
        <time>2022-07-21T08:07:25.000Z</time>
      </trkpt>
      <trkpt lat="47.34811" lon="-2.34232">
        <ele>2.4000000953674</ele>
        <time>2022-07-21T08:07:26.000Z</time>
      </trkpt>
      <trkpt lat="47.34816" lon="-2.34231">
        <ele>2.7999999523163</ele>
        <time>2022-07-21T08:07:27.000Z</time>
      </trkpt>
      <trkpt lat="47.3482" lon="-2.34231">
        <ele>3.2000000476837</ele>
        <time>2022-07-21T08:07:28.000Z</time>
      </trkpt>
      <trkpt lat="47.34837" lon="-2.34231">
        <ele>3.5999999046326</ele>
        <time>2022-07-21T08:07:32.000Z</time>
      </trkpt>
      <trkpt lat="47.34841" lon="-2.34232">
        <ele>4.1999998092651</ele>
        <time>2022-07-21T08:07:33.000Z</time>
      </trkpt>
      <trkpt lat="47.34845" lon="-2.34234">
        <ele>4.5999999046326</ele>
        <time>2022-07-21T08:07:34.000Z</time>
      </trkpt>
      <trkpt lat="47.34848" lon="-2.34235">
        <ele>5</ele>
        <time>2022-07-21T08:07:35.000Z</time>
      </trkpt>
      <trkpt lat="47.34851" lon="-2.34236">
        <ele>5.4000000953674</ele>
        <time>2022-07-21T08:07:36.000Z</time>
      </trkpt>
      <trkpt lat="47.34858" lon="-2.34235">
        <ele>6</ele>
        <time>2022-07-21T08:07:38.000Z</time>
      </trkpt>
      <trkpt lat="47.3486" lon="-2.34232">
        <ele>6.4000000953674</ele>
        <time>2022-07-21T08:07:39.000Z</time>
      </trkpt>
      <trkpt lat="47.34863" lon="-2.3423">
        <ele>6.8000001907349</ele>
        <time>2022-07-21T08:07:40.000Z</time>
      </trkpt>
      <trkpt lat="47.34865" lon="-2.34228">
        <ele>7.4000000953674</ele>
        <time>2022-07-21T08:07:41.000Z</time>
      </trkpt>
      <trkpt lat="47.34867" lon="-2.34226">
        <ele>7.8000001907349</ele>
        <time>2022-07-21T08:07:42.000Z</time>
      </trkpt>
      <trkpt lat="47.3487" lon="-2.34221">
        <ele>8.6000003814697</ele>
        <time>2022-07-21T08:07:44.000Z</time>
      </trkpt>
      <trkpt lat="47.34871" lon="-2.34218">
        <ele>9</ele>
        <time>2022-07-21T08:07:45.000Z</time>
      </trkpt>
      <trkpt lat="47.34872" lon="-2.34214">
        <ele>9.3999996185303</ele>
        <time>2022-07-21T08:07:46.000Z</time>
      </trkpt>
      <trkpt lat="47.34873" lon="-2.34211">
        <ele>9.8000001907349</ele>
        <time>2022-07-21T08:07:47.000Z</time>
      </trkpt>
      <trkpt lat="47.34873" lon="-2.34207">
        <ele>9.8000001907349</ele>
        <time>2022-07-21T08:07:48.000Z</time>
      </trkpt>
      <trkpt lat="47.34874" lon="-2.34201">
        <ele>9.8000001907349</ele>
        <time>2022-07-21T08:07:50.000Z</time>
      </trkpt>
      <trkpt lat="47.34884" lon="-2.34199">
        <ele>9.8000001907349</ele>
        <time>2022-07-21T08:07:55.000Z</time>
      </trkpt>
      <trkpt lat="47.34885" lon="-2.34199">
        <ele>10.199999809265</ele>
        <time>2022-07-21T08:07:56.000Z</time>
      </trkpt>
      <trkpt lat="47.34886" lon="-2.342">
        <ele>10.800000190735</ele>
        <time>2022-07-21T08:07:57.000Z</time>
      </trkpt>
      <trkpt lat="47.34885" lon="-2.342">
        <ele>11.199999809265</ele>
        <time>2022-07-21T08:07:58.000Z</time>
      </trkpt>
      <trkpt lat="47.34886" lon="-2.342">
        <ele>11.60000038147</ele>
        <time>2022-07-21T08:07:59.000Z</time>
      </trkpt>
      <trkpt lat="47.34886" lon="-2.34201">
        <ele>12</ele>
        <time>2022-07-21T08:08:00.000Z</time>
      </trkpt>
      <trkpt lat="47.34886" lon="-2.34202">
        <ele>12</ele>
        <time>2022-07-21T08:08:01.000Z</time>
      </trkpt>
      <trkpt lat="47.34889" lon="-2.34204">
        <ele>12</ele>
        <time>2022-07-21T08:08:46.000Z</time>
      </trkpt>
      <trkpt lat="47.34891" lon="-2.34204">
        <ele>12</ele>
        <time>2022-07-21T08:08:47.000Z</time>
      </trkpt>
      <trkpt lat="47.34904" lon="-2.34205">
        <ele>12</ele>
        <time>2022-07-21T08:08:50.000Z</time>
      </trkpt>
      <trkpt lat="47.34909" lon="-2.34206">
        <ele>12</ele>
        <time>2022-07-21T08:08:51.000Z</time>
      </trkpt>
      <trkpt lat="47.34914" lon="-2.34207">
        <ele>12</ele>
        <time>2022-07-21T08:08:52.000Z</time>
      </trkpt>
      <trkpt lat="47.3492" lon="-2.34207">
        <ele>11.60000038147</ele>
        <time>2022-07-21T08:08:53.000Z</time>
      </trkpt>
      <trkpt lat="47.34925" lon="-2.34207">
        <ele>11.199999809265</ele>
        <time>2022-07-21T08:08:54.000Z</time>
      </trkpt>
      <trkpt lat="47.34931" lon="-2.34206">
        <ele>10.800000190735</ele>
        <time>2022-07-21T08:08:55.000Z</time>
      </trkpt>
      <trkpt lat="47.34935" lon="-2.34203">
        <ele>10.199999809265</ele>
        <time>2022-07-21T08:08:56.000Z</time>
      </trkpt>
      <trkpt lat="47.34939" lon="-2.34201">
        <ele>9.8000001907349</ele>
        <time>2022-07-21T08:08:57.000Z</time>
      </trkpt>
      <trkpt lat="47.34944" lon="-2.34197">
        <ele>9.3999996185303</ele>
        <time>2022-07-21T08:08:59.000Z</time>
      </trkpt>
      <trkpt lat="47.34947" lon="-2.34196">
        <ele>9</ele>
        <time>2022-07-21T08:09:00.000Z</time>
      </trkpt>
      <trkpt lat="47.3495" lon="-2.34196">
        <ele>8.6000003814697</ele>
        <time>2022-07-21T08:09:01.000Z</time>
      </trkpt>
      <trkpt lat="47.34954" lon="-2.34194">
        <ele>8.1999998092651</ele>
        <time>2022-07-21T08:09:02.000Z</time>
      </trkpt>
      <trkpt lat="47.34957" lon="-2.34193">
        <ele>7.8000001907349</ele>
        <time>2022-07-21T08:09:03.000Z</time>
      </trkpt>
      <trkpt lat="47.3496" lon="-2.34193">
        <ele>7.8000001907349</ele>
        <time>2022-07-21T08:09:04.000Z</time>
      </trkpt>
      <trkpt lat="47.34968" lon="-2.34192">
        <ele>7.8000001907349</ele>
        <time>2022-07-21T08:09:08.000Z</time>
      </trkpt>
      <trkpt lat="47.34974" lon="-2.34197">
        <ele>7.4000000953674</ele>
        <time>2022-07-21T08:09:11.000Z</time>
      </trkpt>
      <trkpt lat="47.34975" lon="-2.34199">
        <ele>7</ele>
        <time>2022-07-21T08:09:12.000Z</time>
      </trkpt>
      <trkpt lat="47.34976" lon="-2.34202">
        <ele>6.5999999046326</ele>
        <time>2022-07-21T08:09:13.000Z</time>
      </trkpt>
      <trkpt lat="47.34979" lon="-2.34205">
        <ele>6</ele>
        <time>2022-07-21T08:09:14.000Z</time>
      </trkpt>
      <trkpt lat="47.34982" lon="-2.34209">
        <ele>5.5999999046326</ele>
        <time>2022-07-21T08:09:15.000Z</time>
      </trkpt>
      <trkpt lat="47.34984" lon="-2.34214">
        <ele>5.5999999046326</ele>
        <time>2022-07-21T08:09:16.000Z</time>
      </trkpt>
      <trkpt lat="47.34991" lon="-2.34232">
        <ele>5.1999998092651</ele>
        <time>2022-07-21T08:09:19.000Z</time>
      </trkpt>
      <trkpt lat="47.34993" lon="-2.34238">
        <ele>4.8000001907349</ele>
        <time>2022-07-21T08:09:20.000Z</time>
      </trkpt>
      <trkpt lat="47.34996" lon="-2.34245">
        <ele>4.4000000953674</ele>
        <time>2022-07-21T08:09:21.000Z</time>
      </trkpt>
      <trkpt lat="47.34998" lon="-2.34253">
        <ele>4</ele>
        <time>2022-07-21T08:09:22.000Z</time>
      </trkpt>
      <trkpt lat="47.35" lon="-2.34262">
        <ele>3.4000000953674</ele>
        <time>2022-07-21T08:09:23.000Z</time>
      </trkpt>
      <trkpt lat="47.35003" lon="-2.3427">
        <ele>3</ele>
        <time>2022-07-21T08:09:24.000Z</time>
      </trkpt>
      <trkpt lat="47.35006" lon="-2.34279">
        <ele>2.5999999046326</ele>
        <time>2022-07-21T08:09:25.000Z</time>
      </trkpt>
      <trkpt lat="47.35009" lon="-2.34287">
        <ele>2.2000000476837</ele>
        <time>2022-07-21T08:09:26.000Z</time>
      </trkpt>
      <trkpt lat="47.35013" lon="-2.34296">
        <ele>1.7999999523163</ele>
        <time>2022-07-21T08:09:27.000Z</time>
      </trkpt>
      <trkpt lat="47.35016" lon="-2.34304">
        <ele>1.3999999761581</ele>
        <time>2022-07-21T08:09:28.000Z</time>
      </trkpt>
      <trkpt lat="47.35019" lon="-2.34313">
        <ele>0.80000001192093</ele>
        <time>2022-07-21T08:09:29.000Z</time>
      </trkpt>
      <trkpt lat="47.35022" lon="-2.34322">
        <ele>0.40000000596046</ele>
        <time>2022-07-21T08:09:30.000Z</time>
      </trkpt>
      <trkpt lat="47.35025" lon="-2.34331">
        <ele>12.1</ele>
        <time>2022-07-21T08:09:31.000Z</time>
      </trkpt>
      <trkpt lat="47.35026" lon="-2.34337">
        <ele>-0.60000002384186</ele>
        <time>2022-07-21T08:09:32.000Z</time>
      </trkpt>
      <trkpt lat="47.35027" lon="-2.34342">
        <ele>-1</ele>
        <time>2022-07-21T08:09:33.000Z</time>
      </trkpt>
      <trkpt lat="47.35026" lon="-2.34345">
        <ele>-1.3999999761581</ele>
        <time>2022-07-21T08:09:34.000Z</time>
      </trkpt>
      <trkpt lat="47.35024" lon="-2.34347">
        <ele>-1.7999999523163</ele>
        <time>2022-07-21T08:09:35.000Z</time>
      </trkpt>
      <trkpt lat="47.35022" lon="-2.34348">
        <ele>-2.2000000476837</ele>
        <time>2022-07-21T08:09:36.000Z</time>
      </trkpt>
      <trkpt lat="47.3502" lon="-2.3435">
        <ele>-2.5999999046326</ele>
        <time>2022-07-21T08:09:37.000Z</time>
      </trkpt>
      <trkpt lat="47.35017" lon="-2.34352">
        <ele>-3</ele>
        <time>2022-07-21T08:09:38.000Z</time>
      </trkpt>
      <trkpt lat="47.35014" lon="-2.34354">
        <ele>-3</ele>
        <time>2022-07-21T08:09:39.000Z</time>
      </trkpt>
      <trkpt lat="47.35001" lon="-2.34361">
        <ele>-3</ele>
        <time>2022-07-21T08:09:42.000Z</time>
      </trkpt>
      <trkpt lat="47.34999" lon="-2.34367">
        <ele>-3</ele>
        <time>2022-07-21T08:09:43.000Z</time>
      </trkpt>
      <trkpt lat="47.34999" lon="-2.34385">
        <ele>-3</ele>
        <time>2022-07-21T08:09:46.000Z</time>
      </trkpt>
      <trkpt lat="47.34999" lon="-2.3439">
        <ele>-3</ele>
        <time>2022-07-21T08:09:47.000Z</time>
      </trkpt>
      <trkpt lat="47.35003" lon="-2.34417">
        <ele>-3</ele>
        <time>2022-07-21T08:09:52.000Z</time>
      </trkpt>
      <trkpt lat="47.35004" lon="-2.34424">
        <ele>-3</ele>
        <time>2022-07-21T08:09:53.000Z</time>
      </trkpt>
      <trkpt lat="47.3501" lon="-2.34453">
        <ele>-3</ele>
        <time>2022-07-21T08:09:57.000Z</time>
      </trkpt>
      <trkpt lat="47.35019" lon="-2.34467">
        <ele>-3.4000000953674</ele>
        <time>2022-07-21T08:10:00.000Z</time>
      </trkpt>
      <trkpt lat="47.35022" lon="-2.3447">
        <ele>-3.7999999523163</ele>
        <time>2022-07-21T08:10:01.000Z</time>
      </trkpt>
      <trkpt lat="47.35026" lon="-2.34473">
        <ele>-4.4000000953674</ele>
        <time>2022-07-21T08:10:02.000Z</time>
      </trkpt>
      <trkpt lat="47.3503" lon="-2.34475">
        <ele>-4.8000001907349</ele>
        <time>2022-07-21T08:10:03.000Z</time>
      </trkpt>
      <trkpt lat="47.35034" lon="-2.34478">
        <ele>-5.4000000953674</ele>
        <time>2022-07-21T08:10:04.000Z</time>
      </trkpt>
      <trkpt lat="47.35036" lon="-2.34481">
        <ele>-6</ele>
        <time>2022-07-21T08:10:05.000Z</time>
      </trkpt>
      <trkpt lat="47.35038" lon="-2.34484">
        <ele>-6.5999999046326</ele>
        <time>2022-07-21T08:10:06.000Z</time>
      </trkpt>
      <trkpt lat="47.35039" lon="-2.34488">
        <ele>-7.1999998092651</ele>
        <time>2022-07-21T08:10:07.000Z</time>
      </trkpt>
      <trkpt lat="47.3504" lon="-2.34491">
        <ele>-7.5999999046326</ele>
        <time>2022-07-21T08:10:08.000Z</time>
      </trkpt>
      <trkpt lat="47.35041" lon="-2.34493">
        <ele>-7.5999999046326</ele>
        <time>2022-07-21T08:10:09.000Z</time>
      </trkpt>
      <trkpt lat="47.35042" lon="-2.34496">
        <ele>-7.5999999046326</ele>
        <time>2022-07-21T08:10:12.000Z</time>
      </trkpt>
      <trkpt lat="47.35058" lon="-2.34499">
        <ele>-9.8000001907349</ele>
        <time>2022-07-21T08:11:38.000Z</time>
      </trkpt>
      <trkpt lat="47.3506" lon="-2.34501">
        <ele>-9.3999996185303</ele>
        <time>2022-07-21T08:11:39.000Z</time>
      </trkpt>
      <trkpt lat="47.35061" lon="-2.34502">
        <ele>-9</ele>
        <time>2022-07-21T08:11:40.000Z</time>
      </trkpt>
      <trkpt lat="47.35063" lon="-2.34503">
        <ele>-8.3999996185303</ele>
        <time>2022-07-21T08:11:41.000Z</time>
      </trkpt>
      <trkpt lat="47.35064" lon="-2.34505">
        <ele>-8</ele>
        <time>2022-07-21T08:11:42.000Z</time>
      </trkpt>
      <trkpt lat="47.35066" lon="-2.34508">
        <ele>-7.5999999046326</ele>
        <time>2022-07-21T08:11:43.000Z</time>
      </trkpt>
      <trkpt lat="47.35069" lon="-2.34513">
        <ele>-7.5999999046326</ele>
        <time>2022-07-21T08:11:45.000Z</time>
      </trkpt>
      <trkpt lat="47.3507" lon="-2.34516">
        <ele>-7.1999998092651</ele>
        <time>2022-07-21T08:11:46.000Z</time>
      </trkpt>
      <trkpt lat="47.35071" lon="-2.34519">
        <ele>-6.8000001907349</ele>
        <time>2022-07-21T08:11:47.000Z</time>
      </trkpt>
      <trkpt lat="47.35072" lon="-2.34522">
        <ele>-6.4000000953674</ele>
        <time>2022-07-21T08:11:48.000Z</time>
      </trkpt>
      <trkpt lat="47.35073" lon="-2.34524">
        <ele>-6</ele>
        <time>2022-07-21T08:11:49.000Z</time>
      </trkpt>
      <trkpt lat="47.35074" lon="-2.34527">
        <ele>-5.5999999046326</ele>
        <time>2022-07-21T08:11:50.000Z</time>
      </trkpt>
      <trkpt lat="47.35075" lon="-2.34529">
        <ele>-5.5999999046326</ele>
        <time>2022-07-21T08:11:51.000Z</time>
      </trkpt>
      <trkpt lat="47.35078" lon="-2.34536">
        <ele>-5.1999998092651</ele>
        <time>2022-07-21T08:11:54.000Z</time>
      </trkpt>
      <trkpt lat="47.3508" lon="-2.34539">
        <ele>-4.8000001907349</ele>
        <time>2022-07-21T08:11:55.000Z</time>
      </trkpt>
      <trkpt lat="47.35083" lon="-2.34541">
        <ele>-4.1999998092651</ele>
        <time>2022-07-21T08:11:56.000Z</time>
      </trkpt>
      <trkpt lat="47.35085" lon="-2.34542">
        <ele>-3.7999999523163</ele>
        <time>2022-07-21T08:11:57.000Z</time>
      </trkpt>
      <trkpt lat="47.35088" lon="-2.34544">
        <ele>-3.4000000953674</ele>
        <time>2022-07-21T08:11:58.000Z</time>
      </trkpt>
      <trkpt lat="47.35103" lon="-2.3454">
        <ele>-3.4000000953674</ele>
        <time>2022-07-21T08:12:02.000Z</time>
      </trkpt>
      <trkpt lat="47.35129" lon="-2.34533">
        <ele>-3.4000000953674</ele>
        <time>2022-07-21T08:12:07.000Z</time>
      </trkpt>
      <trkpt lat="47.35166" lon="-2.34518">
        <ele>-3.4000000953674</ele>
        <time>2022-07-21T08:12:13.000Z</time>
      </trkpt>
      <trkpt lat="47.35199" lon="-2.34505">
        <ele>-3.7999999523163</ele>
        <time>2022-07-21T08:12:18.000Z</time>
      </trkpt>
      <trkpt lat="47.35206" lon="-2.34503">
        <ele>-4.1999998092651</ele>
        <time>2022-07-21T08:12:19.000Z</time>
      </trkpt>
      <trkpt lat="47.35213" lon="-2.34501">
        <ele>-4.5999999046326</ele>
        <time>2022-07-21T08:12:20.000Z</time>
      </trkpt>
      <trkpt lat="47.35219" lon="-2.34498">
        <ele>-5</ele>
        <time>2022-07-21T08:12:21.000Z</time>
      </trkpt>
      <trkpt lat="47.35225" lon="-2.34495">
        <ele>-5.4000000953674</ele>
        <time>2022-07-21T08:12:22.000Z</time>
      </trkpt>
      <trkpt lat="47.35251" lon="-2.34485">
        <ele>-5.4000000953674</ele>
        <time>2022-07-21T08:12:26.000Z</time>
      </trkpt>
      <trkpt lat="47.35275" lon="-2.34473">
        <ele>-5.4000000953674</ele>
        <time>2022-07-21T08:12:30.000Z</time>
      </trkpt>
      <trkpt lat="47.35281" lon="-2.34472">
        <ele>-5.4000000953674</ele>
        <time>2022-07-21T08:12:31.000Z</time>
      </trkpt>
      <trkpt lat="47.35287" lon="-2.34471">
        <ele>-5.4000000953674</ele>
        <time>2022-07-21T08:12:32.000Z</time>
      </trkpt>
      <trkpt lat="47.35304" lon="-2.34475">
        <ele>-5.4000000953674</ele>
        <time>2022-07-21T08:12:35.000Z</time>
      </trkpt>
      <trkpt lat="47.35314" lon="-2.34479">
        <ele>-5.4000000953674</ele>
        <time>2022-07-21T08:12:37.000Z</time>
      </trkpt>
      <trkpt lat="47.35329" lon="-2.34488">
        <ele>-5.4000000953674</ele>
        <time>2022-07-21T08:12:40.000Z</time>
      </trkpt>
      <trkpt lat="47.35348" lon="-2.34503">
        <ele>-5.4000000953674</ele>
        <time>2022-07-21T08:12:44.000Z</time>
      </trkpt>
      <trkpt lat="47.35356" lon="-2.34512">
        <ele>-5.4000000953674</ele>
        <time>2022-07-21T08:12:46.000Z</time>
      </trkpt>
      <trkpt lat="47.35363" lon="-2.34523">
        <ele>-5.4000000953674</ele>
        <time>2022-07-21T08:12:48.000Z</time>
      </trkpt>
      <trkpt lat="47.35374" lon="-2.34546">
        <ele>-5.4000000953674</ele>
        <time>2022-07-21T08:12:52.000Z</time>
      </trkpt>
      <trkpt lat="47.35395" lon="-2.34595">
        <ele>-5.4000000953674</ele>
        <time>2022-07-21T08:13:00.000Z</time>
      </trkpt>
      <trkpt lat="47.35415" lon="-2.34652">
        <ele>-5.4000000953674</ele>
        <time>2022-07-21T08:13:09.000Z</time>
      </trkpt>
      <trkpt lat="47.35416" lon="-2.34659">
        <ele>-5</ele>
        <time>2022-07-21T08:13:10.000Z</time>
      </trkpt>
      <trkpt lat="47.35418" lon="-2.34665">
        <ele>-4.5999999046326</ele>
        <time>2022-07-21T08:13:11.000Z</time>
      </trkpt>
      <trkpt lat="47.35421" lon="-2.3467">
        <ele>-4.1999998092651</ele>
        <time>2022-07-21T08:13:12.000Z</time>
      </trkpt>
      <trkpt lat="47.35423" lon="-2.34675">
        <ele>-3.7999999523163</ele>
        <time>2022-07-21T08:13:13.000Z</time>
      </trkpt>
      <trkpt lat="47.35425" lon="-2.3468">
        <ele>-3.4000000953674</ele>
        <time>2022-07-21T08:13:14.000Z</time>
      </trkpt>
      <trkpt lat="47.35429" lon="-2.34689">
        <ele>-3.4000000953674</ele>
        <time>2022-07-21T08:13:16.000Z</time>
      </trkpt>
      <trkpt lat="47.35444" lon="-2.34704">
        <ele>-3.4000000953674</ele>
        <time>2022-07-21T08:13:21.000Z</time>
      </trkpt>
      <trkpt lat="47.35447" lon="-2.34702">
        <ele>-3.4000000953674</ele>
        <time>2022-07-21T08:13:22.000Z</time>
      </trkpt>
      <trkpt lat="47.35455" lon="-2.34684">
        <ele>-3.4000000953674</ele>
        <time>2022-07-21T08:13:25.000Z</time>
      </trkpt>
      <trkpt lat="47.3547" lon="-2.34642">
        <ele>-3.4000000953674</ele>
        <time>2022-07-21T08:13:31.000Z</time>
      </trkpt>
      <trkpt lat="47.35486" lon="-2.34608">
        <ele>-3.7999999523163</ele>
        <time>2022-07-21T08:13:36.000Z</time>
      </trkpt>
      <trkpt lat="47.35489" lon="-2.34601">
        <ele>-4.1999998092651</ele>
        <time>2022-07-21T08:13:37.000Z</time>
      </trkpt>
      <trkpt lat="47.35492" lon="-2.34594">
        <ele>-4.5999999046326</ele>
        <time>2022-07-21T08:13:38.000Z</time>
      </trkpt>
      <trkpt lat="47.35494" lon="-2.34587">
        <ele>-5</ele>
        <time>2022-07-21T08:13:39.000Z</time>
      </trkpt>
      <trkpt lat="47.35497" lon="-2.34581">
        <ele>-5.4000000953674</ele>
        <time>2022-07-21T08:13:40.000Z</time>
      </trkpt>
      <trkpt lat="47.35516" lon="-2.34538">
        <ele>-5.4000000953674</ele>
        <time>2022-07-21T08:13:46.000Z</time>
      </trkpt>
      <trkpt lat="47.35522" lon="-2.34513">
        <ele>-5.4000000953674</ele>
        <time>2022-07-21T08:13:49.000Z</time>
      </trkpt>
      <trkpt lat="47.35525" lon="-2.34495">
        <ele>-5.4000000953674</ele>
        <time>2022-07-21T08:13:51.000Z</time>
      </trkpt>
      <trkpt lat="47.35533" lon="-2.34444">
        <ele>-5.4000000953674</ele>
        <time>2022-07-21T08:13:57.000Z</time>
      </trkpt>
      <trkpt lat="47.35544" lon="-2.34381">
        <ele>-5.4000000953674</ele>
        <time>2022-07-21T08:14:05.000Z</time>
      </trkpt>
      <trkpt lat="47.35556" lon="-2.34315">
        <ele>-5.4000000953674</ele>
        <time>2022-07-21T08:14:13.000Z</time>
      </trkpt>
      <trkpt lat="47.35561" lon="-2.34259">
        <ele>-4.5999999046326</ele>
        <time>2022-07-21T08:14:20.000Z</time>
      </trkpt>
      <trkpt lat="47.35561" lon="-2.34251">
        <ele>-4.1999998092651</ele>
        <time>2022-07-21T08:14:21.000Z</time>
      </trkpt>
      <trkpt lat="47.35561" lon="-2.34243">
        <ele>-3.7999999523163</ele>
        <time>2022-07-21T08:14:22.000Z</time>
      </trkpt>
      <trkpt lat="47.35561" lon="-2.34235">
        <ele>-3.4000000953674</ele>
        <time>2022-07-21T08:14:23.000Z</time>
      </trkpt>
      <trkpt lat="47.35563" lon="-2.34212">
        <ele>-3.4000000953674</ele>
        <time>2022-07-21T08:14:26.000Z</time>
      </trkpt>
      <trkpt lat="47.35568" lon="-2.34184">
        <ele>-3.4000000953674</ele>
        <time>2022-07-21T08:14:31.000Z</time>
      </trkpt>
      <trkpt lat="47.35581" lon="-2.34183">
        <ele>-3.4000000953674</ele>
        <time>2022-07-21T08:14:34.000Z</time>
      </trkpt>
      <trkpt lat="47.35586" lon="-2.34183">
        <ele>-3.4000000953674</ele>
        <time>2022-07-21T08:14:35.000Z</time>
      </trkpt>
      <trkpt lat="47.35615" lon="-2.34186">
        <ele>-3</ele>
        <time>2022-07-21T08:14:41.000Z</time>
      </trkpt>
      <trkpt lat="47.35621" lon="-2.34187">
        <ele>-2.5999999046326</ele>
        <time>2022-07-21T08:14:42.000Z</time>
      </trkpt>
      <trkpt lat="47.35626" lon="-2.34189">
        <ele>-2.2000000476837</ele>
        <time>2022-07-21T08:14:43.000Z</time>
      </trkpt>
      <trkpt lat="47.3563" lon="-2.34191">
        <ele>-1.7999999523163</ele>
        <time>2022-07-21T08:14:44.000Z</time>
      </trkpt>
      <trkpt lat="47.35635" lon="-2.34192">
        <ele>-1.3999999761581</ele>
        <time>2022-07-21T08:14:45.000Z</time>
      </trkpt>
      <trkpt lat="47.35644" lon="-2.34195">
        <ele>-1.3999999761581</ele>
        <time>2022-07-21T08:14:47.000Z</time>
      </trkpt>
      <trkpt lat="47.35677" lon="-2.34204">
        <ele>-1.3999999761581</ele>
        <time>2022-07-21T08:14:55.000Z</time>
      </trkpt>
      <trkpt lat="47.35682" lon="-2.34205">
        <ele>-1</ele>
        <time>2022-07-21T08:14:56.000Z</time>
      </trkpt>
      <trkpt lat="47.35686" lon="-2.34207">
        <ele>-0.60000002384186</ele>
        <time>2022-07-21T08:14:57.000Z</time>
      </trkpt>
      <trkpt lat="47.35691" lon="-2.34208">
        <ele>-0.20000000298023</ele>
        <time>2022-07-21T08:14:58.000Z</time>
      </trkpt>
      <trkpt lat="47.35695" lon="-2.34208">
        <ele>0.40000000596046</ele>
        <time>2022-07-21T08:14:59.000Z</time>
      </trkpt>
      <trkpt lat="47.35699" lon="-2.34209">
        <ele>0.80000001192093</ele>
        <time>2022-07-21T08:15:00.000Z</time>
      </trkpt>
      <trkpt lat="47.35713" lon="-2.3421">
        <ele>0.80000001192093</ele>
        <time>2022-07-21T08:15:03.000Z</time>
      </trkpt>
      <trkpt lat="47.35726" lon="-2.34209">
        <ele>0.80000001192093</ele>
        <time>2022-07-21T08:15:06.000Z</time>
      </trkpt>
      <trkpt lat="47.3573" lon="-2.34208">
        <ele>1.2000000476837</ele>
        <time>2022-07-21T08:15:07.000Z</time>
      </trkpt>
      <trkpt lat="47.35734" lon="-2.34207">
        <ele>1.6000000238419</ele>
        <time>2022-07-21T08:15:08.000Z</time>
      </trkpt>
      <trkpt lat="47.35738" lon="-2.34206">
        <ele>2</ele>
        <time>2022-07-21T08:15:09.000Z</time>
      </trkpt>
      <trkpt lat="47.35742" lon="-2.34205">
        <ele>2.7999999523163</ele>
        <time>2022-07-21T08:15:10.000Z</time>
      </trkpt>
      <trkpt lat="47.35758" lon="-2.34205">
        <ele>2.7999999523163</ele>
        <time>2022-07-21T08:15:14.000Z</time>
      </trkpt>
      <trkpt lat="47.35765" lon="-2.34212">
        <ele>2.7999999523163</ele>
        <time>2022-07-21T08:15:17.000Z</time>
      </trkpt>
      <trkpt lat="47.35765" lon="-2.34216">
        <ele>2.7999999523163</ele>
        <time>2022-07-21T08:15:18.000Z</time>
      </trkpt>
      <trkpt lat="47.35765" lon="-2.34236">
        <ele>2.7999999523163</ele>
        <time>2022-07-21T08:15:21.000Z</time>
      </trkpt>
      <trkpt lat="47.35765" lon="-2.34243">
        <ele>2.7999999523163</ele>
        <time>2022-07-21T08:15:22.000Z</time>
      </trkpt>
      <trkpt lat="47.35765" lon="-2.34296">
        <ele>2.7999999523163</ele>
        <time>2022-07-21T08:15:28.000Z</time>
      </trkpt>
      <trkpt lat="47.35765" lon="-2.34305">
        <ele>2.7999999523163</ele>
        <time>2022-07-21T08:15:29.000Z</time>
      </trkpt>
      <trkpt lat="47.3577" lon="-2.34342">
        <ele>2.7999999523163</ele>
        <time>2022-07-21T08:15:33.000Z</time>
      </trkpt>
      <trkpt lat="47.35777" lon="-2.34393">
        <ele>2.4000000953674</ele>
        <time>2022-07-21T08:15:38.000Z</time>
      </trkpt>
      <trkpt lat="47.35778" lon="-2.34404">
        <ele>2</ele>
        <time>2022-07-21T08:15:39.000Z</time>
      </trkpt>
      <trkpt lat="47.35779" lon="-2.34415">
        <ele>1.6000000238419</ele>
        <time>2022-07-21T08:15:40.000Z</time>
      </trkpt>
      <trkpt lat="47.35781" lon="-2.34426">
        <ele>1.2000000476837</ele>
        <time>2022-07-21T08:15:41.000Z</time>
      </trkpt>
      <trkpt lat="47.35782" lon="-2.34437">
        <ele>0.60000002384186</ele>
        <time>2022-07-21T08:15:42.000Z</time>
      </trkpt>
      <trkpt lat="47.35791" lon="-2.34512">
        <ele>0.60000002384186</ele>
        <time>2022-07-21T08:15:49.000Z</time>
      </trkpt>
      <trkpt lat="47.35802" lon="-2.34583">
        <ele>0.60000002384186</ele>
        <time>2022-07-21T08:15:56.000Z</time>
      </trkpt>
      <trkpt lat="47.35805" lon="-2.34594">
        <ele>0.60000002384186</ele>
        <time>2022-07-21T08:15:57.000Z</time>
      </trkpt>
      <trkpt lat="47.35826" lon="-2.34644">
        <ele>0.60000002384186</ele>
        <time>2022-07-21T08:16:03.000Z</time>
      </trkpt>
      <trkpt lat="47.35849" lon="-2.34695">
        <ele>0.60000002384186</ele>
        <time>2022-07-21T08:16:09.000Z</time>
      </trkpt>
      <trkpt lat="47.35875" lon="-2.34755">
        <ele>0.60000002384186</ele>
        <time>2022-07-21T08:16:16.000Z</time>
      </trkpt>
      <trkpt lat="47.359" lon="-2.34814">
        <ele>0.60000002384186</ele>
        <time>2022-07-21T08:16:23.000Z</time>
      </trkpt>
      <trkpt lat="47.35923" lon="-2.34861">
        <ele>0.60000002384186</ele>
        <time>2022-07-21T08:16:29.000Z</time>
      </trkpt>
      <trkpt lat="47.35928" lon="-2.34865">
        <ele>0.60000002384186</ele>
        <time>2022-07-21T08:16:30.000Z</time>
      </trkpt>
      <trkpt lat="47.35946" lon="-2.34869">
        <ele>0.60000002384186</ele>
        <time>2022-07-21T08:16:33.000Z</time>
      </trkpt>
      <trkpt lat="47.35984" lon="-2.3487">
        <ele>0.60000002384186</ele>
        <time>2022-07-21T08:16:39.000Z</time>
      </trkpt>
      <trkpt lat="47.36033" lon="-2.34874">
        <ele>0.60000002384186</ele>
        <time>2022-07-21T08:16:47.000Z</time>
      </trkpt>
      <trkpt lat="47.36074" lon="-2.34878">
        <ele>0.60000002384186</ele>
        <time>2022-07-21T08:16:54.000Z</time>
      </trkpt>
      <trkpt lat="47.36083" lon="-2.34881">
        <ele>0.60000002384186</ele>
        <time>2022-07-21T08:16:57.000Z</time>
      </trkpt>
      <trkpt lat="47.36085" lon="-2.34886">
        <ele>0.60000002384186</ele>
        <time>2022-07-21T08:16:58.000Z</time>
      </trkpt>
      <trkpt lat="47.36089" lon="-2.34901">
        <ele>0.20000000298023</ele>
        <time>2022-07-21T08:17:01.000Z</time>
      </trkpt>
      <trkpt lat="47.3609" lon="-2.34907">
        <ele>-0.20000000298023</ele>
        <time>2022-07-21T08:17:02.000Z</time>
      </trkpt>
      <trkpt lat="47.36092" lon="-2.34914">
        <ele>-0.60000002384186</ele>
        <time>2022-07-21T08:17:03.000Z</time>
      </trkpt>
      <trkpt lat="47.36093" lon="-2.34922">
        <ele>-1</ele>
        <time>2022-07-21T08:17:04.000Z</time>
      </trkpt>
      <trkpt lat="47.36095" lon="-2.3493">
        <ele>-1.3999999761581</ele>
        <time>2022-07-21T08:17:05.000Z</time>
      </trkpt>
      <trkpt lat="47.36095" lon="-2.3494">
        <ele>-1.3999999761581</ele>
        <time>2022-07-21T08:17:06.000Z</time>
      </trkpt>
      <trkpt lat="47.36097" lon="-2.34949">
        <ele>-1.3999999761581</ele>
        <time>2022-07-21T08:17:07.000Z</time>
      </trkpt>
      <trkpt lat="47.36105" lon="-2.35003">
        <ele>-1.3999999761581</ele>
        <time>2022-07-21T08:17:13.000Z</time>
      </trkpt>
      <trkpt lat="47.36104" lon="-2.35021">
        <ele>-1.3999999761581</ele>
        <time>2022-07-21T08:17:15.000Z</time>
      </trkpt>
      <trkpt lat="47.36099" lon="-2.35077">
        <ele>-1.3999999761581</ele>
        <time>2022-07-21T08:17:21.000Z</time>
      </trkpt>
      <trkpt lat="47.36095" lon="-2.35127">
        <ele>-1.3999999761581</ele>
        <time>2022-07-21T08:17:27.000Z</time>
      </trkpt>
      <trkpt lat="47.36092" lon="-2.35173">
        <ele>-1.3999999761581</ele>
        <time>2022-07-21T08:17:34.000Z</time>
      </trkpt>
      <trkpt lat="47.36085" lon="-2.35192">
        <ele>-1.3999999761581</ele>
        <time>2022-07-21T08:17:39.000Z</time>
      </trkpt>
      <trkpt lat="47.36072" lon="-2.35215">
        <ele>-1.3999999761581</ele>
        <time>2022-07-21T08:17:45.000Z</time>
      </trkpt>
      <trkpt lat="47.36066" lon="-2.35226">
        <ele>-1.3999999761581</ele>
        <time>2022-07-21T08:17:49.000Z</time>
      </trkpt>
      <trkpt lat="47.36066" lon="-2.35226">
        <ele>-1.3999999761581</ele>
        <time>2022-07-21T08:17:51.000Z</time>
      </trkpt>
      <trkpt lat="47.36063" lon="-2.35228">
        <ele>-1.3999999761581</ele>
        <time>2022-07-21T08:18:06.000Z</time>
      </trkpt>
      <trkpt lat="47.36062" lon="-2.35229">
        <ele>-1.3999999761581</ele>
        <time>2022-07-21T08:18:07.000Z</time>
      </trkpt>
      <trkpt lat="47.36051" lon="-2.35245">
        <ele>-1.3999999761581</ele>
        <time>2022-07-21T08:18:12.000Z</time>
      </trkpt>
      <trkpt lat="47.36047" lon="-2.35248">
        <ele>-1.3999999761581</ele>
        <time>2022-07-21T08:18:13.000Z</time>
      </trkpt>
      <trkpt lat="47.3604" lon="-2.35256">
        <ele>-1.3999999761581</ele>
        <time>2022-07-21T08:18:15.000Z</time>
      </trkpt>
      <trkpt lat="47.36036" lon="-2.35261">
        <ele>-1.3999999761581</ele>
        <time>2022-07-21T08:18:16.000Z</time>
      </trkpt>
      <trkpt lat="47.36009" lon="-2.35299">
        <ele>-1.3999999761581</ele>
        <time>2022-07-21T08:18:22.000Z</time>
      </trkpt>
      <trkpt lat="47.35979" lon="-2.35336">
        <ele>-1.3999999761581</ele>
        <time>2022-07-21T08:18:28.000Z</time>
      </trkpt>
      <trkpt lat="47.35945" lon="-2.35385">
        <ele>-1.3999999761581</ele>
        <time>2022-07-21T08:18:35.000Z</time>
      </trkpt>
      <trkpt lat="47.35936" lon="-2.35399">
        <ele>-1.3999999761581</ele>
        <time>2022-07-21T08:18:37.000Z</time>
      </trkpt>
      <trkpt lat="47.35918" lon="-2.35411">
        <ele>-1.3999999761581</ele>
        <time>2022-07-21T08:18:40.000Z</time>
      </trkpt>
      <trkpt lat="47.35911" lon="-2.35415">
        <ele>-1.3999999761581</ele>
        <time>2022-07-21T08:18:41.000Z</time>
      </trkpt>
      <trkpt lat="47.35888" lon="-2.35432">
        <ele>-1.3999999761581</ele>
        <time>2022-07-21T08:18:45.000Z</time>
      </trkpt>
      <trkpt lat="47.35851" lon="-2.35458">
        <ele>-1.3999999761581</ele>
        <time>2022-07-21T08:18:51.000Z</time>
      </trkpt>
      <trkpt lat="47.35844" lon="-2.35462">
        <ele>-1.3999999761581</ele>
        <time>2022-07-21T08:18:52.000Z</time>
      </trkpt>
      <trkpt lat="47.35825" lon="-2.3547">
        <ele>-1.3999999761581</ele>
        <time>2022-07-21T08:18:55.000Z</time>
      </trkpt>
      <trkpt lat="47.35792" lon="-2.35487">
        <ele>-1.3999999761581</ele>
        <time>2022-07-21T08:19:00.000Z</time>
      </trkpt>
      <trkpt lat="47.35754" lon="-2.35503">
        <ele>-1.3999999761581</ele>
        <time>2022-07-21T08:19:06.000Z</time>
      </trkpt>
      <trkpt lat="47.35716" lon="-2.35521">
        <ele>-1.3999999761581</ele>
        <time>2022-07-21T08:19:12.000Z</time>
      </trkpt>
      <trkpt lat="47.35697" lon="-2.3553">
        <ele>-1.3999999761581</ele>
        <time>2022-07-21T08:19:15.000Z</time>
      </trkpt>
      <trkpt lat="47.35691" lon="-2.35533">
        <ele>-1.3999999761581</ele>
        <time>2022-07-21T08:19:16.000Z</time>
      </trkpt>
      <trkpt lat="47.35673" lon="-2.35543">
        <ele>-1.3999999761581</ele>
        <time>2022-07-21T08:19:19.000Z</time>
      </trkpt>
      <trkpt lat="47.35655" lon="-2.35556">
        <ele>-1.3999999761581</ele>
        <time>2022-07-21T08:19:22.000Z</time>
      </trkpt>
      <trkpt lat="47.35636" lon="-2.35571">
        <ele>-1.3999999761581</ele>
        <time>2022-07-21T08:19:25.000Z</time>
      </trkpt>
      <trkpt lat="47.35624" lon="-2.35585">
        <ele>-1.3999999761581</ele>
        <time>2022-07-21T08:19:27.000Z</time>
      </trkpt>
      <trkpt lat="47.35586" lon="-2.35629">
        <ele>-1.3999999761581</ele>
        <time>2022-07-21T08:19:34.000Z</time>
      </trkpt>
      <trkpt lat="47.3558" lon="-2.35635">
        <ele>-1</ele>
        <time>2022-07-21T08:19:35.000Z</time>
      </trkpt>
      <trkpt lat="47.35574" lon="-2.35639">
        <ele>-0.60000002384186</ele>
        <time>2022-07-21T08:19:36.000Z</time>
      </trkpt>
      <trkpt lat="47.35569" lon="-2.35643">
        <ele>-0.20000000298023</ele>
        <time>2022-07-21T08:19:37.000Z</time>
      </trkpt>
      <trkpt lat="47.35564" lon="-2.35648">
        <ele>0.20000000298023</ele>
        <time>2022-07-21T08:19:38.000Z</time>
      </trkpt>
      <trkpt lat="47.35558" lon="-2.35653">
        <ele>0.60000002384186</ele>
        <time>2022-07-21T08:19:39.000Z</time>
      </trkpt>
      <trkpt lat="47.35527" lon="-2.35682">
        <ele>0.60000002384186</ele>
        <time>2022-07-21T08:19:45.000Z</time>
      </trkpt>
      <trkpt lat="47.35517" lon="-2.35692">
        <ele>1</ele>
        <time>2022-07-21T08:19:47.000Z</time>
      </trkpt>
      <trkpt lat="47.35512" lon="-2.35698">
        <ele>1.3999999761581</ele>
        <time>2022-07-21T08:19:48.000Z</time>
      </trkpt>
      <trkpt lat="47.35507" lon="-2.35704">
        <ele>1.7999999523163</ele>
        <time>2022-07-21T08:19:49.000Z</time>
      </trkpt>
      <trkpt lat="47.35502" lon="-2.35711">
        <ele>2.2000000476837</ele>
        <time>2022-07-21T08:19:50.000Z</time>
      </trkpt>
      <trkpt lat="47.35497" lon="-2.35718">
        <ele>2.5999999046326</ele>
        <time>2022-07-21T08:19:51.000Z</time>
      </trkpt>
      <trkpt lat="47.35493" lon="-2.35724">
        <ele>2.5999999046326</ele>
        <time>2022-07-21T08:19:52.000Z</time>
      </trkpt>
      <trkpt lat="47.35467" lon="-2.35765">
        <ele>2.5999999046326</ele>
        <time>2022-07-21T08:19:58.000Z</time>
      </trkpt>
      <trkpt lat="47.35434" lon="-2.35809">
        <ele>2.5999999046326</ele>
        <time>2022-07-21T08:20:06.000Z</time>
      </trkpt>
      <trkpt lat="47.35402" lon="-2.35854">
        <ele>2.5999999046326</ele>
        <time>2022-07-21T08:20:14.000Z</time>
      </trkpt>
      <trkpt lat="47.35391" lon="-2.35869">
        <ele>2.5999999046326</ele>
        <time>2022-07-21T08:20:17.000Z</time>
      </trkpt>
      <trkpt lat="47.35375" lon="-2.35887">
        <ele>2.5999999046326</ele>
        <time>2022-07-21T08:20:21.000Z</time>
      </trkpt>
      <trkpt lat="47.35344" lon="-2.3592">
        <ele>2.5999999046326</ele>
        <time>2022-07-21T08:20:27.000Z</time>
      </trkpt>
      <trkpt lat="47.35323" lon="-2.35958">
        <ele>2.5999999046326</ele>
        <time>2022-07-21T08:20:32.000Z</time>
      </trkpt>
      <trkpt lat="47.3532" lon="-2.35966">
        <ele>2.2000000476837</ele>
        <time>2022-07-21T08:20:33.000Z</time>
      </trkpt>
      <trkpt lat="47.35316" lon="-2.35975">
        <ele>1.7999999523163</ele>
        <time>2022-07-21T08:20:34.000Z</time>
      </trkpt>
      <trkpt lat="47.35312" lon="-2.35984">
        <ele>1.3999999761581</ele>
        <time>2022-07-21T08:20:35.000Z</time>
      </trkpt>
      <trkpt lat="47.35309" lon="-2.35993">
        <ele>1</ele>
        <time>2022-07-21T08:20:36.000Z</time>
      </trkpt>
      <trkpt lat="47.35305" lon="-2.36001">
        <ele>0.60000002384186</ele>
        <time>2022-07-21T08:20:37.000Z</time>
      </trkpt>
      <trkpt lat="47.35296" lon="-2.36018">
        <ele>0.60000002384186</ele>
        <time>2022-07-21T08:20:39.000Z</time>
      </trkpt>
      <trkpt lat="47.35272" lon="-2.36042">
        <ele>0.60000002384186</ele>
        <time>2022-07-21T08:20:43.000Z</time>
      </trkpt>
      <trkpt lat="47.35236" lon="-2.36072">
        <ele>0.60000002384186</ele>
        <time>2022-07-21T08:20:49.000Z</time>
      </trkpt>
      <trkpt lat="47.35196" lon="-2.36106">
        <ele>0.60000002384186</ele>
        <time>2022-07-21T08:20:56.000Z</time>
      </trkpt>
      <trkpt lat="47.35157" lon="-2.36135">
        <ele>0.60000002384186</ele>
        <time>2022-07-21T08:21:03.000Z</time>
      </trkpt>
      <trkpt lat="47.35136" lon="-2.36151">
        <ele>0.60000002384186</ele>
        <time>2022-07-21T08:21:08.000Z</time>
      </trkpt>
      <trkpt lat="47.35112" lon="-2.36165">
        <ele>0.60000002384186</ele>
        <time>2022-07-21T08:21:15.000Z</time>
      </trkpt>
      <trkpt lat="47.35087" lon="-2.36174">
        <ele>0.60000002384186</ele>
        <time>2022-07-21T08:21:22.000Z</time>
      </trkpt>
      <trkpt lat="47.35067" lon="-2.36178">
        <ele>0.60000002384186</ele>
        <time>2022-07-21T08:21:26.000Z</time>
      </trkpt>
      <trkpt lat="47.35062" lon="-2.36178">
        <ele>0.60000002384186</ele>
        <time>2022-07-21T08:21:27.000Z</time>
      </trkpt>
      <trkpt lat="47.3505" lon="-2.36176">
        <ele>1</ele>
        <time>2022-07-21T08:21:29.000Z</time>
      </trkpt>
      <trkpt lat="47.35044" lon="-2.36174">
        <ele>1.3999999761581</ele>
        <time>2022-07-21T08:21:30.000Z</time>
      </trkpt>
      <trkpt lat="47.35038" lon="-2.36173">
        <ele>1.7999999523163</ele>
        <time>2022-07-21T08:21:31.000Z</time>
      </trkpt>
      <trkpt lat="47.35032" lon="-2.36171">
        <ele>2.4000000953674</ele>
        <time>2022-07-21T08:21:32.000Z</time>
      </trkpt>
      <trkpt lat="47.35027" lon="-2.36169">
        <ele>2.7999999523163</ele>
        <time>2022-07-21T08:21:33.000Z</time>
      </trkpt>
      <trkpt lat="47.35003" lon="-2.36164">
        <ele>2.7999999523163</ele>
        <time>2022-07-21T08:21:37.000Z</time>
      </trkpt>
      <trkpt lat="47.34981" lon="-2.36172">
        <ele>2.7999999523163</ele>
        <time>2022-07-21T08:21:41.000Z</time>
      </trkpt>
      <trkpt lat="47.34971" lon="-2.36183">
        <ele>3.2000000476837</ele>
        <time>2022-07-21T08:21:43.000Z</time>
      </trkpt>
      <trkpt lat="47.34965" lon="-2.3619">
        <ele>3.5999999046326</ele>
        <time>2022-07-21T08:21:44.000Z</time>
      </trkpt>
      <trkpt lat="47.3496" lon="-2.36196">
        <ele>4</ele>
        <time>2022-07-21T08:21:45.000Z</time>
      </trkpt>
      <trkpt lat="47.34955" lon="-2.36203">
        <ele>5</ele>
        <time>2022-07-21T08:21:46.000Z</time>
      </trkpt>
      <trkpt lat="47.34937" lon="-2.36228">
        <ele>5</ele>
        <time>2022-07-21T08:21:50.000Z</time>
      </trkpt>
      <trkpt lat="47.34923" lon="-2.36245">
        <ele>5.4000000953674</ele>
        <time>2022-07-21T08:21:53.000Z</time>
      </trkpt>
      <trkpt lat="47.34917" lon="-2.3625">
        <ele>5.8000001907349</ele>
        <time>2022-07-21T08:21:54.000Z</time>
      </trkpt>
      <trkpt lat="47.34912" lon="-2.36255">
        <ele>6.1999998092651</ele>
        <time>2022-07-21T08:21:55.000Z</time>
      </trkpt>
      <trkpt lat="47.34907" lon="-2.36259">
        <ele>6.5999999046326</ele>
        <time>2022-07-21T08:21:56.000Z</time>
      </trkpt>
      <trkpt lat="47.34902" lon="-2.36264">
        <ele>7</ele>
        <time>2022-07-21T08:21:57.000Z</time>
      </trkpt>
      <trkpt lat="47.3487" lon="-2.36288">
        <ele>7</ele>
        <time>2022-07-21T08:22:03.000Z</time>
      </trkpt>
      <trkpt lat="47.34865" lon="-2.36292">
        <ele>7.4000000953674</ele>
        <time>2022-07-21T08:22:04.000Z</time>
      </trkpt>
      <trkpt lat="47.3486" lon="-2.36295">
        <ele>7.8000001907349</ele>
        <time>2022-07-21T08:22:05.000Z</time>
      </trkpt>
      <trkpt lat="47.34855" lon="-2.36299">
        <ele>8.1999998092651</ele>
        <time>2022-07-21T08:22:06.000Z</time>
      </trkpt>
      <trkpt lat="47.34851" lon="-2.36301">
        <ele>8.6000003814697</ele>
        <time>2022-07-21T08:22:07.000Z</time>
      </trkpt>
      <trkpt lat="47.34847" lon="-2.36304">
        <ele>9</ele>
        <time>2022-07-21T08:22:08.000Z</time>
      </trkpt>
      <trkpt lat="47.34843" lon="-2.36309">
        <ele>9</ele>
        <time>2022-07-21T08:22:09.000Z</time>
      </trkpt>
      <trkpt lat="47.34843" lon="-2.36329">
        <ele>9</ele>
        <time>2022-07-21T08:22:12.000Z</time>
      </trkpt>
      <trkpt lat="47.34854" lon="-2.3634">
        <ele>9</ele>
        <time>2022-07-21T08:22:15.000Z</time>
      </trkpt>
      <trkpt lat="47.3487" lon="-2.36347">
        <ele>9</ele>
        <time>2022-07-21T08:22:18.000Z</time>
      </trkpt>
      <trkpt lat="47.34874" lon="-2.3635">
        <ele>9</ele>
        <time>2022-07-21T08:22:19.000Z</time>
      </trkpt>
      <trkpt lat="47.34913" lon="-2.36372">
        <ele>9</ele>
        <time>2022-07-21T08:22:26.000Z</time>
      </trkpt>
      <trkpt lat="47.34919" lon="-2.36376">
        <ele>9</ele>
        <time>2022-07-21T08:22:27.000Z</time>
      </trkpt>
      <trkpt lat="47.34945" lon="-2.36393">
        <ele>9</ele>
        <time>2022-07-21T08:22:31.000Z</time>
      </trkpt>
      <trkpt lat="47.34952" lon="-2.36397">
        <ele>8.6000003814697</ele>
        <time>2022-07-21T08:22:32.000Z</time>
      </trkpt>
      <trkpt lat="47.34959" lon="-2.36402">
        <ele>8</ele>
        <time>2022-07-21T08:22:33.000Z</time>
      </trkpt>
      <trkpt lat="47.34967" lon="-2.36407">
        <ele>7.5999999046326</ele>
        <time>2022-07-21T08:22:34.000Z</time>
      </trkpt>
      <trkpt lat="47.34974" lon="-2.3641">
        <ele>7.1999998092651</ele>
        <time>2022-07-21T08:22:35.000Z</time>
      </trkpt>
      <trkpt lat="47.34982" lon="-2.36414">
        <ele>6.1999998092651</ele>
        <time>2022-07-21T08:22:36.000Z</time>
      </trkpt>
      <trkpt lat="47.34989" lon="-2.36419">
        <ele>5.5999999046326</ele>
        <time>2022-07-21T08:22:37.000Z</time>
      </trkpt>
      <trkpt lat="47.34996" lon="-2.36425">
        <ele>5.1999998092651</ele>
        <time>2022-07-21T08:22:38.000Z</time>
      </trkpt>
      <trkpt lat="47.35003" lon="-2.3643">
        <ele>4.5999999046326</ele>
        <time>2022-07-21T08:22:39.000Z</time>
      </trkpt>
      <trkpt lat="47.35008" lon="-2.36438">
        <ele>4.5999999046326</ele>
        <time>2022-07-21T08:22:40.000Z</time>
      </trkpt>
      <trkpt lat="47.35024" lon="-2.36476">
        <ele>4.5999999046326</ele>
        <time>2022-07-21T08:22:44.000Z</time>
      </trkpt>
      <trkpt lat="47.35041" lon="-2.3652">
        <ele>4.5999999046326</ele>
        <time>2022-07-21T08:22:49.000Z</time>
      </trkpt>
      <trkpt lat="47.35046" lon="-2.36527">
        <ele>4.5999999046326</ele>
        <time>2022-07-21T08:22:50.000Z</time>
      </trkpt>
      <trkpt lat="47.35062" lon="-2.36558">
        <ele>4.5999999046326</ele>
        <time>2022-07-21T08:22:54.000Z</time>
      </trkpt>
      <trkpt lat="47.35083" lon="-2.36612">
        <ele>4.5999999046326</ele>
        <time>2022-07-21T08:23:00.000Z</time>
      </trkpt>
      <trkpt lat="47.35097" lon="-2.36654">
        <ele>5</ele>
        <time>2022-07-21T08:23:05.000Z</time>
      </trkpt>
      <trkpt lat="47.35099" lon="-2.36662">
        <ele>5.4000000953674</ele>
        <time>2022-07-21T08:23:06.000Z</time>
      </trkpt>
      <trkpt lat="47.35102" lon="-2.36671">
        <ele>5.8000001907349</ele>
        <time>2022-07-21T08:23:07.000Z</time>
      </trkpt>
      <trkpt lat="47.35104" lon="-2.3668">
        <ele>6.1999998092651</ele>
        <time>2022-07-21T08:23:08.000Z</time>
      </trkpt>
      <trkpt lat="47.35106" lon="-2.36688">
        <ele>6.5999999046326</ele>
        <time>2022-07-21T08:23:09.000Z</time>
      </trkpt>
      <trkpt lat="47.35109" lon="-2.36705">
        <ele>6.5999999046326</ele>
        <time>2022-07-21T08:23:11.000Z</time>
      </trkpt>
      <trkpt lat="47.35123" lon="-2.36765">
        <ele>6.5999999046326</ele>
        <time>2022-07-21T08:23:18.000Z</time>
      </trkpt>
      <trkpt lat="47.35136" lon="-2.36814">
        <ele>6.5999999046326</ele>
        <time>2022-07-21T08:23:24.000Z</time>
      </trkpt>
      <trkpt lat="47.35148" lon="-2.36877">
        <ele>6.5999999046326</ele>
        <time>2022-07-21T08:23:31.000Z</time>
      </trkpt>
      <trkpt lat="47.35161" lon="-2.36917">
        <ele>6.5999999046326</ele>
        <time>2022-07-21T08:23:36.000Z</time>
      </trkpt>
      <trkpt lat="47.35183" lon="-2.36963">
        <ele>6.5999999046326</ele>
        <time>2022-07-21T08:23:43.000Z</time>
      </trkpt>
      <trkpt lat="47.35205" lon="-2.37011">
        <ele>6.5999999046326</ele>
        <time>2022-07-21T08:23:50.000Z</time>
      </trkpt>
      <trkpt lat="47.3521" lon="-2.37028">
        <ele>6.5999999046326</ele>
        <time>2022-07-21T08:23:52.000Z</time>
      </trkpt>
      <trkpt lat="47.35216" lon="-2.37055">
        <ele>6.5999999046326</ele>
        <time>2022-07-21T08:23:55.000Z</time>
      </trkpt>
      <trkpt lat="47.35227" lon="-2.37115">
        <ele>6.5999999046326</ele>
        <time>2022-07-21T08:24:02.000Z</time>
      </trkpt>
      <trkpt lat="47.35238" lon="-2.37161">
        <ele>6.5999999046326</ele>
        <time>2022-07-21T08:24:08.000Z</time>
      </trkpt>
      <trkpt lat="47.35241" lon="-2.37168">
        <ele>6.5999999046326</ele>
        <time>2022-07-21T08:24:09.000Z</time>
      </trkpt>
      <trkpt lat="47.35247" lon="-2.3718">
        <ele>6.5999999046326</ele>
        <time>2022-07-21T08:24:11.000Z</time>
      </trkpt>
      <trkpt lat="47.35262" lon="-2.37203">
        <ele>6.5999999046326</ele>
        <time>2022-07-21T08:24:15.000Z</time>
      </trkpt>
      <trkpt lat="47.35274" lon="-2.37218">
        <ele>6.5999999046326</ele>
        <time>2022-07-21T08:24:19.000Z</time>
      </trkpt>
      <trkpt lat="47.35279" lon="-2.37229">
        <ele>6.5999999046326</ele>
        <time>2022-07-21T08:24:22.000Z</time>
      </trkpt>
      <trkpt lat="47.35279" lon="-2.37234">
        <ele>6.5999999046326</ele>
        <time>2022-07-21T08:24:23.000Z</time>
      </trkpt>
      <trkpt lat="47.35281" lon="-2.37259">
        <ele>6.5999999046326</ele>
        <time>2022-07-21T08:24:27.000Z</time>
      </trkpt>
      <trkpt lat="47.35281" lon="-2.37266">
        <ele>6.5999999046326</ele>
        <time>2022-07-21T08:24:28.000Z</time>
      </trkpt>
      <trkpt lat="47.35282" lon="-2.37307">
        <ele>6.5999999046326</ele>
        <time>2022-07-21T08:24:35.000Z</time>
      </trkpt>
      <trkpt lat="47.35283" lon="-2.37363">
        <ele>6.5999999046326</ele>
        <time>2022-07-21T08:24:44.000Z</time>
      </trkpt>
      <trkpt lat="47.35285" lon="-2.37423">
        <ele>6.5999999046326</ele>
        <time>2022-07-21T08:24:53.000Z</time>
      </trkpt>
      <trkpt lat="47.35287" lon="-2.37442">
        <ele>6.5999999046326</ele>
        <time>2022-07-21T08:24:56.000Z</time>
      </trkpt>
      <trkpt lat="47.35288" lon="-2.37457">
        <ele>6.5999999046326</ele>
        <time>2022-07-21T08:24:58.000Z</time>
      </trkpt>
      <trkpt lat="47.3529" lon="-2.37465">
        <ele>6.5999999046326</ele>
        <time>2022-07-21T08:24:59.000Z</time>
      </trkpt>
      <trkpt lat="47.35297" lon="-2.37507">
        <ele>5.8000001907349</ele>
        <time>2022-07-21T08:25:04.000Z</time>
      </trkpt>
      <trkpt lat="47.35298" lon="-2.37515">
        <ele>5.4000000953674</ele>
        <time>2022-07-21T08:25:05.000Z</time>
      </trkpt>
      <trkpt lat="47.353" lon="-2.37523">
        <ele>5</ele>
        <time>2022-07-21T08:25:06.000Z</time>
      </trkpt>
      <trkpt lat="47.35301" lon="-2.3753">
        <ele>4.5999999046326</ele>
        <time>2022-07-21T08:25:07.000Z</time>
      </trkpt>
      <trkpt lat="47.3531" lon="-2.37564">
        <ele>4.5999999046326</ele>
        <time>2022-07-21T08:25:12.000Z</time>
      </trkpt>
      <trkpt lat="47.35324" lon="-2.37623">
        <ele>4.5999999046326</ele>
        <time>2022-07-21T08:25:20.000Z</time>
      </trkpt>
      <trkpt lat="47.35337" lon="-2.37675">
        <ele>4.5999999046326</ele>
        <time>2022-07-21T08:25:27.000Z</time>
      </trkpt>
      <trkpt lat="47.3535" lon="-2.37725">
        <ele>4.5999999046326</ele>
        <time>2022-07-21T08:25:33.000Z</time>
      </trkpt>
      <trkpt lat="47.35363" lon="-2.37778">
        <ele>4.1999998092651</ele>
        <time>2022-07-21T08:25:39.000Z</time>
      </trkpt>
      <trkpt lat="47.35365" lon="-2.37787">
        <ele>3.7999999523163</ele>
        <time>2022-07-21T08:25:40.000Z</time>
      </trkpt>
      <trkpt lat="47.35367" lon="-2.37796">
        <ele>3.4000000953674</ele>
        <time>2022-07-21T08:25:41.000Z</time>
      </trkpt>
      <trkpt lat="47.35369" lon="-2.37804">
        <ele>3</ele>
        <time>2022-07-21T08:25:42.000Z</time>
      </trkpt>
      <trkpt lat="47.35371" lon="-2.37813">
        <ele>2.5999999046326</ele>
        <time>2022-07-21T08:25:43.000Z</time>
      </trkpt>
      <trkpt lat="47.35385" lon="-2.37863">
        <ele>2.5999999046326</ele>
        <time>2022-07-21T08:25:49.000Z</time>
      </trkpt>
      <trkpt lat="47.35404" lon="-2.37928">
        <ele>2.5999999046326</ele>
        <time>2022-07-21T08:25:56.000Z</time>
      </trkpt>
      <trkpt lat="47.3542" lon="-2.37978">
        <ele>2.5999999046326</ele>
        <time>2022-07-21T08:26:02.000Z</time>
      </trkpt>
      <trkpt lat="47.35433" lon="-2.38021">
        <ele>2.5999999046326</ele>
        <time>2022-07-21T08:26:08.000Z</time>
      </trkpt>
      <trkpt lat="47.35445" lon="-2.38062">
        <ele>2.5999999046326</ele>
        <time>2022-07-21T08:26:14.000Z</time>
      </trkpt>
      <trkpt lat="47.35447" lon="-2.38068">
        <ele>2.5999999046326</ele>
        <time>2022-07-21T08:26:15.000Z</time>
      </trkpt>
      <trkpt lat="47.35441" lon="-2.38088">
        <ele>2.5999999046326</ele>
        <time>2022-07-21T08:26:18.000Z</time>
      </trkpt>
      <trkpt lat="47.35427" lon="-2.38103">
        <ele>2.5999999046326</ele>
        <time>2022-07-21T08:26:21.000Z</time>
      </trkpt>
      <trkpt lat="47.35417" lon="-2.38117">
        <ele>2.5999999046326</ele>
        <time>2022-07-21T08:26:23.000Z</time>
      </trkpt>
      <trkpt lat="47.35398" lon="-2.38146">
        <ele>2.5999999046326</ele>
        <time>2022-07-21T08:26:27.000Z</time>
      </trkpt>
      <trkpt lat="47.35355" lon="-2.38206">
        <ele>2.5999999046326</ele>
        <time>2022-07-21T08:26:35.000Z</time>
      </trkpt>
      <trkpt lat="47.35321" lon="-2.38255">
        <ele>2.5999999046326</ele>
        <time>2022-07-21T08:26:42.000Z</time>
      </trkpt>
      <trkpt lat="47.35316" lon="-2.38262">
        <ele>2.2000000476837</ele>
        <time>2022-07-21T08:26:43.000Z</time>
      </trkpt>
      <trkpt lat="47.35311" lon="-2.38268">
        <ele>1.7999999523163</ele>
        <time>2022-07-21T08:26:44.000Z</time>
      </trkpt>
      <trkpt lat="47.35306" lon="-2.38275">
        <ele>1.3999999761581</ele>
        <time>2022-07-21T08:26:45.000Z</time>
      </trkpt>
      <trkpt lat="47.35301" lon="-2.38282">
        <ele>1</ele>
        <time>2022-07-21T08:26:46.000Z</time>
      </trkpt>
      <trkpt lat="47.35296" lon="-2.38289">
        <ele>0.60000002384186</ele>
        <time>2022-07-21T08:26:47.000Z</time>
      </trkpt>
      <trkpt lat="47.35292" lon="-2.38295">
        <ele>0.60000002384186</ele>
        <time>2022-07-21T08:26:48.000Z</time>
      </trkpt>
      <trkpt lat="47.35247" lon="-2.38356">
        <ele>0.60000002384186</ele>
        <time>2022-07-21T08:26:57.000Z</time>
      </trkpt>
      <trkpt lat="47.35214" lon="-2.38403">
        <ele>0.60000002384186</ele>
        <time>2022-07-21T08:27:04.000Z</time>
      </trkpt>
      <trkpt lat="47.3518" lon="-2.3845">
        <ele>0.60000002384186</ele>
        <time>2022-07-21T08:27:11.000Z</time>
      </trkpt>
      <trkpt lat="47.35152" lon="-2.38489">
        <ele>0.60000002384186</ele>
        <time>2022-07-21T08:27:17.000Z</time>
      </trkpt>
      <trkpt lat="47.35129" lon="-2.38532">
        <ele>0.60000002384186</ele>
        <time>2022-07-21T08:27:23.000Z</time>
      </trkpt>
      <trkpt lat="47.35114" lon="-2.38565">
        <ele>0.60000002384186</ele>
        <time>2022-07-21T08:27:27.000Z</time>
      </trkpt>
      <trkpt lat="47.35106" lon="-2.38582">
        <ele>0.60000002384186</ele>
        <time>2022-07-21T08:27:29.000Z</time>
      </trkpt>
      <trkpt lat="47.35083" lon="-2.38632">
        <ele>0.60000002384186</ele>
        <time>2022-07-21T08:27:35.000Z</time>
      </trkpt>
      <trkpt lat="47.35058" lon="-2.38683">
        <ele>0.60000002384186</ele>
        <time>2022-07-21T08:27:41.000Z</time>
      </trkpt>
      <trkpt lat="47.35034" lon="-2.38737">
        <ele>0.60000002384186</ele>
        <time>2022-07-21T08:27:48.000Z</time>
      </trkpt>
      <trkpt lat="47.3503" lon="-2.38744">
        <ele>0.60000002384186</ele>
        <time>2022-07-21T08:27:49.000Z</time>
      </trkpt>
      <trkpt lat="47.35015" lon="-2.38762">
        <ele>0.60000002384186</ele>
        <time>2022-07-21T08:27:52.000Z</time>
      </trkpt>
      <trkpt lat="47.35003" lon="-2.38771">
        <ele>0.60000002384186</ele>
        <time>2022-07-21T08:27:54.000Z</time>
      </trkpt>
      <trkpt lat="47.34986" lon="-2.38786">
        <ele>0.60000002384186</ele>
        <time>2022-07-21T08:27:57.000Z</time>
      </trkpt>
      <trkpt lat="47.34981" lon="-2.38793">
        <ele>0.60000002384186</ele>
        <time>2022-07-21T08:27:58.000Z</time>
      </trkpt>
      <trkpt lat="47.34968" lon="-2.38815">
        <ele>0.60000002384186</ele>
        <time>2022-07-21T08:28:01.000Z</time>
      </trkpt>
      <trkpt lat="47.34964" lon="-2.38823">
        <ele>0.60000002384186</ele>
        <time>2022-07-21T08:28:02.000Z</time>
      </trkpt>
      <trkpt lat="47.34946" lon="-2.38851">
        <ele>0.60000002384186</ele>
        <time>2022-07-21T08:28:06.000Z</time>
      </trkpt>
      <trkpt lat="47.34923" lon="-2.38891">
        <ele>0.60000002384186</ele>
        <time>2022-07-21T08:28:12.000Z</time>
      </trkpt>
      <trkpt lat="47.34903" lon="-2.38924">
        <ele>0.60000002384186</ele>
        <time>2022-07-21T08:28:17.000Z</time>
      </trkpt>
      <trkpt lat="47.34883" lon="-2.38961">
        <ele>0.60000002384186</ele>
        <time>2022-07-21T08:28:22.000Z</time>
      </trkpt>
      <trkpt lat="47.34854" lon="-2.39012">
        <ele>0.60000002384186</ele>
        <time>2022-07-21T08:28:29.000Z</time>
      </trkpt>
      <trkpt lat="47.34826" lon="-2.39061">
        <ele>0.60000002384186</ele>
        <time>2022-07-21T08:28:36.000Z</time>
      </trkpt>
      <trkpt lat="47.348" lon="-2.39104">
        <ele>0.60000002384186</ele>
        <time>2022-07-21T08:28:42.000Z</time>
      </trkpt>
      <trkpt lat="47.34768" lon="-2.3915">
        <ele>0.60000002384186</ele>
        <time>2022-07-21T08:28:49.000Z</time>
      </trkpt>
      <trkpt lat="47.34736" lon="-2.39184">
        <ele>0.60000002384186</ele>
        <time>2022-07-21T08:28:55.000Z</time>
      </trkpt>
      <trkpt lat="47.34711" lon="-2.39212">
        <ele>0.60000002384186</ele>
        <time>2022-07-21T08:29:01.000Z</time>
      </trkpt>
      <trkpt lat="47.34707" lon="-2.39215">
        <ele>1</ele>
        <time>2022-07-21T08:29:03.000Z</time>
      </trkpt>
      <trkpt lat="47.34706" lon="-2.39217">
        <ele>1.3999999761581</ele>
        <time>2022-07-21T08:29:04.000Z</time>
      </trkpt>
      <trkpt lat="47.34705" lon="-2.39217">
        <ele>1.7999999523163</ele>
        <time>2022-07-21T08:29:05.000Z</time>
      </trkpt>
      <trkpt lat="47.34704" lon="-2.39217">
        <ele>2.2000000476837</ele>
        <time>2022-07-21T08:29:06.000Z</time>
      </trkpt>
      <trkpt lat="47.34704" lon="-2.39216">
        <ele>2.5999999046326</ele>
        <time>2022-07-21T08:29:07.000Z</time>
      </trkpt>
      <trkpt lat="47.34704" lon="-2.39217">
        <ele>2.5999999046326</ele>
        <time>2022-07-21T08:29:08.000Z</time>
      </trkpt>
      <trkpt lat="47.347" lon="-2.39223">
        <ele>2.5999999046326</ele>
        <time>2022-07-21T08:44:54.000Z</time>
      </trkpt>
      <trkpt lat="47.34694" lon="-2.39239">
        <ele>2.5999999046326</ele>
        <time>2022-07-21T08:44:59.000Z</time>
      </trkpt>
      <trkpt lat="47.34685" lon="-2.3926">
        <ele>2.5999999046326</ele>
        <time>2022-07-21T08:45:04.000Z</time>
      </trkpt>
      <trkpt lat="47.34666" lon="-2.39296">
        <ele>2.5999999046326</ele>
        <time>2022-07-21T08:45:11.000Z</time>
      </trkpt>
      <trkpt lat="47.34664" lon="-2.39302">
        <ele>2.5999999046326</ele>
        <time>2022-07-21T08:45:12.000Z</time>
      </trkpt>
      <trkpt lat="47.34662" lon="-2.39308">
        <ele>3</ele>
        <time>2022-07-21T08:45:13.000Z</time>
      </trkpt>
      <trkpt lat="47.34661" lon="-2.39313">
        <ele>3.7999999523163</ele>
        <time>2022-07-21T08:45:14.000Z</time>
      </trkpt>
      <trkpt lat="47.34658" lon="-2.39318">
        <ele>4.1999998092651</ele>
        <time>2022-07-21T08:45:15.000Z</time>
      </trkpt>
      <trkpt lat="47.34655" lon="-2.39322">
        <ele>4.8000001907349</ele>
        <time>2022-07-21T08:45:16.000Z</time>
      </trkpt>
      <trkpt lat="47.34646" lon="-2.39335">
        <ele>4.8000001907349</ele>
        <time>2022-07-21T08:45:19.000Z</time>
      </trkpt>
      <trkpt lat="47.3464" lon="-2.39345">
        <ele>4.8000001907349</ele>
        <time>2022-07-21T08:45:21.000Z</time>
      </trkpt>
      <trkpt lat="47.34624" lon="-2.39371">
        <ele>4.8000001907349</ele>
        <time>2022-07-21T08:45:26.000Z</time>
      </trkpt>
      <trkpt lat="47.34619" lon="-2.39383">
        <ele>5.1999998092651</ele>
        <time>2022-07-21T08:45:28.000Z</time>
      </trkpt>
      <trkpt lat="47.34616" lon="-2.39388">
        <ele>5.5999999046326</ele>
        <time>2022-07-21T08:45:29.000Z</time>
      </trkpt>
      <trkpt lat="47.34614" lon="-2.39393">
        <ele>6</ele>
        <time>2022-07-21T08:45:30.000Z</time>
      </trkpt>
      <trkpt lat="47.34611" lon="-2.39399">
        <ele>6.4000000953674</ele>
        <time>2022-07-21T08:45:31.000Z</time>
      </trkpt>
      <trkpt lat="47.34607" lon="-2.39403">
        <ele>6.8000001907349</ele>
        <time>2022-07-21T08:45:32.000Z</time>
      </trkpt>
      <trkpt lat="47.34604" lon="-2.39408">
        <ele>6.8000001907349</ele>
        <time>2022-07-21T08:45:33.000Z</time>
      </trkpt>
      <trkpt lat="47.34578" lon="-2.39444">
        <ele>6.8000001907349</ele>
        <time>2022-07-21T08:45:40.000Z</time>
      </trkpt>
      <trkpt lat="47.3457" lon="-2.39452">
        <ele>7.1999998092651</ele>
        <time>2022-07-21T08:45:42.000Z</time>
      </trkpt>
      <trkpt lat="47.34565" lon="-2.39457">
        <ele>7.5999999046326</ele>
        <time>2022-07-21T08:45:43.000Z</time>
      </trkpt>
      <trkpt lat="47.34562" lon="-2.39461">
        <ele>8</ele>
        <time>2022-07-21T08:45:44.000Z</time>
      </trkpt>
      <trkpt lat="47.34558" lon="-2.39466">
        <ele>8.6000003814697</ele>
        <time>2022-07-21T08:45:45.000Z</time>
      </trkpt>
      <trkpt lat="47.34556" lon="-2.39472">
        <ele>9</ele>
        <time>2022-07-21T08:45:46.000Z</time>
      </trkpt>
      <trkpt lat="47.34551" lon="-2.39495">
        <ele>9</ele>
        <time>2022-07-21T08:45:50.000Z</time>
      </trkpt>
      <trkpt lat="47.34544" lon="-2.39537">
        <ele>9</ele>
        <time>2022-07-21T08:45:57.000Z</time>
      </trkpt>
      <trkpt lat="47.34533" lon="-2.39571">
        <ele>9.8000001907349</ele>
        <time>2022-07-21T08:46:03.000Z</time>
      </trkpt>
      <trkpt lat="47.34531" lon="-2.39577">
        <ele>10.199999809265</ele>
        <time>2022-07-21T08:46:04.000Z</time>
      </trkpt>
      <trkpt lat="47.34529" lon="-2.39582">
        <ele>10.60000038147</ele>
        <time>2022-07-21T08:46:05.000Z</time>
      </trkpt>
      <trkpt lat="47.34526" lon="-2.39588">
        <ele>11</ele>
        <time>2022-07-21T08:46:06.000Z</time>
      </trkpt>
      <trkpt lat="47.34513" lon="-2.39618">
        <ele>11</ele>
        <time>2022-07-21T08:46:11.000Z</time>
      </trkpt>
      <trkpt lat="47.34498" lon="-2.39649">
        <ele>11</ele>
        <time>2022-07-21T08:46:16.000Z</time>
      </trkpt>
      <trkpt lat="47.34494" lon="-2.39655">
        <ele>11</ele>
        <time>2022-07-21T08:46:17.000Z</time>
      </trkpt>
      <trkpt lat="47.34486" lon="-2.39668">
        <ele>11</ele>
        <time>2022-07-21T08:46:19.000Z</time>
      </trkpt>
      <trkpt lat="47.3448" lon="-2.39682">
        <ele>11</ele>
        <time>2022-07-21T08:46:21.000Z</time>
      </trkpt>
      <trkpt lat="47.34478" lon="-2.39689">
        <ele>11</ele>
        <time>2022-07-21T08:46:22.000Z</time>
      </trkpt>
      <trkpt lat="47.34474" lon="-2.3971">
        <ele>11</ele>
        <time>2022-07-21T08:46:26.000Z</time>
      </trkpt>
      <trkpt lat="47.34473" lon="-2.39716">
        <ele>10.60000038147</ele>
        <time>2022-07-21T08:46:28.000Z</time>
      </trkpt>
      <trkpt lat="47.34473" lon="-2.39718">
        <ele>10.199999809265</ele>
        <time>2022-07-21T08:46:29.000Z</time>
      </trkpt>
      <trkpt lat="47.34473" lon="-2.39719">
        <ele>9.8000001907349</ele>
        <time>2022-07-21T08:46:30.000Z</time>
      </trkpt>
      <trkpt lat="47.34473" lon="-2.39719">
        <ele>9.3999996185303</ele>
        <time>2022-07-21T08:46:31.000Z</time>
      </trkpt>
      <trkpt lat="47.34472" lon="-2.39728">
        <ele>8.8000001907349</ele>
        <time>2022-07-21T08:46:40.000Z</time>
      </trkpt>
      <trkpt lat="47.34471" lon="-2.39735">
        <ele>8.8000001907349</ele>
        <time>2022-07-21T08:46:42.000Z</time>
      </trkpt>
      <trkpt lat="47.34473" lon="-2.39762">
        <ele>8.8000001907349</ele>
        <time>2022-07-21T08:46:47.000Z</time>
      </trkpt>
      <trkpt lat="47.34485" lon="-2.39768">
        <ele>8.8000001907349</ele>
        <time>2022-07-21T08:46:50.000Z</time>
      </trkpt>
      <trkpt lat="47.34516" lon="-2.39784">
        <ele>8.8000001907349</ele>
        <time>2022-07-21T08:46:57.000Z</time>
      </trkpt>
      <trkpt lat="47.34523" lon="-2.39791">
        <ele>8.8000001907349</ele>
        <time>2022-07-21T08:46:59.000Z</time>
      </trkpt>
      <trkpt lat="47.34543" lon="-2.39811">
        <ele>8.8000001907349</ele>
        <time>2022-07-21T08:47:04.000Z</time>
      </trkpt>
      <trkpt lat="47.34547" lon="-2.39815">
        <ele>8.8000001907349</ele>
        <time>2022-07-21T08:47:05.000Z</time>
      </trkpt>
      <trkpt lat="47.34567" lon="-2.39833">
        <ele>8.8000001907349</ele>
        <time>2022-07-21T08:47:11.000Z</time>
      </trkpt>
      <trkpt lat="47.34591" lon="-2.39851">
        <ele>8.8000001907349</ele>
        <time>2022-07-21T08:47:17.000Z</time>
      </trkpt>
      <trkpt lat="47.34614" lon="-2.3987">
        <ele>8.8000001907349</ele>
        <time>2022-07-21T08:47:23.000Z</time>
      </trkpt>
      <trkpt lat="47.34613" lon="-2.39889">
        <ele>8.8000001907349</ele>
        <time>2022-07-21T08:47:26.000Z</time>
      </trkpt>
      <trkpt lat="47.34608" lon="-2.39903">
        <ele>8.8000001907349</ele>
        <time>2022-07-21T08:47:28.000Z</time>
      </trkpt>
      <trkpt lat="47.346" lon="-2.39923">
        <ele>8.8000001907349</ele>
        <time>2022-07-21T08:47:31.000Z</time>
      </trkpt>
      <trkpt lat="47.34592" lon="-2.3995">
        <ele>8.8000001907349</ele>
        <time>2022-07-21T08:47:37.000Z</time>
      </trkpt>
      <trkpt lat="47.34591" lon="-2.39954">
        <ele>8.8000001907349</ele>
        <time>2022-07-21T08:47:40.000Z</time>
      </trkpt>
      <trkpt lat="47.3459" lon="-2.39963">
        <ele>8.8000001907349</ele>
        <time>2022-07-21T08:47:49.000Z</time>
      </trkpt>
      <trkpt lat="47.34587" lon="-2.39985">
        <ele>8.8000001907349</ele>
        <time>2022-07-21T08:47:54.000Z</time>
      </trkpt>
      <trkpt lat="47.34588" lon="-2.39991">
        <ele>8.8000001907349</ele>
        <time>2022-07-21T08:47:55.000Z</time>
      </trkpt>
      <trkpt lat="47.34595" lon="-2.40009">
        <ele>8.8000001907349</ele>
        <time>2022-07-21T08:47:58.000Z</time>
      </trkpt>
      <trkpt lat="47.34603" lon="-2.4002">
        <ele>8.8000001907349</ele>
        <time>2022-07-21T08:48:00.000Z</time>
      </trkpt>
      <trkpt lat="47.34611" lon="-2.40032">
        <ele>8.8000001907349</ele>
        <time>2022-07-21T08:48:02.000Z</time>
      </trkpt>
      <trkpt lat="47.34644" lon="-2.40084">
        <ele>8.8000001907349</ele>
        <time>2022-07-21T08:48:10.000Z</time>
      </trkpt>
      <trkpt lat="47.34661" lon="-2.40109">
        <ele>8.8000001907349</ele>
        <time>2022-07-21T08:48:14.000Z</time>
      </trkpt>
      <trkpt lat="47.34672" lon="-2.40118">
        <ele>8.8000001907349</ele>
        <time>2022-07-21T08:48:16.000Z</time>
      </trkpt>
      <trkpt lat="47.34689" lon="-2.40125">
        <ele>8.8000001907349</ele>
        <time>2022-07-21T08:48:19.000Z</time>
      </trkpt>
      <trkpt lat="47.34695" lon="-2.40126">
        <ele>8.8000001907349</ele>
        <time>2022-07-21T08:48:20.000Z</time>
      </trkpt>
      <trkpt lat="47.34702" lon="-2.40127">
        <ele>8.8000001907349</ele>
        <time>2022-07-21T08:48:21.000Z</time>
      </trkpt>
      <trkpt lat="47.3472" lon="-2.40133">
        <ele>8.8000001907349</ele>
        <time>2022-07-21T08:48:24.000Z</time>
      </trkpt>
      <trkpt lat="47.34737" lon="-2.40147">
        <ele>8.8000001907349</ele>
        <time>2022-07-21T08:48:27.000Z</time>
      </trkpt>
      <trkpt lat="47.34751" lon="-2.40166">
        <ele>8.8000001907349</ele>
        <time>2022-07-21T08:48:30.000Z</time>
      </trkpt>
      <trkpt lat="47.34759" lon="-2.40178">
        <ele>8.8000001907349</ele>
        <time>2022-07-21T08:48:32.000Z</time>
      </trkpt>
      <trkpt lat="47.34786" lon="-2.40215">
        <ele>8.8000001907349</ele>
        <time>2022-07-21T08:48:38.000Z</time>
      </trkpt>
      <trkpt lat="47.34802" lon="-2.4023">
        <ele>8.3999996185303</ele>
        <time>2022-07-21T08:48:41.000Z</time>
      </trkpt>
      <trkpt lat="47.34807" lon="-2.40238">
        <ele>8</ele>
        <time>2022-07-21T08:48:42.000Z</time>
      </trkpt>
      <trkpt lat="47.34812" lon="-2.40247">
        <ele>7.5999999046326</ele>
        <time>2022-07-21T08:48:43.000Z</time>
      </trkpt>
      <trkpt lat="47.34815" lon="-2.40256">
        <ele>7.1999998092651</ele>
        <time>2022-07-21T08:48:44.000Z</time>
      </trkpt>
      <trkpt lat="47.34818" lon="-2.40265">
        <ele>6.8000001907349</ele>
        <time>2022-07-21T08:48:45.000Z</time>
      </trkpt>
      <trkpt lat="47.34826" lon="-2.40282">
        <ele>6.8000001907349</ele>
        <time>2022-07-21T08:48:47.000Z</time>
      </trkpt>
      <trkpt lat="47.3484" lon="-2.40304">
        <ele>6.8000001907349</ele>
        <time>2022-07-21T08:48:50.000Z</time>
      </trkpt>
      <trkpt lat="47.34848" lon="-2.40319">
        <ele>6.4000000953674</ele>
        <time>2022-07-21T08:48:52.000Z</time>
      </trkpt>
      <trkpt lat="47.34851" lon="-2.40327">
        <ele>6</ele>
        <time>2022-07-21T08:48:53.000Z</time>
      </trkpt>
      <trkpt lat="47.34854" lon="-2.40336">
        <ele>5.5999999046326</ele>
        <time>2022-07-21T08:48:54.000Z</time>
      </trkpt>
      <trkpt lat="47.34857" lon="-2.40344">
        <ele>5.1999998092651</ele>
        <time>2022-07-21T08:48:55.000Z</time>
      </trkpt>
      <trkpt lat="47.34859" lon="-2.40353">
        <ele>4.8000001907349</ele>
        <time>2022-07-21T08:48:56.000Z</time>
      </trkpt>
      <trkpt lat="47.34866" lon="-2.40389">
        <ele>4.8000001907349</ele>
        <time>2022-07-21T08:49:00.000Z</time>
      </trkpt>
      <trkpt lat="47.34871" lon="-2.40432">
        <ele>4.8000001907349</ele>
        <time>2022-07-21T08:49:05.000Z</time>
      </trkpt>
      <trkpt lat="47.34875" lon="-2.40451">
        <ele>4.8000001907349</ele>
        <time>2022-07-21T08:49:07.000Z</time>
      </trkpt>
      <trkpt lat="47.34876" lon="-2.40461">
        <ele>4.4000000953674</ele>
        <time>2022-07-21T08:49:08.000Z</time>
      </trkpt>
      <trkpt lat="47.34878" lon="-2.40472">
        <ele>3.7999999523163</ele>
        <time>2022-07-21T08:49:09.000Z</time>
      </trkpt>
      <trkpt lat="47.34879" lon="-2.40482">
        <ele>3.4000000953674</ele>
        <time>2022-07-21T08:49:10.000Z</time>
      </trkpt>
      <trkpt lat="47.34881" lon="-2.40493">
        <ele>3</ele>
        <time>2022-07-21T08:49:11.000Z</time>
      </trkpt>
      <trkpt lat="47.34883" lon="-2.40504">
        <ele>2.5999999046326</ele>
        <time>2022-07-21T08:49:12.000Z</time>
      </trkpt>
      <trkpt lat="47.34885" lon="-2.40513">
        <ele>2.5999999046326</ele>
        <time>2022-07-21T08:49:13.000Z</time>
      </trkpt>
      <trkpt lat="47.34888" lon="-2.40533">
        <ele>1.7999999523163</ele>
        <time>2022-07-21T08:49:15.000Z</time>
      </trkpt>
      <trkpt lat="47.34887" lon="-2.40543">
        <ele>1.3999999761581</ele>
        <time>2022-07-21T08:49:16.000Z</time>
      </trkpt>
      <trkpt lat="47.34885" lon="-2.40552">
        <ele>0.80000001192093</ele>
        <time>2022-07-21T08:49:17.000Z</time>
      </trkpt>
      <trkpt lat="47.34882" lon="-2.40561">
        <ele>0.40000000596046</ele>
        <time>2022-07-21T08:49:18.000Z</time>
      </trkpt>
      <trkpt lat="47.34871" lon="-2.40575">
        <ele>0.40000000596046</ele>
        <time>2022-07-21T08:49:20.000Z</time>
      </trkpt>
      <trkpt lat="47.34865" lon="-2.40581">
        <ele>0.40000000596046</ele>
        <time>2022-07-21T08:49:21.000Z</time>
      </trkpt>
      <trkpt lat="47.34853" lon="-2.40594">
        <ele>0.40000000596046</ele>
        <time>2022-07-21T08:49:23.000Z</time>
      </trkpt>
      <trkpt lat="47.34842" lon="-2.40609">
        <ele>0.40000000596046</ele>
        <time>2022-07-21T08:49:25.000Z</time>
      </trkpt>
      <trkpt lat="47.34838" lon="-2.40618">
        <ele>0.40000000596046</ele>
        <time>2022-07-21T08:49:26.000Z</time>
      </trkpt>
      <trkpt lat="47.34833" lon="-2.40638">
        <ele>0.40000000596046</ele>
        <time>2022-07-21T08:49:28.000Z</time>
      </trkpt>
      <trkpt lat="47.34822" lon="-2.40695">
        <ele>0.40000000596046</ele>
        <time>2022-07-21T08:49:34.000Z</time>
      </trkpt>
      <trkpt lat="47.34821" lon="-2.40723">
        <ele>0.80000001192093</ele>
        <time>2022-07-21T08:49:37.000Z</time>
      </trkpt>
      <trkpt lat="47.34822" lon="-2.40731">
        <ele>1.2000000476837</ele>
        <time>2022-07-21T08:49:38.000Z</time>
      </trkpt>
      <trkpt lat="47.34823" lon="-2.4074">
        <ele>1.7999999523163</ele>
        <time>2022-07-21T08:49:39.000Z</time>
      </trkpt>
      <trkpt lat="47.34825" lon="-2.40748">
        <ele>2.5999999046326</ele>
        <time>2022-07-21T08:49:40.000Z</time>
      </trkpt>
      <trkpt lat="47.34829" lon="-2.40764">
        <ele>2.5999999046326</ele>
        <time>2022-07-21T08:49:42.000Z</time>
      </trkpt>
      <trkpt lat="47.34833" lon="-2.40771">
        <ele>2.5999999046326</ele>
        <time>2022-07-21T08:49:43.000Z</time>
      </trkpt>
      <trkpt lat="47.34851" lon="-2.40776">
        <ele>2.5999999046326</ele>
        <time>2022-07-21T08:49:46.000Z</time>
      </trkpt>
      <trkpt lat="47.34862" lon="-2.40775">
        <ele>2.5999999046326</ele>
        <time>2022-07-21T08:49:48.000Z</time>
      </trkpt>
      <trkpt lat="47.34875" lon="-2.40774">
        <ele>2.5999999046326</ele>
        <time>2022-07-21T08:49:50.000Z</time>
      </trkpt>
      <trkpt lat="47.3488" lon="-2.40775">
        <ele>2.5999999046326</ele>
        <time>2022-07-21T08:49:51.000Z</time>
      </trkpt>
      <trkpt lat="47.34894" lon="-2.40785">
        <ele>2.5999999046326</ele>
        <time>2022-07-21T08:49:54.000Z</time>
      </trkpt>
      <trkpt lat="47.34905" lon="-2.40804">
        <ele>2.5999999046326</ele>
        <time>2022-07-21T08:49:57.000Z</time>
      </trkpt>
      <trkpt lat="47.34913" lon="-2.40818">
        <ele>2.5999999046326</ele>
        <time>2022-07-21T08:49:59.000Z</time>
      </trkpt>
      <trkpt lat="47.34932" lon="-2.4086">
        <ele>2.5999999046326</ele>
        <time>2022-07-21T08:50:05.000Z</time>
      </trkpt>
      <trkpt lat="47.34933" lon="-2.40868">
        <ele>2.5999999046326</ele>
        <time>2022-07-21T08:50:06.000Z</time>
      </trkpt>
      <trkpt lat="47.34937" lon="-2.40916">
        <ele>2.5999999046326</ele>
        <time>2022-07-21T08:50:11.000Z</time>
      </trkpt>
      <trkpt lat="47.34935" lon="-2.40966">
        <ele>2.5999999046326</ele>
        <time>2022-07-21T08:50:16.000Z</time>
      </trkpt>
      <trkpt lat="47.3493" lon="-2.41022">
        <ele>2.5999999046326</ele>
        <time>2022-07-21T08:50:22.000Z</time>
      </trkpt>
      <trkpt lat="47.34931" lon="-2.41031">
        <ele>2.5999999046326</ele>
        <time>2022-07-21T08:50:23.000Z</time>
      </trkpt>
      <trkpt lat="47.34937" lon="-2.41057">
        <ele>2.5999999046326</ele>
        <time>2022-07-21T08:50:26.000Z</time>
      </trkpt>
      <trkpt lat="47.3494" lon="-2.41065">
        <ele>2.5999999046326</ele>
        <time>2022-07-21T08:50:27.000Z</time>
      </trkpt>
      <trkpt lat="47.34951" lon="-2.41088">
        <ele>2.5999999046326</ele>
        <time>2022-07-21T08:50:30.000Z</time>
      </trkpt>
      <trkpt lat="47.34971" lon="-2.41138">
        <ele>2.5999999046326</ele>
        <time>2022-07-21T08:50:36.000Z</time>
      </trkpt>
      <trkpt lat="47.34989" lon="-2.41177">
        <ele>2.5999999046326</ele>
        <time>2022-07-21T08:50:41.000Z</time>
      </trkpt>
      <trkpt lat="47.34999" lon="-2.41201">
        <ele>2.5999999046326</ele>
        <time>2022-07-21T08:50:44.000Z</time>
      </trkpt>
      <trkpt lat="47.35004" lon="-2.41217">
        <ele>2.5999999046326</ele>
        <time>2022-07-21T08:50:46.000Z</time>
      </trkpt>
      <trkpt lat="47.35025" lon="-2.41262">
        <ele>2.5999999046326</ele>
        <time>2022-07-21T08:50:52.000Z</time>
      </trkpt>
      <trkpt lat="47.35041" lon="-2.41305">
        <ele>2.5999999046326</ele>
        <time>2022-07-21T08:50:57.000Z</time>
      </trkpt>
      <trkpt lat="47.35055" lon="-2.41344">
        <ele>2.5999999046326</ele>
        <time>2022-07-21T08:51:02.000Z</time>
      </trkpt>
      <trkpt lat="47.35074" lon="-2.41393">
        <ele>2.5999999046326</ele>
        <time>2022-07-21T08:51:09.000Z</time>
      </trkpt>
      <trkpt lat="47.35071" lon="-2.4141">
        <ele>2.5999999046326</ele>
        <time>2022-07-21T08:51:12.000Z</time>
      </trkpt>
      <trkpt lat="47.35058" lon="-2.41417">
        <ele>2.5999999046326</ele>
        <time>2022-07-21T08:51:15.000Z</time>
      </trkpt>
      <trkpt lat="47.35053" lon="-2.41419">
        <ele>2.5999999046326</ele>
        <time>2022-07-21T08:51:16.000Z</time>
      </trkpt>
      <trkpt lat="47.3503" lon="-2.4143">
        <ele>2.5999999046326</ele>
        <time>2022-07-21T08:51:20.000Z</time>
      </trkpt>
      <trkpt lat="47.34994" lon="-2.41446">
        <ele>2.5999999046326</ele>
        <time>2022-07-21T08:51:26.000Z</time>
      </trkpt>
      <trkpt lat="47.34943" lon="-2.41463">
        <ele>2.5999999046326</ele>
        <time>2022-07-21T08:51:34.000Z</time>
      </trkpt>
      <trkpt lat="47.3493" lon="-2.41466">
        <ele>2.5999999046326</ele>
        <time>2022-07-21T08:51:36.000Z</time>
      </trkpt>
      <trkpt lat="47.34899" lon="-2.41477">
        <ele>2.5999999046326</ele>
        <time>2022-07-21T08:51:41.000Z</time>
      </trkpt>
      <trkpt lat="47.34866" lon="-2.41488">
        <ele>2.5999999046326</ele>
        <time>2022-07-21T08:51:47.000Z</time>
      </trkpt>
      <trkpt lat="47.34826" lon="-2.41499">
        <ele>2.5999999046326</ele>
        <time>2022-07-21T08:51:54.000Z</time>
      </trkpt>
      <trkpt lat="47.34797" lon="-2.41511">
        <ele>2.5999999046326</ele>
        <time>2022-07-21T08:51:59.000Z</time>
      </trkpt>
      <trkpt lat="47.34791" lon="-2.41514">
        <ele>2.5999999046326</ele>
        <time>2022-07-21T08:52:00.000Z</time>
      </trkpt>
      <trkpt lat="47.34773" lon="-2.4152">
        <ele>2.5999999046326</ele>
        <time>2022-07-21T08:52:03.000Z</time>
      </trkpt>
      <trkpt lat="47.3476" lon="-2.41524">
        <ele>2.5999999046326</ele>
        <time>2022-07-21T08:52:05.000Z</time>
      </trkpt>
      <trkpt lat="47.34736" lon="-2.41532">
        <ele>3</ele>
        <time>2022-07-21T08:52:09.000Z</time>
      </trkpt>
      <trkpt lat="47.34731" lon="-2.41533">
        <ele>3.4000000953674</ele>
        <time>2022-07-21T08:52:10.000Z</time>
      </trkpt>
      <trkpt lat="47.34726" lon="-2.41534">
        <ele>3.7999999523163</ele>
        <time>2022-07-21T08:52:11.000Z</time>
      </trkpt>
      <trkpt lat="47.3472" lon="-2.41536">
        <ele>4.1999998092651</ele>
        <time>2022-07-21T08:52:12.000Z</time>
      </trkpt>
      <trkpt lat="47.34715" lon="-2.41538">
        <ele>4.8000001907349</ele>
        <time>2022-07-21T08:52:13.000Z</time>
      </trkpt>
      <trkpt lat="47.34704" lon="-2.4154">
        <ele>4.8000001907349</ele>
        <time>2022-07-21T08:52:15.000Z</time>
      </trkpt>
      <trkpt lat="47.34671" lon="-2.41549">
        <ele>5.1999998092651</ele>
        <time>2022-07-21T08:52:21.000Z</time>
      </trkpt>
      <trkpt lat="47.34664" lon="-2.41551">
        <ele>5.5999999046326</ele>
        <time>2022-07-21T08:52:22.000Z</time>
      </trkpt>
      <trkpt lat="47.34658" lon="-2.41552">
        <ele>6</ele>
        <time>2022-07-21T08:52:23.000Z</time>
      </trkpt>
      <trkpt lat="47.34653" lon="-2.41553">
        <ele>6.4000000953674</ele>
        <time>2022-07-21T08:52:24.000Z</time>
      </trkpt>
      <trkpt lat="47.34647" lon="-2.41555">
        <ele>6.8000001907349</ele>
        <time>2022-07-21T08:52:25.000Z</time>
      </trkpt>
      <trkpt lat="47.34621" lon="-2.41567">
        <ele>6.8000001907349</ele>
        <time>2022-07-21T08:52:29.000Z</time>
      </trkpt>
      <trkpt lat="47.34581" lon="-2.41585">
        <ele>6.8000001907349</ele>
        <time>2022-07-21T08:52:35.000Z</time>
      </trkpt>
      <trkpt lat="47.34569" lon="-2.4159">
        <ele>6.8000001907349</ele>
        <time>2022-07-21T08:52:37.000Z</time>
      </trkpt>
      <trkpt lat="47.34538" lon="-2.41601">
        <ele>6.8000001907349</ele>
        <time>2022-07-21T08:52:42.000Z</time>
      </trkpt>
      <trkpt lat="47.34533" lon="-2.41604">
        <ele>6.8000001907349</ele>
        <time>2022-07-21T08:52:43.000Z</time>
      </trkpt>
      <trkpt lat="47.34509" lon="-2.41613">
        <ele>6.8000001907349</ele>
        <time>2022-07-21T08:52:47.000Z</time>
      </trkpt>
      <trkpt lat="47.34493" lon="-2.41621">
        <ele>6.8000001907349</ele>
        <time>2022-07-21T08:52:50.000Z</time>
      </trkpt>
      <trkpt lat="47.34482" lon="-2.41628">
        <ele>6.8000001907349</ele>
        <time>2022-07-21T08:52:52.000Z</time>
      </trkpt>
      <trkpt lat="47.34476" lon="-2.41631">
        <ele>7.1999998092651</ele>
        <time>2022-07-21T08:52:53.000Z</time>
      </trkpt>
      <trkpt lat="47.3447" lon="-2.41635">
        <ele>7.5999999046326</ele>
        <time>2022-07-21T08:52:54.000Z</time>
      </trkpt>
      <trkpt lat="47.34465" lon="-2.41639">
        <ele>8</ele>
        <time>2022-07-21T08:52:55.000Z</time>
      </trkpt>
      <trkpt lat="47.34459" lon="-2.41643">
        <ele>8.3999996185303</ele>
        <time>2022-07-21T08:52:56.000Z</time>
      </trkpt>
      <trkpt lat="47.34454" lon="-2.41648">
        <ele>8.8000001907349</ele>
        <time>2022-07-21T08:52:57.000Z</time>
      </trkpt>
      <trkpt lat="47.34449" lon="-2.41651">
        <ele>8.8000001907349</ele>
        <time>2022-07-21T08:52:58.000Z</time>
      </trkpt>
      <trkpt lat="47.34432" lon="-2.41672">
        <ele>8.8000001907349</ele>
        <time>2022-07-21T08:53:02.000Z</time>
      </trkpt>
      <trkpt lat="47.34417" lon="-2.41689">
        <ele>8.8000001907349</ele>
        <time>2022-07-21T08:53:05.000Z</time>
      </trkpt>
      <trkpt lat="47.34406" lon="-2.41697">
        <ele>8.8000001907349</ele>
        <time>2022-07-21T08:53:07.000Z</time>
      </trkpt>
      <trkpt lat="47.34388" lon="-2.41708">
        <ele>9.3999996185303</ele>
        <time>2022-07-21T08:53:10.000Z</time>
      </trkpt>
      <trkpt lat="47.34382" lon="-2.41712">
        <ele>9.8000001907349</ele>
        <time>2022-07-21T08:53:11.000Z</time>
      </trkpt>
      <trkpt lat="47.34376" lon="-2.41715">
        <ele>10.199999809265</ele>
        <time>2022-07-21T08:53:12.000Z</time>
      </trkpt>
      <trkpt lat="47.3437" lon="-2.41719">
        <ele>10.60000038147</ele>
        <time>2022-07-21T08:53:13.000Z</time>
      </trkpt>
      <trkpt lat="47.34365" lon="-2.41723">
        <ele>11</ele>
        <time>2022-07-21T08:53:14.000Z</time>
      </trkpt>
      <trkpt lat="47.34339" lon="-2.41737">
        <ele>11</ele>
        <time>2022-07-21T08:53:19.000Z</time>
      </trkpt>
      <trkpt lat="47.34333" lon="-2.41739">
        <ele>11.39999961853</ele>
        <time>2022-07-21T08:53:20.000Z</time>
      </trkpt>
      <trkpt lat="47.34327" lon="-2.41742">
        <ele>12.199999809265</ele>
        <time>2022-07-21T08:53:21.000Z</time>
      </trkpt>
      <trkpt lat="47.34322" lon="-2.41745">
        <ele>12.60000038147</ele>
        <time>2022-07-21T08:53:22.000Z</time>
      </trkpt>
      <trkpt lat="47.34316" lon="-2.41748">
        <ele>13</ele>
        <time>2022-07-21T08:53:23.000Z</time>
      </trkpt>
      <trkpt lat="47.34304" lon="-2.41754">
        <ele>13</ele>
        <time>2022-07-21T08:53:25.000Z</time>
      </trkpt>
      <trkpt lat="47.34293" lon="-2.41759">
        <ele>13</ele>
        <time>2022-07-21T08:53:27.000Z</time>
      </trkpt>
      <trkpt lat="47.34276" lon="-2.4177">
        <ele>13</ele>
        <time>2022-07-21T08:53:30.000Z</time>
      </trkpt>
      <trkpt lat="47.34255" lon="-2.41782">
        <ele>13.39999961853</ele>
        <time>2022-07-21T08:53:34.000Z</time>
      </trkpt>
      <trkpt lat="47.3425" lon="-2.41783">
        <ele>13.800000190735</ele>
        <time>2022-07-21T08:53:35.000Z</time>
      </trkpt>
      <trkpt lat="47.34244" lon="-2.41783">
        <ele>14.39999961853</ele>
        <time>2022-07-21T08:53:36.000Z</time>
      </trkpt>
      <trkpt lat="47.34238" lon="-2.41779">
        <ele>14.800000190735</ele>
        <time>2022-07-21T08:53:37.000Z</time>
      </trkpt>
      <trkpt lat="47.34234" lon="-2.41774">
        <ele>15.199999809265</ele>
        <time>2022-07-21T08:53:38.000Z</time>
      </trkpt>
      <trkpt lat="47.34231" lon="-2.41768">
        <ele>15.199999809265</ele>
        <time>2022-07-21T08:53:39.000Z</time>
      </trkpt>
      <trkpt lat="47.34224" lon="-2.41748">
        <ele>15.199999809265</ele>
        <time>2022-07-21T08:53:42.000Z</time>
      </trkpt>
      <trkpt lat="47.34222" lon="-2.41741">
        <ele>15.199999809265</ele>
        <time>2022-07-21T08:53:43.000Z</time>
      </trkpt>
      <trkpt lat="47.34211" lon="-2.41707">
        <ele>15.199999809265</ele>
        <time>2022-07-21T08:53:49.000Z</time>
      </trkpt>
      <trkpt lat="47.34201" lon="-2.417">
        <ele>15.199999809265</ele>
        <time>2022-07-21T08:53:53.000Z</time>
      </trkpt>
      <trkpt lat="47.3419" lon="-2.41703">
        <ele>15.199999809265</ele>
        <time>2022-07-21T08:53:58.000Z</time>
      </trkpt>
      <trkpt lat="47.34175" lon="-2.41715">
        <ele>15.199999809265</ele>
        <time>2022-07-21T08:54:05.000Z</time>
      </trkpt>
      <trkpt lat="47.34156" lon="-2.41737">
        <ele>15.199999809265</ele>
        <time>2022-07-21T08:54:13.000Z</time>
      </trkpt>
      <trkpt lat="47.34134" lon="-2.41757">
        <ele>15.199999809265</ele>
        <time>2022-07-21T08:54:21.000Z</time>
      </trkpt>
      <trkpt lat="47.34123" lon="-2.41764">
        <ele>15.60000038147</ele>
        <time>2022-07-21T08:54:25.000Z</time>
      </trkpt>
      <trkpt lat="47.3412" lon="-2.41765">
        <ele>16</ele>
        <time>2022-07-21T08:54:26.000Z</time>
      </trkpt>
      <trkpt lat="47.34117" lon="-2.41767">
        <ele>16.39999961853</ele>
        <time>2022-07-21T08:54:27.000Z</time>
      </trkpt>
      <trkpt lat="47.34115" lon="-2.4177">
        <ele>16.799999237061</ele>
        <time>2022-07-21T08:54:28.000Z</time>
      </trkpt>
      <trkpt lat="47.34112" lon="-2.41772">
        <ele>17.200000762939</ele>
        <time>2022-07-21T08:54:29.000Z</time>
      </trkpt>
      <trkpt lat="47.341" lon="-2.41785">
        <ele>17.200000762939</ele>
        <time>2022-07-21T08:54:34.000Z</time>
      </trkpt>
      <trkpt lat="47.34074" lon="-2.41809">
        <ele>17.200000762939</ele>
        <time>2022-07-21T08:54:44.000Z</time>
      </trkpt>
      <trkpt lat="47.34057" lon="-2.41829">
        <ele>17.60000038147</ele>
        <time>2022-07-21T08:54:49.000Z</time>
      </trkpt>
      <trkpt lat="47.34054" lon="-2.41834">
        <ele>18</ele>
        <time>2022-07-21T08:54:50.000Z</time>
      </trkpt>
      <trkpt lat="47.34051" lon="-2.41839">
        <ele>18.60000038147</ele>
        <time>2022-07-21T08:54:51.000Z</time>
      </trkpt>
      <trkpt lat="47.34047" lon="-2.41845">
        <ele>19</ele>
        <time>2022-07-21T08:54:52.000Z</time>
      </trkpt>
      <trkpt lat="47.34044" lon="-2.41849">
        <ele>19.39999961853</ele>
        <time>2022-07-21T08:54:53.000Z</time>
      </trkpt>
      <trkpt lat="47.34034" lon="-2.41865">
        <ele>19.39999961853</ele>
        <time>2022-07-21T08:54:56.000Z</time>
      </trkpt>
      <trkpt lat="47.34009" lon="-2.41906">
        <ele>19.39999961853</ele>
        <time>2022-07-21T08:55:03.000Z</time>
      </trkpt>
      <trkpt lat="47.3398" lon="-2.41948">
        <ele>19.39999961853</ele>
        <time>2022-07-21T08:55:10.000Z</time>
      </trkpt>
      <trkpt lat="47.33971" lon="-2.41959">
        <ele>19.799999237061</ele>
        <time>2022-07-21T08:55:12.000Z</time>
      </trkpt>
      <trkpt lat="47.33968" lon="-2.41962">
        <ele>20.200000762939</ele>
        <time>2022-07-21T08:55:13.000Z</time>
      </trkpt>
      <trkpt lat="47.33965" lon="-2.41967">
        <ele>20.60000038147</ele>
        <time>2022-07-21T08:55:14.000Z</time>
      </trkpt>
      <trkpt lat="47.33962" lon="-2.41971">
        <ele>21.200000762939</ele>
        <time>2022-07-21T08:55:15.000Z</time>
      </trkpt>
      <trkpt lat="47.33961" lon="-2.41975">
        <ele>21.60000038147</ele>
        <time>2022-07-21T08:55:16.000Z</time>
      </trkpt>
      <trkpt lat="47.33959" lon="-2.41984">
        <ele>21.60000038147</ele>
        <time>2022-07-21T08:55:19.000Z</time>
      </trkpt>
      <trkpt lat="47.33955" lon="-2.4199">
        <ele>21.60000038147</ele>
        <time>2022-07-21T08:55:22.000Z</time>
      </trkpt>
      <trkpt lat="47.33952" lon="-2.4199">
        <ele>21.60000038147</ele>
        <time>2022-07-21T08:55:24.000Z</time>
      </trkpt>
      <trkpt lat="47.33953" lon="-2.41985">
        <ele>21.60000038147</ele>
        <time>2022-07-21T08:55:27.000Z</time>
      </trkpt>
      <trkpt lat="47.33954" lon="-2.41983">
        <ele>21.60000038147</ele>
        <time>2022-07-21T08:55:28.000Z</time>
      </trkpt>
      <trkpt lat="47.33966" lon="-2.41968">
        <ele>21.60000038147</ele>
        <time>2022-07-21T08:55:34.000Z</time>
      </trkpt>
      <trkpt lat="47.33971" lon="-2.41959">
        <ele>21.60000038147</ele>
        <time>2022-07-21T08:55:37.000Z</time>
      </trkpt>
      <trkpt lat="47.33972" lon="-2.41949">
        <ele>21.60000038147</ele>
        <time>2022-07-21T08:55:39.000Z</time>
      </trkpt>
      <trkpt lat="47.33972" lon="-2.41937">
        <ele>21.60000038147</ele>
        <time>2022-07-21T08:55:41.000Z</time>
      </trkpt>
      <trkpt lat="47.33968" lon="-2.41925">
        <ele>21.60000038147</ele>
        <time>2022-07-21T08:55:43.000Z</time>
      </trkpt>
      <trkpt lat="47.33954" lon="-2.41914">
        <ele>21.60000038147</ele>
        <time>2022-07-21T08:55:46.000Z</time>
      </trkpt>
      <trkpt lat="47.3395" lon="-2.41911">
        <ele>21.60000038147</ele>
        <time>2022-07-21T08:55:47.000Z</time>
      </trkpt>
      <trkpt lat="47.33918" lon="-2.41889">
        <ele>21.60000038147</ele>
        <time>2022-07-21T08:55:54.000Z</time>
      </trkpt>
      <trkpt lat="47.33907" lon="-2.41869">
        <ele>22</ele>
        <time>2022-07-21T08:55:58.000Z</time>
      </trkpt>
      <trkpt lat="47.33907" lon="-2.41864">
        <ele>22.39999961853</ele>
        <time>2022-07-21T08:55:59.000Z</time>
      </trkpt>
      <trkpt lat="47.33907" lon="-2.41859">
        <ele>23</ele>
        <time>2022-07-21T08:56:00.000Z</time>
      </trkpt>
      <trkpt lat="47.33906" lon="-2.41855">
        <ele>23.39999961853</ele>
        <time>2022-07-21T08:56:01.000Z</time>
      </trkpt>
      <trkpt lat="47.33907" lon="-2.41851">
        <ele>23.799999237061</ele>
        <time>2022-07-21T08:56:02.000Z</time>
      </trkpt>
      <trkpt lat="47.33907" lon="-2.41846">
        <ele>23.799999237061</ele>
        <time>2022-07-21T08:56:03.000Z</time>
      </trkpt>
      <trkpt lat="47.33908" lon="-2.41834">
        <ele>23.799999237061</ele>
        <time>2022-07-21T08:56:06.000Z</time>
      </trkpt>
      <trkpt lat="47.3391" lon="-2.41823">
        <ele>23.799999237061</ele>
        <time>2022-07-21T08:56:10.000Z</time>
      </trkpt>
      <trkpt lat="47.33918" lon="-2.41804">
        <ele>23.799999237061</ele>
        <time>2022-07-21T08:56:15.000Z</time>
      </trkpt>
      <trkpt lat="47.33918" lon="-2.41795">
        <ele>23.799999237061</ele>
        <time>2022-07-21T08:56:18.000Z</time>
      </trkpt>
      <trkpt lat="47.33917" lon="-2.41793">
        <ele>23.799999237061</ele>
        <time>2022-07-21T08:56:19.000Z</time>
      </trkpt>
      <trkpt lat="47.33912" lon="-2.41787">
        <ele>23.799999237061</ele>
        <time>2022-07-21T08:56:23.000Z</time>
      </trkpt>
      <trkpt lat="47.33912" lon="-2.41786">
        <ele>23.799999237061</ele>
        <time>2022-07-21T08:56:24.000Z</time>
      </trkpt>
      <trkpt lat="47.33915" lon="-2.41777">
        <ele>23.799999237061</ele>
        <time>2022-07-21T08:56:30.000Z</time>
      </trkpt>
      <trkpt lat="47.33918" lon="-2.41767">
        <ele>23.799999237061</ele>
        <time>2022-07-21T08:56:35.000Z</time>
      </trkpt>
      <trkpt lat="47.33915" lon="-2.41779">
        <ele>21.799999237061</ele>
        <time>2022-07-21T08:57:34.000Z</time>
      </trkpt>
      <trkpt lat="47.33914" lon="-2.41783">
        <ele>21.799999237061</ele>
        <time>2022-07-21T08:57:36.000Z</time>
      </trkpt>
      <trkpt lat="47.33915" lon="-2.41794">
        <ele>21.799999237061</ele>
        <time>2022-07-21T08:57:40.000Z</time>
      </trkpt>
      <trkpt lat="47.33918" lon="-2.4181">
        <ele>21.799999237061</ele>
        <time>2022-07-21T08:57:44.000Z</time>
      </trkpt>
      <trkpt lat="47.33916" lon="-2.41818">
        <ele>21.799999237061</ele>
        <time>2022-07-21T08:57:46.000Z</time>
      </trkpt>
      <trkpt lat="47.33912" lon="-2.41832">
        <ele>21.799999237061</ele>
        <time>2022-07-21T08:57:49.000Z</time>
      </trkpt>
      <trkpt lat="47.33909" lon="-2.41855">
        <ele>21.799999237061</ele>
        <time>2022-07-21T08:57:54.000Z</time>
      </trkpt>
      <trkpt lat="47.33912" lon="-2.41871">
        <ele>21.799999237061</ele>
        <time>2022-07-21T08:57:57.000Z</time>
      </trkpt>
      <trkpt lat="47.33914" lon="-2.41876">
        <ele>21.799999237061</ele>
        <time>2022-07-21T08:57:58.000Z</time>
      </trkpt>
      <trkpt lat="47.33931" lon="-2.41897">
        <ele>21.799999237061</ele>
        <time>2022-07-21T08:58:03.000Z</time>
      </trkpt>
      <trkpt lat="47.33971" lon="-2.41927">
        <ele>21.799999237061</ele>
        <time>2022-07-21T08:58:12.000Z</time>
      </trkpt>
      <trkpt lat="47.33976" lon="-2.41938">
        <ele>21.799999237061</ele>
        <time>2022-07-21T08:58:15.000Z</time>
      </trkpt>
      <trkpt lat="47.33976" lon="-2.41942">
        <ele>21.799999237061</ele>
        <time>2022-07-21T08:58:18.000Z</time>
      </trkpt>
      <trkpt lat="47.33977" lon="-2.41942">
        <ele>21.799999237061</ele>
        <time>2022-07-21T08:58:55.000Z</time>
      </trkpt>
      <trkpt lat="47.33971" lon="-2.41957">
        <ele>21.799999237061</ele>
        <time>2022-07-21T08:59:00.000Z</time>
      </trkpt>
      <trkpt lat="47.33968" lon="-2.41961">
        <ele>21.799999237061</ele>
        <time>2022-07-21T08:59:01.000Z</time>
      </trkpt>
      <trkpt lat="47.33958" lon="-2.41974">
        <ele>21.799999237061</ele>
        <time>2022-07-21T08:59:04.000Z</time>
      </trkpt>
      <trkpt lat="47.33954" lon="-2.41979">
        <ele>21.799999237061</ele>
        <time>2022-07-21T08:59:05.000Z</time>
      </trkpt>
      <trkpt lat="47.33921" lon="-2.42013">
        <ele>21.799999237061</ele>
        <time>2022-07-21T08:59:12.000Z</time>
      </trkpt>
      <trkpt lat="47.33876" lon="-2.42054">
        <ele>21.799999237061</ele>
        <time>2022-07-21T08:59:21.000Z</time>
      </trkpt>
      <trkpt lat="47.33835" lon="-2.42082">
        <ele>21.799999237061</ele>
        <time>2022-07-21T08:59:29.000Z</time>
      </trkpt>
      <trkpt lat="47.3383" lon="-2.42083">
        <ele>21.799999237061</ele>
        <time>2022-07-21T08:59:30.000Z</time>
      </trkpt>
      <trkpt lat="47.3382" lon="-2.42077">
        <ele>21.799999237061</ele>
        <time>2022-07-21T08:59:32.000Z</time>
      </trkpt>
      <trkpt lat="47.33812" lon="-2.42068">
        <ele>22.200000762939</ele>
        <time>2022-07-21T08:59:34.000Z</time>
      </trkpt>
      <trkpt lat="47.33809" lon="-2.42062">
        <ele>22.60000038147</ele>
        <time>2022-07-21T08:59:35.000Z</time>
      </trkpt>
      <trkpt lat="47.33807" lon="-2.42057">
        <ele>23</ele>
        <time>2022-07-21T08:59:36.000Z</time>
      </trkpt>
      <trkpt lat="47.33804" lon="-2.42052">
        <ele>23.60000038147</ele>
        <time>2022-07-21T08:59:37.000Z</time>
      </trkpt>
      <trkpt lat="47.338" lon="-2.42046">
        <ele>24</ele>
        <time>2022-07-21T08:59:38.000Z</time>
      </trkpt>
      <trkpt lat="47.33797" lon="-2.42033">
        <ele>24</ele>
        <time>2022-07-21T08:59:40.000Z</time>
      </trkpt>
      <trkpt lat="47.33795" lon="-2.42026">
        <ele>24</ele>
        <time>2022-07-21T08:59:41.000Z</time>
      </trkpt>
      <trkpt lat="47.33788" lon="-2.41992">
        <ele>24.39999961853</ele>
        <time>2022-07-21T08:59:46.000Z</time>
      </trkpt>
      <trkpt lat="47.33787" lon="-2.41986">
        <ele>24.799999237061</ele>
        <time>2022-07-21T08:59:47.000Z</time>
      </trkpt>
      <trkpt lat="47.33786" lon="-2.4198">
        <ele>25.200000762939</ele>
        <time>2022-07-21T08:59:48.000Z</time>
      </trkpt>
      <trkpt lat="47.33785" lon="-2.41974">
        <ele>25.799999237061</ele>
        <time>2022-07-21T08:59:49.000Z</time>
      </trkpt>
      <trkpt lat="47.33784" lon="-2.41968">
        <ele>26.200000762939</ele>
        <time>2022-07-21T08:59:50.000Z</time>
      </trkpt>
      <trkpt lat="47.33778" lon="-2.41944">
        <ele>26.60000038147</ele>
        <time>2022-07-21T08:59:54.000Z</time>
      </trkpt>
      <trkpt lat="47.33777" lon="-2.41937">
        <ele>27</ele>
        <time>2022-07-21T08:59:55.000Z</time>
      </trkpt>
      <trkpt lat="47.33776" lon="-2.41931">
        <ele>27.39999961853</ele>
        <time>2022-07-21T08:59:56.000Z</time>
      </trkpt>
      <trkpt lat="47.33774" lon="-2.41925">
        <ele>28.200000762939</ele>
        <time>2022-07-21T08:59:57.000Z</time>
      </trkpt>
      <trkpt lat="47.33766" lon="-2.41884">
        <ele>28.200000762939</ele>
        <time>2022-07-21T09:00:03.000Z</time>
      </trkpt>
      <trkpt lat="47.33756" lon="-2.41833">
        <ele>28.200000762939</ele>
        <time>2022-07-21T09:00:10.000Z</time>
      </trkpt>
      <trkpt lat="47.33746" lon="-2.4178">
        <ele>28.200000762939</ele>
        <time>2022-07-21T09:00:16.000Z</time>
      </trkpt>
      <trkpt lat="47.33731" lon="-2.41705">
        <ele>28.200000762939</ele>
        <time>2022-07-21T09:00:23.000Z</time>
      </trkpt>
      <trkpt lat="47.33727" lon="-2.41683">
        <ele>27.799999237061</ele>
        <time>2022-07-21T09:00:25.000Z</time>
      </trkpt>
      <trkpt lat="47.33725" lon="-2.41672">
        <ele>27.39999961853</ele>
        <time>2022-07-21T09:00:26.000Z</time>
      </trkpt>
      <trkpt lat="47.33722" lon="-2.4166">
        <ele>27</ele>
        <time>2022-07-21T09:00:27.000Z</time>
      </trkpt>
      <trkpt lat="47.3372" lon="-2.41649">
        <ele>26.39999961853</ele>
        <time>2022-07-21T09:00:28.000Z</time>
      </trkpt>
      <trkpt lat="47.33717" lon="-2.41638">
        <ele>26</ele>
        <time>2022-07-21T09:00:29.000Z</time>
      </trkpt>
      <trkpt lat="47.3371" lon="-2.41616">
        <ele>26</ele>
        <time>2022-07-21T09:00:31.000Z</time>
      </trkpt>
      <trkpt lat="47.33706" lon="-2.41606">
        <ele>25.60000038147</ele>
        <time>2022-07-21T09:00:32.000Z</time>
      </trkpt>
      <trkpt lat="47.33702" lon="-2.41597">
        <ele>25.200000762939</ele>
        <time>2022-07-21T09:00:33.000Z</time>
      </trkpt>
      <trkpt lat="47.33697" lon="-2.41588">
        <ele>24.799999237061</ele>
        <time>2022-07-21T09:00:34.000Z</time>
      </trkpt>
      <trkpt lat="47.33692" lon="-2.4158">
        <ele>24.39999961853</ele>
        <time>2022-07-21T09:00:35.000Z</time>
      </trkpt>
      <trkpt lat="47.33687" lon="-2.41573">
        <ele>24</ele>
        <time>2022-07-21T09:00:36.000Z</time>
      </trkpt>
      <trkpt lat="47.33665" lon="-2.4155">
        <ele>24</ele>
        <time>2022-07-21T09:00:40.000Z</time>
      </trkpt>
      <trkpt lat="47.33637" lon="-2.41528">
        <ele>24</ele>
        <time>2022-07-21T09:00:46.000Z</time>
      </trkpt>
      <trkpt lat="47.33635" lon="-2.41525">
        <ele>24</ele>
        <time>2022-07-21T09:00:47.000Z</time>
      </trkpt>
      <trkpt lat="47.33635" lon="-2.41521">
        <ele>24</ele>
        <time>2022-07-21T09:00:49.000Z</time>
      </trkpt>
      <trkpt lat="47.33637" lon="-2.41507">
        <ele>24</ele>
        <time>2022-07-21T09:00:54.000Z</time>
      </trkpt>
      <trkpt lat="47.33641" lon="-2.41496">
        <ele>24</ele>
        <time>2022-07-21T09:00:56.000Z</time>
      </trkpt>
      <trkpt lat="47.33645" lon="-2.41482">
        <ele>24</ele>
        <time>2022-07-21T09:00:58.000Z</time>
      </trkpt>
      <trkpt lat="47.33648" lon="-2.41474">
        <ele>24</ele>
        <time>2022-07-21T09:00:59.000Z</time>
      </trkpt>
      <trkpt lat="47.33662" lon="-2.41447">
        <ele>24</ele>
        <time>2022-07-21T09:01:03.000Z</time>
      </trkpt>
      <trkpt lat="47.33691" lon="-2.41387">
        <ele>24</ele>
        <time>2022-07-21T09:01:11.000Z</time>
      </trkpt>
      <trkpt lat="47.33704" lon="-2.41357">
        <ele>23.60000038147</ele>
        <time>2022-07-21T09:01:15.000Z</time>
      </trkpt>
      <trkpt lat="47.33707" lon="-2.41349">
        <ele>23.200000762939</ele>
        <time>2022-07-21T09:01:16.000Z</time>
      </trkpt>
      <trkpt lat="47.33711" lon="-2.41342">
        <ele>22.799999237061</ele>
        <time>2022-07-21T09:01:17.000Z</time>
      </trkpt>
      <trkpt lat="47.33713" lon="-2.41333">
        <ele>22.39999961853</ele>
        <time>2022-07-21T09:01:18.000Z</time>
      </trkpt>
      <trkpt lat="47.33714" lon="-2.41325">
        <ele>22</ele>
        <time>2022-07-21T09:01:19.000Z</time>
      </trkpt>
      <trkpt lat="47.33705" lon="-2.41302">
        <ele>22</ele>
        <time>2022-07-21T09:01:22.000Z</time>
      </trkpt>
      <trkpt lat="47.33696" lon="-2.41292">
        <ele>22</ele>
        <time>2022-07-21T09:01:24.000Z</time>
      </trkpt>
      <trkpt lat="47.33676" lon="-2.41272">
        <ele>22</ele>
        <time>2022-07-21T09:01:28.000Z</time>
      </trkpt>
      <trkpt lat="47.3365" lon="-2.41255">
        <ele>22</ele>
        <time>2022-07-21T09:01:33.000Z</time>
      </trkpt>
      <trkpt lat="47.33645" lon="-2.41254">
        <ele>22</ele>
        <time>2022-07-21T09:01:34.000Z</time>
      </trkpt>
      <trkpt lat="47.33629" lon="-2.41258">
        <ele>22</ele>
        <time>2022-07-21T09:01:37.000Z</time>
      </trkpt>
      <trkpt lat="47.33623" lon="-2.41259">
        <ele>22</ele>
        <time>2022-07-21T09:01:38.000Z</time>
      </trkpt>
      <trkpt lat="47.33582" lon="-2.41266">
        <ele>22</ele>
        <time>2022-07-21T09:01:46.000Z</time>
      </trkpt>
      <trkpt lat="47.33551" lon="-2.41276">
        <ele>22</ele>
        <time>2022-07-21T09:01:52.000Z</time>
      </trkpt>
      <trkpt lat="47.33546" lon="-2.41279">
        <ele>22</ele>
        <time>2022-07-21T09:01:53.000Z</time>
      </trkpt>
      <trkpt lat="47.33537" lon="-2.41284">
        <ele>22</ele>
        <time>2022-07-21T09:01:55.000Z</time>
      </trkpt>
      <trkpt lat="47.33529" lon="-2.41281">
        <ele>22</ele>
        <time>2022-07-21T09:01:57.000Z</time>
      </trkpt>
      <trkpt lat="47.33522" lon="-2.41262">
        <ele>21.200000762939</ele>
        <time>2022-07-21T09:02:00.000Z</time>
      </trkpt>
      <trkpt lat="47.3352" lon="-2.41255">
        <ele>20.799999237061</ele>
        <time>2022-07-21T09:02:01.000Z</time>
      </trkpt>
      <trkpt lat="47.33518" lon="-2.41247">
        <ele>20.39999961853</ele>
        <time>2022-07-21T09:02:02.000Z</time>
      </trkpt>
      <trkpt lat="47.33516" lon="-2.41238">
        <ele>20</ele>
        <time>2022-07-21T09:02:03.000Z</time>
      </trkpt>
      <trkpt lat="47.33513" lon="-2.4123">
        <ele>20</ele>
        <time>2022-07-21T09:02:04.000Z</time>
      </trkpt>
      <trkpt lat="47.33508" lon="-2.41223">
        <ele>20</ele>
        <time>2022-07-21T09:02:05.000Z</time>
      </trkpt>
      <trkpt lat="47.33497" lon="-2.4121">
        <ele>19.39999961853</ele>
        <time>2022-07-21T09:02:07.000Z</time>
      </trkpt>
      <trkpt lat="47.33491" lon="-2.41204">
        <ele>19</ele>
        <time>2022-07-21T09:02:08.000Z</time>
      </trkpt>
      <trkpt lat="47.33485" lon="-2.412">
        <ele>18.60000038147</ele>
        <time>2022-07-21T09:02:09.000Z</time>
      </trkpt>
      <trkpt lat="47.33479" lon="-2.41195">
        <ele>18.200000762939</ele>
        <time>2022-07-21T09:02:10.000Z</time>
      </trkpt>
      <trkpt lat="47.33473" lon="-2.41189">
        <ele>17.60000038147</ele>
        <time>2022-07-21T09:02:11.000Z</time>
      </trkpt>
      <trkpt lat="47.33459" lon="-2.41168">
        <ele>17.60000038147</ele>
        <time>2022-07-21T09:02:14.000Z</time>
      </trkpt>
      <trkpt lat="47.33444" lon="-2.41154">
        <ele>17.60000038147</ele>
        <time>2022-07-21T09:02:17.000Z</time>
      </trkpt>
      <trkpt lat="47.33432" lon="-2.41149">
        <ele>17.60000038147</ele>
        <time>2022-07-21T09:02:19.000Z</time>
      </trkpt>
      <trkpt lat="47.33425" lon="-2.41147">
        <ele>18</ele>
        <time>2022-07-21T09:02:20.000Z</time>
      </trkpt>
      <trkpt lat="47.33419" lon="-2.41144">
        <ele>18.60000038147</ele>
        <time>2022-07-21T09:02:21.000Z</time>
      </trkpt>
      <trkpt lat="47.33413" lon="-2.41142">
        <ele>19</ele>
        <time>2022-07-21T09:02:22.000Z</time>
      </trkpt>
      <trkpt lat="47.33407" lon="-2.4114">
        <ele>19.39999961853</ele>
        <time>2022-07-21T09:02:23.000Z</time>
      </trkpt>
      <trkpt lat="47.334" lon="-2.41137">
        <ele>19.799999237061</ele>
        <time>2022-07-21T09:02:24.000Z</time>
      </trkpt>
      <trkpt lat="47.33371" lon="-2.41124">
        <ele>19.799999237061</ele>
        <time>2022-07-21T09:02:29.000Z</time>
      </trkpt>
      <trkpt lat="47.33354" lon="-2.41118">
        <ele>20.200000762939</ele>
        <time>2022-07-21T09:02:32.000Z</time>
      </trkpt>
      <trkpt lat="47.33348" lon="-2.41115">
        <ele>20.60000038147</ele>
        <time>2022-07-21T09:02:33.000Z</time>
      </trkpt>
      <trkpt lat="47.33344" lon="-2.41113">
        <ele>21</ele>
        <time>2022-07-21T09:02:34.000Z</time>
      </trkpt>
      <trkpt lat="47.33339" lon="-2.41109">
        <ele>21.39999961853</ele>
        <time>2022-07-21T09:02:35.000Z</time>
      </trkpt>
      <trkpt lat="47.33336" lon="-2.41105">
        <ele>21.799999237061</ele>
        <time>2022-07-21T09:02:36.000Z</time>
      </trkpt>
      <trkpt lat="47.33332" lon="-2.41093">
        <ele>21.799999237061</ele>
        <time>2022-07-21T09:02:38.000Z</time>
      </trkpt>
      <trkpt lat="47.33327" lon="-2.41084">
        <ele>21.799999237061</ele>
        <time>2022-07-21T09:02:40.000Z</time>
      </trkpt>
      <trkpt lat="47.33322" lon="-2.41081">
        <ele>21.799999237061</ele>
        <time>2022-07-21T09:02:41.000Z</time>
      </trkpt>
      <trkpt lat="47.33308" lon="-2.41071">
        <ele>22.200000762939</ele>
        <time>2022-07-21T09:02:44.000Z</time>
      </trkpt>
      <trkpt lat="47.33303" lon="-2.41067">
        <ele>22.60000038147</ele>
        <time>2022-07-21T09:02:45.000Z</time>
      </trkpt>
      <trkpt lat="47.33299" lon="-2.41064">
        <ele>23</ele>
        <time>2022-07-21T09:02:46.000Z</time>
      </trkpt>
      <trkpt lat="47.33294" lon="-2.4106">
        <ele>23.39999961853</ele>
        <time>2022-07-21T09:02:47.000Z</time>
      </trkpt>
      <trkpt lat="47.3329" lon="-2.41056">
        <ele>23.799999237061</ele>
        <time>2022-07-21T09:02:48.000Z</time>
      </trkpt>
      <trkpt lat="47.33286" lon="-2.41052">
        <ele>23.799999237061</ele>
        <time>2022-07-21T09:02:49.000Z</time>
      </trkpt>
      <trkpt lat="47.33267" lon="-2.41037">
        <ele>24.200000762939</ele>
        <time>2022-07-21T09:02:53.000Z</time>
      </trkpt>
      <trkpt lat="47.33263" lon="-2.41033">
        <ele>24.60000038147</ele>
        <time>2022-07-21T09:02:54.000Z</time>
      </trkpt>
      <trkpt lat="47.33259" lon="-2.41028">
        <ele>25.200000762939</ele>
        <time>2022-07-21T09:02:55.000Z</time>
      </trkpt>
      <trkpt lat="47.33255" lon="-2.41024">
        <ele>25.60000038147</ele>
        <time>2022-07-21T09:02:56.000Z</time>
      </trkpt>
      <trkpt lat="47.33251" lon="-2.41021">
        <ele>26</ele>
        <time>2022-07-21T09:02:57.000Z</time>
      </trkpt>
      <trkpt lat="47.3323" lon="-2.41003">
        <ele>26</ele>
        <time>2022-07-21T09:03:02.000Z</time>
      </trkpt>
      <trkpt lat="47.33208" lon="-2.40984">
        <ele>26.39999961853</ele>
        <time>2022-07-21T09:03:07.000Z</time>
      </trkpt>
      <trkpt lat="47.33204" lon="-2.4098">
        <ele>26.799999237061</ele>
        <time>2022-07-21T09:03:08.000Z</time>
      </trkpt>
      <trkpt lat="47.332" lon="-2.40976">
        <ele>27.200000762939</ele>
        <time>2022-07-21T09:03:09.000Z</time>
      </trkpt>
      <trkpt lat="47.33195" lon="-2.40972">
        <ele>27.60000038147</ele>
        <time>2022-07-21T09:03:10.000Z</time>
      </trkpt>
      <trkpt lat="47.3319" lon="-2.40969">
        <ele>28</ele>
        <time>2022-07-21T09:03:11.000Z</time>
      </trkpt>
      <trkpt lat="47.33158" lon="-2.40946">
        <ele>28</ele>
        <time>2022-07-21T09:03:18.000Z</time>
      </trkpt>
      <trkpt lat="47.33155" lon="-2.40944">
        <ele>28</ele>
        <time>2022-07-21T09:03:19.000Z</time>
      </trkpt>
      <trkpt lat="47.3314" lon="-2.4094">
        <ele>28</ele>
        <time>2022-07-21T09:03:23.000Z</time>
      </trkpt>
      <trkpt lat="47.33134" lon="-2.40942">
        <ele>28</ele>
        <time>2022-07-21T09:03:25.000Z</time>
      </trkpt>
      <trkpt lat="47.33129" lon="-2.40949">
        <ele>28</ele>
        <time>2022-07-21T09:03:27.000Z</time>
      </trkpt>
      <trkpt lat="47.33118" lon="-2.40977">
        <ele>28</ele>
        <time>2022-07-21T09:03:32.000Z</time>
      </trkpt>
      <trkpt lat="47.33115" lon="-2.40982">
        <ele>28</ele>
        <time>2022-07-21T09:03:33.000Z</time>
      </trkpt>
      <trkpt lat="47.33108" lon="-2.41001">
        <ele>28.39999961853</ele>
        <time>2022-07-21T09:03:36.000Z</time>
      </trkpt>
      <trkpt lat="47.33106" lon="-2.41007">
        <ele>28.799999237061</ele>
        <time>2022-07-21T09:03:37.000Z</time>
      </trkpt>
      <trkpt lat="47.33103" lon="-2.41014">
        <ele>29.799999237061</ele>
        <time>2022-07-21T09:03:38.000Z</time>
      </trkpt>
      <trkpt lat="47.33101" lon="-2.41021">
        <ele>30.200000762939</ele>
        <time>2022-07-21T09:03:39.000Z</time>
      </trkpt>
      <trkpt lat="47.33089" lon="-2.41055">
        <ele>30.200000762939</ele>
        <time>2022-07-21T09:03:44.000Z</time>
      </trkpt>
      <trkpt lat="47.33074" lon="-2.411">
        <ele>30.200000762939</ele>
        <time>2022-07-21T09:03:51.000Z</time>
      </trkpt>
      <trkpt lat="47.33051" lon="-2.41155">
        <ele>30.200000762939</ele>
        <time>2022-07-21T09:04:00.000Z</time>
      </trkpt>
      <trkpt lat="47.33048" lon="-2.41161">
        <ele>30.200000762939</ele>
        <time>2022-07-21T09:04:01.000Z</time>
      </trkpt>
      <trkpt lat="47.33038" lon="-2.41182">
        <ele>30.200000762939</ele>
        <time>2022-07-21T09:04:05.000Z</time>
      </trkpt>
      <trkpt lat="47.33018" lon="-2.41215">
        <ele>30.200000762939</ele>
        <time>2022-07-21T09:04:12.000Z</time>
      </trkpt>
      <trkpt lat="47.33007" lon="-2.41231">
        <ele>30.60000038147</ele>
        <time>2022-07-21T09:04:16.000Z</time>
      </trkpt>
      <trkpt lat="47.33004" lon="-2.41235">
        <ele>31</ele>
        <time>2022-07-21T09:04:17.000Z</time>
      </trkpt>
      <trkpt lat="47.33002" lon="-2.41239">
        <ele>31.39999961853</ele>
        <time>2022-07-21T09:04:18.000Z</time>
      </trkpt>
      <trkpt lat="47.32998" lon="-2.41243">
        <ele>31.799999237061</ele>
        <time>2022-07-21T09:04:19.000Z</time>
      </trkpt>
      <trkpt lat="47.32994" lon="-2.41245">
        <ele>32.200000762939</ele>
        <time>2022-07-21T09:04:20.000Z</time>
      </trkpt>
      <trkpt lat="47.32986" lon="-2.4125">
        <ele>32.200000762939</ele>
        <time>2022-07-21T09:04:22.000Z</time>
      </trkpt>
      <trkpt lat="47.32981" lon="-2.41252">
        <ele>32.200000762939</ele>
        <time>2022-07-21T09:04:23.000Z</time>
      </trkpt>
      <trkpt lat="47.32948" lon="-2.41265">
        <ele>32.200000762939</ele>
        <time>2022-07-21T09:04:30.000Z</time>
      </trkpt>
      <trkpt lat="47.32916" lon="-2.41271">
        <ele>32.200000762939</ele>
        <time>2022-07-21T09:04:36.000Z</time>
      </trkpt>
      <trkpt lat="47.32911" lon="-2.41271">
        <ele>32.200000762939</ele>
        <time>2022-07-21T09:04:37.000Z</time>
      </trkpt>
      <trkpt lat="47.32867" lon="-2.41275">
        <ele>32.200000762939</ele>
        <time>2022-07-21T09:04:45.000Z</time>
      </trkpt>
      <trkpt lat="47.32841" lon="-2.41279">
        <ele>32.200000762939</ele>
        <time>2022-07-21T09:04:51.000Z</time>
      </trkpt>
      <trkpt lat="47.32831" lon="-2.41284">
        <ele>32.200000762939</ele>
        <time>2022-07-21T09:04:55.000Z</time>
      </trkpt>
      <trkpt lat="47.32827" lon="-2.41286">
        <ele>32.200000762939</ele>
        <time>2022-07-21T09:04:56.000Z</time>
      </trkpt>
      <trkpt lat="47.32818" lon="-2.41285">
        <ele>32.200000762939</ele>
        <time>2022-07-21T09:04:58.000Z</time>
      </trkpt>
      <trkpt lat="47.32808" lon="-2.41286">
        <ele>32.200000762939</ele>
        <time>2022-07-21T09:05:00.000Z</time>
      </trkpt>
      <trkpt lat="47.32798" lon="-2.41286">
        <ele>32.200000762939</ele>
        <time>2022-07-21T09:05:02.000Z</time>
      </trkpt>
      <trkpt lat="47.32766" lon="-2.41294">
        <ele>32.200000762939</ele>
        <time>2022-07-21T09:05:09.000Z</time>
      </trkpt>
      <trkpt lat="47.3275" lon="-2.41303">
        <ele>32.200000762939</ele>
        <time>2022-07-21T09:05:13.000Z</time>
      </trkpt>
      <trkpt lat="47.32745" lon="-2.41311">
        <ele>32.599998474121</ele>
        <time>2022-07-21T09:05:15.000Z</time>
      </trkpt>
      <trkpt lat="47.32744" lon="-2.41317">
        <ele>33.400001525879</ele>
        <time>2022-07-21T09:05:16.000Z</time>
      </trkpt>
      <trkpt lat="47.32743" lon="-2.41322">
        <ele>33.799999237061</ele>
        <time>2022-07-21T09:05:17.000Z</time>
      </trkpt>
      <trkpt lat="47.32743" lon="-2.41328">
        <ele>34.200000762939</ele>
        <time>2022-07-21T09:05:18.000Z</time>
      </trkpt>
      <trkpt lat="47.32739" lon="-2.41336">
        <ele>34.200000762939</ele>
        <time>2022-07-21T09:05:20.000Z</time>
      </trkpt>
      <trkpt lat="47.32726" lon="-2.41339">
        <ele>34.200000762939</ele>
        <time>2022-07-21T09:05:23.000Z</time>
      </trkpt>
      <trkpt lat="47.32714" lon="-2.41331">
        <ele>34.200000762939</ele>
        <time>2022-07-21T09:05:26.000Z</time>
      </trkpt>
      <trkpt lat="47.32693" lon="-2.4133">
        <ele>34.200000762939</ele>
        <time>2022-07-21T09:05:30.000Z</time>
      </trkpt>
      <trkpt lat="47.32677" lon="-2.41337">
        <ele>34.200000762939</ele>
        <time>2022-07-21T09:05:33.000Z</time>
      </trkpt>
      <trkpt lat="47.32667" lon="-2.41343">
        <ele>34.200000762939</ele>
        <time>2022-07-21T09:05:35.000Z</time>
      </trkpt>
      <trkpt lat="47.32662" lon="-2.41346">
        <ele>34.200000762939</ele>
        <time>2022-07-21T09:05:36.000Z</time>
      </trkpt>
      <trkpt lat="47.32638" lon="-2.4136">
        <ele>34.599998474121</ele>
        <time>2022-07-21T09:05:41.000Z</time>
      </trkpt>
      <trkpt lat="47.32634" lon="-2.41362">
        <ele>35</ele>
        <time>2022-07-21T09:05:42.000Z</time>
      </trkpt>
      <trkpt lat="47.32629" lon="-2.41365">
        <ele>35.400001525879</ele>
        <time>2022-07-21T09:05:43.000Z</time>
      </trkpt>
      <trkpt lat="47.32625" lon="-2.41367">
        <ele>35.799999237061</ele>
        <time>2022-07-21T09:05:44.000Z</time>
      </trkpt>
      <trkpt lat="47.3262" lon="-2.4137">
        <ele>36.200000762939</ele>
        <time>2022-07-21T09:05:45.000Z</time>
      </trkpt>
      <trkpt lat="47.32587" lon="-2.41392">
        <ele>36.200000762939</ele>
        <time>2022-07-21T09:05:53.000Z</time>
      </trkpt>
      <trkpt lat="47.32583" lon="-2.41396">
        <ele>36.200000762939</ele>
        <time>2022-07-21T09:05:54.000Z</time>
      </trkpt>
      <trkpt lat="47.3258" lon="-2.41409">
        <ele>36.200000762939</ele>
        <time>2022-07-21T09:05:56.000Z</time>
      </trkpt>
      <trkpt lat="47.32578" lon="-2.41449">
        <ele>36.599998474121</ele>
        <time>2022-07-21T09:06:02.000Z</time>
      </trkpt>
      <trkpt lat="47.32577" lon="-2.41454">
        <ele>37</ele>
        <time>2022-07-21T09:06:03.000Z</time>
      </trkpt>
      <trkpt lat="47.32576" lon="-2.41459">
        <ele>37.400001525879</ele>
        <time>2022-07-21T09:06:04.000Z</time>
      </trkpt>
      <trkpt lat="47.32573" lon="-2.41462">
        <ele>37.799999237061</ele>
        <time>2022-07-21T09:06:05.000Z</time>
      </trkpt>
      <trkpt lat="47.3257" lon="-2.41463">
        <ele>38.200000762939</ele>
        <time>2022-07-21T09:06:06.000Z</time>
      </trkpt>
      <trkpt lat="47.32563" lon="-2.41455">
        <ele>38.200000762939</ele>
        <time>2022-07-21T09:06:09.000Z</time>
      </trkpt>
      <trkpt lat="47.32553" lon="-2.41434">
        <ele>38.200000762939</ele>
        <time>2022-07-21T09:06:13.000Z</time>
      </trkpt>
      <trkpt lat="47.3255" lon="-2.41427">
        <ele>38.200000762939</ele>
        <time>2022-07-21T09:06:14.000Z</time>
      </trkpt>
      <trkpt lat="47.32529" lon="-2.41389">
        <ele>38.200000762939</ele>
        <time>2022-07-21T09:06:20.000Z</time>
      </trkpt>
      <trkpt lat="47.32505" lon="-2.41342">
        <ele>38.200000762939</ele>
        <time>2022-07-21T09:06:27.000Z</time>
      </trkpt>
      <trkpt lat="47.32498" lon="-2.41329">
        <ele>38.599998474121</ele>
        <time>2022-07-21T09:06:29.000Z</time>
      </trkpt>
      <trkpt lat="47.32494" lon="-2.41322">
        <ele>39.599998474121</ele>
        <time>2022-07-21T09:06:30.000Z</time>
      </trkpt>
      <trkpt lat="47.3249" lon="-2.41315">
        <ele>40</ele>
        <time>2022-07-21T09:06:31.000Z</time>
      </trkpt>
      <trkpt lat="47.32487" lon="-2.41308">
        <ele>40.400001525879</ele>
        <time>2022-07-21T09:06:32.000Z</time>
      </trkpt>
      <trkpt lat="47.32475" lon="-2.41287">
        <ele>40.400001525879</ele>
        <time>2022-07-21T09:06:35.000Z</time>
      </trkpt>
      <trkpt lat="47.32443" lon="-2.41223">
        <ele>40.400001525879</ele>
        <time>2022-07-21T09:06:44.000Z</time>
      </trkpt>
      <trkpt lat="47.32426" lon="-2.41192">
        <ele>40.400001525879</ele>
        <time>2022-07-21T09:06:49.000Z</time>
      </trkpt>
      <trkpt lat="47.32423" lon="-2.41189">
        <ele>40.400001525879</ele>
        <time>2022-07-21T09:06:50.000Z</time>
      </trkpt>
      <trkpt lat="47.32417" lon="-2.41176">
        <ele>40.400001525879</ele>
        <time>2022-07-21T09:06:53.000Z</time>
      </trkpt>
      <trkpt lat="47.32414" lon="-2.41171">
        <ele>40.400001525879</ele>
        <time>2022-07-21T09:06:54.000Z</time>
      </trkpt>
      <trkpt lat="47.32393" lon="-2.4113">
        <ele>40.400001525879</ele>
        <time>2022-07-21T09:07:01.000Z</time>
      </trkpt>
      <trkpt lat="47.32365" lon="-2.41072">
        <ele>40.400001525879</ele>
        <time>2022-07-21T09:07:10.000Z</time>
      </trkpt>
      <trkpt lat="47.32346" lon="-2.41043">
        <ele>40.400001525879</ele>
        <time>2022-07-21T09:07:15.000Z</time>
      </trkpt>
      <trkpt lat="47.32319" lon="-2.40992">
        <ele>40.400001525879</ele>
        <time>2022-07-21T09:07:22.000Z</time>
      </trkpt>
      <trkpt lat="47.32284" lon="-2.40926">
        <ele>40.400001525879</ele>
        <time>2022-07-21T09:07:30.000Z</time>
      </trkpt>
      <trkpt lat="47.3228" lon="-2.40918">
        <ele>40.400001525879</ele>
        <time>2022-07-21T09:07:31.000Z</time>
      </trkpt>
      <trkpt lat="47.3225" lon="-2.40863">
        <ele>40.400001525879</ele>
        <time>2022-07-21T09:07:38.000Z</time>
      </trkpt>
      <trkpt lat="47.32236" lon="-2.40841">
        <ele>40</ele>
        <time>2022-07-21T09:07:41.000Z</time>
      </trkpt>
      <trkpt lat="47.32232" lon="-2.40834">
        <ele>39.599998474121</ele>
        <time>2022-07-21T09:07:42.000Z</time>
      </trkpt>
      <trkpt lat="47.32228" lon="-2.40827">
        <ele>39</ele>
        <time>2022-07-21T09:07:43.000Z</time>
      </trkpt>
      <trkpt lat="47.32225" lon="-2.40822">
        <ele>38.599998474121</ele>
        <time>2022-07-21T09:07:44.000Z</time>
      </trkpt>
      <trkpt lat="47.32222" lon="-2.40818">
        <ele>38.200000762939</ele>
        <time>2022-07-21T09:07:45.000Z</time>
      </trkpt>
      <trkpt lat="47.32215" lon="-2.4081">
        <ele>38.200000762939</ele>
        <time>2022-07-21T09:07:49.000Z</time>
      </trkpt>
      <trkpt lat="47.32212" lon="-2.40805">
        <ele>38.200000762939</ele>
        <time>2022-07-21T09:07:51.000Z</time>
      </trkpt>
      <trkpt lat="47.32208" lon="-2.40796">
        <ele>38.200000762939</ele>
        <time>2022-07-21T09:07:54.000Z</time>
      </trkpt>
      <trkpt lat="47.32206" lon="-2.40792">
        <ele>38.200000762939</ele>
        <time>2022-07-21T09:07:55.000Z</time>
      </trkpt>
      <trkpt lat="47.32196" lon="-2.4078">
        <ele>38.200000762939</ele>
        <time>2022-07-21T09:07:58.000Z</time>
      </trkpt>
      <trkpt lat="47.32173" lon="-2.40748">
        <ele>38.200000762939</ele>
        <time>2022-07-21T09:08:04.000Z</time>
      </trkpt>
      <trkpt lat="47.32145" lon="-2.40713">
        <ele>38.200000762939</ele>
        <time>2022-07-21T09:08:10.000Z</time>
      </trkpt>
      <trkpt lat="47.32106" lon="-2.40672">
        <ele>38.200000762939</ele>
        <time>2022-07-21T09:08:17.000Z</time>
      </trkpt>
      <trkpt lat="47.3207" lon="-2.40634">
        <ele>38.200000762939</ele>
        <time>2022-07-21T09:08:23.000Z</time>
      </trkpt>
      <trkpt lat="47.32033" lon="-2.406">
        <ele>38.200000762939</ele>
        <time>2022-07-21T09:08:29.000Z</time>
      </trkpt>
      <trkpt lat="47.32027" lon="-2.40595">
        <ele>37.799999237061</ele>
        <time>2022-07-21T09:08:30.000Z</time>
      </trkpt>
      <trkpt lat="47.32021" lon="-2.4059">
        <ele>37.400001525879</ele>
        <time>2022-07-21T09:08:31.000Z</time>
      </trkpt>
      <trkpt lat="47.32015" lon="-2.40586">
        <ele>37</ele>
        <time>2022-07-21T09:08:32.000Z</time>
      </trkpt>
      <trkpt lat="47.32009" lon="-2.40581">
        <ele>36.599998474121</ele>
        <time>2022-07-21T09:08:33.000Z</time>
      </trkpt>
      <trkpt lat="47.32003" lon="-2.40576">
        <ele>36.200000762939</ele>
        <time>2022-07-21T09:08:34.000Z</time>
      </trkpt>
      <trkpt lat="47.31997" lon="-2.40571">
        <ele>36.200000762939</ele>
        <time>2022-07-21T09:08:35.000Z</time>
      </trkpt>
      <trkpt lat="47.31961" lon="-2.40542">
        <ele>36.200000762939</ele>
        <time>2022-07-21T09:08:41.000Z</time>
      </trkpt>
      <trkpt lat="47.31942" lon="-2.40527">
        <ele>36.200000762939</ele>
        <time>2022-07-21T09:08:44.000Z</time>
      </trkpt>
      <trkpt lat="47.31924" lon="-2.40514">
        <ele>36.200000762939</ele>
        <time>2022-07-21T09:08:47.000Z</time>
      </trkpt>
      <trkpt lat="47.31917" lon="-2.40509">
        <ele>35.799999237061</ele>
        <time>2022-07-21T09:08:48.000Z</time>
      </trkpt>
      <trkpt lat="47.31911" lon="-2.40505">
        <ele>35.400001525879</ele>
        <time>2022-07-21T09:08:49.000Z</time>
      </trkpt>
      <trkpt lat="47.31906" lon="-2.405">
        <ele>34.799999237061</ele>
        <time>2022-07-21T09:08:50.000Z</time>
      </trkpt>
      <trkpt lat="47.319" lon="-2.40495">
        <ele>34.400001525879</ele>
        <time>2022-07-21T09:08:51.000Z</time>
      </trkpt>
      <trkpt lat="47.31894" lon="-2.40491">
        <ele>34</ele>
        <time>2022-07-21T09:08:52.000Z</time>
      </trkpt>
      <trkpt lat="47.31882" lon="-2.40481">
        <ele>34</ele>
        <time>2022-07-21T09:08:54.000Z</time>
      </trkpt>
      <trkpt lat="47.31851" lon="-2.40455">
        <ele>34</ele>
        <time>2022-07-21T09:08:59.000Z</time>
      </trkpt>
      <trkpt lat="47.31818" lon="-2.40432">
        <ele>33.599998474121</ele>
        <time>2022-07-21T09:09:04.000Z</time>
      </trkpt>
      <trkpt lat="47.31812" lon="-2.40427">
        <ele>33.200000762939</ele>
        <time>2022-07-21T09:09:05.000Z</time>
      </trkpt>
      <trkpt lat="47.31805" lon="-2.40422">
        <ele>32.799999237061</ele>
        <time>2022-07-21T09:09:06.000Z</time>
      </trkpt>
      <trkpt lat="47.31798" lon="-2.40417">
        <ele>32.400001525879</ele>
        <time>2022-07-21T09:09:07.000Z</time>
      </trkpt>
      <trkpt lat="47.31791" lon="-2.40411">
        <ele>32</ele>
        <time>2022-07-21T09:09:08.000Z</time>
      </trkpt>
      <trkpt lat="47.31771" lon="-2.40397">
        <ele>32</ele>
        <time>2022-07-21T09:09:11.000Z</time>
      </trkpt>
      <trkpt lat="47.31743" lon="-2.40375">
        <ele>32</ele>
        <time>2022-07-21T09:09:16.000Z</time>
      </trkpt>
      <trkpt lat="47.31712" lon="-2.40351">
        <ele>31.60000038147</ele>
        <time>2022-07-21T09:09:21.000Z</time>
      </trkpt>
      <trkpt lat="47.31707" lon="-2.40348">
        <ele>31</ele>
        <time>2022-07-21T09:09:22.000Z</time>
      </trkpt>
      <trkpt lat="47.31701" lon="-2.40344">
        <ele>30.60000038147</ele>
        <time>2022-07-21T09:09:23.000Z</time>
      </trkpt>
      <trkpt lat="47.31696" lon="-2.40341">
        <ele>29.799999237061</ele>
        <time>2022-07-21T09:09:24.000Z</time>
      </trkpt>
      <trkpt lat="47.3169" lon="-2.40339">
        <ele>29.799999237061</ele>
        <time>2022-07-21T09:09:25.000Z</time>
      </trkpt>
      <trkpt lat="47.31676" lon="-2.40328">
        <ele>29.799999237061</ele>
        <time>2022-07-21T09:09:28.000Z</time>
      </trkpt>
      <trkpt lat="47.31659" lon="-2.40308">
        <ele>29.799999237061</ele>
        <time>2022-07-21T09:09:32.000Z</time>
      </trkpt>
      <trkpt lat="47.31636" lon="-2.40292">
        <ele>29.799999237061</ele>
        <time>2022-07-21T09:09:36.000Z</time>
      </trkpt>
      <trkpt lat="47.3163" lon="-2.40287">
        <ele>29.799999237061</ele>
        <time>2022-07-21T09:09:37.000Z</time>
      </trkpt>
      <trkpt lat="47.31617" lon="-2.40278">
        <ele>29.39999961853</ele>
        <time>2022-07-21T09:09:39.000Z</time>
      </trkpt>
      <trkpt lat="47.31611" lon="-2.40274">
        <ele>29</ele>
        <time>2022-07-21T09:09:40.000Z</time>
      </trkpt>
      <trkpt lat="47.31604" lon="-2.40269">
        <ele>28.60000038147</ele>
        <time>2022-07-21T09:09:41.000Z</time>
      </trkpt>
      <trkpt lat="47.31597" lon="-2.40264">
        <ele>28.200000762939</ele>
        <time>2022-07-21T09:09:42.000Z</time>
      </trkpt>
      <trkpt lat="47.31591" lon="-2.40259">
        <ele>27.799999237061</ele>
        <time>2022-07-21T09:09:43.000Z</time>
      </trkpt>
      <trkpt lat="47.3156" lon="-2.40235">
        <ele>27.799999237061</ele>
        <time>2022-07-21T09:09:48.000Z</time>
      </trkpt>
      <trkpt lat="47.31531" lon="-2.40213">
        <ele>27.799999237061</ele>
        <time>2022-07-21T09:09:53.000Z</time>
      </trkpt>
      <trkpt lat="47.3152" lon="-2.40203">
        <ele>27.39999961853</ele>
        <time>2022-07-21T09:09:55.000Z</time>
      </trkpt>
      <trkpt lat="47.31514" lon="-2.40198">
        <ele>26.799999237061</ele>
        <time>2022-07-21T09:09:56.000Z</time>
      </trkpt>
      <trkpt lat="47.31508" lon="-2.40194">
        <ele>26.39999961853</ele>
        <time>2022-07-21T09:09:57.000Z</time>
      </trkpt>
      <trkpt lat="47.31502" lon="-2.40189">
        <ele>26</ele>
        <time>2022-07-21T09:09:58.000Z</time>
      </trkpt>
      <trkpt lat="47.31495" lon="-2.40185">
        <ele>25.60000038147</ele>
        <time>2022-07-21T09:09:59.000Z</time>
      </trkpt>
      <trkpt lat="47.31466" lon="-2.40164">
        <ele>25.60000038147</ele>
        <time>2022-07-21T09:10:04.000Z</time>
      </trkpt>
      <trkpt lat="47.3146" lon="-2.40159">
        <ele>25.60000038147</ele>
        <time>2022-07-21T09:10:05.000Z</time>
      </trkpt>
      <trkpt lat="47.31425" lon="-2.40135">
        <ele>25.60000038147</ele>
        <time>2022-07-21T09:10:11.000Z</time>
      </trkpt>
      <trkpt lat="47.31413" lon="-2.40127">
        <ele>24.799999237061</ele>
        <time>2022-07-21T09:10:13.000Z</time>
      </trkpt>
      <trkpt lat="47.31408" lon="-2.40124">
        <ele>24.200000762939</ele>
        <time>2022-07-21T09:10:14.000Z</time>
      </trkpt>
      <trkpt lat="47.31402" lon="-2.4012">
        <ele>23.799999237061</ele>
        <time>2022-07-21T09:10:15.000Z</time>
      </trkpt>
      <trkpt lat="47.31396" lon="-2.40116">
        <ele>23.39999961853</ele>
        <time>2022-07-21T09:10:16.000Z</time>
      </trkpt>
      <trkpt lat="47.31384" lon="-2.40108">
        <ele>23.39999961853</ele>
        <time>2022-07-21T09:10:18.000Z</time>
      </trkpt>
      <trkpt lat="47.31332" lon="-2.40081">
        <ele>23.39999961853</ele>
        <time>2022-07-21T09:10:26.000Z</time>
      </trkpt>
      <trkpt lat="47.31298" lon="-2.40071">
        <ele>23.39999961853</ele>
        <time>2022-07-21T09:10:32.000Z</time>
      </trkpt>
      <trkpt lat="47.31292" lon="-2.4007">
        <ele>23</ele>
        <time>2022-07-21T09:10:33.000Z</time>
      </trkpt>
      <trkpt lat="47.31287" lon="-2.40069">
        <ele>22.60000038147</ele>
        <time>2022-07-21T09:10:34.000Z</time>
      </trkpt>
      <trkpt lat="47.31281" lon="-2.40068">
        <ele>22.200000762939</ele>
        <time>2022-07-21T09:10:35.000Z</time>
      </trkpt>
      <trkpt lat="47.31275" lon="-2.40067">
        <ele>21.799999237061</ele>
        <time>2022-07-21T09:10:36.000Z</time>
      </trkpt>
      <trkpt lat="47.31268" lon="-2.40065">
        <ele>21.39999961853</ele>
        <time>2022-07-21T09:10:37.000Z</time>
      </trkpt>
      <trkpt lat="47.31263" lon="-2.40062">
        <ele>21.39999961853</ele>
        <time>2022-07-21T09:10:38.000Z</time>
      </trkpt>
      <trkpt lat="47.31251" lon="-2.40055">
        <ele>21.799999237061</ele>
        <time>2022-07-21T09:10:41.000Z</time>
      </trkpt>
      <trkpt lat="47.31247" lon="-2.40053">
        <ele>22.200000762939</ele>
        <time>2022-07-21T09:10:42.000Z</time>
      </trkpt>
      <trkpt lat="47.31243" lon="-2.40048">
        <ele>22.60000038147</ele>
        <time>2022-07-21T09:10:43.000Z</time>
      </trkpt>
      <trkpt lat="47.31241" lon="-2.40043">
        <ele>23</ele>
        <time>2022-07-21T09:10:44.000Z</time>
      </trkpt>
      <trkpt lat="47.3124" lon="-2.40037">
        <ele>23.39999961853</ele>
        <time>2022-07-21T09:10:45.000Z</time>
      </trkpt>
      <trkpt lat="47.31236" lon="-2.40025">
        <ele>23.39999961853</ele>
        <time>2022-07-21T09:10:47.000Z</time>
      </trkpt>
      <trkpt lat="47.31232" lon="-2.4001">
        <ele>23.39999961853</ele>
        <time>2022-07-21T09:10:50.000Z</time>
      </trkpt>
      <trkpt lat="47.31222" lon="-2.39985">
        <ele>23.39999961853</ele>
        <time>2022-07-21T09:10:56.000Z</time>
      </trkpt>
      <trkpt lat="47.31217" lon="-2.39966">
        <ele>23.39999961853</ele>
        <time>2022-07-21T09:11:00.000Z</time>
      </trkpt>
      <trkpt lat="47.31211" lon="-2.39948">
        <ele>23.39999961853</ele>
        <time>2022-07-21T09:11:04.000Z</time>
      </trkpt>
      <trkpt lat="47.31203" lon="-2.39929">
        <ele>23.39999961853</ele>
        <time>2022-07-21T09:11:08.000Z</time>
      </trkpt>
      <trkpt lat="47.312" lon="-2.39919">
        <ele>23.799999237061</ele>
        <time>2022-07-21T09:11:10.000Z</time>
      </trkpt>
      <trkpt lat="47.31198" lon="-2.39914">
        <ele>24.200000762939</ele>
        <time>2022-07-21T09:11:11.000Z</time>
      </trkpt>
      <trkpt lat="47.31196" lon="-2.3991">
        <ele>24.60000038147</ele>
        <time>2022-07-21T09:11:12.000Z</time>
      </trkpt>
      <trkpt lat="47.31194" lon="-2.39905">
        <ele>25</ele>
        <time>2022-07-21T09:11:13.000Z</time>
      </trkpt>
      <trkpt lat="47.31192" lon="-2.399">
        <ele>25.39999961853</ele>
        <time>2022-07-21T09:11:14.000Z</time>
      </trkpt>
      <trkpt lat="47.3119" lon="-2.39888">
        <ele>25.799999237061</ele>
        <time>2022-07-21T09:11:17.000Z</time>
      </trkpt>
      <trkpt lat="47.31188" lon="-2.39884">
        <ele>26.200000762939</ele>
        <time>2022-07-21T09:11:18.000Z</time>
      </trkpt>
      <trkpt lat="47.31186" lon="-2.3988">
        <ele>26.60000038147</ele>
        <time>2022-07-21T09:11:19.000Z</time>
      </trkpt>
      <trkpt lat="47.31184" lon="-2.39873">
        <ele>27</ele>
        <time>2022-07-21T09:11:20.000Z</time>
      </trkpt>
      <trkpt lat="47.31182" lon="-2.39865">
        <ele>27.39999961853</ele>
        <time>2022-07-21T09:11:21.000Z</time>
      </trkpt>
      <trkpt lat="47.31178" lon="-2.3985">
        <ele>27.39999961853</ele>
        <time>2022-07-21T09:11:23.000Z</time>
      </trkpt>
      <trkpt lat="47.31169" lon="-2.3983">
        <ele>27.39999961853</ele>
        <time>2022-07-21T09:11:26.000Z</time>
      </trkpt>
      <trkpt lat="47.31149" lon="-2.39783">
        <ele>27.39999961853</ele>
        <time>2022-07-21T09:11:33.000Z</time>
      </trkpt>
      <trkpt lat="47.31135" lon="-2.39744">
        <ele>27.39999961853</ele>
        <time>2022-07-21T09:11:39.000Z</time>
      </trkpt>
      <trkpt lat="47.31114" lon="-2.39683">
        <ele>27.799999237061</ele>
        <time>2022-07-21T09:11:48.000Z</time>
      </trkpt>
      <trkpt lat="47.31111" lon="-2.39676">
        <ele>28.200000762939</ele>
        <time>2022-07-21T09:11:49.000Z</time>
      </trkpt>
      <trkpt lat="47.31108" lon="-2.3967">
        <ele>28.60000038147</ele>
        <time>2022-07-21T09:11:50.000Z</time>
      </trkpt>
      <trkpt lat="47.31106" lon="-2.39663">
        <ele>29.200000762939</ele>
        <time>2022-07-21T09:11:51.000Z</time>
      </trkpt>
      <trkpt lat="47.31104" lon="-2.39656">
        <ele>29.60000038147</ele>
        <time>2022-07-21T09:11:52.000Z</time>
      </trkpt>
      <trkpt lat="47.31097" lon="-2.39635">
        <ele>29.60000038147</ele>
        <time>2022-07-21T09:11:55.000Z</time>
      </trkpt>
      <trkpt lat="47.31077" lon="-2.3958">
        <ele>29.60000038147</ele>
        <time>2022-07-21T09:12:04.000Z</time>
      </trkpt>
      <trkpt lat="47.31058" lon="-2.39526">
        <ele>29.60000038147</ele>
        <time>2022-07-21T09:12:11.000Z</time>
      </trkpt>
      <trkpt lat="47.31038" lon="-2.39464">
        <ele>29.200000762939</ele>
        <time>2022-07-21T09:12:18.000Z</time>
      </trkpt>
      <trkpt lat="47.31035" lon="-2.39455">
        <ele>28.799999237061</ele>
        <time>2022-07-21T09:12:19.000Z</time>
      </trkpt>
      <trkpt lat="47.31032" lon="-2.39447">
        <ele>28.39999961853</ele>
        <time>2022-07-21T09:12:20.000Z</time>
      </trkpt>
      <trkpt lat="47.3103" lon="-2.3944">
        <ele>28</ele>
        <time>2022-07-21T09:12:21.000Z</time>
      </trkpt>
      <trkpt lat="47.31028" lon="-2.39433">
        <ele>27.39999961853</ele>
        <time>2022-07-21T09:12:22.000Z</time>
      </trkpt>
      <trkpt lat="47.31025" lon="-2.39426">
        <ele>27.39999961853</ele>
        <time>2022-07-21T09:12:23.000Z</time>
      </trkpt>
      <trkpt lat="47.31004" lon="-2.39365">
        <ele>27.39999961853</ele>
        <time>2022-07-21T09:12:32.000Z</time>
      </trkpt>
      <trkpt lat="47.30984" lon="-2.39302">
        <ele>27.39999961853</ele>
        <time>2022-07-21T09:12:41.000Z</time>
      </trkpt>
      <trkpt lat="47.30979" lon="-2.39288">
        <ele>28</ele>
        <time>2022-07-21T09:12:43.000Z</time>
      </trkpt>
      <trkpt lat="47.30976" lon="-2.39281">
        <ele>28.39999961853</ele>
        <time>2022-07-21T09:12:44.000Z</time>
      </trkpt>
      <trkpt lat="47.30974" lon="-2.39274">
        <ele>28.799999237061</ele>
        <time>2022-07-21T09:12:45.000Z</time>
      </trkpt>
      <trkpt lat="47.30971" lon="-2.39267">
        <ele>29.200000762939</ele>
        <time>2022-07-21T09:12:46.000Z</time>
      </trkpt>
      <trkpt lat="47.30968" lon="-2.39261">
        <ele>29.60000038147</ele>
        <time>2022-07-21T09:12:47.000Z</time>
      </trkpt>
      <trkpt lat="47.30963" lon="-2.3925">
        <ele>29.60000038147</ele>
        <time>2022-07-21T09:12:49.000Z</time>
      </trkpt>
      <trkpt lat="47.30956" lon="-2.39229">
        <ele>29.60000038147</ele>
        <time>2022-07-21T09:12:54.000Z</time>
      </trkpt>
      <trkpt lat="47.30944" lon="-2.39205">
        <ele>29.60000038147</ele>
        <time>2022-07-21T09:13:01.000Z</time>
      </trkpt>
      <trkpt lat="47.30934" lon="-2.39182">
        <ele>29.60000038147</ele>
        <time>2022-07-21T09:13:08.000Z</time>
      </trkpt>
      <trkpt lat="47.30926" lon="-2.39161">
        <ele>29.60000038147</ele>
        <time>2022-07-21T09:13:15.000Z</time>
      </trkpt>
      <trkpt lat="47.30916" lon="-2.39135">
        <ele>29.60000038147</ele>
        <time>2022-07-21T09:13:23.000Z</time>
      </trkpt>
      <trkpt lat="47.30906" lon="-2.39109">
        <ele>29.60000038147</ele>
        <time>2022-07-21T09:13:31.000Z</time>
      </trkpt>
      <trkpt lat="47.309" lon="-2.39086">
        <ele>29.60000038147</ele>
        <time>2022-07-21T09:13:37.000Z</time>
      </trkpt>
      <trkpt lat="47.30897" lon="-2.39058">
        <ele>29.60000038147</ele>
        <time>2022-07-21T09:13:42.000Z</time>
      </trkpt>
      <trkpt lat="47.30898" lon="-2.39024">
        <ele>29.60000038147</ele>
        <time>2022-07-21T09:13:48.000Z</time>
      </trkpt>
      <trkpt lat="47.30902" lon="-2.38986">
        <ele>29.60000038147</ele>
        <time>2022-07-21T09:13:54.000Z</time>
      </trkpt>
      <trkpt lat="47.30903" lon="-2.3898">
        <ele>29.60000038147</ele>
        <time>2022-07-21T09:13:55.000Z</time>
      </trkpt>
      <trkpt lat="47.30912" lon="-2.38956">
        <ele>29.60000038147</ele>
        <time>2022-07-21T09:13:59.000Z</time>
      </trkpt>
      <trkpt lat="47.30926" lon="-2.38924">
        <ele>29.60000038147</ele>
        <time>2022-07-21T09:14:04.000Z</time>
      </trkpt>
      <trkpt lat="47.30922" lon="-2.38901">
        <ele>29.60000038147</ele>
        <time>2022-07-21T09:14:07.000Z</time>
      </trkpt>
      <trkpt lat="47.30906" lon="-2.38884">
        <ele>29.60000038147</ele>
        <time>2022-07-21T09:14:11.000Z</time>
      </trkpt>
      <trkpt lat="47.30893" lon="-2.38885">
        <ele>29.60000038147</ele>
        <time>2022-07-21T09:14:14.000Z</time>
      </trkpt>
      <trkpt lat="47.30888" lon="-2.38887">
        <ele>29.60000038147</ele>
        <time>2022-07-21T09:14:15.000Z</time>
      </trkpt>
      <trkpt lat="47.30879" lon="-2.38888">
        <ele>29.60000038147</ele>
        <time>2022-07-21T09:14:17.000Z</time>
      </trkpt>
      <trkpt lat="47.30869" lon="-2.38887">
        <ele>29.60000038147</ele>
        <time>2022-07-21T09:14:19.000Z</time>
      </trkpt>
      <trkpt lat="47.30863" lon="-2.38888">
        <ele>29.60000038147</ele>
        <time>2022-07-21T09:14:20.000Z</time>
      </trkpt>
      <trkpt lat="47.30844" lon="-2.38898">
        <ele>29</ele>
        <time>2022-07-21T09:14:23.000Z</time>
      </trkpt>
      <trkpt lat="47.30837" lon="-2.38903">
        <ele>28.60000038147</ele>
        <time>2022-07-21T09:14:24.000Z</time>
      </trkpt>
      <trkpt lat="47.30831" lon="-2.38908">
        <ele>28.200000762939</ele>
        <time>2022-07-21T09:14:25.000Z</time>
      </trkpt>
      <trkpt lat="47.30823" lon="-2.38914">
        <ele>27.799999237061</ele>
        <time>2022-07-21T09:14:26.000Z</time>
      </trkpt>
      <trkpt lat="47.30816" lon="-2.3892">
        <ele>27.39999961853</ele>
        <time>2022-07-21T09:14:27.000Z</time>
      </trkpt>
      <trkpt lat="47.30809" lon="-2.38926">
        <ele>27</ele>
        <time>2022-07-21T09:14:28.000Z</time>
      </trkpt>
      <trkpt lat="47.30802" lon="-2.38931">
        <ele>26.39999961853</ele>
        <time>2022-07-21T09:14:29.000Z</time>
      </trkpt>
      <trkpt lat="47.30795" lon="-2.38937">
        <ele>26</ele>
        <time>2022-07-21T09:14:30.000Z</time>
      </trkpt>
      <trkpt lat="47.30788" lon="-2.38942">
        <ele>25.60000038147</ele>
        <time>2022-07-21T09:14:31.000Z</time>
      </trkpt>
      <trkpt lat="47.30782" lon="-2.38947">
        <ele>25.200000762939</ele>
        <time>2022-07-21T09:14:32.000Z</time>
      </trkpt>
      <trkpt lat="47.30771" lon="-2.38955">
        <ele>25.200000762939</ele>
        <time>2022-07-21T09:14:34.000Z</time>
      </trkpt>
      <trkpt lat="47.30761" lon="-2.38963">
        <ele>25.200000762939</ele>
        <time>2022-07-21T09:14:36.000Z</time>
      </trkpt>
      <trkpt lat="47.30755" lon="-2.38974">
        <ele>25.200000762939</ele>
        <time>2022-07-21T09:14:38.000Z</time>
      </trkpt>
      <trkpt lat="47.3074" lon="-2.38996">
        <ele>25.200000762939</ele>
        <time>2022-07-21T09:14:42.000Z</time>
      </trkpt>
      <trkpt lat="47.30735" lon="-2.38999">
        <ele>25.60000038147</ele>
        <time>2022-07-21T09:14:43.000Z</time>
      </trkpt>
      <trkpt lat="47.3073" lon="-2.38999">
        <ele>26.200000762939</ele>
        <time>2022-07-21T09:14:44.000Z</time>
      </trkpt>
      <trkpt lat="47.30725" lon="-2.38996">
        <ele>27</ele>
        <time>2022-07-21T09:14:45.000Z</time>
      </trkpt>
      <trkpt lat="47.3072" lon="-2.38992">
        <ele>27.39999961853</ele>
        <time>2022-07-21T09:14:46.000Z</time>
      </trkpt>
      <trkpt lat="47.30716" lon="-2.38987">
        <ele>27.39999961853</ele>
        <time>2022-07-21T09:14:47.000Z</time>
      </trkpt>
      <trkpt lat="47.30704" lon="-2.38966">
        <ele>27.39999961853</ele>
        <time>2022-07-21T09:14:50.000Z</time>
      </trkpt>
      <trkpt lat="47.30697" lon="-2.38952">
        <ele>27.39999961853</ele>
        <time>2022-07-21T09:14:52.000Z</time>
      </trkpt>
      <trkpt lat="47.30694" lon="-2.38929">
        <ele>27.39999961853</ele>
        <time>2022-07-21T09:14:55.000Z</time>
      </trkpt>
      <trkpt lat="47.30693" lon="-2.38921">
        <ele>27.39999961853</ele>
        <time>2022-07-21T09:14:56.000Z</time>
      </trkpt>
      <trkpt lat="47.3069" lon="-2.38914">
        <ele>27.39999961853</ele>
        <time>2022-07-21T09:14:57.000Z</time>
      </trkpt>
      <trkpt lat="47.30686" lon="-2.38911">
        <ele>27.39999961853</ele>
        <time>2022-07-21T09:14:58.000Z</time>
      </trkpt>
      <trkpt lat="47.30682" lon="-2.38912">
        <ele>28</ele>
        <time>2022-07-21T09:14:59.000Z</time>
      </trkpt>
      <trkpt lat="47.30677" lon="-2.38915">
        <ele>28.39999961853</ele>
        <time>2022-07-21T09:15:00.000Z</time>
      </trkpt>
      <trkpt lat="47.30673" lon="-2.38919">
        <ele>28.799999237061</ele>
        <time>2022-07-21T09:15:01.000Z</time>
      </trkpt>
      <trkpt lat="47.30667" lon="-2.38924">
        <ele>29.200000762939</ele>
        <time>2022-07-21T09:15:02.000Z</time>
      </trkpt>
      <trkpt lat="47.30662" lon="-2.38929">
        <ele>29.799999237061</ele>
        <time>2022-07-21T09:15:03.000Z</time>
      </trkpt>
      <trkpt lat="47.30657" lon="-2.38934">
        <ele>29.799999237061</ele>
        <time>2022-07-21T09:15:04.000Z</time>
      </trkpt>
      <trkpt lat="47.30617" lon="-2.38969">
        <ele>29.799999237061</ele>
        <time>2022-07-21T09:15:11.000Z</time>
      </trkpt>
      <trkpt lat="47.30582" lon="-2.39011">
        <ele>29.39999961853</ele>
        <time>2022-07-21T09:15:18.000Z</time>
      </trkpt>
      <trkpt lat="47.30577" lon="-2.39018">
        <ele>29</ele>
        <time>2022-07-21T09:15:19.000Z</time>
      </trkpt>
      <trkpt lat="47.30572" lon="-2.39024">
        <ele>28.39999961853</ele>
        <time>2022-07-21T09:15:20.000Z</time>
      </trkpt>
      <trkpt lat="47.30567" lon="-2.3903">
        <ele>28</ele>
        <time>2022-07-21T09:15:21.000Z</time>
      </trkpt>
      <trkpt lat="47.30562" lon="-2.39036">
        <ele>27.60000038147</ele>
        <time>2022-07-21T09:15:22.000Z</time>
      </trkpt>
      <trkpt lat="47.30547" lon="-2.39051">
        <ele>27.60000038147</ele>
        <time>2022-07-21T09:15:25.000Z</time>
      </trkpt>
      <trkpt lat="47.30531" lon="-2.39067">
        <ele>27.200000762939</ele>
        <time>2022-07-21T09:15:28.000Z</time>
      </trkpt>
      <trkpt lat="47.30526" lon="-2.39072">
        <ele>26.799999237061</ele>
        <time>2022-07-21T09:15:29.000Z</time>
      </trkpt>
      <trkpt lat="47.3052" lon="-2.39076">
        <ele>26.39999961853</ele>
        <time>2022-07-21T09:15:30.000Z</time>
      </trkpt>
      <trkpt lat="47.30515" lon="-2.39081">
        <ele>26</ele>
        <time>2022-07-21T09:15:31.000Z</time>
      </trkpt>
      <trkpt lat="47.30509" lon="-2.39086">
        <ele>25.60000038147</ele>
        <time>2022-07-21T09:15:32.000Z</time>
      </trkpt>
      <trkpt lat="47.30467" lon="-2.39131">
        <ele>25.200000762939</ele>
        <time>2022-07-21T09:15:40.000Z</time>
      </trkpt>
      <trkpt lat="47.30462" lon="-2.39137">
        <ele>24.799999237061</ele>
        <time>2022-07-21T09:15:41.000Z</time>
      </trkpt>
      <trkpt lat="47.30457" lon="-2.39143">
        <ele>24.39999961853</ele>
        <time>2022-07-21T09:15:42.000Z</time>
      </trkpt>
      <trkpt lat="47.30452" lon="-2.39149">
        <ele>24</ele>
        <time>2022-07-21T09:15:43.000Z</time>
      </trkpt>
      <trkpt lat="47.30446" lon="-2.39154">
        <ele>23.60000038147</ele>
        <time>2022-07-21T09:15:44.000Z</time>
      </trkpt>
      <trkpt lat="47.30429" lon="-2.39168">
        <ele>23.60000038147</ele>
        <time>2022-07-21T09:15:47.000Z</time>
      </trkpt>
      <trkpt lat="47.30422" lon="-2.39171">
        <ele>23.60000038147</ele>
        <time>2022-07-21T09:15:48.000Z</time>
      </trkpt>
      <trkpt lat="47.30408" lon="-2.39171">
        <ele>23.200000762939</ele>
        <time>2022-07-21T09:15:50.000Z</time>
      </trkpt>
      <trkpt lat="47.30401" lon="-2.3917">
        <ele>22.60000038147</ele>
        <time>2022-07-21T09:15:51.000Z</time>
      </trkpt>
      <trkpt lat="47.30395" lon="-2.39166">
        <ele>22.200000762939</ele>
        <time>2022-07-21T09:15:52.000Z</time>
      </trkpt>
      <trkpt lat="47.30389" lon="-2.39162">
        <ele>21.799999237061</ele>
        <time>2022-07-21T09:15:53.000Z</time>
      </trkpt>
      <trkpt lat="47.30384" lon="-2.39156">
        <ele>21.39999961853</ele>
        <time>2022-07-21T09:15:54.000Z</time>
      </trkpt>
      <trkpt lat="47.30379" lon="-2.3915">
        <ele>21.39999961853</ele>
        <time>2022-07-21T09:15:55.000Z</time>
      </trkpt>
      <trkpt lat="47.30366" lon="-2.39119">
        <ele>21.39999961853</ele>
        <time>2022-07-21T09:15:59.000Z</time>
      </trkpt>
      <trkpt lat="47.30364" lon="-2.3911">
        <ele>21.39999961853</ele>
        <time>2022-07-21T09:16:00.000Z</time>
      </trkpt>
      <trkpt lat="47.30352" lon="-2.39059">
        <ele>21.39999961853</ele>
        <time>2022-07-21T09:16:06.000Z</time>
      </trkpt>
      <trkpt lat="47.30339" lon="-2.39012">
        <ele>21.39999961853</ele>
        <time>2022-07-21T09:16:12.000Z</time>
      </trkpt>
      <trkpt lat="47.3032" lon="-2.38967">
        <ele>21.39999961853</ele>
        <time>2022-07-21T09:16:18.000Z</time>
      </trkpt>
      <trkpt lat="47.30298" lon="-2.38924">
        <ele>21.39999961853</ele>
        <time>2022-07-21T09:16:24.000Z</time>
      </trkpt>
      <trkpt lat="47.3028" lon="-2.38874">
        <ele>21.39999961853</ele>
        <time>2022-07-21T09:16:31.000Z</time>
      </trkpt>
      <trkpt lat="47.30274" lon="-2.38859">
        <ele>21</ele>
        <time>2022-07-21T09:16:33.000Z</time>
      </trkpt>
      <trkpt lat="47.3027" lon="-2.38851">
        <ele>20.60000038147</ele>
        <time>2022-07-21T09:16:34.000Z</time>
      </trkpt>
      <trkpt lat="47.30267" lon="-2.38843">
        <ele>20.200000762939</ele>
        <time>2022-07-21T09:16:35.000Z</time>
      </trkpt>
      <trkpt lat="47.30264" lon="-2.38834">
        <ele>19.799999237061</ele>
        <time>2022-07-21T09:16:36.000Z</time>
      </trkpt>
      <trkpt lat="47.3026" lon="-2.38826">
        <ele>19.39999961853</ele>
        <time>2022-07-21T09:16:37.000Z</time>
      </trkpt>
      <trkpt lat="47.30241" lon="-2.38793">
        <ele>18.799999237061</ele>
        <time>2022-07-21T09:16:41.000Z</time>
      </trkpt>
      <trkpt lat="47.30235" lon="-2.38785">
        <ele>18.39999961853</ele>
        <time>2022-07-21T09:16:42.000Z</time>
      </trkpt>
      <trkpt lat="47.30228" lon="-2.38778">
        <ele>18</ele>
        <time>2022-07-21T09:16:43.000Z</time>
      </trkpt>
      <trkpt lat="47.30222" lon="-2.38772">
        <ele>17.39999961853</ele>
        <time>2022-07-21T09:16:44.000Z</time>
      </trkpt>
      <trkpt lat="47.30215" lon="-2.38767">
        <ele>16.799999237061</ele>
        <time>2022-07-21T09:16:45.000Z</time>
      </trkpt>
      <trkpt lat="47.30207" lon="-2.38767">
        <ele>16.200000762939</ele>
        <time>2022-07-21T09:16:46.000Z</time>
      </trkpt>
      <trkpt lat="47.302" lon="-2.38769">
        <ele>15.39999961853</ele>
        <time>2022-07-21T09:16:47.000Z</time>
      </trkpt>
      <trkpt lat="47.30192" lon="-2.38776">
        <ele>13.800000190735</ele>
        <time>2022-07-21T09:16:48.000Z</time>
      </trkpt>
      <trkpt lat="47.30186" lon="-2.38784">
        <ele>13</ele>
        <time>2022-07-21T09:16:49.000Z</time>
      </trkpt>
      <trkpt lat="47.30179" lon="-2.38794">
        <ele>12.199999809265</ele>
        <time>2022-07-21T09:16:50.000Z</time>
      </trkpt>
      <trkpt lat="47.30173" lon="-2.38803">
        <ele>11.39999961853</ele>
        <time>2022-07-21T09:16:51.000Z</time>
      </trkpt>
      <trkpt lat="47.30166" lon="-2.38813">
        <ele>10.39999961853</ele>
        <time>2022-07-21T09:16:52.000Z</time>
      </trkpt>
      <trkpt lat="47.30159" lon="-2.38823">
        <ele>9.6000003814697</ele>
        <time>2022-07-21T09:16:53.000Z</time>
      </trkpt>
      <trkpt lat="47.30152" lon="-2.38833">
        <ele>9.1999998092651</ele>
        <time>2022-07-21T09:16:54.000Z</time>
      </trkpt>
      <trkpt lat="47.30146" lon="-2.38844">
        <ele>8.8000001907349</ele>
        <time>2022-07-21T09:16:55.000Z</time>
      </trkpt>
      <trkpt lat="47.3014" lon="-2.38855">
        <ele>8.1999998092651</ele>
        <time>2022-07-21T09:16:56.000Z</time>
      </trkpt>
      <trkpt lat="47.30134" lon="-2.38866">
        <ele>7.8000001907349</ele>
        <time>2022-07-21T09:16:57.000Z</time>
      </trkpt>
      <trkpt lat="47.30127" lon="-2.38877">
        <ele>7.1999998092651</ele>
        <time>2022-07-21T09:16:58.000Z</time>
      </trkpt>
      <trkpt lat="47.30121" lon="-2.38888">
        <ele>6.8000001907349</ele>
        <time>2022-07-21T09:16:59.000Z</time>
      </trkpt>
      <trkpt lat="47.30114" lon="-2.38898">
        <ele>6.4000000953674</ele>
        <time>2022-07-21T09:17:00.000Z</time>
      </trkpt>
      <trkpt lat="47.30108" lon="-2.38907">
        <ele>5.8000001907349</ele>
        <time>2022-07-21T09:17:01.000Z</time>
      </trkpt>
      <trkpt lat="47.301" lon="-2.38915">
        <ele>5.4000000953674</ele>
        <time>2022-07-21T09:17:02.000Z</time>
      </trkpt>
      <trkpt lat="47.30092" lon="-2.38922">
        <ele>4.8000001907349</ele>
        <time>2022-07-21T09:17:03.000Z</time>
      </trkpt>
      <trkpt lat="47.30076" lon="-2.38937">
        <ele>4.4000000953674</ele>
        <time>2022-07-21T09:17:05.000Z</time>
      </trkpt>
      <trkpt lat="47.30068" lon="-2.38943">
        <ele>3.7999999523163</ele>
        <time>2022-07-21T09:17:06.000Z</time>
      </trkpt>
      <trkpt lat="47.30061" lon="-2.38948">
        <ele>3.2000000476837</ele>
        <time>2022-07-21T09:17:07.000Z</time>
      </trkpt>
      <trkpt lat="47.30054" lon="-2.38951">
        <ele>2.5999999046326</ele>
        <time>2022-07-21T09:17:08.000Z</time>
      </trkpt>
      <trkpt lat="47.30048" lon="-2.38953">
        <ele>2.2000000476837</ele>
        <time>2022-07-21T09:17:09.000Z</time>
      </trkpt>
      <trkpt lat="47.30042" lon="-2.38956">
        <ele>1.6000000238419</ele>
        <time>2022-07-21T09:17:10.000Z</time>
      </trkpt>
      <trkpt lat="47.30038" lon="-2.3896">
        <ele>1</ele>
        <time>2022-07-21T09:17:11.000Z</time>
      </trkpt>
      <trkpt lat="47.30034" lon="-2.38964">
        <ele>0.40000000596046</ele>
        <time>2022-07-21T09:17:12.000Z</time>
      </trkpt>
      <trkpt lat="47.30029" lon="-2.38966">
        <ele>-0.20000000298023</ele>
        <time>2022-07-21T09:17:13.000Z</time>
      </trkpt>
      <trkpt lat="47.30022" lon="-2.38968">
        <ele>-0.20000000298023</ele>
        <time>2022-07-21T09:17:15.000Z</time>
      </trkpt>
      <trkpt lat="47.3001" lon="-2.38961">
        <ele>-0.20000000298023</ele>
        <time>2022-07-21T09:17:19.000Z</time>
      </trkpt>
      <trkpt lat="47.30004" lon="-2.38941">
        <ele>-0.20000000298023</ele>
        <time>2022-07-21T09:17:23.000Z</time>
      </trkpt>
      <trkpt lat="47.30005" lon="-2.38923">
        <ele>-0.20000000298023</ele>
        <time>2022-07-21T09:17:26.000Z</time>
      </trkpt>
      <trkpt lat="47.30005" lon="-2.38917">
        <ele>-0.20000000298023</ele>
        <time>2022-07-21T09:17:27.000Z</time>
      </trkpt>
      <trkpt lat="47.30005" lon="-2.38885">
        <ele>0.20000000298023</ele>
        <time>2022-07-21T09:17:32.000Z</time>
      </trkpt>
      <trkpt lat="47.30005" lon="-2.38879">
        <ele>0.80000001192093</ele>
        <time>2022-07-21T09:17:33.000Z</time>
      </trkpt>
      <trkpt lat="47.30005" lon="-2.38873">
        <ele>1.2000000476837</ele>
        <time>2022-07-21T09:17:34.000Z</time>
      </trkpt>
      <trkpt lat="47.30005" lon="-2.38866">
        <ele>1.6000000238419</ele>
        <time>2022-07-21T09:17:35.000Z</time>
      </trkpt>
      <trkpt lat="47.30005" lon="-2.38859">
        <ele>2</ele>
        <time>2022-07-21T09:17:36.000Z</time>
      </trkpt>
      <trkpt lat="47.30007" lon="-2.38819">
        <ele>2.4000000953674</ele>
        <time>2022-07-21T09:17:42.000Z</time>
      </trkpt>
      <trkpt lat="47.30007" lon="-2.38813">
        <ele>2.7999999523163</ele>
        <time>2022-07-21T09:17:43.000Z</time>
      </trkpt>
      <trkpt lat="47.30008" lon="-2.38806">
        <ele>3.4000000953674</ele>
        <time>2022-07-21T09:17:44.000Z</time>
      </trkpt>
      <trkpt lat="47.30009" lon="-2.388">
        <ele>3.7999999523163</ele>
        <time>2022-07-21T09:17:45.000Z</time>
      </trkpt>
      <trkpt lat="47.3001" lon="-2.38794">
        <ele>4.1999998092651</ele>
        <time>2022-07-21T09:17:46.000Z</time>
      </trkpt>
      <trkpt lat="47.30012" lon="-2.38775">
        <ele>4.1999998092651</ele>
        <time>2022-07-21T09:17:49.000Z</time>
      </trkpt>
      <trkpt lat="47.30013" lon="-2.38764">
        <ele>4.5999999046326</ele>
        <time>2022-07-21T09:17:51.000Z</time>
      </trkpt>
      <trkpt lat="47.30014" lon="-2.38759">
        <ele>5</ele>
        <time>2022-07-21T09:17:52.000Z</time>
      </trkpt>
      <trkpt lat="47.30015" lon="-2.38753">
        <ele>5.4000000953674</ele>
        <time>2022-07-21T09:17:53.000Z</time>
      </trkpt>
      <trkpt lat="47.30016" lon="-2.38748">
        <ele>5.8000001907349</ele>
        <time>2022-07-21T09:17:54.000Z</time>
      </trkpt>
      <trkpt lat="47.30017" lon="-2.38742">
        <ele>6.1999998092651</ele>
        <time>2022-07-21T09:17:55.000Z</time>
      </trkpt>
      <trkpt lat="47.30023" lon="-2.38702">
        <ele>7.1999998092651</ele>
        <time>2022-07-21T09:18:02.000Z</time>
      </trkpt>
      <trkpt lat="47.30023" lon="-2.38697">
        <ele>7.5999999046326</ele>
        <time>2022-07-21T09:18:03.000Z</time>
      </trkpt>
      <trkpt lat="47.30024" lon="-2.38692">
        <ele>8</ele>
        <time>2022-07-21T09:18:04.000Z</time>
      </trkpt>
      <trkpt lat="47.30025" lon="-2.38686">
        <ele>8.3999996185303</ele>
        <time>2022-07-21T09:18:05.000Z</time>
      </trkpt>
      <trkpt lat="47.30025" lon="-2.38664">
        <ele>8.3999996185303</ele>
        <time>2022-07-21T09:18:09.000Z</time>
      </trkpt>
      <trkpt lat="47.30024" lon="-2.38653">
        <ele>9</ele>
        <time>2022-07-21T09:18:11.000Z</time>
      </trkpt>
      <trkpt lat="47.30024" lon="-2.38648">
        <ele>9.3999996185303</ele>
        <time>2022-07-21T09:18:12.000Z</time>
      </trkpt>
      <trkpt lat="47.30023" lon="-2.38642">
        <ele>9.8000001907349</ele>
        <time>2022-07-21T09:18:13.000Z</time>
      </trkpt>
      <trkpt lat="47.30023" lon="-2.38637">
        <ele>10.199999809265</ele>
        <time>2022-07-21T09:18:14.000Z</time>
      </trkpt>
      <trkpt lat="47.30022" lon="-2.38631">
        <ele>10.60000038147</ele>
        <time>2022-07-21T09:18:15.000Z</time>
      </trkpt>
      <trkpt lat="47.30022" lon="-2.38626">
        <ele>10.60000038147</ele>
        <time>2022-07-21T09:18:16.000Z</time>
      </trkpt>
      <trkpt lat="47.30022" lon="-2.38588">
        <ele>10.60000038147</ele>
        <time>2022-07-21T09:18:23.000Z</time>
      </trkpt>
      <trkpt lat="47.30021" lon="-2.38582">
        <ele>11</ele>
        <time>2022-07-21T09:18:24.000Z</time>
      </trkpt>
      <trkpt lat="47.3002" lon="-2.38576">
        <ele>11.39999961853</ele>
        <time>2022-07-21T09:18:25.000Z</time>
      </trkpt>
      <trkpt lat="47.3002" lon="-2.38571">
        <ele>11.800000190735</ele>
        <time>2022-07-21T09:18:26.000Z</time>
      </trkpt>
      <trkpt lat="47.30019" lon="-2.38564">
        <ele>12.800000190735</ele>
        <time>2022-07-21T09:18:27.000Z</time>
      </trkpt>
      <trkpt lat="47.30018" lon="-2.38558">
        <ele>12.800000190735</ele>
        <time>2022-07-21T09:18:28.000Z</time>
      </trkpt>
      <trkpt lat="47.30016" lon="-2.38546">
        <ele>13.199999809265</ele>
        <time>2022-07-21T09:18:30.000Z</time>
      </trkpt>
      <trkpt lat="47.30016" lon="-2.3854">
        <ele>13.60000038147</ele>
        <time>2022-07-21T09:18:31.000Z</time>
      </trkpt>
      <trkpt lat="47.30015" lon="-2.38534">
        <ele>14</ele>
        <time>2022-07-21T09:18:32.000Z</time>
      </trkpt>
      <trkpt lat="47.30014" lon="-2.38528">
        <ele>14.60000038147</ele>
        <time>2022-07-21T09:18:33.000Z</time>
      </trkpt>
      <trkpt lat="47.30013" lon="-2.38522">
        <ele>15</ele>
        <time>2022-07-21T09:18:34.000Z</time>
      </trkpt>
      <trkpt lat="47.30011" lon="-2.38504">
        <ele>15</ele>
        <time>2022-07-21T09:18:37.000Z</time>
      </trkpt>
      <trkpt lat="47.3001" lon="-2.38498">
        <ele>15.39999961853</ele>
        <time>2022-07-21T09:18:38.000Z</time>
      </trkpt>
      <trkpt lat="47.30009" lon="-2.38491">
        <ele>15.800000190735</ele>
        <time>2022-07-21T09:18:39.000Z</time>
      </trkpt>
      <trkpt lat="47.30008" lon="-2.38485">
        <ele>16.200000762939</ele>
        <time>2022-07-21T09:18:40.000Z</time>
      </trkpt>
      <trkpt lat="47.30007" lon="-2.38479">
        <ele>16.60000038147</ele>
        <time>2022-07-21T09:18:41.000Z</time>
      </trkpt>
      <trkpt lat="47.30006" lon="-2.38473">
        <ele>17</ele>
        <time>2022-07-21T09:18:42.000Z</time>
      </trkpt>
      <trkpt lat="47.30002" lon="-2.38447">
        <ele>17</ele>
        <time>2022-07-21T09:18:46.000Z</time>
      </trkpt>
      <trkpt lat="47.30002" lon="-2.3844">
        <ele>17</ele>
        <time>2022-07-21T09:18:47.000Z</time>
      </trkpt>
      <trkpt lat="47.29997" lon="-2.38404">
        <ele>17</ele>
        <time>2022-07-21T09:18:52.000Z</time>
      </trkpt>
      <trkpt lat="47.29995" lon="-2.38363">
        <ele>17</ele>
        <time>2022-07-21T09:18:58.000Z</time>
      </trkpt>
      <trkpt lat="47.29995" lon="-2.38356">
        <ele>17</ele>
        <time>2022-07-21T09:18:59.000Z</time>
      </trkpt>
      <trkpt lat="47.29993" lon="-2.3833">
        <ele>17</ele>
        <time>2022-07-21T09:19:03.000Z</time>
      </trkpt>
      <trkpt lat="47.29993" lon="-2.38318">
        <ele>17</ele>
        <time>2022-07-21T09:19:05.000Z</time>
      </trkpt>
      <trkpt lat="47.29993" lon="-2.38307">
        <ele>17</ele>
        <time>2022-07-21T09:19:07.000Z</time>
      </trkpt>
      <trkpt lat="47.29995" lon="-2.38285">
        <ele>17</ele>
        <time>2022-07-21T09:19:11.000Z</time>
      </trkpt>
      <trkpt lat="47.29996" lon="-2.38267">
        <ele>17</ele>
        <time>2022-07-21T09:19:14.000Z</time>
      </trkpt>
      <trkpt lat="47.29994" lon="-2.38255">
        <ele>17</ele>
        <time>2022-07-21T09:19:16.000Z</time>
      </trkpt>
      <trkpt lat="47.29991" lon="-2.38215">
        <ele>17</ele>
        <time>2022-07-21T09:19:22.000Z</time>
      </trkpt>
      <trkpt lat="47.2999" lon="-2.38207">
        <ele>17</ele>
        <time>2022-07-21T09:19:23.000Z</time>
      </trkpt>
      <trkpt lat="47.29989" lon="-2.38161">
        <ele>17</ele>
        <time>2022-07-21T09:19:29.000Z</time>
      </trkpt>
      <trkpt lat="47.29989" lon="-2.38153">
        <ele>16.60000038147</ele>
        <time>2022-07-21T09:19:30.000Z</time>
      </trkpt>
      <trkpt lat="47.29988" lon="-2.38145">
        <ele>16.200000762939</ele>
        <time>2022-07-21T09:19:31.000Z</time>
      </trkpt>
      <trkpt lat="47.29988" lon="-2.38136">
        <ele>15.800000190735</ele>
        <time>2022-07-21T09:19:32.000Z</time>
      </trkpt>
      <trkpt lat="47.29988" lon="-2.38128">
        <ele>15.39999961853</ele>
        <time>2022-07-21T09:19:33.000Z</time>
      </trkpt>
      <trkpt lat="47.29987" lon="-2.38119">
        <ele>14.800000190735</ele>
        <time>2022-07-21T09:19:34.000Z</time>
      </trkpt>
      <trkpt lat="47.29986" lon="-2.38101">
        <ele>14.800000190735</ele>
        <time>2022-07-21T09:19:36.000Z</time>
      </trkpt>
      <trkpt lat="47.29985" lon="-2.38071">
        <ele>14.39999961853</ele>
        <time>2022-07-21T09:19:39.000Z</time>
      </trkpt>
      <trkpt lat="47.29985" lon="-2.38061">
        <ele>14</ele>
        <time>2022-07-21T09:19:40.000Z</time>
      </trkpt>
      <trkpt lat="47.29985" lon="-2.3805">
        <ele>13.199999809265</ele>
        <time>2022-07-21T09:19:41.000Z</time>
      </trkpt>
      <trkpt lat="47.29986" lon="-2.3804">
        <ele>12.800000190735</ele>
        <time>2022-07-21T09:19:42.000Z</time>
      </trkpt>
      <trkpt lat="47.29988" lon="-2.37972">
        <ele>12.800000190735</ele>
        <time>2022-07-21T09:19:49.000Z</time>
      </trkpt>
      <trkpt lat="47.29987" lon="-2.37957">
        <ele>12.800000190735</ele>
        <time>2022-07-21T09:19:51.000Z</time>
      </trkpt>
      <trkpt lat="47.29982" lon="-2.37944">
        <ele>12.800000190735</ele>
        <time>2022-07-21T09:19:53.000Z</time>
      </trkpt>
      <trkpt lat="47.29974" lon="-2.37932">
        <ele>12.800000190735</ele>
        <time>2022-07-21T09:19:55.000Z</time>
      </trkpt>
      <trkpt lat="47.2997" lon="-2.37927">
        <ele>12.800000190735</ele>
        <time>2022-07-21T09:19:56.000Z</time>
      </trkpt>
      <trkpt lat="47.29965" lon="-2.37922">
        <ele>12.800000190735</ele>
        <time>2022-07-21T09:19:57.000Z</time>
      </trkpt>
      <trkpt lat="47.29937" lon="-2.37889">
        <ele>12.800000190735</ele>
        <time>2022-07-21T09:20:04.000Z</time>
      </trkpt>
      <trkpt lat="47.29914" lon="-2.37861">
        <ele>12.800000190735</ele>
        <time>2022-07-21T09:20:11.000Z</time>
      </trkpt>
      <trkpt lat="47.29899" lon="-2.37842">
        <ele>13.199999809265</ele>
        <time>2022-07-21T09:20:17.000Z</time>
      </trkpt>
      <trkpt lat="47.29897" lon="-2.3784">
        <ele>13.60000038147</ele>
        <time>2022-07-21T09:20:18.000Z</time>
      </trkpt>
      <trkpt lat="47.29894" lon="-2.37836">
        <ele>14</ele>
        <time>2022-07-21T09:20:19.000Z</time>
      </trkpt>
      <trkpt lat="47.29892" lon="-2.37834">
        <ele>14.39999961853</ele>
        <time>2022-07-21T09:20:20.000Z</time>
      </trkpt>
      <trkpt lat="47.29889" lon="-2.37831">
        <ele>14.800000190735</ele>
        <time>2022-07-21T09:20:21.000Z</time>
      </trkpt>
      <trkpt lat="47.29883" lon="-2.37825">
        <ele>15.199999809265</ele>
        <time>2022-07-21T09:20:23.000Z</time>
      </trkpt>
      <trkpt lat="47.29881" lon="-2.37822">
        <ele>15.60000038147</ele>
        <time>2022-07-21T09:20:24.000Z</time>
      </trkpt>
      <trkpt lat="47.29879" lon="-2.3782">
        <ele>16</ele>
        <time>2022-07-21T09:20:25.000Z</time>
      </trkpt>
      <trkpt lat="47.29876" lon="-2.37817">
        <ele>16.39999961853</ele>
        <time>2022-07-21T09:20:26.000Z</time>
      </trkpt>
      <trkpt lat="47.29875" lon="-2.37814">
        <ele>16.799999237061</ele>
        <time>2022-07-21T09:20:27.000Z</time>
      </trkpt>
      <trkpt lat="47.29871" lon="-2.37813">
        <ele>17.39999961853</ele>
        <time>2022-07-21T09:20:28.000Z</time>
      </trkpt>
      <trkpt lat="47.29869" lon="-2.37817">
        <ele>17.799999237061</ele>
        <time>2022-07-21T09:20:29.000Z</time>
      </trkpt>
      <trkpt lat="47.29867" lon="-2.3782">
        <ele>18.60000038147</ele>
        <time>2022-07-21T09:20:30.000Z</time>
      </trkpt>
      <trkpt lat="47.29866" lon="-2.37824">
        <ele>19</ele>
        <time>2022-07-21T09:20:31.000Z</time>
      </trkpt>
      <trkpt lat="47.29864" lon="-2.37828">
        <ele>19</ele>
        <time>2022-07-21T09:20:32.000Z</time>
      </trkpt>
      <trkpt lat="47.29862" lon="-2.37833">
        <ele>19</ele>
        <time>2022-07-21T09:20:33.000Z</time>
      </trkpt>
      <trkpt lat="47.2985" lon="-2.3786">
        <ele>19</ele>
        <time>2022-07-21T09:20:38.000Z</time>
      </trkpt>
      <trkpt lat="47.29847" lon="-2.37864">
        <ele>19</ele>
        <time>2022-07-21T09:20:39.000Z</time>
      </trkpt>
      <trkpt lat="47.29833" lon="-2.37881">
        <ele>19</ele>
        <time>2022-07-21T09:20:43.000Z</time>
      </trkpt>
      <trkpt lat="47.29818" lon="-2.37892">
        <ele>19</ele>
        <time>2022-07-21T09:20:47.000Z</time>
      </trkpt>
      <trkpt lat="47.29798" lon="-2.37904">
        <ele>19</ele>
        <time>2022-07-21T09:20:52.000Z</time>
      </trkpt>
      <trkpt lat="47.29786" lon="-2.37911">
        <ele>19</ele>
        <time>2022-07-21T09:20:55.000Z</time>
      </trkpt>
      <trkpt lat="47.29776" lon="-2.37918">
        <ele>19</ele>
        <time>2022-07-21T09:20:57.000Z</time>
      </trkpt>
      <trkpt lat="47.29751" lon="-2.37942">
        <ele>19</ele>
        <time>2022-07-21T09:21:02.000Z</time>
      </trkpt>
      <trkpt lat="47.29747" lon="-2.37949">
        <ele>19</ele>
        <time>2022-07-21T09:21:03.000Z</time>
      </trkpt>
      <trkpt lat="47.2974" lon="-2.37964">
        <ele>19</ele>
        <time>2022-07-21T09:21:05.000Z</time>
      </trkpt>
      <trkpt lat="47.29733" lon="-2.37979">
        <ele>19</ele>
        <time>2022-07-21T09:21:07.000Z</time>
      </trkpt>
      <trkpt lat="47.29731" lon="-2.37986">
        <ele>18.60000038147</ele>
        <time>2022-07-21T09:21:08.000Z</time>
      </trkpt>
      <trkpt lat="47.29729" lon="-2.37994">
        <ele>18</ele>
        <time>2022-07-21T09:21:09.000Z</time>
      </trkpt>
      <trkpt lat="47.29729" lon="-2.38002">
        <ele>17.39999961853</ele>
        <time>2022-07-21T09:21:10.000Z</time>
      </trkpt>
      <trkpt lat="47.29729" lon="-2.3801">
        <ele>16.60000038147</ele>
        <time>2022-07-21T09:21:11.000Z</time>
      </trkpt>
      <trkpt lat="47.2973" lon="-2.38017">
        <ele>16</ele>
        <time>2022-07-21T09:21:12.000Z</time>
      </trkpt>
      <trkpt lat="47.29732" lon="-2.38023">
        <ele>15.199999809265</ele>
        <time>2022-07-21T09:21:13.000Z</time>
      </trkpt>
      <trkpt lat="47.29732" lon="-2.3803">
        <ele>14.39999961853</ele>
        <time>2022-07-21T09:21:14.000Z</time>
      </trkpt>
      <trkpt lat="47.29731" lon="-2.38037">
        <ele>13.60000038147</ele>
        <time>2022-07-21T09:21:15.000Z</time>
      </trkpt>
      <trkpt lat="47.29728" lon="-2.38042">
        <ele>12.800000190735</ele>
        <time>2022-07-21T09:21:16.000Z</time>
      </trkpt>
      <trkpt lat="47.29722" lon="-2.38046">
        <ele>12</ele>
        <time>2022-07-21T09:21:17.000Z</time>
      </trkpt>
      <trkpt lat="47.29715" lon="-2.38052">
        <ele>11.199999809265</ele>
        <time>2022-07-21T09:21:18.000Z</time>
      </trkpt>
      <trkpt lat="47.29708" lon="-2.38057">
        <ele>9.6000003814697</ele>
        <time>2022-07-21T09:21:19.000Z</time>
      </trkpt>
      <trkpt lat="47.29701" lon="-2.38063">
        <ele>8.8000001907349</ele>
        <time>2022-07-21T09:21:20.000Z</time>
      </trkpt>
      <trkpt lat="47.29693" lon="-2.3807">
        <ele>7.8000001907349</ele>
        <time>2022-07-21T09:21:21.000Z</time>
      </trkpt>
      <trkpt lat="47.29684" lon="-2.38076">
        <ele>7</ele>
        <time>2022-07-21T09:21:22.000Z</time>
      </trkpt>
      <trkpt lat="47.29676" lon="-2.38081">
        <ele>6</ele>
        <time>2022-07-21T09:21:23.000Z</time>
      </trkpt>
      <trkpt lat="47.29667" lon="-2.38086">
        <ele>5.1999998092651</ele>
        <time>2022-07-21T09:21:24.000Z</time>
      </trkpt>
      <trkpt lat="47.29659" lon="-2.38091">
        <ele>4.4000000953674</ele>
        <time>2022-07-21T09:21:25.000Z</time>
      </trkpt>
      <trkpt lat="47.2965" lon="-2.38095">
        <ele>3.4000000953674</ele>
        <time>2022-07-21T09:21:26.000Z</time>
      </trkpt>
      <trkpt lat="47.29641" lon="-2.381">
        <ele>2.5999999046326</ele>
        <time>2022-07-21T09:21:27.000Z</time>
      </trkpt>
      <trkpt lat="47.29633" lon="-2.38104">
        <ele>1.7999999523163</ele>
        <time>2022-07-21T09:21:28.000Z</time>
      </trkpt>
      <trkpt lat="47.29625" lon="-2.38109">
        <ele>1.2000000476837</ele>
        <time>2022-07-21T09:21:29.000Z</time>
      </trkpt>
      <trkpt lat="47.29616" lon="-2.38111">
        <ele>0.60000002384186</ele>
        <time>2022-07-21T09:21:30.000Z</time>
      </trkpt>
      <trkpt lat="47.29608" lon="-2.38114">
        <ele>-0.20000000298023</ele>
        <time>2022-07-21T09:21:31.000Z</time>
      </trkpt>
      <trkpt lat="47.29599" lon="-2.38116">
        <ele>-0.80000001192093</ele>
        <time>2022-07-21T09:21:32.000Z</time>
      </trkpt>
      <trkpt lat="47.2959" lon="-2.38117">
        <ele>-0.80000001192093</ele>
        <time>2022-07-21T09:21:33.000Z</time>
      </trkpt>
      <trkpt lat="47.29581" lon="-2.38119">
        <ele>-1.2000000476837</ele>
        <time>2022-07-21T09:21:34.000Z</time>
      </trkpt>
      <trkpt lat="47.29573" lon="-2.38121">
        <ele>-1.7999999523163</ele>
        <time>2022-07-21T09:21:35.000Z</time>
      </trkpt>
      <trkpt lat="47.29565" lon="-2.38123">
        <ele>-2.2000000476837</ele>
        <time>2022-07-21T09:21:36.000Z</time>
      </trkpt>
      <trkpt lat="47.29556" lon="-2.38124">
        <ele>-2.5999999046326</ele>
        <time>2022-07-21T09:21:37.000Z</time>
      </trkpt>
      <trkpt lat="47.29547" lon="-2.38125">
        <ele>-3</ele>
        <time>2022-07-21T09:21:38.000Z</time>
      </trkpt>
      <trkpt lat="47.29538" lon="-2.38125">
        <ele>-3</ele>
        <time>2022-07-21T09:21:39.000Z</time>
      </trkpt>
      <trkpt lat="47.2953" lon="-2.38125">
        <ele>-3.5999999046326</ele>
        <time>2022-07-21T09:21:40.000Z</time>
      </trkpt>
      <trkpt lat="47.29521" lon="-2.38125">
        <ele>-4</ele>
        <time>2022-07-21T09:21:41.000Z</time>
      </trkpt>
      <trkpt lat="47.29513" lon="-2.38124">
        <ele>-4.4000000953674</ele>
        <time>2022-07-21T09:21:42.000Z</time>
      </trkpt>
      <trkpt lat="47.29504" lon="-2.38122">
        <ele>-5</ele>
        <time>2022-07-21T09:21:43.000Z</time>
      </trkpt>
      <trkpt lat="47.29495" lon="-2.38123">
        <ele>-5.4000000953674</ele>
        <time>2022-07-21T09:21:44.000Z</time>
      </trkpt>
      <trkpt lat="47.29487" lon="-2.38126">
        <ele>-5.4000000953674</ele>
        <time>2022-07-21T09:21:45.000Z</time>
      </trkpt>
      <trkpt lat="47.29479" lon="-2.3813">
        <ele>-5.8000001907349</ele>
        <time>2022-07-21T09:21:46.000Z</time>
      </trkpt>
      <trkpt lat="47.29471" lon="-2.38135">
        <ele>-6.4000000953674</ele>
        <time>2022-07-21T09:21:47.000Z</time>
      </trkpt>
      <trkpt lat="47.29465" lon="-2.3814">
        <ele>-6.8000001907349</ele>
        <time>2022-07-21T09:21:48.000Z</time>
      </trkpt>
      <trkpt lat="47.29458" lon="-2.38145">
        <ele>-7.1999998092651</ele>
        <time>2022-07-21T09:21:49.000Z</time>
      </trkpt>
      <trkpt lat="47.29454" lon="-2.38149">
        <ele>-7.8000001907349</ele>
        <time>2022-07-21T09:21:50.000Z</time>
      </trkpt>
      <trkpt lat="47.29449" lon="-2.38152">
        <ele>-7.8000001907349</ele>
        <time>2022-07-21T09:21:52.000Z</time>
      </trkpt>
      <trkpt lat="47.29448" lon="-2.38151">
        <ele>-7.8000001907349</ele>
        <time>2022-07-21T09:21:53.000Z</time>
      </trkpt>
      <trkpt lat="47.29448" lon="-2.3815">
        <ele>-7.8000001907349</ele>
        <time>2022-07-21T09:21:55.000Z</time>
      </trkpt>
      <trkpt lat="47.29446" lon="-2.38148">
        <ele>-7.8000001907349</ele>
        <time>2022-07-21T09:22:02.000Z</time>
      </trkpt>
      <trkpt lat="47.29441" lon="-2.38142">
        <ele>-7.8000001907349</ele>
        <time>2022-07-21T09:22:04.000Z</time>
      </trkpt>
      <trkpt lat="47.29435" lon="-2.38126">
        <ele>-8.1999998092651</ele>
        <time>2022-07-21T09:22:07.000Z</time>
      </trkpt>
      <trkpt lat="47.29433" lon="-2.3812">
        <ele>-8.6000003814697</ele>
        <time>2022-07-21T09:22:08.000Z</time>
      </trkpt>
      <trkpt lat="47.29431" lon="-2.38113">
        <ele>-9.3999996185303</ele>
        <time>2022-07-21T09:22:09.000Z</time>
      </trkpt>
      <trkpt lat="47.29429" lon="-2.38106">
        <ele>-9.8000001907349</ele>
        <time>2022-07-21T09:22:10.000Z</time>
      </trkpt>
      <trkpt lat="47.29418" lon="-2.38074">
        <ele>-9.8000001907349</ele>
        <time>2022-07-21T09:22:14.000Z</time>
      </trkpt>
      <trkpt lat="47.29406" lon="-2.38038">
        <ele>-9.8000001907349</ele>
        <time>2022-07-21T09:22:19.000Z</time>
      </trkpt>
      <trkpt lat="47.29392" lon="-2.38001">
        <ele>-9.8000001907349</ele>
        <time>2022-07-21T09:22:25.000Z</time>
      </trkpt>
      <trkpt lat="47.29376" lon="-2.37958">
        <ele>-9.8000001907349</ele>
        <time>2022-07-21T09:22:32.000Z</time>
      </trkpt>
      <trkpt lat="47.29372" lon="-2.37945">
        <ele>-9</ele>
        <time>2022-07-21T09:22:34.000Z</time>
      </trkpt>
      <trkpt lat="47.2937" lon="-2.37939">
        <ele>-8.6000003814697</ele>
        <time>2022-07-21T09:22:35.000Z</time>
      </trkpt>
      <trkpt lat="47.29367" lon="-2.37933">
        <ele>-8.1999998092651</ele>
        <time>2022-07-21T09:22:36.000Z</time>
      </trkpt>
      <trkpt lat="47.29365" lon="-2.37926">
        <ele>-7.8000001907349</ele>
        <time>2022-07-21T09:22:37.000Z</time>
      </trkpt>
      <trkpt lat="47.29361" lon="-2.37914">
        <ele>-7.8000001907349</ele>
        <time>2022-07-21T09:22:39.000Z</time>
      </trkpt>
      <trkpt lat="47.29341" lon="-2.37858">
        <ele>-7.4000000953674</ele>
        <time>2022-07-21T09:22:48.000Z</time>
      </trkpt>
      <trkpt lat="47.29339" lon="-2.37851">
        <ele>-6.8000001907349</ele>
        <time>2022-07-21T09:22:49.000Z</time>
      </trkpt>
      <trkpt lat="47.29338" lon="-2.37845">
        <ele>-6.4000000953674</ele>
        <time>2022-07-21T09:22:50.000Z</time>
      </trkpt>
      <trkpt lat="47.29337" lon="-2.37838">
        <ele>-6</ele>
        <time>2022-07-21T09:22:51.000Z</time>
      </trkpt>
      <trkpt lat="47.29336" lon="-2.37831">
        <ele>-5.5999999046326</ele>
        <time>2022-07-21T09:22:52.000Z</time>
      </trkpt>
      <trkpt lat="47.29333" lon="-2.37803">
        <ele>-5.5999999046326</ele>
        <time>2022-07-21T09:22:56.000Z</time>
      </trkpt>
      <trkpt lat="47.29332" lon="-2.37782">
        <ele>-5.1999998092651</ele>
        <time>2022-07-21T09:22:59.000Z</time>
      </trkpt>
      <trkpt lat="47.29332" lon="-2.37775">
        <ele>-4.8000001907349</ele>
        <time>2022-07-21T09:23:00.000Z</time>
      </trkpt>
      <trkpt lat="47.29332" lon="-2.37768">
        <ele>-4.4000000953674</ele>
        <time>2022-07-21T09:23:01.000Z</time>
      </trkpt>
      <trkpt lat="47.29331" lon="-2.37761">
        <ele>-4</ele>
        <time>2022-07-21T09:23:02.000Z</time>
      </trkpt>
      <trkpt lat="47.29331" lon="-2.37754">
        <ele>-3.5999999046326</ele>
        <time>2022-07-21T09:23:03.000Z</time>
      </trkpt>
      <trkpt lat="47.29329" lon="-2.3772">
        <ele>-3</ele>
        <time>2022-07-21T09:23:08.000Z</time>
      </trkpt>
      <trkpt lat="47.29329" lon="-2.37714">
        <ele>-2.5999999046326</ele>
        <time>2022-07-21T09:23:09.000Z</time>
      </trkpt>
      <trkpt lat="47.29329" lon="-2.37707">
        <ele>-2.2000000476837</ele>
        <time>2022-07-21T09:23:10.000Z</time>
      </trkpt>
      <trkpt lat="47.29328" lon="-2.37701">
        <ele>-1.7999999523163</ele>
        <time>2022-07-21T09:23:11.000Z</time>
      </trkpt>
      <trkpt lat="47.29328" lon="-2.37694">
        <ele>-1.3999999761581</ele>
        <time>2022-07-21T09:23:12.000Z</time>
      </trkpt>
      <trkpt lat="47.29329" lon="-2.37673">
        <ele>-1</ele>
        <time>2022-07-21T09:23:15.000Z</time>
      </trkpt>
      <trkpt lat="47.29328" lon="-2.37666">
        <ele>-0.60000002384186</ele>
        <time>2022-07-21T09:23:16.000Z</time>
      </trkpt>
      <trkpt lat="47.29328" lon="-2.37659">
        <ele>-0.20000000298023</ele>
        <time>2022-07-21T09:23:17.000Z</time>
      </trkpt>
      <trkpt lat="47.29327" lon="-2.37653">
        <ele>0.20000000298023</ele>
        <time>2022-07-21T09:23:18.000Z</time>
      </trkpt>
      <trkpt lat="47.29326" lon="-2.37646">
        <ele>0.80000001192093</ele>
        <time>2022-07-21T09:23:19.000Z</time>
      </trkpt>
      <trkpt lat="47.29324" lon="-2.37639">
        <ele>0.80000001192093</ele>
        <time>2022-07-21T09:23:20.000Z</time>
      </trkpt>
      <trkpt lat="47.29322" lon="-2.37632">
        <ele>0.80000001192093</ele>
        <time>2022-07-21T09:23:21.000Z</time>
      </trkpt>
      <trkpt lat="47.29316" lon="-2.37613">
        <ele>0.80000001192093</ele>
        <time>2022-07-21T09:23:24.000Z</time>
      </trkpt>
      <trkpt lat="47.2931" lon="-2.37601">
        <ele>0.80000001192093</ele>
        <time>2022-07-21T09:23:26.000Z</time>
      </trkpt>
      <trkpt lat="47.29279" lon="-2.37552">
        <ele>0.80000001192093</ele>
        <time>2022-07-21T09:23:34.000Z</time>
      </trkpt>
      <trkpt lat="47.29265" lon="-2.37524">
        <ele>0.80000001192093</ele>
        <time>2022-07-21T09:23:38.000Z</time>
      </trkpt>
      <trkpt lat="47.29261" lon="-2.37518">
        <ele>0.80000001192093</ele>
        <time>2022-07-21T09:23:39.000Z</time>
      </trkpt>
      <trkpt lat="47.29256" lon="-2.37513">
        <ele>0.80000001192093</ele>
        <time>2022-07-21T09:23:40.000Z</time>
      </trkpt>
      <trkpt lat="47.29243" lon="-2.37497">
        <ele>0.80000001192093</ele>
        <time>2022-07-21T09:23:43.000Z</time>
      </trkpt>
      <trkpt lat="47.29239" lon="-2.3749">
        <ele>0.80000001192093</ele>
        <time>2022-07-21T09:23:44.000Z</time>
      </trkpt>
      <trkpt lat="47.29235" lon="-2.37484">
        <ele>1.2000000476837</ele>
        <time>2022-07-21T09:23:45.000Z</time>
      </trkpt>
      <trkpt lat="47.29231" lon="-2.37477">
        <ele>1.6000000238419</ele>
        <time>2022-07-21T09:23:46.000Z</time>
      </trkpt>
      <trkpt lat="47.29227" lon="-2.37471">
        <ele>2</ele>
        <time>2022-07-21T09:23:47.000Z</time>
      </trkpt>
      <trkpt lat="47.29223" lon="-2.37465">
        <ele>2.7999999523163</ele>
        <time>2022-07-21T09:23:48.000Z</time>
      </trkpt>
      <trkpt lat="47.2922" lon="-2.37459">
        <ele>2.7999999523163</ele>
        <time>2022-07-21T09:23:49.000Z</time>
      </trkpt>
      <trkpt lat="47.29201" lon="-2.3743">
        <ele>3.2000000476837</ele>
        <time>2022-07-21T09:23:54.000Z</time>
      </trkpt>
      <trkpt lat="47.29198" lon="-2.37424">
        <ele>3.5999999046326</ele>
        <time>2022-07-21T09:23:55.000Z</time>
      </trkpt>
      <trkpt lat="47.29194" lon="-2.37419">
        <ele>4</ele>
        <time>2022-07-21T09:23:56.000Z</time>
      </trkpt>
      <trkpt lat="47.2919" lon="-2.37414">
        <ele>4.4000000953674</ele>
        <time>2022-07-21T09:23:57.000Z</time>
      </trkpt>
      <trkpt lat="47.29187" lon="-2.37408">
        <ele>4.8000001907349</ele>
        <time>2022-07-21T09:23:58.000Z</time>
      </trkpt>
      <trkpt lat="47.29184" lon="-2.37402">
        <ele>4.8000001907349</ele>
        <time>2022-07-21T09:23:59.000Z</time>
      </trkpt>
      <trkpt lat="47.29161" lon="-2.37362">
        <ele>4.8000001907349</ele>
        <time>2022-07-21T09:24:06.000Z</time>
      </trkpt>
      <trkpt lat="47.29153" lon="-2.37342">
        <ele>5.1999998092651</ele>
        <time>2022-07-21T09:24:09.000Z</time>
      </trkpt>
      <trkpt lat="47.2915" lon="-2.37336">
        <ele>5.5999999046326</ele>
        <time>2022-07-21T09:24:10.000Z</time>
      </trkpt>
      <trkpt lat="47.29147" lon="-2.37329">
        <ele>6</ele>
        <time>2022-07-21T09:24:11.000Z</time>
      </trkpt>
      <trkpt lat="47.29144" lon="-2.37323">
        <ele>6.4000000953674</ele>
        <time>2022-07-21T09:24:12.000Z</time>
      </trkpt>
      <trkpt lat="47.29142" lon="-2.37318">
        <ele>6.8000001907349</ele>
        <time>2022-07-21T09:24:13.000Z</time>
      </trkpt>
      <trkpt lat="47.29138" lon="-2.37313">
        <ele>6.8000001907349</ele>
        <time>2022-07-21T09:24:14.000Z</time>
      </trkpt>
      <trkpt lat="47.29125" lon="-2.37301">
        <ele>6.8000001907349</ele>
        <time>2022-07-21T09:24:17.000Z</time>
      </trkpt>
      <trkpt lat="47.29095" lon="-2.37271">
        <ele>6.8000001907349</ele>
        <time>2022-07-21T09:24:24.000Z</time>
      </trkpt>
      <trkpt lat="47.29064" lon="-2.37239">
        <ele>6.8000001907349</ele>
        <time>2022-07-21T09:24:31.000Z</time>
      </trkpt>
      <trkpt lat="47.2906" lon="-2.37233">
        <ele>6.8000001907349</ele>
        <time>2022-07-21T09:24:32.000Z</time>
      </trkpt>
      <trkpt lat="47.2904" lon="-2.37214">
        <ele>6.8000001907349</ele>
        <time>2022-07-21T09:24:36.000Z</time>
      </trkpt>
      <trkpt lat="47.29029" lon="-2.37203">
        <ele>6</ele>
        <time>2022-07-21T09:24:38.000Z</time>
      </trkpt>
      <trkpt lat="47.29023" lon="-2.37197">
        <ele>5.5999999046326</ele>
        <time>2022-07-21T09:24:39.000Z</time>
      </trkpt>
      <trkpt lat="47.29018" lon="-2.37192">
        <ele>5.1999998092651</ele>
        <time>2022-07-21T09:24:40.000Z</time>
      </trkpt>
      <trkpt lat="47.29015" lon="-2.37187">
        <ele>4.8000001907349</ele>
        <time>2022-07-21T09:24:41.000Z</time>
      </trkpt>
      <trkpt lat="47.2901" lon="-2.3718">
        <ele>4.8000001907349</ele>
        <time>2022-07-21T09:24:43.000Z</time>
      </trkpt>
      <trkpt lat="47.29006" lon="-2.37176">
        <ele>4.4000000953674</ele>
        <time>2022-07-21T09:24:45.000Z</time>
      </trkpt>
      <trkpt lat="47.29005" lon="-2.37175">
        <ele>4</ele>
        <time>2022-07-21T09:24:46.000Z</time>
      </trkpt>
      <trkpt lat="47.29005" lon="-2.37175">
        <ele>3.5999999046326</ele>
        <time>2022-07-21T09:24:47.000Z</time>
      </trkpt>
      <trkpt lat="47.29003" lon="-2.37175">
        <ele>2.7999999523163</ele>
        <time>2022-07-21T09:25:16.000Z</time>
      </trkpt>
      <trkpt lat="47.28996" lon="-2.37174">
        <ele>2.7999999523163</ele>
        <time>2022-07-21T09:25:18.000Z</time>
      </trkpt>
      <trkpt lat="47.28992" lon="-2.37176">
        <ele>2.7999999523163</ele>
        <time>2022-07-21T09:25:19.000Z</time>
      </trkpt>
      <trkpt lat="47.28983" lon="-2.37181">
        <ele>2.4000000953674</ele>
        <time>2022-07-21T09:25:21.000Z</time>
      </trkpt>
      <trkpt lat="47.28979" lon="-2.37185">
        <ele>1.7999999523163</ele>
        <time>2022-07-21T09:25:22.000Z</time>
      </trkpt>
      <trkpt lat="47.28976" lon="-2.37186">
        <ele>1.3999999761581</ele>
        <time>2022-07-21T09:25:23.000Z</time>
      </trkpt>
      <trkpt lat="47.28975" lon="-2.37187">
        <ele>1</ele>
        <time>2022-07-21T09:25:24.000Z</time>
      </trkpt>
      <trkpt lat="47.28976" lon="-2.37186">
        <ele>0.60000002384186</ele>
        <time>2022-07-21T09:25:25.000Z</time>
      </trkpt>
      <trkpt lat="47.28974" lon="-2.37188">
        <ele>0.60000002384186</ele>
        <time>2022-07-21T09:25:49.000Z</time>
      </trkpt>
      <trkpt lat="47.2897" lon="-2.37192">
        <ele>0.60000002384186</ele>
        <time>2022-07-21T09:25:51.000Z</time>
      </trkpt>
      <trkpt lat="47.28955" lon="-2.372">
        <ele>0.60000002384186</ele>
        <time>2022-07-21T09:25:55.000Z</time>
      </trkpt>
      <trkpt lat="47.2895" lon="-2.37203">
        <ele>0.20000000298023</ele>
        <time>2022-07-21T09:25:56.000Z</time>
      </trkpt>
      <trkpt lat="47.28945" lon="-2.37205">
        <ele>-0.20000000298023</ele>
        <time>2022-07-21T09:25:57.000Z</time>
      </trkpt>
      <trkpt lat="47.28939" lon="-2.37207">
        <ele>-0.60000002384186</ele>
        <time>2022-07-21T09:25:58.000Z</time>
      </trkpt>
      <trkpt lat="47.28933" lon="-2.3721">
        <ele>-1.2000000476837</ele>
        <time>2022-07-21T09:25:59.000Z</time>
      </trkpt>
      <trkpt lat="47.28927" lon="-2.37212">
        <ele>-1.6000000238419</ele>
        <time>2022-07-21T09:26:00.000Z</time>
      </trkpt>
      <trkpt lat="47.28915" lon="-2.37219">
        <ele>-2</ele>
        <time>2022-07-21T09:26:02.000Z</time>
      </trkpt>
      <trkpt lat="47.28908" lon="-2.37222">
        <ele>-2.4000000953674</ele>
        <time>2022-07-21T09:26:03.000Z</time>
      </trkpt>
      <trkpt lat="47.28901" lon="-2.37224">
        <ele>-2.7999999523163</ele>
        <time>2022-07-21T09:26:04.000Z</time>
      </trkpt>
      <trkpt lat="47.28895" lon="-2.37227">
        <ele>-3.4000000953674</ele>
        <time>2022-07-21T09:26:05.000Z</time>
      </trkpt>
      <trkpt lat="47.28888" lon="-2.3723">
        <ele>-3.7999999523163</ele>
        <time>2022-07-21T09:26:06.000Z</time>
      </trkpt>
      <trkpt lat="47.28861" lon="-2.37242">
        <ele>-3.7999999523163</ele>
        <time>2022-07-21T09:26:11.000Z</time>
      </trkpt>
      <trkpt lat="47.28848" lon="-2.37243">
        <ele>-3.7999999523163</ele>
        <time>2022-07-21T09:26:14.000Z</time>
      </trkpt>
      <trkpt lat="47.28844" lon="-2.37239">
        <ele>-3.7999999523163</ele>
        <time>2022-07-21T09:26:15.000Z</time>
      </trkpt>
      <trkpt lat="47.2884" lon="-2.37221">
        <ele>-3.7999999523163</ele>
        <time>2022-07-21T09:26:18.000Z</time>
      </trkpt>
      <trkpt lat="47.28838" lon="-2.37215">
        <ele>-3.7999999523163</ele>
        <time>2022-07-21T09:26:19.000Z</time>
      </trkpt>
      <trkpt lat="47.2883" lon="-2.37174">
        <ele>-3.7999999523163</ele>
        <time>2022-07-21T09:26:25.000Z</time>
      </trkpt>
      <trkpt lat="47.28824" lon="-2.37134">
        <ele>-3.7999999523163</ele>
        <time>2022-07-21T09:26:31.000Z</time>
      </trkpt>
      <trkpt lat="47.28825" lon="-2.3711">
        <ele>-3.7999999523163</ele>
        <time>2022-07-21T09:26:36.000Z</time>
      </trkpt>
      <trkpt lat="47.28825" lon="-2.37108">
        <ele>-3.7999999523163</ele>
        <time>2022-07-21T09:26:37.000Z</time>
      </trkpt>
      <trkpt lat="47.28822" lon="-2.3711">
        <ele>-3.7999999523163</ele>
        <time>2022-07-21T09:26:39.000Z</time>
      </trkpt>
      <trkpt lat="47.28819" lon="-2.37115">
        <ele>-3.7999999523163</ele>
        <time>2022-07-21T09:26:42.000Z</time>
      </trkpt>
      <trkpt lat="47.28817" lon="-2.37116">
        <ele>-3.4000000953674</ele>
        <time>2022-07-21T09:26:43.000Z</time>
      </trkpt>
      <trkpt lat="47.28815" lon="-2.37117">
        <ele>-2.7999999523163</ele>
        <time>2022-07-21T09:26:44.000Z</time>
      </trkpt>
      <trkpt lat="47.28812" lon="-2.37117">
        <ele>-2.4000000953674</ele>
        <time>2022-07-21T09:26:45.000Z</time>
      </trkpt>
      <trkpt lat="47.28809" lon="-2.37117">
        <ele>-2</ele>
        <time>2022-07-21T09:26:46.000Z</time>
      </trkpt>
      <trkpt lat="47.28806" lon="-2.37117">
        <ele>-1.6000000238419</ele>
        <time>2022-07-21T09:26:47.000Z</time>
      </trkpt>
      <trkpt lat="47.28801" lon="-2.37117">
        <ele>-1</ele>
        <time>2022-07-21T09:26:49.000Z</time>
      </trkpt>
      <trkpt lat="47.288" lon="-2.37116">
        <ele>-0.60000002384186</ele>
        <time>2022-07-21T09:26:50.000Z</time>
      </trkpt>
      <trkpt lat="47.28798" lon="-2.37114">
        <ele>14.3</ele>
        <time>2022-07-21T09:26:51.000Z</time>
      </trkpt>
      <trkpt lat="47.28797" lon="-2.3711">
        <ele>0.40000000596046</ele>
        <time>2022-07-21T09:26:52.000Z</time>
      </trkpt>
      <trkpt lat="47.28795" lon="-2.37105">
        <ele>1</ele>
        <time>2022-07-21T09:26:53.000Z</time>
      </trkpt>
      <trkpt lat="47.28793" lon="-2.37094">
        <ele>1</ele>
        <time>2022-07-21T09:26:56.000Z</time>
      </trkpt>
      <trkpt lat="47.28793" lon="-2.3709">
        <ele>1</ele>
        <time>2022-07-21T09:26:57.000Z</time>
      </trkpt>
      <trkpt lat="47.28791" lon="-2.37077">
        <ele>1.3999999761581</ele>
        <time>2022-07-21T09:27:00.000Z</time>
      </trkpt>
      <trkpt lat="47.28791" lon="-2.37075">
        <ele>1.7999999523163</ele>
        <time>2022-07-21T09:27:01.000Z</time>
      </trkpt>
      <trkpt lat="47.2879" lon="-2.37071">
        <ele>2.2000000476837</ele>
        <time>2022-07-21T09:27:02.000Z</time>
      </trkpt>
      <trkpt lat="47.28789" lon="-2.37066">
        <ele>2.7999999523163</ele>
        <time>2022-07-21T09:27:03.000Z</time>
      </trkpt>
      <trkpt lat="47.28788" lon="-2.37062">
        <ele>3.2000000476837</ele>
        <time>2022-07-21T09:27:04.000Z</time>
      </trkpt>
      <trkpt lat="47.28785" lon="-2.37049">
        <ele>4</ele>
        <time>2022-07-21T09:27:07.000Z</time>
      </trkpt>
      <trkpt lat="47.28784" lon="-2.37045">
        <ele>4.4000000953674</ele>
        <time>2022-07-21T09:27:08.000Z</time>
      </trkpt>
      <trkpt lat="47.28783" lon="-2.37041">
        <ele>4.8000001907349</ele>
        <time>2022-07-21T09:27:09.000Z</time>
      </trkpt>
      <trkpt lat="47.28782" lon="-2.37036">
        <ele>5.1999998092651</ele>
        <time>2022-07-21T09:27:10.000Z</time>
      </trkpt>
      <trkpt lat="47.28778" lon="-2.37024">
        <ele>5.1999998092651</ele>
        <time>2022-07-21T09:27:13.000Z</time>
      </trkpt>
      <trkpt lat="47.28768" lon="-2.37009">
        <ele>5.8000001907349</ele>
        <time>2022-07-21T09:27:18.000Z</time>
      </trkpt>
      <trkpt lat="47.28765" lon="-2.37005">
        <ele>6.1999998092651</ele>
        <time>2022-07-21T09:27:19.000Z</time>
      </trkpt>
      <trkpt lat="47.28762" lon="-2.37001">
        <ele>6.5999999046326</ele>
        <time>2022-07-21T09:27:20.000Z</time>
      </trkpt>
      <trkpt lat="47.2876" lon="-2.36998">
        <ele>7</ele>
        <time>2022-07-21T09:27:21.000Z</time>
      </trkpt>
      <trkpt lat="47.28758" lon="-2.36993">
        <ele>7.5999999046326</ele>
        <time>2022-07-21T09:27:22.000Z</time>
      </trkpt>
      <trkpt lat="47.28754" lon="-2.36965">
        <ele>7.5999999046326</ele>
        <time>2022-07-21T09:27:27.000Z</time>
      </trkpt>
      <trkpt lat="47.28754" lon="-2.36958">
        <ele>7</ele>
        <time>2022-07-21T09:27:28.000Z</time>
      </trkpt>
      <trkpt lat="47.28753" lon="-2.36951">
        <ele>6.5999999046326</ele>
        <time>2022-07-21T09:27:29.000Z</time>
      </trkpt>
      <trkpt lat="47.28747" lon="-2.3694">
        <ele>6</ele>
        <time>2022-07-21T09:27:30.000Z</time>
      </trkpt>
      <trkpt lat="47.28743" lon="-2.36932">
        <ele>4.8000001907349</ele>
        <time>2022-07-21T09:27:31.000Z</time>
      </trkpt>
      <trkpt lat="47.28738" lon="-2.36924">
        <ele>4.1999998092651</ele>
        <time>2022-07-21T09:27:32.000Z</time>
      </trkpt>
      <trkpt lat="47.28734" lon="-2.36919">
        <ele>3.5999999046326</ele>
        <time>2022-07-21T09:27:33.000Z</time>
      </trkpt>
      <trkpt lat="47.28728" lon="-2.36914">
        <ele>3</ele>
        <time>2022-07-21T09:27:34.000Z</time>
      </trkpt>
      <trkpt lat="47.28724" lon="-2.36912">
        <ele>3</ele>
        <time>2022-07-21T09:27:35.000Z</time>
      </trkpt>
      <trkpt lat="47.28722" lon="-2.36909">
        <ele>3</ele>
        <time>2022-07-21T09:27:36.000Z</time>
      </trkpt>
      <trkpt lat="47.28717" lon="-2.36902">
        <ele>3</ele>
        <time>2022-07-21T09:27:38.000Z</time>
      </trkpt>
      <trkpt lat="47.28706" lon="-2.36878">
        <ele>3</ele>
        <time>2022-07-21T09:27:43.000Z</time>
      </trkpt>
      <trkpt lat="47.28702" lon="-2.3687">
        <ele>3.4000000953674</ele>
        <time>2022-07-21T09:27:45.000Z</time>
      </trkpt>
      <trkpt lat="47.287" lon="-2.36867">
        <ele>3.7999999523163</ele>
        <time>2022-07-21T09:27:46.000Z</time>
      </trkpt>
      <trkpt lat="47.28697" lon="-2.36863">
        <ele>4.1999998092651</ele>
        <time>2022-07-21T09:27:47.000Z</time>
      </trkpt>
      <trkpt lat="47.28696" lon="-2.36858">
        <ele>4.5999999046326</ele>
        <time>2022-07-21T09:27:48.000Z</time>
      </trkpt>
      <trkpt lat="47.28694" lon="-2.36854">
        <ele>5</ele>
        <time>2022-07-21T09:27:49.000Z</time>
      </trkpt>
      <trkpt lat="47.28684" lon="-2.36835">
        <ele>5</ele>
        <time>2022-07-21T09:27:54.000Z</time>
      </trkpt>
      <trkpt lat="47.28675" lon="-2.36817">
        <ele>5.4000000953674</ele>
        <time>2022-07-21T09:27:59.000Z</time>
      </trkpt>
      <trkpt lat="47.28674" lon="-2.36814">
        <ele>5.8000001907349</ele>
        <time>2022-07-21T09:28:00.000Z</time>
      </trkpt>
      <trkpt lat="47.28672" lon="-2.3681">
        <ele>6.1999998092651</ele>
        <time>2022-07-21T09:28:01.000Z</time>
      </trkpt>
      <trkpt lat="47.2867" lon="-2.36809">
        <ele>6.8000001907349</ele>
        <time>2022-07-21T09:28:02.000Z</time>
      </trkpt>
      <trkpt lat="47.28668" lon="-2.36807">
        <ele>7.1999998092651</ele>
        <time>2022-07-21T09:28:03.000Z</time>
      </trkpt>
      <trkpt lat="47.28664" lon="-2.36802">
        <ele>7.1999998092651</ele>
        <time>2022-07-21T09:28:05.000Z</time>
      </trkpt>
      <trkpt lat="47.2866" lon="-2.36803">
        <ele>7.1999998092651</ele>
        <time>2022-07-21T09:28:06.000Z</time>
      </trkpt>
      <trkpt lat="47.28654" lon="-2.36809">
        <ele>7.1999998092651</ele>
        <time>2022-07-21T09:28:08.000Z</time>
      </trkpt>
      <trkpt lat="47.28643" lon="-2.36825">
        <ele>7.1999998092651</ele>
        <time>2022-07-21T09:28:12.000Z</time>
      </trkpt>
      <trkpt lat="47.28639" lon="-2.3683">
        <ele>7.1999998092651</ele>
        <time>2022-07-21T09:28:13.000Z</time>
      </trkpt>
      <trkpt lat="47.28625" lon="-2.36842">
        <ele>6.8000001907349</ele>
        <time>2022-07-21T09:28:16.000Z</time>
      </trkpt>
      <trkpt lat="47.28618" lon="-2.36844">
        <ele>6.4000000953674</ele>
        <time>2022-07-21T09:28:17.000Z</time>
      </trkpt>
      <trkpt lat="47.28613" lon="-2.36846">
        <ele>6</ele>
        <time>2022-07-21T09:28:18.000Z</time>
      </trkpt>
      <trkpt lat="47.28607" lon="-2.36847">
        <ele>5.5999999046326</ele>
        <time>2022-07-21T09:28:19.000Z</time>
      </trkpt>
      <trkpt lat="47.28602" lon="-2.36847">
        <ele>5.1999998092651</ele>
        <time>2022-07-21T09:28:20.000Z</time>
      </trkpt>
      <trkpt lat="47.28593" lon="-2.36838">
        <ele>5.1999998092651</ele>
        <time>2022-07-21T09:28:22.000Z</time>
      </trkpt>
      <trkpt lat="47.28583" lon="-2.36819">
        <ele>5.1999998092651</ele>
        <time>2022-07-21T09:28:26.000Z</time>
      </trkpt>
      <trkpt lat="47.2858" lon="-2.36814">
        <ele>5.1999998092651</ele>
        <time>2022-07-21T09:28:27.000Z</time>
      </trkpt>
      <trkpt lat="47.28566" lon="-2.36787">
        <ele>5.1999998092651</ele>
        <time>2022-07-21T09:28:34.000Z</time>
      </trkpt>
      <trkpt lat="47.28551" lon="-2.36762">
        <ele>5.1999998092651</ele>
        <time>2022-07-21T09:28:42.000Z</time>
      </trkpt>
      <trkpt lat="47.2854" lon="-2.36744">
        <ele>5.1999998092651</ele>
        <time>2022-07-21T09:28:49.000Z</time>
      </trkpt>
      <trkpt lat="47.28531" lon="-2.36727">
        <ele>5.5999999046326</ele>
        <time>2022-07-21T09:28:56.000Z</time>
      </trkpt>
      <trkpt lat="47.2853" lon="-2.36725">
        <ele>6</ele>
        <time>2022-07-21T09:28:57.000Z</time>
      </trkpt>
      <trkpt lat="47.28528" lon="-2.36723">
        <ele>6.4000000953674</ele>
        <time>2022-07-21T09:28:58.000Z</time>
      </trkpt>
      <trkpt lat="47.28527" lon="-2.36721">
        <ele>6.8000001907349</ele>
        <time>2022-07-21T09:28:59.000Z</time>
      </trkpt>
      <trkpt lat="47.28526" lon="-2.36719">
        <ele>7.1999998092651</ele>
        <time>2022-07-21T09:29:00.000Z</time>
      </trkpt>
      <trkpt lat="47.28524" lon="-2.36711">
        <ele>7.1999998092651</ele>
        <time>2022-07-21T09:29:04.000Z</time>
      </trkpt>
      <trkpt lat="47.28518" lon="-2.36698">
        <ele>8.1999998092651</ele>
        <time>2022-07-21T09:29:10.000Z</time>
      </trkpt>
      <trkpt lat="47.28517" lon="-2.36696">
        <ele>8.6000003814697</ele>
        <time>2022-07-21T09:29:11.000Z</time>
      </trkpt>
      <trkpt lat="47.28516" lon="-2.36694">
        <ele>9</ele>
        <time>2022-07-21T09:29:12.000Z</time>
      </trkpt>
      <trkpt lat="47.28515" lon="-2.36693">
        <ele>9.3999996185303</ele>
        <time>2022-07-21T09:29:13.000Z</time>
      </trkpt>
      <trkpt lat="47.28509" lon="-2.36686">
        <ele>9.3999996185303</ele>
        <time>2022-07-21T09:29:17.000Z</time>
      </trkpt>
      <trkpt lat="47.28504" lon="-2.36683">
        <ele>9.3999996185303</ele>
        <time>2022-07-21T09:29:20.000Z</time>
      </trkpt>
      <trkpt lat="47.28502" lon="-2.36679">
        <ele>9.3999996185303</ele>
        <time>2022-07-21T09:29:22.000Z</time>
      </trkpt>
      <trkpt lat="47.28493" lon="-2.36663">
        <ele>9.3999996185303</ele>
        <time>2022-07-21T09:29:28.000Z</time>
      </trkpt>
      <trkpt lat="47.28492" lon="-2.36651">
        <ele>9.3999996185303</ele>
        <time>2022-07-21T09:29:33.000Z</time>
      </trkpt>
      <trkpt lat="47.28489" lon="-2.36637">
        <ele>9.3999996185303</ele>
        <time>2022-07-21T09:29:38.000Z</time>
      </trkpt>
      <trkpt lat="47.28483" lon="-2.36615">
        <ele>9.3999996185303</ele>
        <time>2022-07-21T09:29:44.000Z</time>
      </trkpt>
      <trkpt lat="47.28471" lon="-2.36581">
        <ele>9.3999996185303</ele>
        <time>2022-07-21T09:29:53.000Z</time>
      </trkpt>
      <trkpt lat="47.2847" lon="-2.36565">
        <ele>9.3999996185303</ele>
        <time>2022-07-21T09:29:57.000Z</time>
      </trkpt>
      <trkpt lat="47.28472" lon="-2.36563">
        <ele>9.3999996185303</ele>
        <time>2022-07-21T09:29:58.000Z</time>
      </trkpt>
      <trkpt lat="47.28488" lon="-2.36545">
        <ele>9.8000001907349</ele>
        <time>2022-07-21T09:30:04.000Z</time>
      </trkpt>
      <trkpt lat="47.2849" lon="-2.36542">
        <ele>10.199999809265</ele>
        <time>2022-07-21T09:30:05.000Z</time>
      </trkpt>
      <trkpt lat="47.28492" lon="-2.36539">
        <ele>10.60000038147</ele>
        <time>2022-07-21T09:30:06.000Z</time>
      </trkpt>
      <trkpt lat="47.28494" lon="-2.36536">
        <ele>11</ele>
        <time>2022-07-21T09:30:07.000Z</time>
      </trkpt>
      <trkpt lat="47.28496" lon="-2.36534">
        <ele>11.39999961853</ele>
        <time>2022-07-21T09:30:08.000Z</time>
      </trkpt>
      <trkpt lat="47.28501" lon="-2.36528">
        <ele>11.39999961853</ele>
        <time>2022-07-21T09:30:10.000Z</time>
      </trkpt>
      <trkpt lat="47.28513" lon="-2.36517">
        <ele>11.39999961853</ele>
        <time>2022-07-21T09:30:15.000Z</time>
      </trkpt>
      <trkpt lat="47.2852" lon="-2.36505">
        <ele>11.800000190735</ele>
        <time>2022-07-21T09:30:20.000Z</time>
      </trkpt>
      <trkpt lat="47.28521" lon="-2.36502">
        <ele>12.199999809265</ele>
        <time>2022-07-21T09:30:21.000Z</time>
      </trkpt>
      <trkpt lat="47.2852" lon="-2.36498">
        <ele>12.800000190735</ele>
        <time>2022-07-21T09:30:22.000Z</time>
      </trkpt>
      <trkpt lat="47.28519" lon="-2.36494">
        <ele>13.199999809265</ele>
        <time>2022-07-21T09:30:23.000Z</time>
      </trkpt>
      <trkpt lat="47.28518" lon="-2.3649">
        <ele>13.60000038147</ele>
        <time>2022-07-21T09:30:24.000Z</time>
      </trkpt>
      <trkpt lat="47.28519" lon="-2.36478">
        <ele>13.60000038147</ele>
        <time>2022-07-21T09:30:27.000Z</time>
      </trkpt>
      <trkpt lat="47.28515" lon="-2.36469">
        <ele>13.60000038147</ele>
        <time>2022-07-21T09:30:29.000Z</time>
      </trkpt>
      <trkpt lat="47.28511" lon="-2.36459">
        <ele>13.60000038147</ele>
        <time>2022-07-21T09:30:31.000Z</time>
      </trkpt>
      <trkpt lat="47.28498" lon="-2.36447">
        <ele>13.60000038147</ele>
        <time>2022-07-21T09:30:35.000Z</time>
      </trkpt>
      <trkpt lat="47.28481" lon="-2.36433">
        <ele>13.60000038147</ele>
        <time>2022-07-21T09:30:40.000Z</time>
      </trkpt>
      <trkpt lat="47.28473" lon="-2.36423">
        <ele>14</ele>
        <time>2022-07-21T09:30:43.000Z</time>
      </trkpt>
      <trkpt lat="47.28471" lon="-2.3642">
        <ele>14.39999961853</ele>
        <time>2022-07-21T09:30:44.000Z</time>
      </trkpt>
      <trkpt lat="47.28469" lon="-2.36418">
        <ele>14.800000190735</ele>
        <time>2022-07-21T09:30:45.000Z</time>
      </trkpt>
      <trkpt lat="47.28467" lon="-2.36415">
        <ele>15.199999809265</ele>
        <time>2022-07-21T09:30:46.000Z</time>
      </trkpt>
      <trkpt lat="47.28466" lon="-2.36413">
        <ele>15.60000038147</ele>
        <time>2022-07-21T09:30:47.000Z</time>
      </trkpt>
      <trkpt lat="47.28454" lon="-2.36397">
        <ele>15.60000038147</ele>
        <time>2022-07-21T09:30:52.000Z</time>
      </trkpt>
      <trkpt lat="47.28437" lon="-2.3638">
        <ele>15.60000038147</ele>
        <time>2022-07-21T09:30:56.000Z</time>
      </trkpt>
      <trkpt lat="47.28425" lon="-2.36368">
        <ele>15.199999809265</ele>
        <time>2022-07-21T09:30:59.000Z</time>
      </trkpt>
      <trkpt lat="47.28421" lon="-2.36363">
        <ele>14.800000190735</ele>
        <time>2022-07-21T09:31:00.000Z</time>
      </trkpt>
      <trkpt lat="47.28417" lon="-2.36357">
        <ele>14.199999809265</ele>
        <time>2022-07-21T09:31:01.000Z</time>
      </trkpt>
      <trkpt lat="47.28413" lon="-2.36351">
        <ele>13.800000190735</ele>
        <time>2022-07-21T09:31:02.000Z</time>
      </trkpt>
      <trkpt lat="47.28409" lon="-2.36345">
        <ele>13.39999961853</ele>
        <time>2022-07-21T09:31:03.000Z</time>
      </trkpt>
      <trkpt lat="47.28405" lon="-2.3634">
        <ele>13.39999961853</ele>
        <time>2022-07-21T09:31:04.000Z</time>
      </trkpt>
      <trkpt lat="47.28391" lon="-2.36323">
        <ele>13.39999961853</ele>
        <time>2022-07-21T09:31:07.000Z</time>
      </trkpt>
      <trkpt lat="47.28386" lon="-2.36319">
        <ele>13.39999961853</ele>
        <time>2022-07-21T09:31:08.000Z</time>
      </trkpt>
      <trkpt lat="47.28371" lon="-2.36309">
        <ele>13.39999961853</ele>
        <time>2022-07-21T09:31:11.000Z</time>
      </trkpt>
      <trkpt lat="47.28368" lon="-2.36304">
        <ele>12.800000190735</ele>
        <time>2022-07-21T09:31:12.000Z</time>
      </trkpt>
      <trkpt lat="47.28365" lon="-2.363">
        <ele>12.39999961853</ele>
        <time>2022-07-21T09:31:13.000Z</time>
      </trkpt>
      <trkpt lat="47.28365" lon="-2.36295">
        <ele>11.39999961853</ele>
        <time>2022-07-21T09:31:14.000Z</time>
      </trkpt>
      <trkpt lat="47.28365" lon="-2.36289">
        <ele>11</ele>
        <time>2022-07-21T09:31:15.000Z</time>
      </trkpt>
      <trkpt lat="47.28366" lon="-2.36283">
        <ele>11</ele>
        <time>2022-07-21T09:31:17.000Z</time>
      </trkpt>
      <trkpt lat="47.28367" lon="-2.36282">
        <ele>11</ele>
        <time>2022-07-21T09:31:18.000Z</time>
      </trkpt>
      <trkpt lat="47.28367" lon="-2.36282">
        <ele>11</ele>
        <time>2022-07-21T09:31:20.000Z</time>
      </trkpt>
      <trkpt lat="47.28365" lon="-2.36277">
        <ele>11</ele>
        <time>2022-07-21T09:32:02.000Z</time>
      </trkpt>
      <trkpt lat="47.28365" lon="-2.36274">
        <ele>11</ele>
        <time>2022-07-21T09:32:03.000Z</time>
      </trkpt>
      <trkpt lat="47.28367" lon="-2.36263">
        <ele>11</ele>
        <time>2022-07-21T09:32:07.000Z</time>
      </trkpt>
      <trkpt lat="47.28371" lon="-2.36258">
        <ele>11</ele>
        <time>2022-07-21T09:32:09.000Z</time>
      </trkpt>
      <trkpt lat="47.28382" lon="-2.36244">
        <ele>11</ele>
        <time>2022-07-21T09:32:16.000Z</time>
      </trkpt>
      <trkpt lat="47.28389" lon="-2.36233">
        <ele>11.39999961853</ele>
        <time>2022-07-21T09:32:20.000Z</time>
      </trkpt>
      <trkpt lat="47.28392" lon="-2.3623">
        <ele>11.800000190735</ele>
        <time>2022-07-21T09:32:21.000Z</time>
      </trkpt>
      <trkpt lat="47.28395" lon="-2.36227">
        <ele>12.39999961853</ele>
        <time>2022-07-21T09:32:22.000Z</time>
      </trkpt>
      <trkpt lat="47.28398" lon="-2.36224">
        <ele>12.800000190735</ele>
        <time>2022-07-21T09:32:23.000Z</time>
      </trkpt>
      <trkpt lat="47.28401" lon="-2.36222">
        <ele>13.199999809265</ele>
        <time>2022-07-21T09:32:24.000Z</time>
      </trkpt>
      <trkpt lat="47.28409" lon="-2.36217">
        <ele>13.199999809265</ele>
        <time>2022-07-21T09:32:27.000Z</time>
      </trkpt>
      <trkpt lat="47.28418" lon="-2.36213">
        <ele>13.60000038147</ele>
        <time>2022-07-21T09:32:30.000Z</time>
      </trkpt>
      <trkpt lat="47.28422" lon="-2.36211">
        <ele>14.199999809265</ele>
        <time>2022-07-21T09:32:31.000Z</time>
      </trkpt>
      <trkpt lat="47.28425" lon="-2.36209">
        <ele>14.60000038147</ele>
        <time>2022-07-21T09:32:32.000Z</time>
      </trkpt>
      <trkpt lat="47.28428" lon="-2.36207">
        <ele>15</ele>
        <time>2022-07-21T09:32:33.000Z</time>
      </trkpt>
      <trkpt lat="47.28431" lon="-2.36206">
        <ele>15.39999961853</ele>
        <time>2022-07-21T09:32:34.000Z</time>
      </trkpt>
      <trkpt lat="47.28435" lon="-2.36205">
        <ele>15.39999961853</ele>
        <time>2022-07-21T09:32:36.000Z</time>
      </trkpt>
      <trkpt lat="47.28438" lon="-2.36203">
        <ele>15.39999961853</ele>
        <time>2022-07-21T09:32:39.000Z</time>
      </trkpt>
      <trkpt lat="47.28447" lon="-2.36198">
        <ele>15.39999961853</ele>
        <time>2022-07-21T09:32:49.000Z</time>
      </trkpt>
      <trkpt lat="47.2845" lon="-2.36196">
        <ele>15.39999961853</ele>
        <time>2022-07-21T09:32:50.000Z</time>
      </trkpt>
      <trkpt lat="47.28451" lon="-2.36188">
        <ele>15.39999961853</ele>
        <time>2022-07-21T09:32:53.000Z</time>
      </trkpt>
      <trkpt lat="47.28448" lon="-2.36183">
        <ele>15.800000190735</ele>
        <time>2022-07-21T09:32:55.000Z</time>
      </trkpt>
      <trkpt lat="47.28448" lon="-2.36179">
        <ele>16.200000762939</ele>
        <time>2022-07-21T09:32:56.000Z</time>
      </trkpt>
      <trkpt lat="47.28448" lon="-2.36175">
        <ele>16.60000038147</ele>
        <time>2022-07-21T09:32:57.000Z</time>
      </trkpt>
      <trkpt lat="47.28448" lon="-2.36171">
        <ele>17</ele>
        <time>2022-07-21T09:32:58.000Z</time>
      </trkpt>
      <trkpt lat="47.28448" lon="-2.36167">
        <ele>17.60000038147</ele>
        <time>2022-07-21T09:32:59.000Z</time>
      </trkpt>
      <trkpt lat="47.28448" lon="-2.36158">
        <ele>17.60000038147</ele>
        <time>2022-07-21T09:33:01.000Z</time>
      </trkpt>
      <trkpt lat="47.28446" lon="-2.36154">
        <ele>18</ele>
        <time>2022-07-21T09:33:02.000Z</time>
      </trkpt>
      <trkpt lat="47.28444" lon="-2.36151">
        <ele>18.39999961853</ele>
        <time>2022-07-21T09:33:03.000Z</time>
      </trkpt>
      <trkpt lat="47.28443" lon="-2.36147">
        <ele>18.799999237061</ele>
        <time>2022-07-21T09:33:04.000Z</time>
      </trkpt>
      <trkpt lat="47.28441" lon="-2.36143">
        <ele>19.200000762939</ele>
        <time>2022-07-21T09:33:05.000Z</time>
      </trkpt>
      <trkpt lat="47.28441" lon="-2.36139">
        <ele>19.60000038147</ele>
        <time>2022-07-21T09:33:06.000Z</time>
      </trkpt>
      <trkpt lat="47.28441" lon="-2.36135">
        <ele>19.60000038147</ele>
        <time>2022-07-21T09:33:07.000Z</time>
      </trkpt>
      <trkpt lat="47.28438" lon="-2.36122">
        <ele>20</ele>
        <time>2022-07-21T09:33:10.000Z</time>
      </trkpt>
      <trkpt lat="47.28438" lon="-2.36117">
        <ele>20.39999961853</ele>
        <time>2022-07-21T09:33:11.000Z</time>
      </trkpt>
      <trkpt lat="47.28438" lon="-2.36113">
        <ele>20.799999237061</ele>
        <time>2022-07-21T09:33:12.000Z</time>
      </trkpt>
      <trkpt lat="47.28438" lon="-2.36109">
        <ele>21.200000762939</ele>
        <time>2022-07-21T09:33:13.000Z</time>
      </trkpt>
      <trkpt lat="47.28437" lon="-2.36104">
        <ele>21.60000038147</ele>
        <time>2022-07-21T09:33:14.000Z</time>
      </trkpt>
      <trkpt lat="47.28436" lon="-2.36087">
        <ele>22</ele>
        <time>2022-07-21T09:33:18.000Z</time>
      </trkpt>
      <trkpt lat="47.28436" lon="-2.36082">
        <ele>22.39999961853</ele>
        <time>2022-07-21T09:33:19.000Z</time>
      </trkpt>
      <trkpt lat="47.28436" lon="-2.36078">
        <ele>22.799999237061</ele>
        <time>2022-07-21T09:33:20.000Z</time>
      </trkpt>
      <trkpt lat="47.28436" lon="-2.36074">
        <ele>23.39999961853</ele>
        <time>2022-07-21T09:33:21.000Z</time>
      </trkpt>
      <trkpt lat="47.28436" lon="-2.36069">
        <ele>23.799999237061</ele>
        <time>2022-07-21T09:33:22.000Z</time>
      </trkpt>
      <trkpt lat="47.28436" lon="-2.36064">
        <ele>23.799999237061</ele>
        <time>2022-07-21T09:33:23.000Z</time>
      </trkpt>
      <trkpt lat="47.28436" lon="-2.3606">
        <ele>23.799999237061</ele>
        <time>2022-07-21T09:33:24.000Z</time>
      </trkpt>
      <trkpt lat="47.28434" lon="-2.36048">
        <ele>23.799999237061</ele>
        <time>2022-07-21T09:33:27.000Z</time>
      </trkpt>
      <trkpt lat="47.28434" lon="-2.3604">
        <ele>24.200000762939</ele>
        <time>2022-07-21T09:33:29.000Z</time>
      </trkpt>
      <trkpt lat="47.28434" lon="-2.36037">
        <ele>24.60000038147</ele>
        <time>2022-07-21T09:33:30.000Z</time>
      </trkpt>
      <trkpt lat="47.28434" lon="-2.36034">
        <ele>25</ele>
        <time>2022-07-21T09:33:31.000Z</time>
      </trkpt>
      <trkpt lat="47.28435" lon="-2.36031">
        <ele>25.39999961853</ele>
        <time>2022-07-21T09:33:32.000Z</time>
      </trkpt>
      <trkpt lat="47.28436" lon="-2.36029">
        <ele>25.799999237061</ele>
        <time>2022-07-21T09:33:33.000Z</time>
      </trkpt>
      <trkpt lat="47.28442" lon="-2.36021">
        <ele>25.799999237061</ele>
        <time>2022-07-21T09:33:38.000Z</time>
      </trkpt>
      <trkpt lat="47.28442" lon="-2.36017">
        <ele>25.799999237061</ele>
        <time>2022-07-21T09:33:40.000Z</time>
      </trkpt>
      <trkpt lat="47.28443" lon="-2.36011">
        <ele>25.799999237061</ele>
        <time>2022-07-21T09:33:43.000Z</time>
      </trkpt>
      <trkpt lat="47.28448" lon="-2.36004">
        <ele>25.799999237061</ele>
        <time>2022-07-21T09:33:47.000Z</time>
      </trkpt>
      <trkpt lat="47.2845" lon="-2.36">
        <ele>25.799999237061</ele>
        <time>2022-07-21T09:35:04.000Z</time>
      </trkpt>
      <trkpt lat="47.28449" lon="-2.35991">
        <ele>25.799999237061</ele>
        <time>2022-07-21T09:35:07.000Z</time>
      </trkpt>
      <trkpt lat="47.28441" lon="-2.3599">
        <ele>25.799999237061</ele>
        <time>2022-07-21T09:35:11.000Z</time>
      </trkpt>
      <trkpt lat="47.28426" lon="-2.36002">
        <ele>25.799999237061</ele>
        <time>2022-07-21T09:35:16.000Z</time>
      </trkpt>
      <trkpt lat="47.28407" lon="-2.36019">
        <ele>25.799999237061</ele>
        <time>2022-07-21T09:35:21.000Z</time>
      </trkpt>
      <trkpt lat="47.28385" lon="-2.36021">
        <ele>25.799999237061</ele>
        <time>2022-07-21T09:35:25.000Z</time>
      </trkpt>
      <trkpt lat="47.28379" lon="-2.36021">
        <ele>25.39999961853</ele>
        <time>2022-07-21T09:35:26.000Z</time>
      </trkpt>
      <trkpt lat="47.28372" lon="-2.36021">
        <ele>25</ele>
        <time>2022-07-21T09:35:27.000Z</time>
      </trkpt>
      <trkpt lat="47.28365" lon="-2.36022">
        <ele>24.60000038147</ele>
        <time>2022-07-21T09:35:28.000Z</time>
      </trkpt>
      <trkpt lat="47.28359" lon="-2.36023">
        <ele>24</ele>
        <time>2022-07-21T09:35:29.000Z</time>
      </trkpt>
      <trkpt lat="47.28352" lon="-2.36024">
        <ele>23.39999961853</ele>
        <time>2022-07-21T09:35:30.000Z</time>
      </trkpt>
      <trkpt lat="47.28347" lon="-2.36027">
        <ele>22.60000038147</ele>
        <time>2022-07-21T09:35:31.000Z</time>
      </trkpt>
      <trkpt lat="47.28341" lon="-2.36032">
        <ele>22</ele>
        <time>2022-07-21T09:35:32.000Z</time>
      </trkpt>
      <trkpt lat="47.28337" lon="-2.36036">
        <ele>21.39999961853</ele>
        <time>2022-07-21T09:35:33.000Z</time>
      </trkpt>
      <trkpt lat="47.28332" lon="-2.36041">
        <ele>20.799999237061</ele>
        <time>2022-07-21T09:35:34.000Z</time>
      </trkpt>
      <trkpt lat="47.28328" lon="-2.36045">
        <ele>20</ele>
        <time>2022-07-21T09:35:35.000Z</time>
      </trkpt>
      <trkpt lat="47.28323" lon="-2.36049">
        <ele>19.39999961853</ele>
        <time>2022-07-21T09:35:36.000Z</time>
      </trkpt>
      <trkpt lat="47.28314" lon="-2.36049">
        <ele>19.39999961853</ele>
        <time>2022-07-21T09:35:38.000Z</time>
      </trkpt>
      <trkpt lat="47.28291" lon="-2.36042">
        <ele>19</ele>
        <time>2022-07-21T09:35:43.000Z</time>
      </trkpt>
      <trkpt lat="47.28287" lon="-2.36038">
        <ele>18.60000038147</ele>
        <time>2022-07-21T09:35:44.000Z</time>
      </trkpt>
      <trkpt lat="47.28284" lon="-2.36032">
        <ele>18</ele>
        <time>2022-07-21T09:35:45.000Z</time>
      </trkpt>
      <trkpt lat="47.28282" lon="-2.36025">
        <ele>16.60000038147</ele>
        <time>2022-07-21T09:35:46.000Z</time>
      </trkpt>
      <trkpt lat="47.28281" lon="-2.36019">
        <ele>15.800000190735</ele>
        <time>2022-07-21T09:35:47.000Z</time>
      </trkpt>
      <trkpt lat="47.28281" lon="-2.36011">
        <ele>15</ele>
        <time>2022-07-21T09:35:48.000Z</time>
      </trkpt>
      <trkpt lat="47.28282" lon="-2.36004">
        <ele>14.199999809265</ele>
        <time>2022-07-21T09:35:49.000Z</time>
      </trkpt>
      <trkpt lat="47.28284" lon="-2.35996">
        <ele>13.39999961853</ele>
        <time>2022-07-21T09:35:50.000Z</time>
      </trkpt>
      <trkpt lat="47.28285" lon="-2.35988">
        <ele>12.39999961853</ele>
        <time>2022-07-21T09:35:51.000Z</time>
      </trkpt>
      <trkpt lat="47.28285" lon="-2.35981">
        <ele>11.60000038147</ele>
        <time>2022-07-21T09:35:52.000Z</time>
      </trkpt>
      <trkpt lat="47.28285" lon="-2.35975">
        <ele>10.800000190735</ele>
        <time>2022-07-21T09:35:53.000Z</time>
      </trkpt>
      <trkpt lat="47.28283" lon="-2.3597">
        <ele>10</ele>
        <time>2022-07-21T09:35:54.000Z</time>
      </trkpt>
      <trkpt lat="47.28275" lon="-2.35949">
        <ele>10</ele>
        <time>2022-07-21T09:35:58.000Z</time>
      </trkpt>
      <trkpt lat="47.28266" lon="-2.35927">
        <ele>10.39999961853</ele>
        <time>2022-07-21T09:36:02.000Z</time>
      </trkpt>
      <trkpt lat="47.28263" lon="-2.35921">
        <ele>10.800000190735</ele>
        <time>2022-07-21T09:36:03.000Z</time>
      </trkpt>
      <trkpt lat="47.2826" lon="-2.35916">
        <ele>11.39999961853</ele>
        <time>2022-07-21T09:36:04.000Z</time>
      </trkpt>
      <trkpt lat="47.28256" lon="-2.35912">
        <ele>11.800000190735</ele>
        <time>2022-07-21T09:36:05.000Z</time>
      </trkpt>
      <trkpt lat="47.28252" lon="-2.35911">
        <ele>12.39999961853</ele>
        <time>2022-07-21T09:36:06.000Z</time>
      </trkpt>
      <trkpt lat="47.28232" lon="-2.35906">
        <ele>12.39999961853</ele>
        <time>2022-07-21T09:36:10.000Z</time>
      </trkpt>
      <trkpt lat="47.28227" lon="-2.35903">
        <ele>12.39999961853</ele>
        <time>2022-07-21T09:36:11.000Z</time>
      </trkpt>
      <trkpt lat="47.28222" lon="-2.35901">
        <ele>11.800000190735</ele>
        <time>2022-07-21T09:36:12.000Z</time>
      </trkpt>
      <trkpt lat="47.28218" lon="-2.35898">
        <ele>11.39999961853</ele>
        <time>2022-07-21T09:36:13.000Z</time>
      </trkpt>
      <trkpt lat="47.28216" lon="-2.35895">
        <ele>11</ele>
        <time>2022-07-21T09:36:14.000Z</time>
      </trkpt>
      <trkpt lat="47.28214" lon="-2.35891">
        <ele>10.60000038147</ele>
        <time>2022-07-21T09:36:15.000Z</time>
      </trkpt>
      <trkpt lat="47.28212" lon="-2.35887">
        <ele>10.199999809265</ele>
        <time>2022-07-21T09:36:16.000Z</time>
      </trkpt>
      <trkpt lat="47.28208" lon="-2.35878">
        <ele>10.199999809265</ele>
        <time>2022-07-21T09:36:19.000Z</time>
      </trkpt>
      <trkpt lat="47.28207" lon="-2.35875">
        <ele>10.199999809265</ele>
        <time>2022-07-21T09:36:20.000Z</time>
      </trkpt>
      <trkpt lat="47.28201" lon="-2.35868">
        <ele>10.199999809265</ele>
        <time>2022-07-21T09:36:24.000Z</time>
      </trkpt>
      <trkpt lat="47.28197" lon="-2.35864">
        <ele>10.199999809265</ele>
        <time>2022-07-21T09:36:27.000Z</time>
      </trkpt>
      <trkpt lat="47.28194" lon="-2.35863">
        <ele>10.199999809265</ele>
        <time>2022-07-21T09:36:29.000Z</time>
      </trkpt>
      <trkpt lat="47.28187" lon="-2.35869">
        <ele>10.199999809265</ele>
        <time>2022-07-21T09:36:32.000Z</time>
      </trkpt>
      <trkpt lat="47.28186" lon="-2.35871">
        <ele>10.199999809265</ele>
        <time>2022-07-21T09:36:33.000Z</time>
      </trkpt>
      <trkpt lat="47.28187" lon="-2.35885">
        <ele>10.199999809265</ele>
        <time>2022-07-21T09:36:37.000Z</time>
      </trkpt>
      <trkpt lat="47.28186" lon="-2.35895">
        <ele>10.199999809265</ele>
        <time>2022-07-21T09:36:39.000Z</time>
      </trkpt>
      <trkpt lat="47.28186" lon="-2.35903">
        <ele>9.8000001907349</ele>
        <time>2022-07-21T09:36:41.000Z</time>
      </trkpt>
      <trkpt lat="47.28187" lon="-2.35907">
        <ele>9.3999996185303</ele>
        <time>2022-07-21T09:36:42.000Z</time>
      </trkpt>
      <trkpt lat="47.28186" lon="-2.35912">
        <ele>9</ele>
        <time>2022-07-21T09:36:43.000Z</time>
      </trkpt>
      <trkpt lat="47.28187" lon="-2.35917">
        <ele>8.6000003814697</ele>
        <time>2022-07-21T09:36:44.000Z</time>
      </trkpt>
      <trkpt lat="47.28187" lon="-2.35922">
        <ele>8</ele>
        <time>2022-07-21T09:36:45.000Z</time>
      </trkpt>
      <trkpt lat="47.28186" lon="-2.35926">
        <ele>8</ele>
        <time>2022-07-21T09:36:46.000Z</time>
      </trkpt>
      <trkpt lat="47.28175" lon="-2.35929">
        <ele>8</ele>
        <time>2022-07-21T09:36:50.000Z</time>
      </trkpt>
      <trkpt lat="47.28172" lon="-2.35928">
        <ele>8</ele>
        <time>2022-07-21T09:36:51.000Z</time>
      </trkpt>
      <trkpt lat="47.28165" lon="-2.35916">
        <ele>8</ele>
        <time>2022-07-21T09:36:55.000Z</time>
      </trkpt>
      <trkpt lat="47.2815" lon="-2.35894">
        <ele>8</ele>
        <time>2022-07-21T09:37:02.000Z</time>
      </trkpt>
      <trkpt lat="47.28139" lon="-2.35875">
        <ele>8</ele>
        <time>2022-07-21T09:37:06.000Z</time>
      </trkpt>
      <trkpt lat="47.28123" lon="-2.35855">
        <ele>8</ele>
        <time>2022-07-21T09:37:10.000Z</time>
      </trkpt>
      <trkpt lat="47.28113" lon="-2.3584">
        <ele>8</ele>
        <time>2022-07-21T09:37:13.000Z</time>
      </trkpt>
      <trkpt lat="47.28103" lon="-2.35822">
        <ele>8</ele>
        <time>2022-07-21T09:37:16.000Z</time>
      </trkpt>
      <trkpt lat="47.28099" lon="-2.35816">
        <ele>8</ele>
        <time>2022-07-21T09:37:17.000Z</time>
      </trkpt>
      <trkpt lat="47.28098" lon="-2.35804">
        <ele>8</ele>
        <time>2022-07-21T09:37:19.000Z</time>
      </trkpt>
      <trkpt lat="47.281" lon="-2.35791">
        <ele>8</ele>
        <time>2022-07-21T09:37:21.000Z</time>
      </trkpt>
      <trkpt lat="47.28101" lon="-2.3578">
        <ele>8</ele>
        <time>2022-07-21T09:37:23.000Z</time>
      </trkpt>
      <trkpt lat="47.28102" lon="-2.35773">
        <ele>8.6000003814697</ele>
        <time>2022-07-21T09:37:24.000Z</time>
      </trkpt>
      <trkpt lat="47.28102" lon="-2.35767">
        <ele>9.3999996185303</ele>
        <time>2022-07-21T09:37:25.000Z</time>
      </trkpt>
      <trkpt lat="47.28102" lon="-2.35761">
        <ele>9.8000001907349</ele>
        <time>2022-07-21T09:37:26.000Z</time>
      </trkpt>
      <trkpt lat="47.28102" lon="-2.35755">
        <ele>10.199999809265</ele>
        <time>2022-07-21T09:37:27.000Z</time>
      </trkpt>
      <trkpt lat="47.28102" lon="-2.35748">
        <ele>10.199999809265</ele>
        <time>2022-07-21T09:37:28.000Z</time>
      </trkpt>
      <trkpt lat="47.28102" lon="-2.35741">
        <ele>10.199999809265</ele>
        <time>2022-07-21T09:37:29.000Z</time>
      </trkpt>
      <trkpt lat="47.28102" lon="-2.35725">
        <ele>10.60000038147</ele>
        <time>2022-07-21T09:37:32.000Z</time>
      </trkpt>
      <trkpt lat="47.28103" lon="-2.35718">
        <ele>11</ele>
        <time>2022-07-21T09:37:33.000Z</time>
      </trkpt>
      <trkpt lat="47.28102" lon="-2.35713">
        <ele>11.39999961853</ele>
        <time>2022-07-21T09:37:34.000Z</time>
      </trkpt>
      <trkpt lat="47.28101" lon="-2.35707">
        <ele>11.800000190735</ele>
        <time>2022-07-21T09:37:35.000Z</time>
      </trkpt>
      <trkpt lat="47.281" lon="-2.357">
        <ele>12.199999809265</ele>
        <time>2022-07-21T09:37:36.000Z</time>
      </trkpt>
      <trkpt lat="47.28093" lon="-2.35678">
        <ele>12.199999809265</ele>
        <time>2022-07-21T09:37:39.000Z</time>
      </trkpt>
      <trkpt lat="47.28089" lon="-2.35663">
        <ele>11.800000190735</ele>
        <time>2022-07-21T09:37:41.000Z</time>
      </trkpt>
      <trkpt lat="47.28087" lon="-2.35656">
        <ele>11.39999961853</ele>
        <time>2022-07-21T09:37:42.000Z</time>
      </trkpt>
      <trkpt lat="47.28086" lon="-2.35649">
        <ele>11</ele>
        <time>2022-07-21T09:37:43.000Z</time>
      </trkpt>
      <trkpt lat="47.28084" lon="-2.35641">
        <ele>10.39999961853</ele>
        <time>2022-07-21T09:37:44.000Z</time>
      </trkpt>
      <trkpt lat="47.28083" lon="-2.35635">
        <ele>9.8000001907349</ele>
        <time>2022-07-21T09:37:45.000Z</time>
      </trkpt>
      <trkpt lat="47.28083" lon="-2.3563">
        <ele>9.1999998092651</ele>
        <time>2022-07-21T09:37:46.000Z</time>
      </trkpt>
      <trkpt lat="47.28084" lon="-2.35627">
        <ele>8.6000003814697</ele>
        <time>2022-07-21T09:37:47.000Z</time>
      </trkpt>
      <trkpt lat="47.28085" lon="-2.35624">
        <ele>8</ele>
        <time>2022-07-21T09:37:48.000Z</time>
      </trkpt>
      <trkpt lat="47.28088" lon="-2.35622">
        <ele>7.4000000953674</ele>
        <time>2022-07-21T09:37:49.000Z</time>
      </trkpt>
      <trkpt lat="47.28089" lon="-2.35621">
        <ele>7</ele>
        <time>2022-07-21T09:37:50.000Z</time>
      </trkpt>
      <trkpt lat="47.28091" lon="-2.35623">
        <ele>6.5999999046326</ele>
        <time>2022-07-21T09:37:51.000Z</time>
      </trkpt>
      <trkpt lat="47.28093" lon="-2.35624">
        <ele>6.1999998092651</ele>
        <time>2022-07-21T09:37:52.000Z</time>
      </trkpt>
      <trkpt lat="47.28094" lon="-2.35625">
        <ele>5.8000001907349</ele>
        <time>2022-07-21T09:37:53.000Z</time>
      </trkpt>
      <trkpt lat="47.28095" lon="-2.35625">
        <ele>5.4000000953674</ele>
        <time>2022-07-21T09:37:54.000Z</time>
      </trkpt>
      <trkpt lat="47.28097" lon="-2.35626">
        <ele>5.4000000953674</ele>
        <time>2022-07-21T09:37:55.000Z</time>
      </trkpt>
      <trkpt lat="47.28098" lon="-2.35626">
        <ele>5.4000000953674</ele>
        <time>2022-07-21T09:37:57.000Z</time>
      </trkpt>
      <trkpt lat="47.2809" lon="-2.35621">
        <ele>-0.80000001192093</ele>
        <time>2022-07-21T10:01:56.000Z</time>
      </trkpt>
      <trkpt lat="47.28089" lon="-2.35619">
        <ele>-0.80000001192093</ele>
        <time>2022-07-21T10:01:57.000Z</time>
      </trkpt>
      <trkpt lat="47.28078" lon="-2.35609">
        <ele>-0.80000001192093</ele>
        <time>2022-07-21T10:02:03.000Z</time>
      </trkpt>
      <trkpt lat="47.28067" lon="-2.35609">
        <ele>-0.80000001192093</ele>
        <time>2022-07-21T10:02:09.000Z</time>
      </trkpt>
      <trkpt lat="47.28065" lon="-2.35609">
        <ele>-0.80000001192093</ele>
        <time>2022-07-21T10:02:11.000Z</time>
      </trkpt>
      <trkpt lat="47.28064" lon="-2.35608">
        <ele>-0.80000001192093</ele>
        <time>2022-07-21T10:02:14.000Z</time>
      </trkpt>
      <trkpt lat="47.28063" lon="-2.35607">
        <ele>-0.80000001192093</ele>
        <time>2022-07-21T10:02:15.000Z</time>
      </trkpt>
      <trkpt lat="47.28052" lon="-2.35604">
        <ele>-0.80000001192093</ele>
        <time>2022-07-21T10:02:19.000Z</time>
      </trkpt>
      <trkpt lat="47.28048" lon="-2.35603">
        <ele>-0.80000001192093</ele>
        <time>2022-07-21T10:02:20.000Z</time>
      </trkpt>
      <trkpt lat="47.28033" lon="-2.35598">
        <ele>-0.80000001192093</ele>
        <time>2022-07-21T10:02:24.000Z</time>
      </trkpt>
      <trkpt lat="47.2803" lon="-2.35594">
        <ele>-0.80000001192093</ele>
        <time>2022-07-21T10:02:25.000Z</time>
      </trkpt>
      <trkpt lat="47.28028" lon="-2.35579">
        <ele>-0.80000001192093</ele>
        <time>2022-07-21T10:02:29.000Z</time>
      </trkpt>
      <trkpt lat="47.28028" lon="-2.35568">
        <ele>-0.80000001192093</ele>
        <time>2022-07-21T10:02:35.000Z</time>
      </trkpt>
      <trkpt lat="47.2803" lon="-2.35567">
        <ele>-0.80000001192093</ele>
        <time>2022-07-21T10:02:38.000Z</time>
      </trkpt>
      <trkpt lat="47.28032" lon="-2.35563">
        <ele>-0.80000001192093</ele>
        <time>2022-07-21T10:03:30.000Z</time>
      </trkpt>
      <trkpt lat="47.28022" lon="-2.35558">
        <ele>-0.80000001192093</ele>
        <time>2022-07-21T10:03:34.000Z</time>
      </trkpt>
      <trkpt lat="47.28007" lon="-2.3556">
        <ele>-0.80000001192093</ele>
        <time>2022-07-21T10:03:38.000Z</time>
      </trkpt>
      <trkpt lat="47.2798" lon="-2.35568">
        <ele>-0.80000001192093</ele>
        <time>2022-07-21T10:03:44.000Z</time>
      </trkpt>
      <trkpt lat="47.2795" lon="-2.35581">
        <ele>-1.2000000476837</ele>
        <time>2022-07-21T10:03:50.000Z</time>
      </trkpt>
      <trkpt lat="47.27945" lon="-2.35583">
        <ele>-1.6000000238419</ele>
        <time>2022-07-21T10:03:51.000Z</time>
      </trkpt>
      <trkpt lat="47.2794" lon="-2.35584">
        <ele>-2</ele>
        <time>2022-07-21T10:03:52.000Z</time>
      </trkpt>
      <trkpt lat="47.27934" lon="-2.35585">
        <ele>-2.4000000953674</ele>
        <time>2022-07-21T10:03:53.000Z</time>
      </trkpt>
      <trkpt lat="47.27929" lon="-2.35586">
        <ele>-2.7999999523163</ele>
        <time>2022-07-21T10:03:54.000Z</time>
      </trkpt>
      <trkpt lat="47.27919" lon="-2.35589">
        <ele>-2.7999999523163</ele>
        <time>2022-07-21T10:03:56.000Z</time>
      </trkpt>
      <trkpt lat="47.27887" lon="-2.35597">
        <ele>-2.7999999523163</ele>
        <time>2022-07-21T10:04:02.000Z</time>
      </trkpt>
      <trkpt lat="47.2786" lon="-2.35604">
        <ele>-3.2000000476837</ele>
        <time>2022-07-21T10:04:06.000Z</time>
      </trkpt>
      <trkpt lat="47.27852" lon="-2.35606">
        <ele>-3.7999999523163</ele>
        <time>2022-07-21T10:04:07.000Z</time>
      </trkpt>
      <trkpt lat="47.27845" lon="-2.35609">
        <ele>-4.1999998092651</ele>
        <time>2022-07-21T10:04:08.000Z</time>
      </trkpt>
      <trkpt lat="47.27837" lon="-2.35611">
        <ele>-4.5999999046326</ele>
        <time>2022-07-21T10:04:09.000Z</time>
      </trkpt>
      <trkpt lat="47.2783" lon="-2.35613">
        <ele>-5</ele>
        <time>2022-07-21T10:04:10.000Z</time>
      </trkpt>
      <trkpt lat="47.27801" lon="-2.35621">
        <ele>-5</ele>
        <time>2022-07-21T10:04:14.000Z</time>
      </trkpt>
      <trkpt lat="47.27787" lon="-2.35627">
        <ele>-5.4000000953674</ele>
        <time>2022-07-21T10:04:16.000Z</time>
      </trkpt>
      <trkpt lat="47.2778" lon="-2.35631">
        <ele>-5.8000001907349</ele>
        <time>2022-07-21T10:04:17.000Z</time>
      </trkpt>
      <trkpt lat="47.27774" lon="-2.35635">
        <ele>-6.1999998092651</ele>
        <time>2022-07-21T10:04:18.000Z</time>
      </trkpt>
      <trkpt lat="47.27768" lon="-2.35641">
        <ele>-6.8000001907349</ele>
        <time>2022-07-21T10:04:19.000Z</time>
      </trkpt>
      <trkpt lat="47.27762" lon="-2.35646">
        <ele>-7.1999998092651</ele>
        <time>2022-07-21T10:04:20.000Z</time>
      </trkpt>
      <trkpt lat="47.27747" lon="-2.35666">
        <ele>-7.1999998092651</ele>
        <time>2022-07-21T10:04:23.000Z</time>
      </trkpt>
      <trkpt lat="47.27743" lon="-2.35673">
        <ele>-7.1999998092651</ele>
        <time>2022-07-21T10:04:24.000Z</time>
      </trkpt>
      <trkpt lat="47.27724" lon="-2.35701">
        <ele>-7.5999999046326</ele>
        <time>2022-07-21T10:04:29.000Z</time>
      </trkpt>
      <trkpt lat="47.2772" lon="-2.35707">
        <ele>-8</ele>
        <time>2022-07-21T10:04:30.000Z</time>
      </trkpt>
      <trkpt lat="47.27715" lon="-2.35713">
        <ele>-8.3999996185303</ele>
        <time>2022-07-21T10:04:31.000Z</time>
      </trkpt>
      <trkpt lat="47.2771" lon="-2.35718">
        <ele>-8.8000001907349</ele>
        <time>2022-07-21T10:04:32.000Z</time>
      </trkpt>
      <trkpt lat="47.27706" lon="-2.35723">
        <ele>-9.1999998092651</ele>
        <time>2022-07-21T10:04:33.000Z</time>
      </trkpt>
      <trkpt lat="47.27696" lon="-2.35731">
        <ele>-9.1999998092651</ele>
        <time>2022-07-21T10:04:35.000Z</time>
      </trkpt>
      <trkpt lat="47.27686" lon="-2.35739">
        <ele>-9.1999998092651</ele>
        <time>2022-07-21T10:04:37.000Z</time>
      </trkpt>
      <trkpt lat="47.27677" lon="-2.35747">
        <ele>-9.1999998092651</ele>
        <time>2022-07-21T10:04:39.000Z</time>
      </trkpt>
      <trkpt lat="47.27664" lon="-2.3574">
        <ele>-9.1999998092651</ele>
        <time>2022-07-21T10:04:42.000Z</time>
      </trkpt>
      <trkpt lat="47.2766" lon="-2.35734">
        <ele>-9.1999998092651</ele>
        <time>2022-07-21T10:04:43.000Z</time>
      </trkpt>
      <trkpt lat="47.27655" lon="-2.35729">
        <ele>-9.1999998092651</ele>
        <time>2022-07-21T10:04:44.000Z</time>
      </trkpt>
      <trkpt lat="47.27649" lon="-2.35726">
        <ele>-9.6000003814697</ele>
        <time>2022-07-21T10:04:45.000Z</time>
      </trkpt>
      <trkpt lat="47.27643" lon="-2.35723">
        <ele>-10</ele>
        <time>2022-07-21T10:04:46.000Z</time>
      </trkpt>
      <trkpt lat="47.27637" lon="-2.35721">
        <ele>-10.60000038147</ele>
        <time>2022-07-21T10:04:47.000Z</time>
      </trkpt>
      <trkpt lat="47.2763" lon="-2.35719">
        <ele>-11</ele>
        <time>2022-07-21T10:04:48.000Z</time>
      </trkpt>
      <trkpt lat="47.27624" lon="-2.35717">
        <ele>-11.39999961853</ele>
        <time>2022-07-21T10:04:49.000Z</time>
      </trkpt>
      <trkpt lat="47.27617" lon="-2.35716">
        <ele>-11.39999961853</ele>
        <time>2022-07-21T10:04:50.000Z</time>
      </trkpt>
      <trkpt lat="47.27571" lon="-2.35705">
        <ele>-11.39999961853</ele>
        <time>2022-07-21T10:04:57.000Z</time>
      </trkpt>
      <trkpt lat="47.27552" lon="-2.35698">
        <ele>-11.800000190735</ele>
        <time>2022-07-21T10:05:00.000Z</time>
      </trkpt>
      <trkpt lat="47.27545" lon="-2.35697">
        <ele>-12.199999809265</ele>
        <time>2022-07-21T10:05:01.000Z</time>
      </trkpt>
      <trkpt lat="47.27539" lon="-2.35695">
        <ele>-13</ele>
        <time>2022-07-21T10:05:02.000Z</time>
      </trkpt>
      <trkpt lat="47.27533" lon="-2.35694">
        <ele>-13.39999961853</ele>
        <time>2022-07-21T10:05:03.000Z</time>
      </trkpt>
      <trkpt lat="47.2752" lon="-2.35692">
        <ele>-13.39999961853</ele>
        <time>2022-07-21T10:05:05.000Z</time>
      </trkpt>
      <trkpt lat="47.27473" lon="-2.35681">
        <ele>-13.39999961853</ele>
        <time>2022-07-21T10:05:13.000Z</time>
      </trkpt>
      <trkpt lat="47.27435" lon="-2.35672">
        <ele>-13.800000190735</ele>
        <time>2022-07-21T10:05:20.000Z</time>
      </trkpt>
      <trkpt lat="47.2743" lon="-2.35671">
        <ele>-14.199999809265</ele>
        <time>2022-07-21T10:05:21.000Z</time>
      </trkpt>
      <trkpt lat="47.27424" lon="-2.3567">
        <ele>-14.60000038147</ele>
        <time>2022-07-21T10:05:22.000Z</time>
      </trkpt>
      <trkpt lat="47.27419" lon="-2.35669">
        <ele>-15</ele>
        <time>2022-07-21T10:05:23.000Z</time>
      </trkpt>
      <trkpt lat="47.27413" lon="-2.35669">
        <ele>-15.39999961853</ele>
        <time>2022-07-21T10:05:24.000Z</time>
      </trkpt>
      <trkpt lat="47.27401" lon="-2.35672">
        <ele>-15.39999961853</ele>
        <time>2022-07-21T10:05:26.000Z</time>
      </trkpt>
      <trkpt lat="47.27396" lon="-2.35675">
        <ele>-15.39999961853</ele>
        <time>2022-07-21T10:05:27.000Z</time>
      </trkpt>
      <trkpt lat="47.27368" lon="-2.35694">
        <ele>-15.39999961853</ele>
        <time>2022-07-21T10:05:32.000Z</time>
      </trkpt>
      <trkpt lat="47.27344" lon="-2.35712">
        <ele>-15.39999961853</ele>
        <time>2022-07-21T10:05:37.000Z</time>
      </trkpt>
      <trkpt lat="47.2734" lon="-2.35716">
        <ele>-15.39999961853</ele>
        <time>2022-07-21T10:05:38.000Z</time>
      </trkpt>
      <trkpt lat="47.27331" lon="-2.35724">
        <ele>-15.39999961853</ele>
        <time>2022-07-21T10:05:40.000Z</time>
      </trkpt>
      <trkpt lat="47.2732" lon="-2.35739">
        <ele>-15.39999961853</ele>
        <time>2022-07-21T10:05:43.000Z</time>
      </trkpt>
      <trkpt lat="47.27309" lon="-2.35739">
        <ele>-15.39999961853</ele>
        <time>2022-07-21T10:05:46.000Z</time>
      </trkpt>
      <trkpt lat="47.27301" lon="-2.35724">
        <ele>-15.39999961853</ele>
        <time>2022-07-21T10:05:49.000Z</time>
      </trkpt>
      <trkpt lat="47.273" lon="-2.35718">
        <ele>-15.39999961853</ele>
        <time>2022-07-21T10:05:50.000Z</time>
      </trkpt>
      <trkpt lat="47.27284" lon="-2.35677">
        <ele>-15.39999961853</ele>
        <time>2022-07-21T10:05:58.000Z</time>
      </trkpt>
      <trkpt lat="47.27266" lon="-2.35636">
        <ele>-15.39999961853</ele>
        <time>2022-07-21T10:06:07.000Z</time>
      </trkpt>
      <trkpt lat="47.27248" lon="-2.35598">
        <ele>-15.39999961853</ele>
        <time>2022-07-21T10:06:15.000Z</time>
      </trkpt>
      <trkpt lat="47.27239" lon="-2.35579">
        <ele>-15</ele>
        <time>2022-07-21T10:06:19.000Z</time>
      </trkpt>
      <trkpt lat="47.27236" lon="-2.35574">
        <ele>-14.60000038147</ele>
        <time>2022-07-21T10:06:20.000Z</time>
      </trkpt>
      <trkpt lat="47.27234" lon="-2.35569">
        <ele>-14.199999809265</ele>
        <time>2022-07-21T10:06:21.000Z</time>
      </trkpt>
      <trkpt lat="47.27231" lon="-2.35564">
        <ele>-13.800000190735</ele>
        <time>2022-07-21T10:06:22.000Z</time>
      </trkpt>
      <trkpt lat="47.27229" lon="-2.35558">
        <ele>-13.39999961853</ele>
        <time>2022-07-21T10:06:23.000Z</time>
      </trkpt>
      <trkpt lat="47.27216" lon="-2.35528">
        <ele>-13.39999961853</ele>
        <time>2022-07-21T10:06:29.000Z</time>
      </trkpt>
      <trkpt lat="47.27195" lon="-2.35484">
        <ele>-13.39999961853</ele>
        <time>2022-07-21T10:06:37.000Z</time>
      </trkpt>
      <trkpt lat="47.27166" lon="-2.35428">
        <ele>-13.39999961853</ele>
        <time>2022-07-21T10:06:47.000Z</time>
      </trkpt>
      <trkpt lat="47.27151" lon="-2.35397">
        <ele>-13.39999961853</ele>
        <time>2022-07-21T10:06:53.000Z</time>
      </trkpt>
      <trkpt lat="47.27131" lon="-2.3536">
        <ele>-13.39999961853</ele>
        <time>2022-07-21T10:07:00.000Z</time>
      </trkpt>
      <trkpt lat="47.2712" lon="-2.3534">
        <ele>-13.39999961853</ele>
        <time>2022-07-21T10:07:03.000Z</time>
      </trkpt>
      <trkpt lat="47.27111" lon="-2.3533">
        <ele>-13.39999961853</ele>
        <time>2022-07-21T10:07:05.000Z</time>
      </trkpt>
      <trkpt lat="47.27102" lon="-2.35318">
        <ele>-13.39999961853</ele>
        <time>2022-07-21T10:07:07.000Z</time>
      </trkpt>
      <trkpt lat="47.2709" lon="-2.35299">
        <ele>-13.39999961853</ele>
        <time>2022-07-21T10:07:10.000Z</time>
      </trkpt>
      <trkpt lat="47.27059" lon="-2.35251">
        <ele>-13.39999961853</ele>
        <time>2022-07-21T10:07:18.000Z</time>
      </trkpt>
      <trkpt lat="47.27046" lon="-2.35226">
        <ele>-13.39999961853</ele>
        <time>2022-07-21T10:07:22.000Z</time>
      </trkpt>
      <trkpt lat="47.27038" lon="-2.35216">
        <ele>-13.39999961853</ele>
        <time>2022-07-21T10:07:24.000Z</time>
      </trkpt>
      <trkpt lat="47.27011" lon="-2.35172">
        <ele>-13.39999961853</ele>
        <time>2022-07-21T10:07:32.000Z</time>
      </trkpt>
      <trkpt lat="47.26989" lon="-2.3514">
        <ele>-13.39999961853</ele>
        <time>2022-07-21T10:07:39.000Z</time>
      </trkpt>
      <trkpt lat="47.26958" lon="-2.3509">
        <ele>-13.39999961853</ele>
        <time>2022-07-21T10:07:49.000Z</time>
      </trkpt>
      <trkpt lat="47.26942" lon="-2.3507">
        <ele>-13.39999961853</ele>
        <time>2022-07-21T10:07:54.000Z</time>
      </trkpt>
      <trkpt lat="47.26925" lon="-2.35044">
        <ele>-13.39999961853</ele>
        <time>2022-07-21T10:08:01.000Z</time>
      </trkpt>
      <trkpt lat="47.26907" lon="-2.35018">
        <ele>-13.39999961853</ele>
        <time>2022-07-21T10:08:09.000Z</time>
      </trkpt>
      <trkpt lat="47.26899" lon="-2.35008">
        <ele>-13.39999961853</ele>
        <time>2022-07-21T10:08:12.000Z</time>
      </trkpt>
      <trkpt lat="47.26893" lon="-2.34997">
        <ele>-13.39999961853</ele>
        <time>2022-07-21T10:08:14.000Z</time>
      </trkpt>
      <trkpt lat="47.26874" lon="-2.34965">
        <ele>-13.39999961853</ele>
        <time>2022-07-21T10:08:19.000Z</time>
      </trkpt>
      <trkpt lat="47.26847" lon="-2.34925">
        <ele>-13.39999961853</ele>
        <time>2022-07-21T10:08:24.000Z</time>
      </trkpt>
      <trkpt lat="47.26809" lon="-2.34867">
        <ele>-13.39999961853</ele>
        <time>2022-07-21T10:08:31.000Z</time>
      </trkpt>
      <trkpt lat="47.26804" lon="-2.3486">
        <ele>-13.39999961853</ele>
        <time>2022-07-21T10:08:32.000Z</time>
      </trkpt>
      <trkpt lat="47.26787" lon="-2.34837">
        <ele>-13.39999961853</ele>
        <time>2022-07-21T10:08:36.000Z</time>
      </trkpt>
      <trkpt lat="47.26775" lon="-2.34818">
        <ele>-13.39999961853</ele>
        <time>2022-07-21T10:08:41.000Z</time>
      </trkpt>
      <trkpt lat="47.26759" lon="-2.34801">
        <ele>-13.39999961853</ele>
        <time>2022-07-21T10:08:46.000Z</time>
      </trkpt>
      <trkpt lat="47.26754" lon="-2.34795">
        <ele>-13.39999961853</ele>
        <time>2022-07-21T10:08:52.000Z</time>
      </trkpt>
      <trkpt lat="47.26746" lon="-2.34785">
        <ele>-13.39999961853</ele>
        <time>2022-07-21T10:08:56.000Z</time>
      </trkpt>
      <trkpt lat="47.26727" lon="-2.34762">
        <ele>-13.39999961853</ele>
        <time>2022-07-21T10:09:01.000Z</time>
      </trkpt>
      <trkpt lat="47.26693" lon="-2.3472">
        <ele>-13.39999961853</ele>
        <time>2022-07-21T10:09:10.000Z</time>
      </trkpt>
      <trkpt lat="47.26658" lon="-2.34677">
        <ele>-13.39999961853</ele>
        <time>2022-07-21T10:09:19.000Z</time>
      </trkpt>
      <trkpt lat="47.2663" lon="-2.34643">
        <ele>-13.39999961853</ele>
        <time>2022-07-21T10:09:26.000Z</time>
      </trkpt>
      <trkpt lat="47.26608" lon="-2.34615">
        <ele>-13.39999961853</ele>
        <time>2022-07-21T10:09:32.000Z</time>
      </trkpt>
      <trkpt lat="47.2659" lon="-2.34594">
        <ele>-13.39999961853</ele>
        <time>2022-07-21T10:09:38.000Z</time>
      </trkpt>
      <trkpt lat="47.26568" lon="-2.3457">
        <ele>-13.39999961853</ele>
        <time>2022-07-21T10:09:44.000Z</time>
      </trkpt>
      <trkpt lat="47.26538" lon="-2.34538">
        <ele>-13.39999961853</ele>
        <time>2022-07-21T10:09:51.000Z</time>
      </trkpt>
      <trkpt lat="47.2652" lon="-2.34523">
        <ele>-13.39999961853</ele>
        <time>2022-07-21T10:09:55.000Z</time>
      </trkpt>
      <trkpt lat="47.26515" lon="-2.34519">
        <ele>-13.39999961853</ele>
        <time>2022-07-21T10:09:56.000Z</time>
      </trkpt>
      <trkpt lat="47.2648" lon="-2.34495">
        <ele>-13.39999961853</ele>
        <time>2022-07-21T10:10:03.000Z</time>
      </trkpt>
      <trkpt lat="47.26437" lon="-2.34465">
        <ele>-13.39999961853</ele>
        <time>2022-07-21T10:10:12.000Z</time>
      </trkpt>
      <trkpt lat="47.26403" lon="-2.34439">
        <ele>-13.39999961853</ele>
        <time>2022-07-21T10:10:19.000Z</time>
      </trkpt>
      <trkpt lat="47.26363" lon="-2.34404">
        <ele>-13.39999961853</ele>
        <time>2022-07-21T10:10:28.000Z</time>
      </trkpt>
      <trkpt lat="47.26341" lon="-2.34383">
        <ele>-13.39999961853</ele>
        <time>2022-07-21T10:10:34.000Z</time>
      </trkpt>
      <trkpt lat="47.26337" lon="-2.34382">
        <ele>-13.39999961853</ele>
        <time>2022-07-21T10:10:35.000Z</time>
      </trkpt>
      <trkpt lat="47.26322" lon="-2.34377">
        <ele>-13.39999961853</ele>
        <time>2022-07-21T10:10:39.000Z</time>
      </trkpt>
      <trkpt lat="47.2632" lon="-2.34374">
        <ele>-13.39999961853</ele>
        <time>2022-07-21T10:10:40.000Z</time>
      </trkpt>
      <trkpt lat="47.26317" lon="-2.34367">
        <ele>-13.39999961853</ele>
        <time>2022-07-21T10:10:45.000Z</time>
      </trkpt>
      <trkpt lat="47.26305" lon="-2.3435">
        <ele>-13.39999961853</ele>
        <time>2022-07-21T10:10:50.000Z</time>
      </trkpt>
      <trkpt lat="47.26282" lon="-2.34327">
        <ele>-13.39999961853</ele>
        <time>2022-07-21T10:10:55.000Z</time>
      </trkpt>
      <trkpt lat="47.26247" lon="-2.34289">
        <ele>-13.39999961853</ele>
        <time>2022-07-21T10:11:02.000Z</time>
      </trkpt>
      <trkpt lat="47.26203" lon="-2.3424">
        <ele>-13.39999961853</ele>
        <time>2022-07-21T10:11:11.000Z</time>
      </trkpt>
      <trkpt lat="47.26157" lon="-2.34195">
        <ele>-13.39999961853</ele>
        <time>2022-07-21T10:11:20.000Z</time>
      </trkpt>
      <trkpt lat="47.26147" lon="-2.34187">
        <ele>-13.39999961853</ele>
        <time>2022-07-21T10:11:22.000Z</time>
      </trkpt>
      <trkpt lat="47.26131" lon="-2.3418">
        <ele>-13.39999961853</ele>
        <time>2022-07-21T10:11:25.000Z</time>
      </trkpt>
      <trkpt lat="47.26117" lon="-2.34165">
        <ele>-13.39999961853</ele>
        <time>2022-07-21T10:11:29.000Z</time>
      </trkpt>
      <trkpt lat="47.26107" lon="-2.34159">
        <ele>-13.39999961853</ele>
        <time>2022-07-21T10:11:31.000Z</time>
      </trkpt>
      <trkpt lat="47.26095" lon="-2.34153">
        <ele>-13.39999961853</ele>
        <time>2022-07-21T10:11:33.000Z</time>
      </trkpt>
      <trkpt lat="47.26043" lon="-2.34126">
        <ele>-13.39999961853</ele>
        <time>2022-07-21T10:11:41.000Z</time>
      </trkpt>
      <trkpt lat="47.25988" lon="-2.341">
        <ele>-13.39999961853</ele>
        <time>2022-07-21T10:11:49.000Z</time>
      </trkpt>
      <trkpt lat="47.25946" lon="-2.34081">
        <ele>-13.39999961853</ele>
        <time>2022-07-21T10:11:56.000Z</time>
      </trkpt>
      <trkpt lat="47.25923" lon="-2.34075">
        <ele>-13.39999961853</ele>
        <time>2022-07-21T10:12:00.000Z</time>
      </trkpt>
      <trkpt lat="47.25912" lon="-2.34073">
        <ele>-13.39999961853</ele>
        <time>2022-07-21T10:12:02.000Z</time>
      </trkpt>
      <trkpt lat="47.25898" lon="-2.34058">
        <ele>-13.39999961853</ele>
        <time>2022-07-21T10:12:05.000Z</time>
      </trkpt>
      <trkpt lat="47.25898" lon="-2.34033">
        <ele>-13.39999961853</ele>
        <time>2022-07-21T10:12:08.000Z</time>
      </trkpt>
      <trkpt lat="47.25905" lon="-2.3402">
        <ele>-13.39999961853</ele>
        <time>2022-07-21T10:12:11.000Z</time>
      </trkpt>
      <trkpt lat="47.25908" lon="-2.34007">
        <ele>-13.39999961853</ele>
        <time>2022-07-21T10:12:14.000Z</time>
      </trkpt>
      <trkpt lat="47.25908" lon="-2.34005">
        <ele>-13.39999961853</ele>
        <time>2022-07-21T10:12:15.000Z</time>
      </trkpt>
      <trkpt lat="47.2591" lon="-2.33995">
        <ele>-13.39999961853</ele>
        <time>2022-07-21T10:12:20.000Z</time>
      </trkpt>
      <trkpt lat="47.25912" lon="-2.33987">
        <ele>-13.39999961853</ele>
        <time>2022-07-21T10:12:22.000Z</time>
      </trkpt>
      <trkpt lat="47.25918" lon="-2.33971">
        <ele>-13.39999961853</ele>
        <time>2022-07-21T10:12:25.000Z</time>
      </trkpt>
      <trkpt lat="47.25927" lon="-2.33946">
        <ele>-13.800000190735</ele>
        <time>2022-07-21T10:12:29.000Z</time>
      </trkpt>
      <trkpt lat="47.25931" lon="-2.3394">
        <ele>-14.199999809265</ele>
        <time>2022-07-21T10:12:30.000Z</time>
      </trkpt>
      <trkpt lat="47.25934" lon="-2.33935">
        <ele>-14.60000038147</ele>
        <time>2022-07-21T10:12:31.000Z</time>
      </trkpt>
      <trkpt lat="47.25937" lon="-2.3393">
        <ele>-15</ele>
        <time>2022-07-21T10:12:32.000Z</time>
      </trkpt>
      <trkpt lat="47.25941" lon="-2.33926">
        <ele>-15.39999961853</ele>
        <time>2022-07-21T10:12:33.000Z</time>
      </trkpt>
      <trkpt lat="47.25946" lon="-2.3391">
        <ele>-15.39999961853</ele>
        <time>2022-07-21T10:12:36.000Z</time>
      </trkpt>
      <trkpt lat="47.25951" lon="-2.33901">
        <ele>-15.39999961853</ele>
        <time>2022-07-21T10:12:38.000Z</time>
      </trkpt>
      <trkpt lat="47.25954" lon="-2.33899">
        <ele>-15.39999961853</ele>
        <time>2022-07-21T10:12:39.000Z</time>
      </trkpt>
      <trkpt lat="47.25964" lon="-2.33905">
        <ele>-15.39999961853</ele>
        <time>2022-07-21T10:12:42.000Z</time>
      </trkpt>
      <trkpt lat="47.25969" lon="-2.33901">
        <ele>-15.39999961853</ele>
        <time>2022-07-21T10:12:45.000Z</time>
      </trkpt>
      <trkpt lat="47.2597" lon="-2.33897">
        <ele>-15.39999961853</ele>
        <time>2022-07-21T10:12:46.000Z</time>
      </trkpt>
      <trkpt lat="47.25976" lon="-2.33879">
        <ele>-15.39999961853</ele>
        <time>2022-07-21T10:12:50.000Z</time>
      </trkpt>
      <trkpt lat="47.25989" lon="-2.33844">
        <ele>-15.39999961853</ele>
        <time>2022-07-21T10:12:56.000Z</time>
      </trkpt>
      <trkpt lat="47.26004" lon="-2.33798">
        <ele>-15.39999961853</ele>
        <time>2022-07-21T10:13:03.000Z</time>
      </trkpt>
      <trkpt lat="47.26012" lon="-2.33775">
        <ele>-15.39999961853</ele>
        <time>2022-07-21T10:13:07.000Z</time>
      </trkpt>
      <trkpt lat="47.26018" lon="-2.33759">
        <ele>-15.39999961853</ele>
        <time>2022-07-21T10:13:10.000Z</time>
      </trkpt>
      <trkpt lat="47.2603" lon="-2.3373">
        <ele>-15.39999961853</ele>
        <time>2022-07-21T10:13:15.000Z</time>
      </trkpt>
      <trkpt lat="47.26032" lon="-2.33724">
        <ele>-15.39999961853</ele>
        <time>2022-07-21T10:13:16.000Z</time>
      </trkpt>
      <trkpt lat="47.26047" lon="-2.33686">
        <ele>-15.39999961853</ele>
        <time>2022-07-21T10:13:22.000Z</time>
      </trkpt>
      <trkpt lat="47.26049" lon="-2.3368">
        <ele>-15.39999961853</ele>
        <time>2022-07-21T10:13:23.000Z</time>
      </trkpt>
      <trkpt lat="47.26054" lon="-2.33665">
        <ele>-15.39999961853</ele>
        <time>2022-07-21T10:13:25.000Z</time>
      </trkpt>
      <trkpt lat="47.26061" lon="-2.33639">
        <ele>-15.39999961853</ele>
        <time>2022-07-21T10:13:28.000Z</time>
      </trkpt>
      <trkpt lat="47.26086" lon="-2.33567">
        <ele>-15.39999961853</ele>
        <time>2022-07-21T10:13:37.000Z</time>
      </trkpt>
      <trkpt lat="47.26102" lon="-2.3352">
        <ele>-15.39999961853</ele>
        <time>2022-07-21T10:13:43.000Z</time>
      </trkpt>
      <trkpt lat="47.26122" lon="-2.33471">
        <ele>-15.39999961853</ele>
        <time>2022-07-21T10:13:50.000Z</time>
      </trkpt>
      <trkpt lat="47.26132" lon="-2.33446">
        <ele>-15.39999961853</ele>
        <time>2022-07-21T10:13:55.000Z</time>
      </trkpt>
      <trkpt lat="47.26133" lon="-2.33429">
        <ele>-15.39999961853</ele>
        <time>2022-07-21T10:13:58.000Z</time>
      </trkpt>
      <trkpt lat="47.2613" lon="-2.33424">
        <ele>-15.39999961853</ele>
        <time>2022-07-21T10:13:59.000Z</time>
      </trkpt>
      <trkpt lat="47.26119" lon="-2.33411">
        <ele>-15.39999961853</ele>
        <time>2022-07-21T10:14:02.000Z</time>
      </trkpt>
      <trkpt lat="47.26115" lon="-2.33407">
        <ele>-15.39999961853</ele>
        <time>2022-07-21T10:14:03.000Z</time>
      </trkpt>
      <trkpt lat="47.26094" lon="-2.33378">
        <ele>-15.39999961853</ele>
        <time>2022-07-21T10:14:08.000Z</time>
      </trkpt>
      <trkpt lat="47.26077" lon="-2.33355">
        <ele>-15.39999961853</ele>
        <time>2022-07-21T10:14:12.000Z</time>
      </trkpt>
      <trkpt lat="47.26074" lon="-2.33348">
        <ele>-15.39999961853</ele>
        <time>2022-07-21T10:14:13.000Z</time>
      </trkpt>
      <trkpt lat="47.26061" lon="-2.33316">
        <ele>-15.39999961853</ele>
        <time>2022-07-21T10:14:17.000Z</time>
      </trkpt>
      <trkpt lat="47.26038" lon="-2.33248">
        <ele>-15.39999961853</ele>
        <time>2022-07-21T10:14:25.000Z</time>
      </trkpt>
      <trkpt lat="47.26019" lon="-2.33193">
        <ele>-15.39999961853</ele>
        <time>2022-07-21T10:14:32.000Z</time>
      </trkpt>
      <trkpt lat="47.26" lon="-2.33137">
        <ele>-15.39999961853</ele>
        <time>2022-07-21T10:14:39.000Z</time>
      </trkpt>
      <trkpt lat="47.25991" lon="-2.33106">
        <ele>-15.39999961853</ele>
        <time>2022-07-21T10:14:43.000Z</time>
      </trkpt>
      <trkpt lat="47.25989" lon="-2.33094">
        <ele>-15.39999961853</ele>
        <time>2022-07-21T10:14:45.000Z</time>
      </trkpt>
      <trkpt lat="47.25987" lon="-2.33088">
        <ele>-15.39999961853</ele>
        <time>2022-07-21T10:14:46.000Z</time>
      </trkpt>
      <trkpt lat="47.2598" lon="-2.33071">
        <ele>-15.39999961853</ele>
        <time>2022-07-21T10:14:49.000Z</time>
      </trkpt>
      <trkpt lat="47.25965" lon="-2.33037">
        <ele>-15.39999961853</ele>
        <time>2022-07-21T10:14:54.000Z</time>
      </trkpt>
      <trkpt lat="47.25948" lon="-2.32987">
        <ele>-15.39999961853</ele>
        <time>2022-07-21T10:15:01.000Z</time>
      </trkpt>
      <trkpt lat="47.25931" lon="-2.32935">
        <ele>-15.39999961853</ele>
        <time>2022-07-21T10:15:08.000Z</time>
      </trkpt>
      <trkpt lat="47.25912" lon="-2.32888">
        <ele>-15.39999961853</ele>
        <time>2022-07-21T10:15:14.000Z</time>
      </trkpt>
      <trkpt lat="47.25895" lon="-2.3284">
        <ele>-15.39999961853</ele>
        <time>2022-07-21T10:15:20.000Z</time>
      </trkpt>
      <trkpt lat="47.2587" lon="-2.32766">
        <ele>-15.39999961853</ele>
        <time>2022-07-21T10:15:29.000Z</time>
      </trkpt>
      <trkpt lat="47.25865" lon="-2.32742">
        <ele>-15.39999961853</ele>
        <time>2022-07-21T10:15:32.000Z</time>
      </trkpt>
      <trkpt lat="47.25866" lon="-2.32727">
        <ele>-15.39999961853</ele>
        <time>2022-07-21T10:15:34.000Z</time>
      </trkpt>
      <trkpt lat="47.25858" lon="-2.32707">
        <ele>-15.39999961853</ele>
        <time>2022-07-21T10:15:37.000Z</time>
      </trkpt>
      <trkpt lat="47.25846" lon="-2.32679">
        <ele>-15.39999961853</ele>
        <time>2022-07-21T10:15:41.000Z</time>
      </trkpt>
      <trkpt lat="47.25828" lon="-2.32611">
        <ele>-15.39999961853</ele>
        <time>2022-07-21T10:15:49.000Z</time>
      </trkpt>
      <trkpt lat="47.25811" lon="-2.32543">
        <ele>-15.39999961853</ele>
        <time>2022-07-21T10:15:57.000Z</time>
      </trkpt>
      <trkpt lat="47.25801" lon="-2.32496">
        <ele>-15.39999961853</ele>
        <time>2022-07-21T10:16:03.000Z</time>
      </trkpt>
      <trkpt lat="47.25798" lon="-2.32482">
        <ele>-15.39999961853</ele>
        <time>2022-07-21T10:16:05.000Z</time>
      </trkpt>
      <trkpt lat="47.258" lon="-2.3247">
        <ele>-15.39999961853</ele>
        <time>2022-07-21T10:16:07.000Z</time>
      </trkpt>
      <trkpt lat="47.25806" lon="-2.32461">
        <ele>-15.39999961853</ele>
        <time>2022-07-21T10:16:10.000Z</time>
      </trkpt>
      <trkpt lat="47.25815" lon="-2.32458">
        <ele>-15.39999961853</ele>
        <time>2022-07-21T10:16:14.000Z</time>
      </trkpt>
      <trkpt lat="47.25826" lon="-2.32466">
        <ele>-15.39999961853</ele>
        <time>2022-07-21T10:16:17.000Z</time>
      </trkpt>
      <trkpt lat="47.25831" lon="-2.32468">
        <ele>-15.39999961853</ele>
        <time>2022-07-21T10:16:18.000Z</time>
      </trkpt>
      <trkpt lat="47.25863" lon="-2.32473">
        <ele>-15.39999961853</ele>
        <time>2022-07-21T10:16:24.000Z</time>
      </trkpt>
      <trkpt lat="47.25868" lon="-2.32473">
        <ele>-15.39999961853</ele>
        <time>2022-07-21T10:16:25.000Z</time>
      </trkpt>
      <trkpt lat="47.25889" lon="-2.32469">
        <ele>-15.39999961853</ele>
        <time>2022-07-21T10:16:29.000Z</time>
      </trkpt>
      <trkpt lat="47.25895" lon="-2.32466">
        <ele>-15.39999961853</ele>
        <time>2022-07-21T10:16:30.000Z</time>
      </trkpt>
      <trkpt lat="47.25904" lon="-2.32457">
        <ele>-15.39999961853</ele>
        <time>2022-07-21T10:16:32.000Z</time>
      </trkpt>
      <trkpt lat="47.25912" lon="-2.32445">
        <ele>-15.39999961853</ele>
        <time>2022-07-21T10:16:34.000Z</time>
      </trkpt>
      <trkpt lat="47.25933" lon="-2.32416">
        <ele>-15.39999961853</ele>
        <time>2022-07-21T10:16:39.000Z</time>
      </trkpt>
      <trkpt lat="47.25966" lon="-2.32374">
        <ele>-15.39999961853</ele>
        <time>2022-07-21T10:16:47.000Z</time>
      </trkpt>
      <trkpt lat="47.25996" lon="-2.32337">
        <ele>-15.39999961853</ele>
        <time>2022-07-21T10:16:54.000Z</time>
      </trkpt>
      <trkpt lat="47.2602" lon="-2.32307">
        <ele>-15.39999961853</ele>
        <time>2022-07-21T10:17:00.000Z</time>
      </trkpt>
      <trkpt lat="47.26028" lon="-2.32297">
        <ele>-15.39999961853</ele>
        <time>2022-07-21T10:17:02.000Z</time>
      </trkpt>
      <trkpt lat="47.26046" lon="-2.32278">
        <ele>-15.39999961853</ele>
        <time>2022-07-21T10:17:06.000Z</time>
      </trkpt>
      <trkpt lat="47.26072" lon="-2.3225">
        <ele>-15.39999961853</ele>
        <time>2022-07-21T10:17:12.000Z</time>
      </trkpt>
      <trkpt lat="47.26095" lon="-2.32217">
        <ele>-15.39999961853</ele>
        <time>2022-07-21T10:17:18.000Z</time>
      </trkpt>
      <trkpt lat="47.26098" lon="-2.3221">
        <ele>-15.39999961853</ele>
        <time>2022-07-21T10:17:19.000Z</time>
      </trkpt>
      <trkpt lat="47.26119" lon="-2.32163">
        <ele>-15.39999961853</ele>
        <time>2022-07-21T10:17:26.000Z</time>
      </trkpt>
      <trkpt lat="47.26134" lon="-2.32119">
        <ele>-15.39999961853</ele>
        <time>2022-07-21T10:17:33.000Z</time>
      </trkpt>
      <trkpt lat="47.26149" lon="-2.32064">
        <ele>-15.39999961853</ele>
        <time>2022-07-21T10:17:40.000Z</time>
      </trkpt>
      <trkpt lat="47.26164" lon="-2.32024">
        <ele>-15.39999961853</ele>
        <time>2022-07-21T10:17:46.000Z</time>
      </trkpt>
      <trkpt lat="47.26177" lon="-2.32022">
        <ele>-15.39999961853</ele>
        <time>2022-07-21T10:17:49.000Z</time>
      </trkpt>
      <trkpt lat="47.26181" lon="-2.32024">
        <ele>-15.39999961853</ele>
        <time>2022-07-21T10:17:50.000Z</time>
      </trkpt>
      <trkpt lat="47.26191" lon="-2.32026">
        <ele>-15.39999961853</ele>
        <time>2022-07-21T10:17:54.000Z</time>
      </trkpt>
      <trkpt lat="47.26194" lon="-2.32025">
        <ele>-15.39999961853</ele>
        <time>2022-07-21T10:17:56.000Z</time>
      </trkpt>
      <trkpt lat="47.26194" lon="-2.32016">
        <ele>-15.39999961853</ele>
        <time>2022-07-21T10:17:58.000Z</time>
      </trkpt>
      <trkpt lat="47.26197" lon="-2.32004">
        <ele>-15.39999961853</ele>
        <time>2022-07-21T10:18:02.000Z</time>
      </trkpt>
      <trkpt lat="47.26202" lon="-2.31999">
        <ele>-15.39999961853</ele>
        <time>2022-07-21T10:18:04.000Z</time>
      </trkpt>
      <trkpt lat="47.26208" lon="-2.31994">
        <ele>-15.39999961853</ele>
        <time>2022-07-21T10:18:06.000Z</time>
      </trkpt>
      <trkpt lat="47.26216" lon="-2.31985">
        <ele>-15.39999961853</ele>
        <time>2022-07-21T10:18:08.000Z</time>
      </trkpt>
      <trkpt lat="47.26229" lon="-2.31973">
        <ele>-15.39999961853</ele>
        <time>2022-07-21T10:18:11.000Z</time>
      </trkpt>
      <trkpt lat="47.26234" lon="-2.3197">
        <ele>-15.39999961853</ele>
        <time>2022-07-21T10:18:12.000Z</time>
      </trkpt>
      <trkpt lat="47.26245" lon="-2.31954">
        <ele>-15.39999961853</ele>
        <time>2022-07-21T10:18:16.000Z</time>
      </trkpt>
      <trkpt lat="47.26256" lon="-2.31936">
        <ele>-15.39999961853</ele>
        <time>2022-07-21T10:18:20.000Z</time>
      </trkpt>
      <trkpt lat="47.26263" lon="-2.31921">
        <ele>-15.39999961853</ele>
        <time>2022-07-21T10:18:24.000Z</time>
      </trkpt>
      <trkpt lat="47.26276" lon="-2.31906">
        <ele>-15.39999961853</ele>
        <time>2022-07-21T10:18:28.000Z</time>
      </trkpt>
      <trkpt lat="47.26279" lon="-2.31904">
        <ele>-15.39999961853</ele>
        <time>2022-07-21T10:18:29.000Z</time>
      </trkpt>
      <trkpt lat="47.26284" lon="-2.31901">
        <ele>-15.39999961853</ele>
        <time>2022-07-21T10:18:30.000Z</time>
      </trkpt>
      <trkpt lat="47.2629" lon="-2.31893">
        <ele>-15.39999961853</ele>
        <time>2022-07-21T10:18:32.000Z</time>
      </trkpt>
      <trkpt lat="47.26293" lon="-2.31875">
        <ele>-15.39999961853</ele>
        <time>2022-07-21T10:18:35.000Z</time>
      </trkpt>
      <trkpt lat="47.26297" lon="-2.31848">
        <ele>-15.39999961853</ele>
        <time>2022-07-21T10:18:39.000Z</time>
      </trkpt>
      <trkpt lat="47.26298" lon="-2.31841">
        <ele>-15.39999961853</ele>
        <time>2022-07-21T10:18:40.000Z</time>
      </trkpt>
      <trkpt lat="47.263" lon="-2.31819">
        <ele>-15.39999961853</ele>
        <time>2022-07-21T10:18:44.000Z</time>
      </trkpt>
      <trkpt lat="47.26302" lon="-2.31794">
        <ele>-15.39999961853</ele>
        <time>2022-07-21T10:18:48.000Z</time>
      </trkpt>
      <trkpt lat="47.26302" lon="-2.31753">
        <ele>-15.39999961853</ele>
        <time>2022-07-21T10:18:54.000Z</time>
      </trkpt>
      <trkpt lat="47.263" lon="-2.31736">
        <ele>-15</ele>
        <time>2022-07-21T10:18:57.000Z</time>
      </trkpt>
      <trkpt lat="47.263" lon="-2.3173">
        <ele>-14.60000038147</ele>
        <time>2022-07-21T10:18:58.000Z</time>
      </trkpt>
      <trkpt lat="47.26302" lon="-2.31723">
        <ele>-14.199999809265</ele>
        <time>2022-07-21T10:18:59.000Z</time>
      </trkpt>
      <trkpt lat="47.26305" lon="-2.3172">
        <ele>-13.800000190735</ele>
        <time>2022-07-21T10:19:00.000Z</time>
      </trkpt>
      <trkpt lat="47.26308" lon="-2.31718">
        <ele>-13.39999961853</ele>
        <time>2022-07-21T10:19:01.000Z</time>
      </trkpt>
      <trkpt lat="47.26312" lon="-2.31716">
        <ele>-13.39999961853</ele>
        <time>2022-07-21T10:19:02.000Z</time>
      </trkpt>
      <trkpt lat="47.26328" lon="-2.31705">
        <ele>-13.39999961853</ele>
        <time>2022-07-21T10:19:07.000Z</time>
      </trkpt>
      <trkpt lat="47.26331" lon="-2.31696">
        <ele>-13.39999961853</ele>
        <time>2022-07-21T10:19:09.000Z</time>
      </trkpt>
      <trkpt lat="47.26333" lon="-2.31692">
        <ele>-13.39999961853</ele>
        <time>2022-07-21T10:19:10.000Z</time>
      </trkpt>
      <trkpt lat="47.2634" lon="-2.31687">
        <ele>-13</ele>
        <time>2022-07-21T10:19:13.000Z</time>
      </trkpt>
      <trkpt lat="47.26344" lon="-2.31685">
        <ele>-12.60000038147</ele>
        <time>2022-07-21T10:19:14.000Z</time>
      </trkpt>
      <trkpt lat="47.26347" lon="-2.31683">
        <ele>-12.199999809265</ele>
        <time>2022-07-21T10:19:15.000Z</time>
      </trkpt>
      <trkpt lat="47.2635" lon="-2.31681">
        <ele>-11.60000038147</ele>
        <time>2022-07-21T10:19:16.000Z</time>
      </trkpt>
      <trkpt lat="47.26354" lon="-2.3168">
        <ele>-11.199999809265</ele>
        <time>2022-07-21T10:19:17.000Z</time>
      </trkpt>
      <trkpt lat="47.26357" lon="-2.31678">
        <ele>-11.199999809265</ele>
        <time>2022-07-21T10:19:18.000Z</time>
      </trkpt>
      <trkpt lat="47.26379" lon="-2.31667">
        <ele>-11.199999809265</ele>
        <time>2022-07-21T10:19:25.000Z</time>
      </trkpt>
      <trkpt lat="47.26393" lon="-2.31659">
        <ele>-11.199999809265</ele>
        <time>2022-07-21T10:19:30.000Z</time>
      </trkpt>
      <trkpt lat="47.26409" lon="-2.31647">
        <ele>-11.199999809265</ele>
        <time>2022-07-21T10:19:36.000Z</time>
      </trkpt>
      <trkpt lat="47.26409" lon="-2.31634">
        <ele>-10.800000190735</ele>
        <time>2022-07-21T10:19:39.000Z</time>
      </trkpt>
      <trkpt lat="47.26409" lon="-2.3163">
        <ele>-10.39999961853</ele>
        <time>2022-07-21T10:19:40.000Z</time>
      </trkpt>
      <trkpt lat="47.2641" lon="-2.31625">
        <ele>-10</ele>
        <time>2022-07-21T10:19:41.000Z</time>
      </trkpt>
      <trkpt lat="47.2641" lon="-2.3162">
        <ele>-9.6000003814697</ele>
        <time>2022-07-21T10:19:42.000Z</time>
      </trkpt>
      <trkpt lat="47.2641" lon="-2.31616">
        <ele>-9.1999998092651</ele>
        <time>2022-07-21T10:19:43.000Z</time>
      </trkpt>
      <trkpt lat="47.26409" lon="-2.31607">
        <ele>-9.1999998092651</ele>
        <time>2022-07-21T10:19:45.000Z</time>
      </trkpt>
      <trkpt lat="47.2641" lon="-2.31572">
        <ele>-9.1999998092651</ele>
        <time>2022-07-21T10:19:53.000Z</time>
      </trkpt>
      <trkpt lat="47.26412" lon="-2.31556">
        <ele>-9.1999998092651</ele>
        <time>2022-07-21T10:19:58.000Z</time>
      </trkpt>
      <trkpt lat="47.26417" lon="-2.31555">
        <ele>-9.1999998092651</ele>
        <time>2022-07-21T10:20:02.000Z</time>
      </trkpt>
      <trkpt lat="47.26418" lon="-2.31553">
        <ele>-9.1999998092651</ele>
        <time>2022-07-21T10:20:04.000Z</time>
      </trkpt>
    </trkseg>
  </trk>
</gpx>